<?xml version="1.0" encoding="UTF-8" standalone="no" ?>
<gpx xmlns="http://www.topografix.com/GPX/1/1" xmlns:xsi="http://www.w3.org/2001/XMLSchema-instance" xsi:schemaLocation="http://www.topografix.com/GPX/1/1 http://www.topografix.com/GPX/1/1/gpx.xsd" version="1.1" creator="VisuGPX - https://www.visugpx.com">
  <metadata>
    <name>OC-Gif-Baie-de-Somme_J2</name>
    <desc><![CDATA[Aller/retour entre Saint-Valéry-sur-Somme et Le Hourdel.]]></desc>
  </metadata>
  <trk>
    <name><![CDATA[2023-06-11 14:21]]></name>
    <desc><![CDATA[<p>Heure de départ: 06/11/2023 15:21<br/>Heure d'arrivée: 06/11/2023 19:58<br/>Distance: 24,8 km (04:36)<br/>Temps déplacement: 01:59<br/>Vitesse moyenne: 5,38 km/h<br/>Vitesse moyenne mouv.: 12,45 km/h<br/>Vitesse Max.: 33,8 km/h<br/>Altitude minimale: 48 m<br/>Altitude maximale: 92 m<br/>Vitesse de montée: 104,7 m/h<br/>Vitesse de descente: -56,6 m/h<br/>Gain d'altitude: 160 m<br/>Perte d'altitude: -153 m<br/>Temps de montée: 01:32<br/>Temps de descente: 02:42<br/></p><hr align="center" width="480" style="height: 2px; width: 517px"/>]]></desc>
    <trkseg>
      <trkpt lat="50.17543" lon="1.63948">
        <ele>22.4</ele>
        <time>2023-06-11T12:21:50Z</time>
      </trkpt>
      <trkpt lat="50.17551" lon="1.63961">
        <ele>21.7</ele>
        <time>2023-06-11T12:21:52Z</time>
      </trkpt>
      <trkpt lat="50.1756" lon="1.63974">
        <ele>21</ele>
        <time>2023-06-11T12:21:54Z</time>
      </trkpt>
      <trkpt lat="50.17567" lon="1.63986">
        <ele>20.8</ele>
        <time>2023-06-11T12:21:56Z</time>
      </trkpt>
      <trkpt lat="50.17576" lon="1.63999">
        <ele>20.3</ele>
        <time>2023-06-11T12:21:58Z</time>
      </trkpt>
      <trkpt lat="50.17584" lon="1.64013">
        <ele>20</ele>
        <time>2023-06-11T12:22:00Z</time>
      </trkpt>
      <trkpt lat="50.17591" lon="1.64026">
        <ele>20</ele>
        <time>2023-06-11T12:22:02Z</time>
      </trkpt>
      <trkpt lat="50.176" lon="1.64041">
        <ele>19.5</ele>
        <time>2023-06-11T12:22:04Z</time>
      </trkpt>
      <trkpt lat="50.17609" lon="1.64055">
        <ele>18.3</ele>
        <time>2023-06-11T12:22:06Z</time>
      </trkpt>
      <trkpt lat="50.17616" lon="1.64068">
        <ele>18.4</ele>
        <time>2023-06-11T12:22:08Z</time>
      </trkpt>
      <trkpt lat="50.17624" lon="1.64082">
        <ele>18.5</ele>
        <time>2023-06-11T12:22:10Z</time>
      </trkpt>
      <trkpt lat="50.17632" lon="1.64099">
        <ele>17.7</ele>
        <time>2023-06-11T12:22:12Z</time>
      </trkpt>
      <trkpt lat="50.1764" lon="1.64115">
        <ele>17</ele>
        <time>2023-06-11T12:22:14Z</time>
      </trkpt>
      <trkpt lat="50.17649" lon="1.64132">
        <ele>16.6</ele>
        <time>2023-06-11T12:22:16Z</time>
      </trkpt>
      <trkpt lat="50.17658" lon="1.64148">
        <ele>16.1</ele>
        <time>2023-06-11T12:22:18Z</time>
      </trkpt>
      <trkpt lat="50.17667" lon="1.64165">
        <ele>15</ele>
        <time>2023-06-11T12:22:20Z</time>
      </trkpt>
      <trkpt lat="50.17677" lon="1.64182">
        <ele>14.4</ele>
        <time>2023-06-11T12:22:22Z</time>
      </trkpt>
      <trkpt lat="50.17686" lon="1.642">
        <ele>13.5</ele>
        <time>2023-06-11T12:22:24Z</time>
      </trkpt>
      <trkpt lat="50.17696" lon="1.64218">
        <ele>13</ele>
        <time>2023-06-11T12:22:26Z</time>
      </trkpt>
      <trkpt lat="50.17706" lon="1.64236">
        <ele>12.4</ele>
        <time>2023-06-11T12:22:28Z</time>
      </trkpt>
      <trkpt lat="50.17717" lon="1.64255">
        <ele>11.4</ele>
        <time>2023-06-11T12:22:30Z</time>
      </trkpt>
      <trkpt lat="50.17726" lon="1.64273">
        <ele>10.9</ele>
        <time>2023-06-11T12:22:32Z</time>
      </trkpt>
      <trkpt lat="50.17736" lon="1.64288">
        <ele>10.5</ele>
        <time>2023-06-11T12:22:34Z</time>
      </trkpt>
      <trkpt lat="50.17749" lon="1.643">
        <ele>10</ele>
        <time>2023-06-11T12:22:36Z</time>
      </trkpt>
      <trkpt lat="50.17762" lon="1.64311">
        <ele>9.9</ele>
        <time>2023-06-11T12:22:38Z</time>
      </trkpt>
      <trkpt lat="50.17775" lon="1.64323">
        <ele>9.4</ele>
        <time>2023-06-11T12:22:40Z</time>
      </trkpt>
      <trkpt lat="50.17789" lon="1.64332">
        <ele>8.7</ele>
        <time>2023-06-11T12:22:42Z</time>
      </trkpt>
      <trkpt lat="50.17803" lon="1.64339">
        <ele>8.1</ele>
        <time>2023-06-11T12:22:44Z</time>
      </trkpt>
      <trkpt lat="50.17818" lon="1.64344">
        <ele>7.8</ele>
        <time>2023-06-11T12:22:46Z</time>
      </trkpt>
      <trkpt lat="50.17832" lon="1.64347">
        <ele>7.5</ele>
        <time>2023-06-11T12:22:48Z</time>
      </trkpt>
      <trkpt lat="50.17845" lon="1.64352">
        <ele>7.3</ele>
        <time>2023-06-11T12:22:50Z</time>
      </trkpt>
      <trkpt lat="50.17859" lon="1.64355">
        <ele>7.2</ele>
        <time>2023-06-11T12:22:52Z</time>
      </trkpt>
      <trkpt lat="50.17871" lon="1.64358">
        <ele>7.1</ele>
        <time>2023-06-11T12:22:54Z</time>
      </trkpt>
      <trkpt lat="50.17883" lon="1.6436">
        <ele>7</ele>
        <time>2023-06-11T12:22:56Z</time>
      </trkpt>
      <trkpt lat="50.17895" lon="1.64363">
        <ele>7.2</ele>
        <time>2023-06-11T12:22:58Z</time>
      </trkpt>
      <trkpt lat="50.17907" lon="1.64367">
        <ele>7.7</ele>
        <time>2023-06-11T12:23:00Z</time>
      </trkpt>
      <trkpt lat="50.17918" lon="1.64372">
        <ele>8</ele>
        <time>2023-06-11T12:23:02Z</time>
      </trkpt>
      <trkpt lat="50.17928" lon="1.64374">
        <ele>7.6</ele>
        <time>2023-06-11T12:23:04Z</time>
      </trkpt>
      <trkpt lat="50.17939" lon="1.64377">
        <ele>7.2</ele>
        <time>2023-06-11T12:23:06Z</time>
      </trkpt>
      <trkpt lat="50.17948" lon="1.64379">
        <ele>6.9</ele>
        <time>2023-06-11T12:23:08Z</time>
      </trkpt>
      <trkpt lat="50.17953" lon="1.64381">
        <ele>6.7</ele>
        <time>2023-06-11T12:23:10Z</time>
      </trkpt>
      <trkpt lat="50.1796" lon="1.6438">
        <ele>6.5</ele>
        <time>2023-06-11T12:23:18Z</time>
      </trkpt>
      <trkpt lat="50.17964" lon="1.64377">
        <ele>6.3</ele>
        <time>2023-06-11T12:23:24Z</time>
      </trkpt>
      <trkpt lat="50.17968" lon="1.64385">
        <ele>6.2</ele>
        <time>2023-06-11T12:40:54Z</time>
      </trkpt>
      <trkpt lat="50.17973" lon="1.64386">
        <ele>6</ele>
        <time>2023-06-11T12:40:56Z</time>
      </trkpt>
      <trkpt lat="50.17978" lon="1.64387">
        <ele>6</ele>
        <time>2023-06-11T12:40:58Z</time>
      </trkpt>
      <trkpt lat="50.17985" lon="1.64389">
        <ele>6</ele>
        <time>2023-06-11T12:41:00Z</time>
      </trkpt>
      <trkpt lat="50.17992" lon="1.64391">
        <ele>6.1</ele>
        <time>2023-06-11T12:41:02Z</time>
      </trkpt>
      <trkpt lat="50.17999" lon="1.64393">
        <ele>6.2</ele>
        <time>2023-06-11T12:41:04Z</time>
      </trkpt>
      <trkpt lat="50.18007" lon="1.64394">
        <ele>6.4</ele>
        <time>2023-06-11T12:41:06Z</time>
      </trkpt>
      <trkpt lat="50.18014" lon="1.64396">
        <ele>6.6</ele>
        <time>2023-06-11T12:41:08Z</time>
      </trkpt>
      <trkpt lat="50.18021" lon="1.64398">
        <ele>6.8</ele>
        <time>2023-06-11T12:41:10Z</time>
      </trkpt>
      <trkpt lat="50.18028" lon="1.64399">
        <ele>7</ele>
        <time>2023-06-11T12:41:12Z</time>
      </trkpt>
      <trkpt lat="50.18034" lon="1.64402">
        <ele>7.1</ele>
        <time>2023-06-11T12:41:14Z</time>
      </trkpt>
      <trkpt lat="50.1804" lon="1.64404">
        <ele>7.2</ele>
        <time>2023-06-11T12:41:16Z</time>
      </trkpt>
      <trkpt lat="50.18047" lon="1.64405">
        <ele>7.3</ele>
        <time>2023-06-11T12:41:18Z</time>
      </trkpt>
      <trkpt lat="50.18054" lon="1.64409">
        <ele>7.3</ele>
        <time>2023-06-11T12:41:20Z</time>
      </trkpt>
      <trkpt lat="50.18059" lon="1.64413">
        <ele>7.2</ele>
        <time>2023-06-11T12:41:22Z</time>
      </trkpt>
      <trkpt lat="50.18063" lon="1.64418">
        <ele>7.2</ele>
        <time>2023-06-11T12:41:24Z</time>
      </trkpt>
      <trkpt lat="50.18068" lon="1.64422">
        <ele>6.6</ele>
        <time>2023-06-11T12:41:26Z</time>
      </trkpt>
      <trkpt lat="50.18072" lon="1.64427">
        <ele>5.9</ele>
        <time>2023-06-11T12:41:28Z</time>
      </trkpt>
      <trkpt lat="50.18077" lon="1.6443">
        <ele>5.2</ele>
        <time>2023-06-11T12:41:30Z</time>
      </trkpt>
      <trkpt lat="50.18082" lon="1.6443">
        <ele>5.1</ele>
        <time>2023-06-11T12:41:32Z</time>
      </trkpt>
      <trkpt lat="50.18088" lon="1.6443">
        <ele>5</ele>
        <time>2023-06-11T12:41:34Z</time>
      </trkpt>
      <trkpt lat="50.18094" lon="1.6443">
        <ele>5</ele>
        <time>2023-06-11T12:41:36Z</time>
      </trkpt>
      <trkpt lat="50.181" lon="1.64427">
        <ele>5.5</ele>
        <time>2023-06-11T12:41:38Z</time>
      </trkpt>
      <trkpt lat="50.18106" lon="1.64426">
        <ele>5.4</ele>
        <time>2023-06-11T12:41:40Z</time>
      </trkpt>
      <trkpt lat="50.18112" lon="1.64427">
        <ele>5.2</ele>
        <time>2023-06-11T12:41:42Z</time>
      </trkpt>
      <trkpt lat="50.18116" lon="1.64426">
        <ele>5.4</ele>
        <time>2023-06-11T12:41:44Z</time>
      </trkpt>
      <trkpt lat="50.18121" lon="1.64424">
        <ele>5.6</ele>
        <time>2023-06-11T12:41:48Z</time>
      </trkpt>
      <trkpt lat="50.18131" lon="1.64423">
        <ele>5.8</ele>
        <time>2023-06-11T12:41:52Z</time>
      </trkpt>
      <trkpt lat="50.18137" lon="1.64424">
        <ele>5.8</ele>
        <time>2023-06-11T12:41:54Z</time>
      </trkpt>
      <trkpt lat="50.18144" lon="1.64424">
        <ele>5.7</ele>
        <time>2023-06-11T12:41:56Z</time>
      </trkpt>
      <trkpt lat="50.18148" lon="1.64423">
        <ele>5.9</ele>
        <time>2023-06-11T12:41:58Z</time>
      </trkpt>
      <trkpt lat="50.18156" lon="1.64422">
        <ele>6</ele>
        <time>2023-06-11T12:42:02Z</time>
      </trkpt>
      <trkpt lat="50.18161" lon="1.64422">
        <ele>6.1</ele>
        <time>2023-06-11T12:42:04Z</time>
      </trkpt>
      <trkpt lat="50.18166" lon="1.6442">
        <ele>6.4</ele>
        <time>2023-06-11T12:42:06Z</time>
      </trkpt>
      <trkpt lat="50.18172" lon="1.64418">
        <ele>6.4</ele>
        <time>2023-06-11T12:42:08Z</time>
      </trkpt>
      <trkpt lat="50.18179" lon="1.64415">
        <ele>6.2</ele>
        <time>2023-06-11T12:42:10Z</time>
      </trkpt>
      <trkpt lat="50.18185" lon="1.64413">
        <ele>5.9</ele>
        <time>2023-06-11T12:42:12Z</time>
      </trkpt>
      <trkpt lat="50.18193" lon="1.64411">
        <ele>5.5</ele>
        <time>2023-06-11T12:42:14Z</time>
      </trkpt>
      <trkpt lat="50.182" lon="1.64408">
        <ele>5.6</ele>
        <time>2023-06-11T12:42:16Z</time>
      </trkpt>
      <trkpt lat="50.18208" lon="1.64405">
        <ele>5.8</ele>
        <time>2023-06-11T12:42:18Z</time>
      </trkpt>
      <trkpt lat="50.18215" lon="1.64402">
        <ele>6</ele>
        <time>2023-06-11T12:42:20Z</time>
      </trkpt>
      <trkpt lat="50.18223" lon="1.644">
        <ele>6.2</ele>
        <time>2023-06-11T12:42:22Z</time>
      </trkpt>
      <trkpt lat="50.18231" lon="1.64398">
        <ele>6.3</ele>
        <time>2023-06-11T12:42:24Z</time>
      </trkpt>
      <trkpt lat="50.18239" lon="1.64395">
        <ele>6.4</ele>
        <time>2023-06-11T12:42:26Z</time>
      </trkpt>
      <trkpt lat="50.18246" lon="1.64393">
        <ele>6.6</ele>
        <time>2023-06-11T12:42:28Z</time>
      </trkpt>
      <trkpt lat="50.18253" lon="1.64391">
        <ele>6.6</ele>
        <time>2023-06-11T12:42:30Z</time>
      </trkpt>
      <trkpt lat="50.1826" lon="1.6439">
        <ele>6.5</ele>
        <time>2023-06-11T12:42:32Z</time>
      </trkpt>
      <trkpt lat="50.18268" lon="1.64388">
        <ele>6.3</ele>
        <time>2023-06-11T12:42:34Z</time>
      </trkpt>
      <trkpt lat="50.18276" lon="1.64388">
        <ele>6.1</ele>
        <time>2023-06-11T12:42:36Z</time>
      </trkpt>
      <trkpt lat="50.18283" lon="1.64388">
        <ele>5.5</ele>
        <time>2023-06-11T12:42:38Z</time>
      </trkpt>
      <trkpt lat="50.18288" lon="1.64389">
        <ele>4.9</ele>
        <time>2023-06-11T12:42:40Z</time>
      </trkpt>
      <trkpt lat="50.18296" lon="1.64388">
        <ele>4.2</ele>
        <time>2023-06-11T12:42:44Z</time>
      </trkpt>
      <trkpt lat="50.18302" lon="1.64384">
        <ele>4.1</ele>
        <time>2023-06-11T12:42:48Z</time>
      </trkpt>
      <trkpt lat="50.18312" lon="1.64383">
        <ele>3.8</ele>
        <time>2023-06-11T12:42:52Z</time>
      </trkpt>
      <trkpt lat="50.18318" lon="1.64383">
        <ele>3.8</ele>
        <time>2023-06-11T12:42:54Z</time>
      </trkpt>
      <trkpt lat="50.18324" lon="1.64382">
        <ele>3.9</ele>
        <time>2023-06-11T12:42:56Z</time>
      </trkpt>
      <trkpt lat="50.1833" lon="1.64381">
        <ele>4.2</ele>
        <time>2023-06-11T12:42:58Z</time>
      </trkpt>
      <trkpt lat="50.18337" lon="1.64379">
        <ele>4.4</ele>
        <time>2023-06-11T12:43:00Z</time>
      </trkpt>
      <trkpt lat="50.18344" lon="1.64379">
        <ele>4.4</ele>
        <time>2023-06-11T12:43:02Z</time>
      </trkpt>
      <trkpt lat="50.18351" lon="1.64378">
        <ele>4.5</ele>
        <time>2023-06-11T12:43:04Z</time>
      </trkpt>
      <trkpt lat="50.18359" lon="1.64378">
        <ele>4.6</ele>
        <time>2023-06-11T12:43:06Z</time>
      </trkpt>
      <trkpt lat="50.18366" lon="1.64378">
        <ele>4.5</ele>
        <time>2023-06-11T12:43:08Z</time>
      </trkpt>
      <trkpt lat="50.18372" lon="1.64378">
        <ele>4.3</ele>
        <time>2023-06-11T12:43:10Z</time>
      </trkpt>
      <trkpt lat="50.18379" lon="1.64379">
        <ele>4.1</ele>
        <time>2023-06-11T12:43:12Z</time>
      </trkpt>
      <trkpt lat="50.18384" lon="1.64379">
        <ele>3.8</ele>
        <time>2023-06-11T12:43:14Z</time>
      </trkpt>
      <trkpt lat="50.18391" lon="1.64382">
        <ele>3.5</ele>
        <time>2023-06-11T12:43:18Z</time>
      </trkpt>
      <trkpt lat="50.18398" lon="1.64381">
        <ele>4.1</ele>
        <time>2023-06-11T12:43:22Z</time>
      </trkpt>
      <trkpt lat="50.18408" lon="1.64382">
        <ele>4.7</ele>
        <time>2023-06-11T12:43:26Z</time>
      </trkpt>
      <trkpt lat="50.18413" lon="1.64386">
        <ele>4.9</ele>
        <time>2023-06-11T12:43:28Z</time>
      </trkpt>
      <trkpt lat="50.1842" lon="1.64388">
        <ele>5.3</ele>
        <time>2023-06-11T12:43:30Z</time>
      </trkpt>
      <trkpt lat="50.18427" lon="1.6439">
        <ele>5.6</ele>
        <time>2023-06-11T12:43:32Z</time>
      </trkpt>
      <trkpt lat="50.18434" lon="1.64393">
        <ele>5.6</ele>
        <time>2023-06-11T12:43:34Z</time>
      </trkpt>
      <trkpt lat="50.18442" lon="1.64396">
        <ele>5.6</ele>
        <time>2023-06-11T12:43:36Z</time>
      </trkpt>
      <trkpt lat="50.1845" lon="1.64397">
        <ele>5.5</ele>
        <time>2023-06-11T12:43:38Z</time>
      </trkpt>
      <trkpt lat="50.18459" lon="1.64399">
        <ele>5.2</ele>
        <time>2023-06-11T12:43:40Z</time>
      </trkpt>
      <trkpt lat="50.18467" lon="1.64398">
        <ele>5.3</ele>
        <time>2023-06-11T12:43:42Z</time>
      </trkpt>
      <trkpt lat="50.18476" lon="1.64396">
        <ele>5.5</ele>
        <time>2023-06-11T12:43:44Z</time>
      </trkpt>
      <trkpt lat="50.18483" lon="1.64393">
        <ele>5.9</ele>
        <time>2023-06-11T12:43:46Z</time>
      </trkpt>
      <trkpt lat="50.1849" lon="1.64388">
        <ele>6.4</ele>
        <time>2023-06-11T12:43:48Z</time>
      </trkpt>
      <trkpt lat="50.18496" lon="1.64382">
        <ele>6.4</ele>
        <time>2023-06-11T12:43:50Z</time>
      </trkpt>
      <trkpt lat="50.18503" lon="1.64378">
        <ele>6.1</ele>
        <time>2023-06-11T12:43:52Z</time>
      </trkpt>
      <trkpt lat="50.1851" lon="1.64375">
        <ele>5.6</ele>
        <time>2023-06-11T12:43:54Z</time>
      </trkpt>
      <trkpt lat="50.18516" lon="1.6437">
        <ele>5.5</ele>
        <time>2023-06-11T12:43:56Z</time>
      </trkpt>
      <trkpt lat="50.18522" lon="1.64365">
        <ele>5.7</ele>
        <time>2023-06-11T12:43:58Z</time>
      </trkpt>
      <trkpt lat="50.18528" lon="1.64359">
        <ele>6.1</ele>
        <time>2023-06-11T12:44:00Z</time>
      </trkpt>
      <trkpt lat="50.18533" lon="1.64352">
        <ele>5.7</ele>
        <time>2023-06-11T12:44:02Z</time>
      </trkpt>
      <trkpt lat="50.18539" lon="1.64344">
        <ele>5.5</ele>
        <time>2023-06-11T12:44:04Z</time>
      </trkpt>
      <trkpt lat="50.18544" lon="1.64336">
        <ele>5.6</ele>
        <time>2023-06-11T12:44:06Z</time>
      </trkpt>
      <trkpt lat="50.18549" lon="1.64327">
        <ele>5.9</ele>
        <time>2023-06-11T12:44:08Z</time>
      </trkpt>
      <trkpt lat="50.18553" lon="1.64318">
        <ele>6.2</ele>
        <time>2023-06-11T12:44:10Z</time>
      </trkpt>
      <trkpt lat="50.18558" lon="1.64311">
        <ele>6.2</ele>
        <time>2023-06-11T12:44:12Z</time>
      </trkpt>
      <trkpt lat="50.1856" lon="1.64304">
        <ele>6.3</ele>
        <time>2023-06-11T12:44:14Z</time>
      </trkpt>
      <trkpt lat="50.18562" lon="1.64296">
        <ele>6.2</ele>
        <time>2023-06-11T12:44:16Z</time>
      </trkpt>
      <trkpt lat="50.18566" lon="1.64287">
        <ele>6</ele>
        <time>2023-06-11T12:44:18Z</time>
      </trkpt>
      <trkpt lat="50.18569" lon="1.64278">
        <ele>6.1</ele>
        <time>2023-06-11T12:44:20Z</time>
      </trkpt>
      <trkpt lat="50.18571" lon="1.64269">
        <ele>6.3</ele>
        <time>2023-06-11T12:44:22Z</time>
      </trkpt>
      <trkpt lat="50.18573" lon="1.6426">
        <ele>6.5</ele>
        <time>2023-06-11T12:44:24Z</time>
      </trkpt>
      <trkpt lat="50.18576" lon="1.64252">
        <ele>6.7</ele>
        <time>2023-06-11T12:44:26Z</time>
      </trkpt>
      <trkpt lat="50.18578" lon="1.64244">
        <ele>6.8</ele>
        <time>2023-06-11T12:44:28Z</time>
      </trkpt>
      <trkpt lat="50.18581" lon="1.64236">
        <ele>6.7</ele>
        <time>2023-06-11T12:44:30Z</time>
      </trkpt>
      <trkpt lat="50.18583" lon="1.64227">
        <ele>6.8</ele>
        <time>2023-06-11T12:44:32Z</time>
      </trkpt>
      <trkpt lat="50.18585" lon="1.64218">
        <ele>6.8</ele>
        <time>2023-06-11T12:44:34Z</time>
      </trkpt>
      <trkpt lat="50.18587" lon="1.64209">
        <ele>7</ele>
        <time>2023-06-11T12:44:36Z</time>
      </trkpt>
      <trkpt lat="50.18588" lon="1.64199">
        <ele>7.1</ele>
        <time>2023-06-11T12:44:38Z</time>
      </trkpt>
      <trkpt lat="50.1859" lon="1.6419">
        <ele>7.2</ele>
        <time>2023-06-11T12:44:40Z</time>
      </trkpt>
      <trkpt lat="50.18593" lon="1.64181">
        <ele>7</ele>
        <time>2023-06-11T12:44:42Z</time>
      </trkpt>
      <trkpt lat="50.18595" lon="1.64174">
        <ele>7</ele>
        <time>2023-06-11T12:44:44Z</time>
      </trkpt>
      <trkpt lat="50.18598" lon="1.64165">
        <ele>7</ele>
        <time>2023-06-11T12:44:48Z</time>
      </trkpt>
      <trkpt lat="50.18598" lon="1.64155">
        <ele>7.4</ele>
        <time>2023-06-11T12:44:52Z</time>
      </trkpt>
      <trkpt lat="50.186" lon="1.64142">
        <ele>7.5</ele>
        <time>2023-06-11T12:44:56Z</time>
      </trkpt>
      <trkpt lat="50.18601" lon="1.64133">
        <ele>7.5</ele>
        <time>2023-06-11T12:44:58Z</time>
      </trkpt>
      <trkpt lat="50.18604" lon="1.64123">
        <ele>7.5</ele>
        <time>2023-06-11T12:45:00Z</time>
      </trkpt>
      <trkpt lat="50.18606" lon="1.64113">
        <ele>7.4</ele>
        <time>2023-06-11T12:45:02Z</time>
      </trkpt>
      <trkpt lat="50.18609" lon="1.64102">
        <ele>7.3</ele>
        <time>2023-06-11T12:45:04Z</time>
      </trkpt>
      <trkpt lat="50.18612" lon="1.64091">
        <ele>6.9</ele>
        <time>2023-06-11T12:45:06Z</time>
      </trkpt>
      <trkpt lat="50.18615" lon="1.6408">
        <ele>6.8</ele>
        <time>2023-06-11T12:45:08Z</time>
      </trkpt>
      <trkpt lat="50.18618" lon="1.64069">
        <ele>7.1</ele>
        <time>2023-06-11T12:45:10Z</time>
      </trkpt>
      <trkpt lat="50.18621" lon="1.64058">
        <ele>7.5</ele>
        <time>2023-06-11T12:45:12Z</time>
      </trkpt>
      <trkpt lat="50.18625" lon="1.64046">
        <ele>7.2</ele>
        <time>2023-06-11T12:45:14Z</time>
      </trkpt>
      <trkpt lat="50.18628" lon="1.64036">
        <ele>7</ele>
        <time>2023-06-11T12:45:16Z</time>
      </trkpt>
      <trkpt lat="50.18631" lon="1.64025">
        <ele>6.9</ele>
        <time>2023-06-11T12:45:18Z</time>
      </trkpt>
      <trkpt lat="50.18634" lon="1.64015">
        <ele>7</ele>
        <time>2023-06-11T12:45:20Z</time>
      </trkpt>
      <trkpt lat="50.18637" lon="1.64004">
        <ele>7.1</ele>
        <time>2023-06-11T12:45:22Z</time>
      </trkpt>
      <trkpt lat="50.1864" lon="1.63994">
        <ele>7</ele>
        <time>2023-06-11T12:45:24Z</time>
      </trkpt>
      <trkpt lat="50.18643" lon="1.63984">
        <ele>6.8</ele>
        <time>2023-06-11T12:45:26Z</time>
      </trkpt>
      <trkpt lat="50.18647" lon="1.63974">
        <ele>6.5</ele>
        <time>2023-06-11T12:45:28Z</time>
      </trkpt>
      <trkpt lat="50.18649" lon="1.63964">
        <ele>6.4</ele>
        <time>2023-06-11T12:45:30Z</time>
      </trkpt>
      <trkpt lat="50.18652" lon="1.63954">
        <ele>6.3</ele>
        <time>2023-06-11T12:45:32Z</time>
      </trkpt>
      <trkpt lat="50.18655" lon="1.63944">
        <ele>6.3</ele>
        <time>2023-06-11T12:45:34Z</time>
      </trkpt>
      <trkpt lat="50.18658" lon="1.63936">
        <ele>6.4</ele>
        <time>2023-06-11T12:45:36Z</time>
      </trkpt>
      <trkpt lat="50.18661" lon="1.63926">
        <ele>6.7</ele>
        <time>2023-06-11T12:45:38Z</time>
      </trkpt>
      <trkpt lat="50.18664" lon="1.63916">
        <ele>7.1</ele>
        <time>2023-06-11T12:45:40Z</time>
      </trkpt>
      <trkpt lat="50.18667" lon="1.63906">
        <ele>6.9</ele>
        <time>2023-06-11T12:45:42Z</time>
      </trkpt>
      <trkpt lat="50.1867" lon="1.63895">
        <ele>6.4</ele>
        <time>2023-06-11T12:45:44Z</time>
      </trkpt>
      <trkpt lat="50.18673" lon="1.63884">
        <ele>5.9</ele>
        <time>2023-06-11T12:45:46Z</time>
      </trkpt>
      <trkpt lat="50.18677" lon="1.63873">
        <ele>5.4</ele>
        <time>2023-06-11T12:45:48Z</time>
      </trkpt>
      <trkpt lat="50.1868" lon="1.63861">
        <ele>5.1</ele>
        <time>2023-06-11T12:45:50Z</time>
      </trkpt>
      <trkpt lat="50.18683" lon="1.63849">
        <ele>5.4</ele>
        <time>2023-06-11T12:45:52Z</time>
      </trkpt>
      <trkpt lat="50.18686" lon="1.6384">
        <ele>5.8</ele>
        <time>2023-06-11T12:45:54Z</time>
      </trkpt>
      <trkpt lat="50.18689" lon="1.63829">
        <ele>6.3</ele>
        <time>2023-06-11T12:45:56Z</time>
      </trkpt>
      <trkpt lat="50.18691" lon="1.63821">
        <ele>6.5</ele>
        <time>2023-06-11T12:45:58Z</time>
      </trkpt>
      <trkpt lat="50.18693" lon="1.63812">
        <ele>6.8</ele>
        <time>2023-06-11T12:46:02Z</time>
      </trkpt>
      <trkpt lat="50.18695" lon="1.63799">
        <ele>6.4</ele>
        <time>2023-06-11T12:46:06Z</time>
      </trkpt>
      <trkpt lat="50.18697" lon="1.63792">
        <ele>5.7</ele>
        <time>2023-06-11T12:46:08Z</time>
      </trkpt>
      <trkpt lat="50.187" lon="1.63786">
        <ele>5</ele>
        <time>2023-06-11T12:46:10Z</time>
      </trkpt>
      <trkpt lat="50.18703" lon="1.63781">
        <ele>4.5</ele>
        <time>2023-06-11T12:46:12Z</time>
      </trkpt>
      <trkpt lat="50.18706" lon="1.63775">
        <ele>4.2</ele>
        <time>2023-06-11T12:46:54Z</time>
      </trkpt>
      <trkpt lat="50.18711" lon="1.63766">
        <ele>4.2</ele>
        <time>2023-06-11T12:47:54Z</time>
      </trkpt>
      <trkpt lat="50.18712" lon="1.63759">
        <ele>4.3</ele>
        <time>2023-06-11T12:47:56Z</time>
      </trkpt>
      <trkpt lat="50.18714" lon="1.63751">
        <ele>4.7</ele>
        <time>2023-06-11T12:47:58Z</time>
      </trkpt>
      <trkpt lat="50.18715" lon="1.63743">
        <ele>5.1</ele>
        <time>2023-06-11T12:48:00Z</time>
      </trkpt>
      <trkpt lat="50.18716" lon="1.63734">
        <ele>5.7</ele>
        <time>2023-06-11T12:48:02Z</time>
      </trkpt>
      <trkpt lat="50.18718" lon="1.63726">
        <ele>6.3</ele>
        <time>2023-06-11T12:48:04Z</time>
      </trkpt>
      <trkpt lat="50.18721" lon="1.63716">
        <ele>6.6</ele>
        <time>2023-06-11T12:48:06Z</time>
      </trkpt>
      <trkpt lat="50.18724" lon="1.63705">
        <ele>6.2</ele>
        <time>2023-06-11T12:48:08Z</time>
      </trkpt>
      <trkpt lat="50.18727" lon="1.63696">
        <ele>5.3</ele>
        <time>2023-06-11T12:48:10Z</time>
      </trkpt>
      <trkpt lat="50.18729" lon="1.63684">
        <ele>4.6</ele>
        <time>2023-06-11T12:48:12Z</time>
      </trkpt>
      <trkpt lat="50.18734" lon="1.63674">
        <ele>4.1</ele>
        <time>2023-06-11T12:48:14Z</time>
      </trkpt>
      <trkpt lat="50.18738" lon="1.63664">
        <ele>4.1</ele>
        <time>2023-06-11T12:48:16Z</time>
      </trkpt>
      <trkpt lat="50.18741" lon="1.63656">
        <ele>4.5</ele>
        <time>2023-06-11T12:48:18Z</time>
      </trkpt>
      <trkpt lat="50.18745" lon="1.63647">
        <ele>5.1</ele>
        <time>2023-06-11T12:48:20Z</time>
      </trkpt>
      <trkpt lat="50.18748" lon="1.63639">
        <ele>5.8</ele>
        <time>2023-06-11T12:48:22Z</time>
      </trkpt>
      <trkpt lat="50.18748" lon="1.6363">
        <ele>6.1</ele>
        <time>2023-06-11T12:48:24Z</time>
      </trkpt>
      <trkpt lat="50.18749" lon="1.63621">
        <ele>6.6</ele>
        <time>2023-06-11T12:48:26Z</time>
      </trkpt>
      <trkpt lat="50.18753" lon="1.63613">
        <ele>6.4</ele>
        <time>2023-06-11T12:48:28Z</time>
      </trkpt>
      <trkpt lat="50.18757" lon="1.63605">
        <ele>5.6</ele>
        <time>2023-06-11T12:48:30Z</time>
      </trkpt>
      <trkpt lat="50.18761" lon="1.63596">
        <ele>4.9</ele>
        <time>2023-06-11T12:48:32Z</time>
      </trkpt>
      <trkpt lat="50.18763" lon="1.63586">
        <ele>4.6</ele>
        <time>2023-06-11T12:48:34Z</time>
      </trkpt>
      <trkpt lat="50.18766" lon="1.63576">
        <ele>4.5</ele>
        <time>2023-06-11T12:48:36Z</time>
      </trkpt>
      <trkpt lat="50.1877" lon="1.63567">
        <ele>4.8</ele>
        <time>2023-06-11T12:48:38Z</time>
      </trkpt>
      <trkpt lat="50.18772" lon="1.63557">
        <ele>5.5</ele>
        <time>2023-06-11T12:48:40Z</time>
      </trkpt>
      <trkpt lat="50.18775" lon="1.63547">
        <ele>6.1</ele>
        <time>2023-06-11T12:48:42Z</time>
      </trkpt>
      <trkpt lat="50.18777" lon="1.63538">
        <ele>6.6</ele>
        <time>2023-06-11T12:48:44Z</time>
      </trkpt>
      <trkpt lat="50.1878" lon="1.63529">
        <ele>6.5</ele>
        <time>2023-06-11T12:48:46Z</time>
      </trkpt>
      <trkpt lat="50.18781" lon="1.6352">
        <ele>6</ele>
        <time>2023-06-11T12:48:48Z</time>
      </trkpt>
      <trkpt lat="50.18786" lon="1.63507">
        <ele>5</ele>
        <time>2023-06-11T12:48:52Z</time>
      </trkpt>
      <trkpt lat="50.18788" lon="1.63499">
        <ele>4.5</ele>
        <time>2023-06-11T12:48:54Z</time>
      </trkpt>
      <trkpt lat="50.18791" lon="1.63491">
        <ele>4.2</ele>
        <time>2023-06-11T12:48:56Z</time>
      </trkpt>
      <trkpt lat="50.18794" lon="1.63484">
        <ele>4.2</ele>
        <time>2023-06-11T12:48:58Z</time>
      </trkpt>
      <trkpt lat="50.18796" lon="1.63475">
        <ele>4.5</ele>
        <time>2023-06-11T12:49:02Z</time>
      </trkpt>
      <trkpt lat="50.18799" lon="1.63465">
        <ele>5.1</ele>
        <time>2023-06-11T12:49:06Z</time>
      </trkpt>
      <trkpt lat="50.18802" lon="1.63452">
        <ele>6.1</ele>
        <time>2023-06-11T12:49:10Z</time>
      </trkpt>
      <trkpt lat="50.18804" lon="1.63444">
        <ele>6.8</ele>
        <time>2023-06-11T12:49:12Z</time>
      </trkpt>
      <trkpt lat="50.18807" lon="1.63434">
        <ele>6.4</ele>
        <time>2023-06-11T12:49:14Z</time>
      </trkpt>
      <trkpt lat="50.1881" lon="1.63424">
        <ele>5.5</ele>
        <time>2023-06-11T12:49:16Z</time>
      </trkpt>
      <trkpt lat="50.18814" lon="1.63413">
        <ele>4.7</ele>
        <time>2023-06-11T12:49:18Z</time>
      </trkpt>
      <trkpt lat="50.18818" lon="1.63402">
        <ele>4.4</ele>
        <time>2023-06-11T12:49:20Z</time>
      </trkpt>
      <trkpt lat="50.18822" lon="1.6339">
        <ele>4.4</ele>
        <time>2023-06-11T12:49:22Z</time>
      </trkpt>
      <trkpt lat="50.18824" lon="1.63378">
        <ele>5.3</ele>
        <time>2023-06-11T12:49:24Z</time>
      </trkpt>
      <trkpt lat="50.18828" lon="1.63366">
        <ele>6.3</ele>
        <time>2023-06-11T12:49:26Z</time>
      </trkpt>
      <trkpt lat="50.18831" lon="1.63354">
        <ele>6.9</ele>
        <time>2023-06-11T12:49:28Z</time>
      </trkpt>
      <trkpt lat="50.18834" lon="1.63342">
        <ele>6.8</ele>
        <time>2023-06-11T12:49:30Z</time>
      </trkpt>
      <trkpt lat="50.18838" lon="1.63332">
        <ele>6.1</ele>
        <time>2023-06-11T12:49:32Z</time>
      </trkpt>
      <trkpt lat="50.1884" lon="1.63322">
        <ele>5</ele>
        <time>2023-06-11T12:49:34Z</time>
      </trkpt>
      <trkpt lat="50.18841" lon="1.63315">
        <ele>4.4</ele>
        <time>2023-06-11T12:49:36Z</time>
      </trkpt>
      <trkpt lat="50.18845" lon="1.63304">
        <ele>3.6</ele>
        <time>2023-06-11T12:49:40Z</time>
      </trkpt>
      <trkpt lat="50.18849" lon="1.6329">
        <ele>4.4</ele>
        <time>2023-06-11T12:49:44Z</time>
      </trkpt>
      <trkpt lat="50.18851" lon="1.63281">
        <ele>5.1</ele>
        <time>2023-06-11T12:49:46Z</time>
      </trkpt>
      <trkpt lat="50.18854" lon="1.63273">
        <ele>5.6</ele>
        <time>2023-06-11T12:49:48Z</time>
      </trkpt>
      <trkpt lat="50.18858" lon="1.63263">
        <ele>6.2</ele>
        <time>2023-06-11T12:49:50Z</time>
      </trkpt>
      <trkpt lat="50.18861" lon="1.63252">
        <ele>6.9</ele>
        <time>2023-06-11T12:49:52Z</time>
      </trkpt>
      <trkpt lat="50.18864" lon="1.63243">
        <ele>6.5</ele>
        <time>2023-06-11T12:49:54Z</time>
      </trkpt>
      <trkpt lat="50.18867" lon="1.63233">
        <ele>6.1</ele>
        <time>2023-06-11T12:49:56Z</time>
      </trkpt>
      <trkpt lat="50.1887" lon="1.63221">
        <ele>5.8</ele>
        <time>2023-06-11T12:49:58Z</time>
      </trkpt>
      <trkpt lat="50.18873" lon="1.63209">
        <ele>6</ele>
        <time>2023-06-11T12:50:00Z</time>
      </trkpt>
      <trkpt lat="50.18876" lon="1.63198">
        <ele>6.2</ele>
        <time>2023-06-11T12:50:02Z</time>
      </trkpt>
      <trkpt lat="50.18878" lon="1.63188">
        <ele>6.3</ele>
        <time>2023-06-11T12:50:04Z</time>
      </trkpt>
      <trkpt lat="50.1888" lon="1.6318">
        <ele>6.5</ele>
        <time>2023-06-11T12:50:06Z</time>
      </trkpt>
      <trkpt lat="50.18882" lon="1.63172">
        <ele>6.7</ele>
        <time>2023-06-11T12:50:08Z</time>
      </trkpt>
      <trkpt lat="50.18885" lon="1.63165">
        <ele>7</ele>
        <time>2023-06-11T12:50:10Z</time>
      </trkpt>
      <trkpt lat="50.18889" lon="1.63156">
        <ele>7</ele>
        <time>2023-06-11T12:50:12Z</time>
      </trkpt>
      <trkpt lat="50.18893" lon="1.63148">
        <ele>6.3</ele>
        <time>2023-06-11T12:50:14Z</time>
      </trkpt>
      <trkpt lat="50.18896" lon="1.63141">
        <ele>5.7</ele>
        <time>2023-06-11T12:50:16Z</time>
      </trkpt>
      <trkpt lat="50.18898" lon="1.63134">
        <ele>5.3</ele>
        <time>2023-06-11T12:50:18Z</time>
      </trkpt>
      <trkpt lat="50.18899" lon="1.63126">
        <ele>4.9</ele>
        <time>2023-06-11T12:50:20Z</time>
      </trkpt>
      <trkpt lat="50.18901" lon="1.6312">
        <ele>4.6</ele>
        <time>2023-06-11T12:50:22Z</time>
      </trkpt>
      <trkpt lat="50.18904" lon="1.63113">
        <ele>4.4</ele>
        <time>2023-06-11T12:50:24Z</time>
      </trkpt>
      <trkpt lat="50.18906" lon="1.63107">
        <ele>4.6</ele>
        <time>2023-06-11T12:50:26Z</time>
      </trkpt>
      <trkpt lat="50.18907" lon="1.63099">
        <ele>4.9</ele>
        <time>2023-06-11T12:50:28Z</time>
      </trkpt>
      <trkpt lat="50.1891" lon="1.6309">
        <ele>5.4</ele>
        <time>2023-06-11T12:50:30Z</time>
      </trkpt>
      <trkpt lat="50.18914" lon="1.6308">
        <ele>6</ele>
        <time>2023-06-11T12:50:32Z</time>
      </trkpt>
      <trkpt lat="50.18916" lon="1.6307">
        <ele>6.5</ele>
        <time>2023-06-11T12:50:34Z</time>
      </trkpt>
      <trkpt lat="50.1892" lon="1.63059">
        <ele>6.3</ele>
        <time>2023-06-11T12:50:36Z</time>
      </trkpt>
      <trkpt lat="50.18923" lon="1.63048">
        <ele>5.7</ele>
        <time>2023-06-11T12:50:38Z</time>
      </trkpt>
      <trkpt lat="50.18927" lon="1.63036">
        <ele>5.3</ele>
        <time>2023-06-11T12:50:40Z</time>
      </trkpt>
      <trkpt lat="50.1893" lon="1.63024">
        <ele>5.1</ele>
        <time>2023-06-11T12:50:42Z</time>
      </trkpt>
      <trkpt lat="50.18934" lon="1.63013">
        <ele>5.2</ele>
        <time>2023-06-11T12:50:44Z</time>
      </trkpt>
      <trkpt lat="50.18938" lon="1.63001">
        <ele>5.7</ele>
        <time>2023-06-11T12:50:46Z</time>
      </trkpt>
      <trkpt lat="50.18941" lon="1.62989">
        <ele>6.2</ele>
        <time>2023-06-11T12:50:48Z</time>
      </trkpt>
      <trkpt lat="50.18944" lon="1.62978">
        <ele>6.7</ele>
        <time>2023-06-11T12:50:50Z</time>
      </trkpt>
      <trkpt lat="50.18948" lon="1.62969">
        <ele>6.3</ele>
        <time>2023-06-11T12:50:52Z</time>
      </trkpt>
      <trkpt lat="50.18952" lon="1.62958">
        <ele>5.8</ele>
        <time>2023-06-11T12:50:54Z</time>
      </trkpt>
      <trkpt lat="50.18955" lon="1.62947">
        <ele>5.4</ele>
        <time>2023-06-11T12:50:56Z</time>
      </trkpt>
      <trkpt lat="50.18959" lon="1.62935">
        <ele>4.9</ele>
        <time>2023-06-11T12:50:58Z</time>
      </trkpt>
      <trkpt lat="50.18963" lon="1.62923">
        <ele>4.9</ele>
        <time>2023-06-11T12:51:00Z</time>
      </trkpt>
      <trkpt lat="50.18966" lon="1.62911">
        <ele>5.3</ele>
        <time>2023-06-11T12:51:02Z</time>
      </trkpt>
      <trkpt lat="50.1897" lon="1.629">
        <ele>6.1</ele>
        <time>2023-06-11T12:51:04Z</time>
      </trkpt>
      <trkpt lat="50.18973" lon="1.62889">
        <ele>6.9</ele>
        <time>2023-06-11T12:51:06Z</time>
      </trkpt>
      <trkpt lat="50.18976" lon="1.62878">
        <ele>6</ele>
        <time>2023-06-11T12:51:08Z</time>
      </trkpt>
      <trkpt lat="50.18978" lon="1.62867">
        <ele>5.4</ele>
        <time>2023-06-11T12:51:10Z</time>
      </trkpt>
      <trkpt lat="50.1898" lon="1.62858">
        <ele>5.1</ele>
        <time>2023-06-11T12:51:12Z</time>
      </trkpt>
      <trkpt lat="50.18984" lon="1.62848">
        <ele>4.7</ele>
        <time>2023-06-11T12:51:14Z</time>
      </trkpt>
      <trkpt lat="50.18986" lon="1.62838">
        <ele>4.5</ele>
        <time>2023-06-11T12:51:16Z</time>
      </trkpt>
      <trkpt lat="50.18989" lon="1.62828">
        <ele>4.7</ele>
        <time>2023-06-11T12:51:18Z</time>
      </trkpt>
      <trkpt lat="50.18992" lon="1.62817">
        <ele>5.4</ele>
        <time>2023-06-11T12:51:20Z</time>
      </trkpt>
      <trkpt lat="50.18994" lon="1.62806">
        <ele>6.3</ele>
        <time>2023-06-11T12:51:22Z</time>
      </trkpt>
      <trkpt lat="50.18997" lon="1.62795">
        <ele>6.4</ele>
        <time>2023-06-11T12:51:24Z</time>
      </trkpt>
      <trkpt lat="50.19" lon="1.62785">
        <ele>6.2</ele>
        <time>2023-06-11T12:51:26Z</time>
      </trkpt>
      <trkpt lat="50.19001" lon="1.62776">
        <ele>5.8</ele>
        <time>2023-06-11T12:51:28Z</time>
      </trkpt>
      <trkpt lat="50.19004" lon="1.62767">
        <ele>5.1</ele>
        <time>2023-06-11T12:51:30Z</time>
      </trkpt>
      <trkpt lat="50.19008" lon="1.62758">
        <ele>4.5</ele>
        <time>2023-06-11T12:51:32Z</time>
      </trkpt>
      <trkpt lat="50.19011" lon="1.62748">
        <ele>4.3</ele>
        <time>2023-06-11T12:51:34Z</time>
      </trkpt>
      <trkpt lat="50.19013" lon="1.62739">
        <ele>4.6</ele>
        <time>2023-06-11T12:51:36Z</time>
      </trkpt>
      <trkpt lat="50.19014" lon="1.62731">
        <ele>5</ele>
        <time>2023-06-11T12:51:38Z</time>
      </trkpt>
      <trkpt lat="50.19016" lon="1.62724">
        <ele>5.5</ele>
        <time>2023-06-11T12:51:40Z</time>
      </trkpt>
      <trkpt lat="50.19017" lon="1.62716">
        <ele>5.6</ele>
        <time>2023-06-11T12:51:44Z</time>
      </trkpt>
      <trkpt lat="50.19012" lon="1.62708">
        <ele>5.8</ele>
        <time>2023-06-11T12:51:54Z</time>
      </trkpt>
      <trkpt lat="50.19009" lon="1.62703">
        <ele>6</ele>
        <time>2023-06-11T12:51:56Z</time>
      </trkpt>
      <trkpt lat="50.19005" lon="1.62696">
        <ele>6.6</ele>
        <time>2023-06-11T12:51:58Z</time>
      </trkpt>
      <trkpt lat="50.18999" lon="1.62691">
        <ele>6.8</ele>
        <time>2023-06-11T12:52:00Z</time>
      </trkpt>
      <trkpt lat="50.18993" lon="1.62687">
        <ele>6.3</ele>
        <time>2023-06-11T12:52:02Z</time>
      </trkpt>
      <trkpt lat="50.18987" lon="1.62683">
        <ele>5.9</ele>
        <time>2023-06-11T12:52:04Z</time>
      </trkpt>
      <trkpt lat="50.18981" lon="1.6268">
        <ele>5.9</ele>
        <time>2023-06-11T12:52:06Z</time>
      </trkpt>
      <trkpt lat="50.18976" lon="1.62676">
        <ele>6</ele>
        <time>2023-06-11T12:52:08Z</time>
      </trkpt>
      <trkpt lat="50.18972" lon="1.62673">
        <ele>6.3</ele>
        <time>2023-06-11T12:52:10Z</time>
      </trkpt>
      <trkpt lat="50.18963" lon="1.62666">
        <ele>7</ele>
        <time>2023-06-11T12:52:14Z</time>
      </trkpt>
      <trkpt lat="50.18956" lon="1.62662">
        <ele>6.9</ele>
        <time>2023-06-11T12:52:16Z</time>
      </trkpt>
      <trkpt lat="50.1895" lon="1.62654">
        <ele>6.9</ele>
        <time>2023-06-11T12:52:18Z</time>
      </trkpt>
      <trkpt lat="50.18944" lon="1.62646">
        <ele>7.1</ele>
        <time>2023-06-11T12:52:20Z</time>
      </trkpt>
      <trkpt lat="50.18938" lon="1.62636">
        <ele>8.2</ele>
        <time>2023-06-11T12:52:22Z</time>
      </trkpt>
      <trkpt lat="50.18932" lon="1.62627">
        <ele>9.6</ele>
        <time>2023-06-11T12:52:24Z</time>
      </trkpt>
      <trkpt lat="50.18929" lon="1.62618">
        <ele>10.6</ele>
        <time>2023-06-11T12:52:26Z</time>
      </trkpt>
      <trkpt lat="50.18929" lon="1.62609">
        <ele>10.9</ele>
        <time>2023-06-11T12:52:28Z</time>
      </trkpt>
      <trkpt lat="50.1893" lon="1.62601">
        <ele>10.7</ele>
        <time>2023-06-11T12:52:30Z</time>
      </trkpt>
      <trkpt lat="50.18931" lon="1.62594">
        <ele>10.7</ele>
        <time>2023-06-11T12:52:32Z</time>
      </trkpt>
      <trkpt lat="50.18931" lon="1.62584">
        <ele>10.7</ele>
        <time>2023-06-11T12:52:34Z</time>
      </trkpt>
      <trkpt lat="50.18932" lon="1.62573">
        <ele>10.4</ele>
        <time>2023-06-11T12:52:36Z</time>
      </trkpt>
      <trkpt lat="50.18932" lon="1.62561">
        <ele>10</ele>
        <time>2023-06-11T12:52:38Z</time>
      </trkpt>
      <trkpt lat="50.18932" lon="1.62548">
        <ele>9.5</ele>
        <time>2023-06-11T12:52:40Z</time>
      </trkpt>
      <trkpt lat="50.18931" lon="1.62534">
        <ele>9.2</ele>
        <time>2023-06-11T12:52:42Z</time>
      </trkpt>
      <trkpt lat="50.18931" lon="1.62521">
        <ele>8.7</ele>
        <time>2023-06-11T12:52:44Z</time>
      </trkpt>
      <trkpt lat="50.18932" lon="1.62507">
        <ele>8.4</ele>
        <time>2023-06-11T12:52:46Z</time>
      </trkpt>
      <trkpt lat="50.18932" lon="1.62492">
        <ele>8.5</ele>
        <time>2023-06-11T12:52:48Z</time>
      </trkpt>
      <trkpt lat="50.18932" lon="1.62478">
        <ele>8.8</ele>
        <time>2023-06-11T12:52:50Z</time>
      </trkpt>
      <trkpt lat="50.18933" lon="1.62465">
        <ele>8.9</ele>
        <time>2023-06-11T12:52:52Z</time>
      </trkpt>
      <trkpt lat="50.18935" lon="1.62452">
        <ele>8.7</ele>
        <time>2023-06-11T12:52:54Z</time>
      </trkpt>
      <trkpt lat="50.18935" lon="1.62439">
        <ele>8.7</ele>
        <time>2023-06-11T12:52:56Z</time>
      </trkpt>
      <trkpt lat="50.18935" lon="1.62426">
        <ele>8.4</ele>
        <time>2023-06-11T12:52:58Z</time>
      </trkpt>
      <trkpt lat="50.18933" lon="1.62413">
        <ele>8.4</ele>
        <time>2023-06-11T12:53:00Z</time>
      </trkpt>
      <trkpt lat="50.18932" lon="1.62399">
        <ele>8.9</ele>
        <time>2023-06-11T12:53:02Z</time>
      </trkpt>
      <trkpt lat="50.1893" lon="1.62386">
        <ele>9.4</ele>
        <time>2023-06-11T12:53:04Z</time>
      </trkpt>
      <trkpt lat="50.18928" lon="1.62372">
        <ele>9.4</ele>
        <time>2023-06-11T12:53:06Z</time>
      </trkpt>
      <trkpt lat="50.18926" lon="1.62359">
        <ele>9.2</ele>
        <time>2023-06-11T12:53:08Z</time>
      </trkpt>
      <trkpt lat="50.18926" lon="1.62346">
        <ele>8.5</ele>
        <time>2023-06-11T12:53:10Z</time>
      </trkpt>
      <trkpt lat="50.18926" lon="1.62332">
        <ele>8</ele>
        <time>2023-06-11T12:53:12Z</time>
      </trkpt>
      <trkpt lat="50.18926" lon="1.62321">
        <ele>8.5</ele>
        <time>2023-06-11T12:53:14Z</time>
      </trkpt>
      <trkpt lat="50.18926" lon="1.62308">
        <ele>8.9</ele>
        <time>2023-06-11T12:53:16Z</time>
      </trkpt>
      <trkpt lat="50.18927" lon="1.62294">
        <ele>9.4</ele>
        <time>2023-06-11T12:53:18Z</time>
      </trkpt>
      <trkpt lat="50.18929" lon="1.6228">
        <ele>9.9</ele>
        <time>2023-06-11T12:53:20Z</time>
      </trkpt>
      <trkpt lat="50.18931" lon="1.62266">
        <ele>10.1</ele>
        <time>2023-06-11T12:53:22Z</time>
      </trkpt>
      <trkpt lat="50.18931" lon="1.62253">
        <ele>10.7</ele>
        <time>2023-06-11T12:53:24Z</time>
      </trkpt>
      <trkpt lat="50.18932" lon="1.62239">
        <ele>10.7</ele>
        <time>2023-06-11T12:53:26Z</time>
      </trkpt>
      <trkpt lat="50.18934" lon="1.62225">
        <ele>10.5</ele>
        <time>2023-06-11T12:53:28Z</time>
      </trkpt>
      <trkpt lat="50.18936" lon="1.62211">
        <ele>9.7</ele>
        <time>2023-06-11T12:53:30Z</time>
      </trkpt>
      <trkpt lat="50.18939" lon="1.62197">
        <ele>8.8</ele>
        <time>2023-06-11T12:53:32Z</time>
      </trkpt>
      <trkpt lat="50.18942" lon="1.62184">
        <ele>7.8</ele>
        <time>2023-06-11T12:53:34Z</time>
      </trkpt>
      <trkpt lat="50.18944" lon="1.6217">
        <ele>7.4</ele>
        <time>2023-06-11T12:53:36Z</time>
      </trkpt>
      <trkpt lat="50.18946" lon="1.62157">
        <ele>7</ele>
        <time>2023-06-11T12:53:38Z</time>
      </trkpt>
      <trkpt lat="50.18948" lon="1.62145">
        <ele>7</ele>
        <time>2023-06-11T12:53:40Z</time>
      </trkpt>
      <trkpt lat="50.1895" lon="1.62132">
        <ele>7.2</ele>
        <time>2023-06-11T12:53:42Z</time>
      </trkpt>
      <trkpt lat="50.18951" lon="1.62118">
        <ele>7.4</ele>
        <time>2023-06-11T12:53:44Z</time>
      </trkpt>
      <trkpt lat="50.18954" lon="1.62105">
        <ele>8.1</ele>
        <time>2023-06-11T12:53:46Z</time>
      </trkpt>
      <trkpt lat="50.18956" lon="1.62092">
        <ele>9.2</ele>
        <time>2023-06-11T12:53:48Z</time>
      </trkpt>
      <trkpt lat="50.18958" lon="1.6208">
        <ele>9.8</ele>
        <time>2023-06-11T12:53:50Z</time>
      </trkpt>
      <trkpt lat="50.1896" lon="1.62067">
        <ele>9.7</ele>
        <time>2023-06-11T12:53:52Z</time>
      </trkpt>
      <trkpt lat="50.18964" lon="1.62054">
        <ele>9.3</ele>
        <time>2023-06-11T12:53:54Z</time>
      </trkpt>
      <trkpt lat="50.18967" lon="1.62041">
        <ele>8.8</ele>
        <time>2023-06-11T12:53:56Z</time>
      </trkpt>
      <trkpt lat="50.18969" lon="1.62029">
        <ele>8.3</ele>
        <time>2023-06-11T12:53:58Z</time>
      </trkpt>
      <trkpt lat="50.18972" lon="1.62017">
        <ele>7.2</ele>
        <time>2023-06-11T12:54:00Z</time>
      </trkpt>
      <trkpt lat="50.18975" lon="1.62005">
        <ele>6.9</ele>
        <time>2023-06-11T12:54:02Z</time>
      </trkpt>
      <trkpt lat="50.18978" lon="1.61991">
        <ele>6.8</ele>
        <time>2023-06-11T12:54:04Z</time>
      </trkpt>
      <trkpt lat="50.1898" lon="1.61977">
        <ele>6.7</ele>
        <time>2023-06-11T12:54:06Z</time>
      </trkpt>
      <trkpt lat="50.18983" lon="1.61963">
        <ele>6.6</ele>
        <time>2023-06-11T12:54:08Z</time>
      </trkpt>
      <trkpt lat="50.18986" lon="1.61949">
        <ele>6.5</ele>
        <time>2023-06-11T12:54:10Z</time>
      </trkpt>
      <trkpt lat="50.18989" lon="1.61936">
        <ele>6.6</ele>
        <time>2023-06-11T12:54:12Z</time>
      </trkpt>
      <trkpt lat="50.18992" lon="1.61922">
        <ele>6.9</ele>
        <time>2023-06-11T12:54:14Z</time>
      </trkpt>
      <trkpt lat="50.18995" lon="1.61909">
        <ele>7.1</ele>
        <time>2023-06-11T12:54:16Z</time>
      </trkpt>
      <trkpt lat="50.18998" lon="1.61896">
        <ele>7.1</ele>
        <time>2023-06-11T12:54:18Z</time>
      </trkpt>
      <trkpt lat="50.19001" lon="1.61882">
        <ele>6.9</ele>
        <time>2023-06-11T12:54:20Z</time>
      </trkpt>
      <trkpt lat="50.19004" lon="1.6187">
        <ele>6.8</ele>
        <time>2023-06-11T12:54:22Z</time>
      </trkpt>
      <trkpt lat="50.19007" lon="1.61856">
        <ele>7</ele>
        <time>2023-06-11T12:54:24Z</time>
      </trkpt>
      <trkpt lat="50.1901" lon="1.61843">
        <ele>7.5</ele>
        <time>2023-06-11T12:54:26Z</time>
      </trkpt>
      <trkpt lat="50.19013" lon="1.6183">
        <ele>7.7</ele>
        <time>2023-06-11T12:54:28Z</time>
      </trkpt>
      <trkpt lat="50.19015" lon="1.61816">
        <ele>7.7</ele>
        <time>2023-06-11T12:54:30Z</time>
      </trkpt>
      <trkpt lat="50.19019" lon="1.61803">
        <ele>7.7</ele>
        <time>2023-06-11T12:54:32Z</time>
      </trkpt>
      <trkpt lat="50.19022" lon="1.6179">
        <ele>7.6</ele>
        <time>2023-06-11T12:54:34Z</time>
      </trkpt>
      <trkpt lat="50.19025" lon="1.61775">
        <ele>7.3</ele>
        <time>2023-06-11T12:54:36Z</time>
      </trkpt>
      <trkpt lat="50.1903" lon="1.61762">
        <ele>6.9</ele>
        <time>2023-06-11T12:54:38Z</time>
      </trkpt>
      <trkpt lat="50.19033" lon="1.61749">
        <ele>6.8</ele>
        <time>2023-06-11T12:54:40Z</time>
      </trkpt>
      <trkpt lat="50.19037" lon="1.61733">
        <ele>6.7</ele>
        <time>2023-06-11T12:54:42Z</time>
      </trkpt>
      <trkpt lat="50.19041" lon="1.61718">
        <ele>6.6</ele>
        <time>2023-06-11T12:54:44Z</time>
      </trkpt>
      <trkpt lat="50.19043" lon="1.61705">
        <ele>6.8</ele>
        <time>2023-06-11T12:54:46Z</time>
      </trkpt>
      <trkpt lat="50.19047" lon="1.61692">
        <ele>7</ele>
        <time>2023-06-11T12:54:48Z</time>
      </trkpt>
      <trkpt lat="50.19051" lon="1.61678">
        <ele>7.1</ele>
        <time>2023-06-11T12:54:50Z</time>
      </trkpt>
      <trkpt lat="50.19054" lon="1.61665">
        <ele>7.1</ele>
        <time>2023-06-11T12:54:52Z</time>
      </trkpt>
      <trkpt lat="50.19058" lon="1.61651">
        <ele>7</ele>
        <time>2023-06-11T12:54:54Z</time>
      </trkpt>
      <trkpt lat="50.19061" lon="1.6164">
        <ele>7</ele>
        <time>2023-06-11T12:54:56Z</time>
      </trkpt>
      <trkpt lat="50.19064" lon="1.61628">
        <ele>7.3</ele>
        <time>2023-06-11T12:54:58Z</time>
      </trkpt>
      <trkpt lat="50.19068" lon="1.61617">
        <ele>7.4</ele>
        <time>2023-06-11T12:55:00Z</time>
      </trkpt>
      <trkpt lat="50.19072" lon="1.61605">
        <ele>7.3</ele>
        <time>2023-06-11T12:55:02Z</time>
      </trkpt>
      <trkpt lat="50.19077" lon="1.61593">
        <ele>7.1</ele>
        <time>2023-06-11T12:55:04Z</time>
      </trkpt>
      <trkpt lat="50.19082" lon="1.61581">
        <ele>7</ele>
        <time>2023-06-11T12:55:06Z</time>
      </trkpt>
      <trkpt lat="50.19088" lon="1.6157">
        <ele>6.9</ele>
        <time>2023-06-11T12:55:08Z</time>
      </trkpt>
      <trkpt lat="50.19093" lon="1.6156">
        <ele>6.9</ele>
        <time>2023-06-11T12:55:10Z</time>
      </trkpt>
      <trkpt lat="50.19099" lon="1.6155">
        <ele>7</ele>
        <time>2023-06-11T12:55:12Z</time>
      </trkpt>
      <trkpt lat="50.19104" lon="1.6154">
        <ele>7</ele>
        <time>2023-06-11T12:55:14Z</time>
      </trkpt>
      <trkpt lat="50.19109" lon="1.6153">
        <ele>7</ele>
        <time>2023-06-11T12:55:16Z</time>
      </trkpt>
      <trkpt lat="50.19113" lon="1.61521">
        <ele>7.2</ele>
        <time>2023-06-11T12:55:18Z</time>
      </trkpt>
      <trkpt lat="50.19116" lon="1.61511">
        <ele>7.3</ele>
        <time>2023-06-11T12:55:20Z</time>
      </trkpt>
      <trkpt lat="50.1912" lon="1.61502">
        <ele>7.3</ele>
        <time>2023-06-11T12:55:22Z</time>
      </trkpt>
      <trkpt lat="50.19123" lon="1.61491">
        <ele>7.3</ele>
        <time>2023-06-11T12:55:24Z</time>
      </trkpt>
      <trkpt lat="50.19126" lon="1.61479">
        <ele>7.3</ele>
        <time>2023-06-11T12:55:26Z</time>
      </trkpt>
      <trkpt lat="50.19127" lon="1.61467">
        <ele>7.2</ele>
        <time>2023-06-11T12:55:28Z</time>
      </trkpt>
      <trkpt lat="50.19129" lon="1.61456">
        <ele>6.9</ele>
        <time>2023-06-11T12:55:30Z</time>
      </trkpt>
      <trkpt lat="50.19131" lon="1.61445">
        <ele>6.6</ele>
        <time>2023-06-11T12:55:32Z</time>
      </trkpt>
      <trkpt lat="50.19132" lon="1.61434">
        <ele>6.4</ele>
        <time>2023-06-11T12:55:34Z</time>
      </trkpt>
      <trkpt lat="50.19133" lon="1.61423">
        <ele>6.2</ele>
        <time>2023-06-11T12:55:36Z</time>
      </trkpt>
      <trkpt lat="50.19135" lon="1.61411">
        <ele>6.3</ele>
        <time>2023-06-11T12:55:38Z</time>
      </trkpt>
      <trkpt lat="50.19137" lon="1.614">
        <ele>6.6</ele>
        <time>2023-06-11T12:55:40Z</time>
      </trkpt>
      <trkpt lat="50.19139" lon="1.6139">
        <ele>6.9</ele>
        <time>2023-06-11T12:55:42Z</time>
      </trkpt>
      <trkpt lat="50.19139" lon="1.61381">
        <ele>7</ele>
        <time>2023-06-11T12:55:44Z</time>
      </trkpt>
      <trkpt lat="50.19139" lon="1.61372">
        <ele>7</ele>
        <time>2023-06-11T12:55:46Z</time>
      </trkpt>
      <trkpt lat="50.19141" lon="1.61362">
        <ele>6.9</ele>
        <time>2023-06-11T12:55:48Z</time>
      </trkpt>
      <trkpt lat="50.19145" lon="1.61355">
        <ele>6.6</ele>
        <time>2023-06-11T12:55:50Z</time>
      </trkpt>
      <trkpt lat="50.1915" lon="1.6135">
        <ele>6.4</ele>
        <time>2023-06-11T12:55:52Z</time>
      </trkpt>
      <trkpt lat="50.19155" lon="1.61347">
        <ele>6.1</ele>
        <time>2023-06-11T12:55:54Z</time>
      </trkpt>
      <trkpt lat="50.19158" lon="1.61341">
        <ele>6.1</ele>
        <time>2023-06-11T12:55:56Z</time>
      </trkpt>
      <trkpt lat="50.19164" lon="1.61331">
        <ele>6.1</ele>
        <time>2023-06-11T12:56:00Z</time>
      </trkpt>
      <trkpt lat="50.1917" lon="1.61324">
        <ele>5.9</ele>
        <time>2023-06-11T12:56:04Z</time>
      </trkpt>
      <trkpt lat="50.19177" lon="1.61315">
        <ele>5.9</ele>
        <time>2023-06-11T12:56:08Z</time>
      </trkpt>
      <trkpt lat="50.19181" lon="1.61312">
        <ele>5.9</ele>
        <time>2023-06-11T12:56:10Z</time>
      </trkpt>
      <trkpt lat="50.19184" lon="1.61307">
        <ele>6</ele>
        <time>2023-06-11T12:56:12Z</time>
      </trkpt>
      <trkpt lat="50.19188" lon="1.61301">
        <ele>6</ele>
        <time>2023-06-11T12:56:14Z</time>
      </trkpt>
      <trkpt lat="50.19192" lon="1.61295">
        <ele>6</ele>
        <time>2023-06-11T12:56:16Z</time>
      </trkpt>
      <trkpt lat="50.19194" lon="1.61289">
        <ele>6</ele>
        <time>2023-06-11T12:56:18Z</time>
      </trkpt>
      <trkpt lat="50.19198" lon="1.61284">
        <ele>5.9</ele>
        <time>2023-06-11T12:56:20Z</time>
      </trkpt>
      <trkpt lat="50.19201" lon="1.61276">
        <ele>5.7</ele>
        <time>2023-06-11T12:56:22Z</time>
      </trkpt>
      <trkpt lat="50.19204" lon="1.61268">
        <ele>5.4</ele>
        <time>2023-06-11T12:56:24Z</time>
      </trkpt>
      <trkpt lat="50.19206" lon="1.6126">
        <ele>5.2</ele>
        <time>2023-06-11T12:56:26Z</time>
      </trkpt>
      <trkpt lat="50.19209" lon="1.61251">
        <ele>5</ele>
        <time>2023-06-11T12:56:28Z</time>
      </trkpt>
      <trkpt lat="50.19212" lon="1.61243">
        <ele>5</ele>
        <time>2023-06-11T12:56:30Z</time>
      </trkpt>
      <trkpt lat="50.19215" lon="1.61236">
        <ele>5</ele>
        <time>2023-06-11T12:56:32Z</time>
      </trkpt>
      <trkpt lat="50.19219" lon="1.6123">
        <ele>5</ele>
        <time>2023-06-11T12:56:34Z</time>
      </trkpt>
      <trkpt lat="50.19223" lon="1.61224">
        <ele>5</ele>
        <time>2023-06-11T12:56:36Z</time>
      </trkpt>
      <trkpt lat="50.19226" lon="1.61215">
        <ele>4.9</ele>
        <time>2023-06-11T13:01:04Z</time>
      </trkpt>
      <trkpt lat="50.19229" lon="1.61204">
        <ele>4.8</ele>
        <time>2023-06-11T13:01:08Z</time>
      </trkpt>
      <trkpt lat="50.19231" lon="1.61196">
        <ele>4.7</ele>
        <time>2023-06-11T13:01:10Z</time>
      </trkpt>
      <trkpt lat="50.19233" lon="1.61187">
        <ele>4.7</ele>
        <time>2023-06-11T13:01:12Z</time>
      </trkpt>
      <trkpt lat="50.19235" lon="1.61176">
        <ele>4.8</ele>
        <time>2023-06-11T13:01:14Z</time>
      </trkpt>
      <trkpt lat="50.19237" lon="1.61166">
        <ele>5</ele>
        <time>2023-06-11T13:01:16Z</time>
      </trkpt>
      <trkpt lat="50.19239" lon="1.61156">
        <ele>5</ele>
        <time>2023-06-11T13:01:18Z</time>
      </trkpt>
      <trkpt lat="50.19242" lon="1.61147">
        <ele>5</ele>
        <time>2023-06-11T13:01:20Z</time>
      </trkpt>
      <trkpt lat="50.19246" lon="1.61137">
        <ele>5</ele>
        <time>2023-06-11T13:01:22Z</time>
      </trkpt>
      <trkpt lat="50.19249" lon="1.61127">
        <ele>5</ele>
        <time>2023-06-11T13:01:24Z</time>
      </trkpt>
      <trkpt lat="50.19253" lon="1.61118">
        <ele>4.9</ele>
        <time>2023-06-11T13:01:26Z</time>
      </trkpt>
      <trkpt lat="50.19257" lon="1.61108">
        <ele>4.8</ele>
        <time>2023-06-11T13:01:28Z</time>
      </trkpt>
      <trkpt lat="50.19261" lon="1.611">
        <ele>4.8</ele>
        <time>2023-06-11T13:01:30Z</time>
      </trkpt>
      <trkpt lat="50.19264" lon="1.61092">
        <ele>4.8</ele>
        <time>2023-06-11T13:01:32Z</time>
      </trkpt>
      <trkpt lat="50.19267" lon="1.61084">
        <ele>5</ele>
        <time>2023-06-11T13:01:34Z</time>
      </trkpt>
      <trkpt lat="50.19269" lon="1.61077">
        <ele>4.9</ele>
        <time>2023-06-11T13:01:36Z</time>
      </trkpt>
      <trkpt lat="50.19272" lon="1.6107">
        <ele>4.9</ele>
        <time>2023-06-11T13:01:38Z</time>
      </trkpt>
      <trkpt lat="50.19275" lon="1.61062">
        <ele>4.9</ele>
        <time>2023-06-11T13:01:40Z</time>
      </trkpt>
      <trkpt lat="50.19278" lon="1.61055">
        <ele>5</ele>
        <time>2023-06-11T13:01:42Z</time>
      </trkpt>
      <trkpt lat="50.19281" lon="1.61047">
        <ele>4.9</ele>
        <time>2023-06-11T13:01:44Z</time>
      </trkpt>
      <trkpt lat="50.19285" lon="1.6104">
        <ele>4.7</ele>
        <time>2023-06-11T13:01:46Z</time>
      </trkpt>
      <trkpt lat="50.1929" lon="1.61035">
        <ele>4.6</ele>
        <time>2023-06-11T13:01:48Z</time>
      </trkpt>
      <trkpt lat="50.19295" lon="1.61029">
        <ele>4.4</ele>
        <time>2023-06-11T13:01:50Z</time>
      </trkpt>
      <trkpt lat="50.19298" lon="1.61022">
        <ele>4.2</ele>
        <time>2023-06-11T13:01:52Z</time>
      </trkpt>
      <trkpt lat="50.19299" lon="1.61013">
        <ele>4.1</ele>
        <time>2023-06-11T13:01:54Z</time>
      </trkpt>
      <trkpt lat="50.19301" lon="1.61004">
        <ele>4</ele>
        <time>2023-06-11T13:01:56Z</time>
      </trkpt>
      <trkpt lat="50.19302" lon="1.60994">
        <ele>4.2</ele>
        <time>2023-06-11T13:01:58Z</time>
      </trkpt>
      <trkpt lat="50.19304" lon="1.60985">
        <ele>4.5</ele>
        <time>2023-06-11T13:02:00Z</time>
      </trkpt>
      <trkpt lat="50.19308" lon="1.60977">
        <ele>4.7</ele>
        <time>2023-06-11T13:02:02Z</time>
      </trkpt>
      <trkpt lat="50.19312" lon="1.60972">
        <ele>4.6</ele>
        <time>2023-06-11T13:02:04Z</time>
      </trkpt>
      <trkpt lat="50.19315" lon="1.60966">
        <ele>4.3</ele>
        <time>2023-06-11T13:02:06Z</time>
      </trkpt>
      <trkpt lat="50.19317" lon="1.60958">
        <ele>4.2</ele>
        <time>2023-06-11T13:02:08Z</time>
      </trkpt>
      <trkpt lat="50.19319" lon="1.60949">
        <ele>4</ele>
        <time>2023-06-11T13:02:10Z</time>
      </trkpt>
      <trkpt lat="50.19322" lon="1.6094">
        <ele>3.9</ele>
        <time>2023-06-11T13:02:12Z</time>
      </trkpt>
      <trkpt lat="50.19325" lon="1.60929">
        <ele>4</ele>
        <time>2023-06-11T13:02:14Z</time>
      </trkpt>
      <trkpt lat="50.19327" lon="1.60919">
        <ele>4.1</ele>
        <time>2023-06-11T13:02:16Z</time>
      </trkpt>
      <trkpt lat="50.1933" lon="1.60911">
        <ele>4.3</ele>
        <time>2023-06-11T13:02:18Z</time>
      </trkpt>
      <trkpt lat="50.19332" lon="1.60903">
        <ele>4.5</ele>
        <time>2023-06-11T13:02:20Z</time>
      </trkpt>
      <trkpt lat="50.19334" lon="1.60895">
        <ele>4.8</ele>
        <time>2023-06-11T13:02:22Z</time>
      </trkpt>
      <trkpt lat="50.19333" lon="1.60887">
        <ele>5</ele>
        <time>2023-06-11T13:02:24Z</time>
      </trkpt>
      <trkpt lat="50.19335" lon="1.60881">
        <ele>4.9</ele>
        <time>2023-06-11T13:02:26Z</time>
      </trkpt>
      <trkpt lat="50.19338" lon="1.60875">
        <ele>4.6</ele>
        <time>2023-06-11T13:02:28Z</time>
      </trkpt>
      <trkpt lat="50.19342" lon="1.60868">
        <ele>4.4</ele>
        <time>2023-06-11T13:02:30Z</time>
      </trkpt>
      <trkpt lat="50.19346" lon="1.6086">
        <ele>4.1</ele>
        <time>2023-06-11T13:02:32Z</time>
      </trkpt>
      <trkpt lat="50.19349" lon="1.60852">
        <ele>4.1</ele>
        <time>2023-06-11T13:02:34Z</time>
      </trkpt>
      <trkpt lat="50.19352" lon="1.60843">
        <ele>4.1</ele>
        <time>2023-06-11T13:02:36Z</time>
      </trkpt>
      <trkpt lat="50.19355" lon="1.60835">
        <ele>4.2</ele>
        <time>2023-06-11T13:02:38Z</time>
      </trkpt>
      <trkpt lat="50.19358" lon="1.60825">
        <ele>4.4</ele>
        <time>2023-06-11T13:02:40Z</time>
      </trkpt>
      <trkpt lat="50.19361" lon="1.60817">
        <ele>4.6</ele>
        <time>2023-06-11T13:02:42Z</time>
      </trkpt>
      <trkpt lat="50.19365" lon="1.60811">
        <ele>4.6</ele>
        <time>2023-06-11T13:02:44Z</time>
      </trkpt>
      <trkpt lat="50.19369" lon="1.60805">
        <ele>4.4</ele>
        <time>2023-06-11T13:02:46Z</time>
      </trkpt>
      <trkpt lat="50.19373" lon="1.60796">
        <ele>4.1</ele>
        <time>2023-06-11T13:02:48Z</time>
      </trkpt>
      <trkpt lat="50.19377" lon="1.60787">
        <ele>3.8</ele>
        <time>2023-06-11T13:02:50Z</time>
      </trkpt>
      <trkpt lat="50.19381" lon="1.60778">
        <ele>3.6</ele>
        <time>2023-06-11T13:02:52Z</time>
      </trkpt>
      <trkpt lat="50.19385" lon="1.60771">
        <ele>3.5</ele>
        <time>2023-06-11T13:02:54Z</time>
      </trkpt>
      <trkpt lat="50.19389" lon="1.60762">
        <ele>3.6</ele>
        <time>2023-06-11T13:02:56Z</time>
      </trkpt>
      <trkpt lat="50.19392" lon="1.60754">
        <ele>3.8</ele>
        <time>2023-06-11T13:02:58Z</time>
      </trkpt>
      <trkpt lat="50.19397" lon="1.60748">
        <ele>3.8</ele>
        <time>2023-06-11T13:03:00Z</time>
      </trkpt>
      <trkpt lat="50.19402" lon="1.60743">
        <ele>3.8</ele>
        <time>2023-06-11T13:03:02Z</time>
      </trkpt>
      <trkpt lat="50.19406" lon="1.60735">
        <ele>3.9</ele>
        <time>2023-06-11T13:03:04Z</time>
      </trkpt>
      <trkpt lat="50.19409" lon="1.60727">
        <ele>4.1</ele>
        <time>2023-06-11T13:03:06Z</time>
      </trkpt>
      <trkpt lat="50.19414" lon="1.60721">
        <ele>4.1</ele>
        <time>2023-06-11T13:03:08Z</time>
      </trkpt>
      <trkpt lat="50.19418" lon="1.60715">
        <ele>4.2</ele>
        <time>2023-06-11T13:03:10Z</time>
      </trkpt>
      <trkpt lat="50.19423" lon="1.60708">
        <ele>4.3</ele>
        <time>2023-06-11T13:03:12Z</time>
      </trkpt>
      <trkpt lat="50.19428" lon="1.60701">
        <ele>4.4</ele>
        <time>2023-06-11T13:03:14Z</time>
      </trkpt>
      <trkpt lat="50.19434" lon="1.60696">
        <ele>4.3</ele>
        <time>2023-06-11T13:03:16Z</time>
      </trkpt>
      <trkpt lat="50.19442" lon="1.60694">
        <ele>4.1</ele>
        <time>2023-06-11T13:03:18Z</time>
      </trkpt>
      <trkpt lat="50.1945" lon="1.60689">
        <ele>4</ele>
        <time>2023-06-11T13:03:20Z</time>
      </trkpt>
      <trkpt lat="50.19457" lon="1.60682">
        <ele>4</ele>
        <time>2023-06-11T13:03:22Z</time>
      </trkpt>
      <trkpt lat="50.19463" lon="1.60676">
        <ele>4</ele>
        <time>2023-06-11T13:03:24Z</time>
      </trkpt>
      <trkpt lat="50.19469" lon="1.60671">
        <ele>4</ele>
        <time>2023-06-11T13:03:26Z</time>
      </trkpt>
      <trkpt lat="50.19475" lon="1.60667">
        <ele>3.9</ele>
        <time>2023-06-11T13:03:28Z</time>
      </trkpt>
      <trkpt lat="50.19481" lon="1.60664">
        <ele>3.7</ele>
        <time>2023-06-11T13:03:30Z</time>
      </trkpt>
      <trkpt lat="50.19487" lon="1.6066">
        <ele>3.3</ele>
        <time>2023-06-11T13:03:32Z</time>
      </trkpt>
      <trkpt lat="50.19489" lon="1.60651">
        <ele>3</ele>
        <time>2023-06-11T13:03:34Z</time>
      </trkpt>
      <trkpt lat="50.19486" lon="1.60644">
        <ele>3.1</ele>
        <time>2023-06-11T13:03:36Z</time>
      </trkpt>
      <trkpt lat="50.19482" lon="1.60636">
        <ele>3.3</ele>
        <time>2023-06-11T13:03:38Z</time>
      </trkpt>
      <trkpt lat="50.19477" lon="1.60628">
        <ele>3.7</ele>
        <time>2023-06-11T13:03:40Z</time>
      </trkpt>
      <trkpt lat="50.19474" lon="1.60618">
        <ele>3.9</ele>
        <time>2023-06-11T13:03:42Z</time>
      </trkpt>
      <trkpt lat="50.1947" lon="1.6061">
        <ele>4.1</ele>
        <time>2023-06-11T13:03:44Z</time>
      </trkpt>
      <trkpt lat="50.19466" lon="1.60603">
        <ele>4</ele>
        <time>2023-06-11T13:03:46Z</time>
      </trkpt>
      <trkpt lat="50.19465" lon="1.60594">
        <ele>3.8</ele>
        <time>2023-06-11T13:03:48Z</time>
      </trkpt>
      <trkpt lat="50.19465" lon="1.60583">
        <ele>3.5</ele>
        <time>2023-06-11T13:03:52Z</time>
      </trkpt>
      <trkpt lat="50.19463" lon="1.60576">
        <ele>3.7</ele>
        <time>2023-06-11T13:05:38Z</time>
      </trkpt>
      <trkpt lat="50.19455" lon="1.60573">
        <ele>4.2</ele>
        <time>2023-06-11T13:05:42Z</time>
      </trkpt>
      <trkpt lat="50.19446" lon="1.60578">
        <ele>4.9</ele>
        <time>2023-06-11T13:05:46Z</time>
      </trkpt>
      <trkpt lat="50.19441" lon="1.60581">
        <ele>4.9</ele>
        <time>2023-06-11T13:05:48Z</time>
      </trkpt>
      <trkpt lat="50.19436" lon="1.60583">
        <ele>4.7</ele>
        <time>2023-06-11T13:05:50Z</time>
      </trkpt>
      <trkpt lat="50.19432" lon="1.60587">
        <ele>4.6</ele>
        <time>2023-06-11T13:05:54Z</time>
      </trkpt>
      <trkpt lat="50.19429" lon="1.60593">
        <ele>4.6</ele>
        <time>2023-06-11T13:05:58Z</time>
      </trkpt>
      <trkpt lat="50.19429" lon="1.60602">
        <ele>4.8</ele>
        <time>2023-06-11T13:06:04Z</time>
      </trkpt>
      <trkpt lat="50.19428" lon="1.60615">
        <ele>5</ele>
        <time>2023-06-11T13:06:08Z</time>
      </trkpt>
      <trkpt lat="50.19428" lon="1.60626">
        <ele>5</ele>
        <time>2023-06-11T13:06:10Z</time>
      </trkpt>
      <trkpt lat="50.19428" lon="1.60637">
        <ele>5</ele>
        <time>2023-06-11T13:06:12Z</time>
      </trkpt>
      <trkpt lat="50.19425" lon="1.60647">
        <ele>5</ele>
        <time>2023-06-11T13:06:14Z</time>
      </trkpt>
      <trkpt lat="50.19423" lon="1.60656">
        <ele>5</ele>
        <time>2023-06-11T13:06:16Z</time>
      </trkpt>
      <trkpt lat="50.19421" lon="1.60664">
        <ele>5</ele>
        <time>2023-06-11T13:06:18Z</time>
      </trkpt>
      <trkpt lat="50.19416" lon="1.60668">
        <ele>5</ele>
        <time>2023-06-11T13:06:20Z</time>
      </trkpt>
      <trkpt lat="50.19411" lon="1.60675">
        <ele>5</ele>
        <time>2023-06-11T13:06:22Z</time>
      </trkpt>
      <trkpt lat="50.19404" lon="1.60682">
        <ele>5</ele>
        <time>2023-06-11T13:06:24Z</time>
      </trkpt>
      <trkpt lat="50.19397" lon="1.60686">
        <ele>5</ele>
        <time>2023-06-11T13:06:26Z</time>
      </trkpt>
      <trkpt lat="50.1939" lon="1.60686">
        <ele>5</ele>
        <time>2023-06-11T13:06:28Z</time>
      </trkpt>
      <trkpt lat="50.19382" lon="1.60687">
        <ele>4.9</ele>
        <time>2023-06-11T13:06:30Z</time>
      </trkpt>
      <trkpt lat="50.19376" lon="1.60688">
        <ele>4.9</ele>
        <time>2023-06-11T13:06:32Z</time>
      </trkpt>
      <trkpt lat="50.19371" lon="1.60688">
        <ele>4.9</ele>
        <time>2023-06-11T13:06:34Z</time>
      </trkpt>
      <trkpt lat="50.19368" lon="1.60695">
        <ele>5</ele>
        <time>2023-06-11T13:06:36Z</time>
      </trkpt>
      <trkpt lat="50.19367" lon="1.60706">
        <ele>5</ele>
        <time>2023-06-11T13:06:38Z</time>
      </trkpt>
      <trkpt lat="50.19365" lon="1.60717">
        <ele>5</ele>
        <time>2023-06-11T13:06:40Z</time>
      </trkpt>
      <trkpt lat="50.19361" lon="1.60728">
        <ele>5</ele>
        <time>2023-06-11T13:06:42Z</time>
      </trkpt>
      <trkpt lat="50.19357" lon="1.60739">
        <ele>4.8</ele>
        <time>2023-06-11T13:06:44Z</time>
      </trkpt>
      <trkpt lat="50.19353" lon="1.60748">
        <ele>4.7</ele>
        <time>2023-06-11T13:06:46Z</time>
      </trkpt>
      <trkpt lat="50.1935" lon="1.60759">
        <ele>4.7</ele>
        <time>2023-06-11T13:06:48Z</time>
      </trkpt>
      <trkpt lat="50.19348" lon="1.6077">
        <ele>4.9</ele>
        <time>2023-06-11T13:06:50Z</time>
      </trkpt>
      <trkpt lat="50.19347" lon="1.60781">
        <ele>5</ele>
        <time>2023-06-11T13:06:52Z</time>
      </trkpt>
      <trkpt lat="50.19347" lon="1.60792">
        <ele>5</ele>
        <time>2023-06-11T13:06:54Z</time>
      </trkpt>
      <trkpt lat="50.19346" lon="1.60803">
        <ele>5</ele>
        <time>2023-06-11T13:06:56Z</time>
      </trkpt>
      <trkpt lat="50.19343" lon="1.60815">
        <ele>4.9</ele>
        <time>2023-06-11T13:06:58Z</time>
      </trkpt>
      <trkpt lat="50.1934" lon="1.60826">
        <ele>4.8</ele>
        <time>2023-06-11T13:07:00Z</time>
      </trkpt>
      <trkpt lat="50.19336" lon="1.60837">
        <ele>4.9</ele>
        <time>2023-06-11T13:07:02Z</time>
      </trkpt>
      <trkpt lat="50.19334" lon="1.6085">
        <ele>5</ele>
        <time>2023-06-11T13:07:04Z</time>
      </trkpt>
      <trkpt lat="50.19332" lon="1.60862">
        <ele>5</ele>
        <time>2023-06-11T13:07:06Z</time>
      </trkpt>
      <trkpt lat="50.1933" lon="1.60876">
        <ele>5</ele>
        <time>2023-06-11T13:07:08Z</time>
      </trkpt>
      <trkpt lat="50.19328" lon="1.6089">
        <ele>5</ele>
        <time>2023-06-11T13:07:10Z</time>
      </trkpt>
      <trkpt lat="50.19324" lon="1.60901">
        <ele>4.7</ele>
        <time>2023-06-11T13:07:12Z</time>
      </trkpt>
      <trkpt lat="50.1932" lon="1.6091">
        <ele>4.6</ele>
        <time>2023-06-11T13:07:14Z</time>
      </trkpt>
      <trkpt lat="50.19317" lon="1.60921">
        <ele>4.5</ele>
        <time>2023-06-11T13:07:16Z</time>
      </trkpt>
      <trkpt lat="50.19314" lon="1.60931">
        <ele>4.6</ele>
        <time>2023-06-11T13:07:18Z</time>
      </trkpt>
      <trkpt lat="50.19311" lon="1.60942">
        <ele>4.6</ele>
        <time>2023-06-11T13:07:20Z</time>
      </trkpt>
      <trkpt lat="50.19311" lon="1.60951">
        <ele>4.6</ele>
        <time>2023-06-11T13:07:22Z</time>
      </trkpt>
      <trkpt lat="50.19313" lon="1.6096">
        <ele>4.5</ele>
        <time>2023-06-11T13:07:24Z</time>
      </trkpt>
      <trkpt lat="50.19315" lon="1.60966">
        <ele>4.3</ele>
        <time>2023-06-11T13:07:26Z</time>
      </trkpt>
      <trkpt lat="50.19313" lon="1.60975">
        <ele>4.4</ele>
        <time>2023-06-11T13:07:28Z</time>
      </trkpt>
      <trkpt lat="50.19309" lon="1.60981">
        <ele>4.5</ele>
        <time>2023-06-11T13:07:30Z</time>
      </trkpt>
      <trkpt lat="50.19306" lon="1.60988">
        <ele>4.4</ele>
        <time>2023-06-11T13:07:32Z</time>
      </trkpt>
      <trkpt lat="50.19303" lon="1.60999">
        <ele>4</ele>
        <time>2023-06-11T13:07:34Z</time>
      </trkpt>
      <trkpt lat="50.193" lon="1.6101">
        <ele>4.1</ele>
        <time>2023-06-11T13:07:36Z</time>
      </trkpt>
      <trkpt lat="50.19296" lon="1.61021">
        <ele>4.3</ele>
        <time>2023-06-11T13:07:38Z</time>
      </trkpt>
      <trkpt lat="50.19294" lon="1.6103">
        <ele>4.4</ele>
        <time>2023-06-11T13:07:40Z</time>
      </trkpt>
      <trkpt lat="50.19293" lon="1.61039">
        <ele>4.4</ele>
        <time>2023-06-11T13:07:42Z</time>
      </trkpt>
      <trkpt lat="50.1929" lon="1.61043">
        <ele>4.6</ele>
        <time>2023-06-11T13:07:44Z</time>
      </trkpt>
      <trkpt lat="50.19285" lon="1.61048">
        <ele>4.8</ele>
        <time>2023-06-11T13:07:46Z</time>
      </trkpt>
      <trkpt lat="50.19281" lon="1.61055">
        <ele>4.9</ele>
        <time>2023-06-11T13:07:48Z</time>
      </trkpt>
      <trkpt lat="50.19277" lon="1.61063">
        <ele>5</ele>
        <time>2023-06-11T13:07:50Z</time>
      </trkpt>
      <trkpt lat="50.19273" lon="1.61071">
        <ele>4.9</ele>
        <time>2023-06-11T13:07:52Z</time>
      </trkpt>
      <trkpt lat="50.19269" lon="1.61079">
        <ele>5</ele>
        <time>2023-06-11T13:07:54Z</time>
      </trkpt>
      <trkpt lat="50.19267" lon="1.61088">
        <ele>4.9</ele>
        <time>2023-06-11T13:07:56Z</time>
      </trkpt>
      <trkpt lat="50.19264" lon="1.61096">
        <ele>4.8</ele>
        <time>2023-06-11T13:07:58Z</time>
      </trkpt>
      <trkpt lat="50.19261" lon="1.61103">
        <ele>4.7</ele>
        <time>2023-06-11T13:08:00Z</time>
      </trkpt>
      <trkpt lat="50.19257" lon="1.61111">
        <ele>4.8</ele>
        <time>2023-06-11T13:08:02Z</time>
      </trkpt>
      <trkpt lat="50.19253" lon="1.61121">
        <ele>4.9</ele>
        <time>2023-06-11T13:08:04Z</time>
      </trkpt>
      <trkpt lat="50.19249" lon="1.6113">
        <ele>5</ele>
        <time>2023-06-11T13:08:06Z</time>
      </trkpt>
      <trkpt lat="50.19246" lon="1.61141">
        <ele>5</ele>
        <time>2023-06-11T13:08:08Z</time>
      </trkpt>
      <trkpt lat="50.19242" lon="1.61151">
        <ele>5</ele>
        <time>2023-06-11T13:08:10Z</time>
      </trkpt>
      <trkpt lat="50.19239" lon="1.61162">
        <ele>5</ele>
        <time>2023-06-11T13:08:12Z</time>
      </trkpt>
      <trkpt lat="50.19237" lon="1.61172">
        <ele>4.9</ele>
        <time>2023-06-11T13:08:14Z</time>
      </trkpt>
      <trkpt lat="50.19235" lon="1.61183">
        <ele>4.7</ele>
        <time>2023-06-11T13:08:16Z</time>
      </trkpt>
      <trkpt lat="50.19233" lon="1.61192">
        <ele>4.7</ele>
        <time>2023-06-11T13:08:18Z</time>
      </trkpt>
      <trkpt lat="50.1923" lon="1.61199">
        <ele>4.7</ele>
        <time>2023-06-11T13:08:20Z</time>
      </trkpt>
      <trkpt lat="50.19228" lon="1.61208">
        <ele>4.8</ele>
        <time>2023-06-11T13:08:22Z</time>
      </trkpt>
      <trkpt lat="50.19227" lon="1.61217">
        <ele>4.8</ele>
        <time>2023-06-11T13:08:24Z</time>
      </trkpt>
      <trkpt lat="50.19223" lon="1.61225">
        <ele>5</ele>
        <time>2023-06-11T13:08:26Z</time>
      </trkpt>
      <trkpt lat="50.19218" lon="1.61232">
        <ele>5</ele>
        <time>2023-06-11T13:08:28Z</time>
      </trkpt>
      <trkpt lat="50.19211" lon="1.61235">
        <ele>5</ele>
        <time>2023-06-11T13:08:30Z</time>
      </trkpt>
      <trkpt lat="50.19202" lon="1.61237">
        <ele>5</ele>
        <time>2023-06-11T13:08:32Z</time>
      </trkpt>
      <trkpt lat="50.19195" lon="1.61242">
        <ele>5</ele>
        <time>2023-06-11T13:08:34Z</time>
      </trkpt>
      <trkpt lat="50.19187" lon="1.61247">
        <ele>5</ele>
        <time>2023-06-11T13:08:36Z</time>
      </trkpt>
      <trkpt lat="50.19179" lon="1.61251">
        <ele>5</ele>
        <time>2023-06-11T13:08:38Z</time>
      </trkpt>
      <trkpt lat="50.19171" lon="1.6125">
        <ele>5</ele>
        <time>2023-06-11T13:08:40Z</time>
      </trkpt>
      <trkpt lat="50.19163" lon="1.61244">
        <ele>5.2</ele>
        <time>2023-06-11T13:08:42Z</time>
      </trkpt>
      <trkpt lat="50.19156" lon="1.61236">
        <ele>5.4</ele>
        <time>2023-06-11T13:08:44Z</time>
      </trkpt>
      <trkpt lat="50.19149" lon="1.61228">
        <ele>5.3</ele>
        <time>2023-06-11T13:08:46Z</time>
      </trkpt>
      <trkpt lat="50.19142" lon="1.61221">
        <ele>5</ele>
        <time>2023-06-11T13:08:48Z</time>
      </trkpt>
      <trkpt lat="50.19137" lon="1.61213">
        <ele>5.2</ele>
        <time>2023-06-11T13:08:50Z</time>
      </trkpt>
      <trkpt lat="50.19132" lon="1.61206">
        <ele>5.6</ele>
        <time>2023-06-11T13:08:52Z</time>
      </trkpt>
      <trkpt lat="50.19127" lon="1.61197">
        <ele>5.9</ele>
        <time>2023-06-11T13:08:54Z</time>
      </trkpt>
      <trkpt lat="50.19124" lon="1.61187">
        <ele>5.9</ele>
        <time>2023-06-11T13:08:56Z</time>
      </trkpt>
      <trkpt lat="50.19122" lon="1.61178">
        <ele>5.9</ele>
        <time>2023-06-11T13:08:58Z</time>
      </trkpt>
      <trkpt lat="50.19119" lon="1.6117">
        <ele>5.8</ele>
        <time>2023-06-11T13:09:00Z</time>
      </trkpt>
      <trkpt lat="50.19117" lon="1.6116">
        <ele>5.6</ele>
        <time>2023-06-11T13:09:02Z</time>
      </trkpt>
      <trkpt lat="50.19115" lon="1.61151">
        <ele>5.4</ele>
        <time>2023-06-11T13:09:04Z</time>
      </trkpt>
      <trkpt lat="50.19114" lon="1.61143">
        <ele>5.1</ele>
        <time>2023-06-11T13:09:06Z</time>
      </trkpt>
      <trkpt lat="50.19111" lon="1.61134">
        <ele>5.1</ele>
        <time>2023-06-11T13:09:08Z</time>
      </trkpt>
      <trkpt lat="50.19107" lon="1.61124">
        <ele>5.6</ele>
        <time>2023-06-11T13:09:10Z</time>
      </trkpt>
      <trkpt lat="50.19105" lon="1.61115">
        <ele>5.9</ele>
        <time>2023-06-11T13:09:12Z</time>
      </trkpt>
      <trkpt lat="50.19102" lon="1.61104">
        <ele>6.1</ele>
        <time>2023-06-11T13:09:14Z</time>
      </trkpt>
      <trkpt lat="50.19098" lon="1.61096">
        <ele>6.4</ele>
        <time>2023-06-11T13:09:16Z</time>
      </trkpt>
      <trkpt lat="50.19095" lon="1.61087">
        <ele>6.3</ele>
        <time>2023-06-11T13:09:18Z</time>
      </trkpt>
      <trkpt lat="50.19091" lon="1.61078">
        <ele>6.2</ele>
        <time>2023-06-11T13:09:20Z</time>
      </trkpt>
      <trkpt lat="50.19087" lon="1.61071">
        <ele>6</ele>
        <time>2023-06-11T13:09:22Z</time>
      </trkpt>
      <trkpt lat="50.19083" lon="1.61063">
        <ele>5.6</ele>
        <time>2023-06-11T13:09:24Z</time>
      </trkpt>
      <trkpt lat="50.19079" lon="1.61054">
        <ele>5.8</ele>
        <time>2023-06-11T13:09:26Z</time>
      </trkpt>
      <trkpt lat="50.19074" lon="1.61046">
        <ele>6.2</ele>
        <time>2023-06-11T13:09:28Z</time>
      </trkpt>
      <trkpt lat="50.19069" lon="1.61038">
        <ele>6.2</ele>
        <time>2023-06-11T13:09:30Z</time>
      </trkpt>
      <trkpt lat="50.19064" lon="1.6103">
        <ele>5.9</ele>
        <time>2023-06-11T13:09:32Z</time>
      </trkpt>
      <trkpt lat="50.1906" lon="1.61022">
        <ele>5.7</ele>
        <time>2023-06-11T13:09:34Z</time>
      </trkpt>
      <trkpt lat="50.19055" lon="1.61014">
        <ele>5.5</ele>
        <time>2023-06-11T13:09:36Z</time>
      </trkpt>
      <trkpt lat="50.19053" lon="1.61004">
        <ele>5.2</ele>
        <time>2023-06-11T13:09:38Z</time>
      </trkpt>
      <trkpt lat="50.19051" lon="1.60994">
        <ele>5</ele>
        <time>2023-06-11T13:09:40Z</time>
      </trkpt>
      <trkpt lat="50.19048" lon="1.60984">
        <ele>5.1</ele>
        <time>2023-06-11T13:09:42Z</time>
      </trkpt>
      <trkpt lat="50.19046" lon="1.60976">
        <ele>5.3</ele>
        <time>2023-06-11T13:09:44Z</time>
      </trkpt>
      <trkpt lat="50.19044" lon="1.60968">
        <ele>5.4</ele>
        <time>2023-06-11T13:09:46Z</time>
      </trkpt>
      <trkpt lat="50.19041" lon="1.60959">
        <ele>5.5</ele>
        <time>2023-06-11T13:09:48Z</time>
      </trkpt>
      <trkpt lat="50.19038" lon="1.6095">
        <ele>5.6</ele>
        <time>2023-06-11T13:09:50Z</time>
      </trkpt>
      <trkpt lat="50.19035" lon="1.60941">
        <ele>5.7</ele>
        <time>2023-06-11T13:09:52Z</time>
      </trkpt>
      <trkpt lat="50.19032" lon="1.60932">
        <ele>5.9</ele>
        <time>2023-06-11T13:09:54Z</time>
      </trkpt>
      <trkpt lat="50.19029" lon="1.60923">
        <ele>5.9</ele>
        <time>2023-06-11T13:09:56Z</time>
      </trkpt>
      <trkpt lat="50.19027" lon="1.60914">
        <ele>5.9</ele>
        <time>2023-06-11T13:09:58Z</time>
      </trkpt>
      <trkpt lat="50.19024" lon="1.60905">
        <ele>5.5</ele>
        <time>2023-06-11T13:10:00Z</time>
      </trkpt>
      <trkpt lat="50.19021" lon="1.60896">
        <ele>5.4</ele>
        <time>2023-06-11T13:10:02Z</time>
      </trkpt>
      <trkpt lat="50.19018" lon="1.60887">
        <ele>5.4</ele>
        <time>2023-06-11T13:10:04Z</time>
      </trkpt>
      <trkpt lat="50.19014" lon="1.60878">
        <ele>5.5</ele>
        <time>2023-06-11T13:10:06Z</time>
      </trkpt>
      <trkpt lat="50.1901" lon="1.6087">
        <ele>5.6</ele>
        <time>2023-06-11T13:10:08Z</time>
      </trkpt>
      <trkpt lat="50.19006" lon="1.60861">
        <ele>5.8</ele>
        <time>2023-06-11T13:10:10Z</time>
      </trkpt>
      <trkpt lat="50.19002" lon="1.60851">
        <ele>5.6</ele>
        <time>2023-06-11T13:10:12Z</time>
      </trkpt>
      <trkpt lat="50.18998" lon="1.60841">
        <ele>5.9</ele>
        <time>2023-06-11T13:10:14Z</time>
      </trkpt>
      <trkpt lat="50.18994" lon="1.6083">
        <ele>6.7</ele>
        <time>2023-06-11T13:10:16Z</time>
      </trkpt>
      <trkpt lat="50.18991" lon="1.6082">
        <ele>7.4</ele>
        <time>2023-06-11T13:10:18Z</time>
      </trkpt>
      <trkpt lat="50.18988" lon="1.6081">
        <ele>7.8</ele>
        <time>2023-06-11T13:10:20Z</time>
      </trkpt>
      <trkpt lat="50.18984" lon="1.60801">
        <ele>8</ele>
        <time>2023-06-11T13:10:22Z</time>
      </trkpt>
      <trkpt lat="50.1898" lon="1.60792">
        <ele>7.5</ele>
        <time>2023-06-11T13:10:24Z</time>
      </trkpt>
      <trkpt lat="50.18976" lon="1.60782">
        <ele>6.4</ele>
        <time>2023-06-11T13:10:26Z</time>
      </trkpt>
      <trkpt lat="50.18973" lon="1.60772">
        <ele>5.8</ele>
        <time>2023-06-11T13:10:28Z</time>
      </trkpt>
      <trkpt lat="50.18969" lon="1.60762">
        <ele>6.4</ele>
        <time>2023-06-11T13:10:30Z</time>
      </trkpt>
      <trkpt lat="50.18966" lon="1.60752">
        <ele>7</ele>
        <time>2023-06-11T13:10:32Z</time>
      </trkpt>
      <trkpt lat="50.18962" lon="1.60742">
        <ele>7.5</ele>
        <time>2023-06-11T13:10:34Z</time>
      </trkpt>
      <trkpt lat="50.1896" lon="1.60732">
        <ele>7.7</ele>
        <time>2023-06-11T13:10:36Z</time>
      </trkpt>
      <trkpt lat="50.18956" lon="1.60722">
        <ele>7.8</ele>
        <time>2023-06-11T13:10:38Z</time>
      </trkpt>
      <trkpt lat="50.18953" lon="1.60712">
        <ele>7.7</ele>
        <time>2023-06-11T13:10:40Z</time>
      </trkpt>
      <trkpt lat="50.1895" lon="1.60701">
        <ele>7.2</ele>
        <time>2023-06-11T13:10:42Z</time>
      </trkpt>
      <trkpt lat="50.18947" lon="1.60691">
        <ele>6.7</ele>
        <time>2023-06-11T13:10:44Z</time>
      </trkpt>
      <trkpt lat="50.18943" lon="1.60681">
        <ele>6.7</ele>
        <time>2023-06-11T13:10:46Z</time>
      </trkpt>
      <trkpt lat="50.18939" lon="1.60672">
        <ele>7.1</ele>
        <time>2023-06-11T13:10:48Z</time>
      </trkpt>
      <trkpt lat="50.18935" lon="1.60662">
        <ele>7.4</ele>
        <time>2023-06-11T13:10:50Z</time>
      </trkpt>
      <trkpt lat="50.18932" lon="1.60653">
        <ele>7.3</ele>
        <time>2023-06-11T13:10:52Z</time>
      </trkpt>
      <trkpt lat="50.18928" lon="1.60643">
        <ele>7.1</ele>
        <time>2023-06-11T13:10:54Z</time>
      </trkpt>
      <trkpt lat="50.18924" lon="1.60633">
        <ele>6.9</ele>
        <time>2023-06-11T13:10:56Z</time>
      </trkpt>
      <trkpt lat="50.1892" lon="1.60623">
        <ele>6.7</ele>
        <time>2023-06-11T13:10:58Z</time>
      </trkpt>
      <trkpt lat="50.18915" lon="1.60614">
        <ele>6.3</ele>
        <time>2023-06-11T13:11:00Z</time>
      </trkpt>
      <trkpt lat="50.18911" lon="1.60604">
        <ele>6.4</ele>
        <time>2023-06-11T13:11:02Z</time>
      </trkpt>
      <trkpt lat="50.18906" lon="1.60594">
        <ele>6.5</ele>
        <time>2023-06-11T13:11:04Z</time>
      </trkpt>
      <trkpt lat="50.18902" lon="1.60585">
        <ele>6.6</ele>
        <time>2023-06-11T13:11:06Z</time>
      </trkpt>
      <trkpt lat="50.18897" lon="1.60575">
        <ele>6.7</ele>
        <time>2023-06-11T13:11:08Z</time>
      </trkpt>
      <trkpt lat="50.18894" lon="1.60565">
        <ele>6.4</ele>
        <time>2023-06-11T13:11:10Z</time>
      </trkpt>
      <trkpt lat="50.1889" lon="1.60556">
        <ele>6</ele>
        <time>2023-06-11T13:11:12Z</time>
      </trkpt>
      <trkpt lat="50.18886" lon="1.60549">
        <ele>6.3</ele>
        <time>2023-06-11T13:11:14Z</time>
      </trkpt>
      <trkpt lat="50.18883" lon="1.60542">
        <ele>6.6</ele>
        <time>2023-06-11T13:11:16Z</time>
      </trkpt>
      <trkpt lat="50.18879" lon="1.60536">
        <ele>6.8</ele>
        <time>2023-06-11T13:11:18Z</time>
      </trkpt>
      <trkpt lat="50.18875" lon="1.6053">
        <ele>7</ele>
        <time>2023-06-11T13:11:20Z</time>
      </trkpt>
      <trkpt lat="50.18872" lon="1.60523">
        <ele>6.9</ele>
        <time>2023-06-11T13:11:22Z</time>
      </trkpt>
      <trkpt lat="50.18868" lon="1.60515">
        <ele>6.7</ele>
        <time>2023-06-11T13:11:24Z</time>
      </trkpt>
      <trkpt lat="50.18866" lon="1.60509">
        <ele>6.4</ele>
        <time>2023-06-11T13:11:26Z</time>
      </trkpt>
      <trkpt lat="50.18862" lon="1.60503">
        <ele>6.2</ele>
        <time>2023-06-11T13:11:28Z</time>
      </trkpt>
      <trkpt lat="50.18858" lon="1.60492">
        <ele>6.3</ele>
        <time>2023-06-11T13:11:32Z</time>
      </trkpt>
      <trkpt lat="50.18855" lon="1.60486">
        <ele>6.6</ele>
        <time>2023-06-11T13:11:34Z</time>
      </trkpt>
      <trkpt lat="50.18852" lon="1.60477">
        <ele>7</ele>
        <time>2023-06-11T13:11:36Z</time>
      </trkpt>
      <trkpt lat="50.18849" lon="1.60468">
        <ele>7.1</ele>
        <time>2023-06-11T13:11:38Z</time>
      </trkpt>
      <trkpt lat="50.18846" lon="1.60459">
        <ele>6.9</ele>
        <time>2023-06-11T13:11:40Z</time>
      </trkpt>
      <trkpt lat="50.18843" lon="1.60449">
        <ele>6.6</ele>
        <time>2023-06-11T13:11:42Z</time>
      </trkpt>
      <trkpt lat="50.1884" lon="1.60439">
        <ele>6.4</ele>
        <time>2023-06-11T13:11:44Z</time>
      </trkpt>
      <trkpt lat="50.18837" lon="1.60429">
        <ele>6.2</ele>
        <time>2023-06-11T13:11:46Z</time>
      </trkpt>
      <trkpt lat="50.18834" lon="1.6042">
        <ele>6.1</ele>
        <time>2023-06-11T13:11:48Z</time>
      </trkpt>
      <trkpt lat="50.1883" lon="1.60411">
        <ele>6.6</ele>
        <time>2023-06-11T13:11:50Z</time>
      </trkpt>
      <trkpt lat="50.18826" lon="1.60402">
        <ele>7.1</ele>
        <time>2023-06-11T13:11:52Z</time>
      </trkpt>
      <trkpt lat="50.18823" lon="1.60393">
        <ele>7.6</ele>
        <time>2023-06-11T13:11:54Z</time>
      </trkpt>
      <trkpt lat="50.18819" lon="1.60384">
        <ele>7.8</ele>
        <time>2023-06-11T13:11:56Z</time>
      </trkpt>
      <trkpt lat="50.18816" lon="1.60376">
        <ele>7.7</ele>
        <time>2023-06-11T13:11:58Z</time>
      </trkpt>
      <trkpt lat="50.18812" lon="1.60369">
        <ele>7.4</ele>
        <time>2023-06-11T13:12:00Z</time>
      </trkpt>
      <trkpt lat="50.18808" lon="1.60361">
        <ele>6.9</ele>
        <time>2023-06-11T13:12:02Z</time>
      </trkpt>
      <trkpt lat="50.18804" lon="1.60352">
        <ele>6.7</ele>
        <time>2023-06-11T13:12:04Z</time>
      </trkpt>
      <trkpt lat="50.18801" lon="1.60343">
        <ele>6.8</ele>
        <time>2023-06-11T13:12:06Z</time>
      </trkpt>
      <trkpt lat="50.18798" lon="1.60333">
        <ele>7.1</ele>
        <time>2023-06-11T13:12:08Z</time>
      </trkpt>
      <trkpt lat="50.18795" lon="1.60324">
        <ele>7.6</ele>
        <time>2023-06-11T13:12:10Z</time>
      </trkpt>
      <trkpt lat="50.18792" lon="1.60316">
        <ele>7.7</ele>
        <time>2023-06-11T13:12:12Z</time>
      </trkpt>
      <trkpt lat="50.18789" lon="1.60306">
        <ele>7.4</ele>
        <time>2023-06-11T13:12:14Z</time>
      </trkpt>
      <trkpt lat="50.18786" lon="1.60297">
        <ele>7.1</ele>
        <time>2023-06-11T13:12:16Z</time>
      </trkpt>
      <trkpt lat="50.18783" lon="1.60287">
        <ele>6.7</ele>
        <time>2023-06-11T13:12:18Z</time>
      </trkpt>
      <trkpt lat="50.18779" lon="1.60278">
        <ele>5.9</ele>
        <time>2023-06-11T13:12:20Z</time>
      </trkpt>
      <trkpt lat="50.18776" lon="1.60268">
        <ele>6.5</ele>
        <time>2023-06-11T13:12:22Z</time>
      </trkpt>
      <trkpt lat="50.18773" lon="1.60259">
        <ele>7.2</ele>
        <time>2023-06-11T13:12:24Z</time>
      </trkpt>
      <trkpt lat="50.1877" lon="1.60249">
        <ele>7.7</ele>
        <time>2023-06-11T13:12:26Z</time>
      </trkpt>
      <trkpt lat="50.18766" lon="1.60239">
        <ele>7.6</ele>
        <time>2023-06-11T13:12:28Z</time>
      </trkpt>
      <trkpt lat="50.18763" lon="1.6023">
        <ele>7.4</ele>
        <time>2023-06-11T13:12:30Z</time>
      </trkpt>
      <trkpt lat="50.18759" lon="1.60221">
        <ele>7</ele>
        <time>2023-06-11T13:12:32Z</time>
      </trkpt>
      <trkpt lat="50.18754" lon="1.60211">
        <ele>6.8</ele>
        <time>2023-06-11T13:12:34Z</time>
      </trkpt>
      <trkpt lat="50.18752" lon="1.602">
        <ele>6.3</ele>
        <time>2023-06-11T13:12:36Z</time>
      </trkpt>
      <trkpt lat="50.1875" lon="1.60189">
        <ele>6.1</ele>
        <time>2023-06-11T13:12:38Z</time>
      </trkpt>
      <trkpt lat="50.18746" lon="1.60178">
        <ele>6.9</ele>
        <time>2023-06-11T13:12:40Z</time>
      </trkpt>
      <trkpt lat="50.18743" lon="1.60167">
        <ele>7.4</ele>
        <time>2023-06-11T13:12:42Z</time>
      </trkpt>
      <trkpt lat="50.1874" lon="1.60156">
        <ele>7.4</ele>
        <time>2023-06-11T13:12:44Z</time>
      </trkpt>
      <trkpt lat="50.18737" lon="1.60145">
        <ele>7</ele>
        <time>2023-06-11T13:12:46Z</time>
      </trkpt>
      <trkpt lat="50.18733" lon="1.60136">
        <ele>6.7</ele>
        <time>2023-06-11T13:12:48Z</time>
      </trkpt>
      <trkpt lat="50.1873" lon="1.60126">
        <ele>6.5</ele>
        <time>2023-06-11T13:12:50Z</time>
      </trkpt>
      <trkpt lat="50.18726" lon="1.60117">
        <ele>6.2</ele>
        <time>2023-06-11T13:12:52Z</time>
      </trkpt>
      <trkpt lat="50.18723" lon="1.60108">
        <ele>6</ele>
        <time>2023-06-11T13:12:54Z</time>
      </trkpt>
      <trkpt lat="50.1872" lon="1.60098">
        <ele>6.6</ele>
        <time>2023-06-11T13:12:56Z</time>
      </trkpt>
      <trkpt lat="50.18716" lon="1.60089">
        <ele>7.2</ele>
        <time>2023-06-11T13:12:58Z</time>
      </trkpt>
      <trkpt lat="50.18712" lon="1.6008">
        <ele>7.5</ele>
        <time>2023-06-11T13:13:00Z</time>
      </trkpt>
      <trkpt lat="50.18709" lon="1.6007">
        <ele>7.3</ele>
        <time>2023-06-11T13:13:02Z</time>
      </trkpt>
      <trkpt lat="50.18704" lon="1.60061">
        <ele>6.9</ele>
        <time>2023-06-11T13:13:04Z</time>
      </trkpt>
      <trkpt lat="50.18701" lon="1.60052">
        <ele>6.5</ele>
        <time>2023-06-11T13:13:06Z</time>
      </trkpt>
      <trkpt lat="50.18696" lon="1.60043">
        <ele>6.5</ele>
        <time>2023-06-11T13:13:08Z</time>
      </trkpt>
      <trkpt lat="50.18691" lon="1.60034">
        <ele>7.2</ele>
        <time>2023-06-11T13:13:10Z</time>
      </trkpt>
      <trkpt lat="50.18687" lon="1.60026">
        <ele>8.1</ele>
        <time>2023-06-11T13:13:12Z</time>
      </trkpt>
      <trkpt lat="50.18683" lon="1.60019">
        <ele>8.6</ele>
        <time>2023-06-11T13:13:14Z</time>
      </trkpt>
      <trkpt lat="50.18679" lon="1.60012">
        <ele>8.9</ele>
        <time>2023-06-11T13:13:16Z</time>
      </trkpt>
      <trkpt lat="50.18675" lon="1.60005">
        <ele>8.7</ele>
        <time>2023-06-11T13:13:18Z</time>
      </trkpt>
      <trkpt lat="50.18672" lon="1.59997">
        <ele>8.1</ele>
        <time>2023-06-11T13:13:20Z</time>
      </trkpt>
      <trkpt lat="50.18668" lon="1.59989">
        <ele>7.6</ele>
        <time>2023-06-11T13:13:22Z</time>
      </trkpt>
      <trkpt lat="50.18665" lon="1.5998">
        <ele>7.4</ele>
        <time>2023-06-11T13:13:24Z</time>
      </trkpt>
      <trkpt lat="50.18661" lon="1.59971">
        <ele>7.9</ele>
        <time>2023-06-11T13:13:26Z</time>
      </trkpt>
      <trkpt lat="50.18658" lon="1.59962">
        <ele>8.7</ele>
        <time>2023-06-11T13:13:28Z</time>
      </trkpt>
      <trkpt lat="50.18655" lon="1.59953">
        <ele>9</ele>
        <time>2023-06-11T13:13:30Z</time>
      </trkpt>
      <trkpt lat="50.18651" lon="1.59943">
        <ele>9.2</ele>
        <time>2023-06-11T13:13:32Z</time>
      </trkpt>
      <trkpt lat="50.18648" lon="1.59934">
        <ele>8.7</ele>
        <time>2023-06-11T13:13:34Z</time>
      </trkpt>
      <trkpt lat="50.18644" lon="1.59924">
        <ele>7.9</ele>
        <time>2023-06-11T13:13:36Z</time>
      </trkpt>
      <trkpt lat="50.1864" lon="1.59915">
        <ele>6.9</ele>
        <time>2023-06-11T13:13:38Z</time>
      </trkpt>
      <trkpt lat="50.18636" lon="1.59905">
        <ele>7.4</ele>
        <time>2023-06-11T13:13:40Z</time>
      </trkpt>
      <trkpt lat="50.18632" lon="1.59897">
        <ele>8.2</ele>
        <time>2023-06-11T13:13:42Z</time>
      </trkpt>
      <trkpt lat="50.18628" lon="1.59887">
        <ele>8.9</ele>
        <time>2023-06-11T13:13:44Z</time>
      </trkpt>
      <trkpt lat="50.18624" lon="1.59878">
        <ele>9.3</ele>
        <time>2023-06-11T13:13:46Z</time>
      </trkpt>
      <trkpt lat="50.18619" lon="1.59868">
        <ele>9.1</ele>
        <time>2023-06-11T13:13:48Z</time>
      </trkpt>
      <trkpt lat="50.18614" lon="1.59857">
        <ele>8.4</ele>
        <time>2023-06-11T13:13:50Z</time>
      </trkpt>
      <trkpt lat="50.1861" lon="1.59845">
        <ele>8.1</ele>
        <time>2023-06-11T13:13:52Z</time>
      </trkpt>
      <trkpt lat="50.18606" lon="1.59834">
        <ele>8.7</ele>
        <time>2023-06-11T13:13:54Z</time>
      </trkpt>
      <trkpt lat="50.18602" lon="1.59823">
        <ele>9.3</ele>
        <time>2023-06-11T13:13:56Z</time>
      </trkpt>
      <trkpt lat="50.18598" lon="1.59812">
        <ele>9.4</ele>
        <time>2023-06-11T13:13:58Z</time>
      </trkpt>
      <trkpt lat="50.18594" lon="1.59801">
        <ele>9.2</ele>
        <time>2023-06-11T13:14:00Z</time>
      </trkpt>
      <trkpt lat="50.18591" lon="1.5979">
        <ele>8.3</ele>
        <time>2023-06-11T13:14:02Z</time>
      </trkpt>
      <trkpt lat="50.18588" lon="1.59779">
        <ele>7</ele>
        <time>2023-06-11T13:14:04Z</time>
      </trkpt>
      <trkpt lat="50.18585" lon="1.59768">
        <ele>6.9</ele>
        <time>2023-06-11T13:14:06Z</time>
      </trkpt>
      <trkpt lat="50.18582" lon="1.59758">
        <ele>7.3</ele>
        <time>2023-06-11T13:14:08Z</time>
      </trkpt>
      <trkpt lat="50.18579" lon="1.59747">
        <ele>7.9</ele>
        <time>2023-06-11T13:14:10Z</time>
      </trkpt>
      <trkpt lat="50.18576" lon="1.59738">
        <ele>8</ele>
        <time>2023-06-11T13:14:12Z</time>
      </trkpt>
      <trkpt lat="50.18573" lon="1.59728">
        <ele>7.7</ele>
        <time>2023-06-11T13:14:14Z</time>
      </trkpt>
      <trkpt lat="50.18569" lon="1.59717">
        <ele>7.3</ele>
        <time>2023-06-11T13:14:16Z</time>
      </trkpt>
      <trkpt lat="50.18566" lon="1.59706">
        <ele>7.2</ele>
        <time>2023-06-11T13:14:18Z</time>
      </trkpt>
      <trkpt lat="50.18563" lon="1.59695">
        <ele>6.8</ele>
        <time>2023-06-11T13:14:20Z</time>
      </trkpt>
      <trkpt lat="50.1856" lon="1.59685">
        <ele>6.9</ele>
        <time>2023-06-11T13:14:22Z</time>
      </trkpt>
      <trkpt lat="50.18556" lon="1.59674">
        <ele>7</ele>
        <time>2023-06-11T13:14:24Z</time>
      </trkpt>
      <trkpt lat="50.18552" lon="1.59664">
        <ele>7.4</ele>
        <time>2023-06-11T13:14:26Z</time>
      </trkpt>
      <trkpt lat="50.18549" lon="1.59654">
        <ele>7.2</ele>
        <time>2023-06-11T13:14:28Z</time>
      </trkpt>
      <trkpt lat="50.18546" lon="1.59642">
        <ele>6.6</ele>
        <time>2023-06-11T13:14:30Z</time>
      </trkpt>
      <trkpt lat="50.18543" lon="1.59631">
        <ele>6.3</ele>
        <time>2023-06-11T13:14:32Z</time>
      </trkpt>
      <trkpt lat="50.1854" lon="1.5962">
        <ele>6.2</ele>
        <time>2023-06-11T13:14:34Z</time>
      </trkpt>
      <trkpt lat="50.18538" lon="1.59609">
        <ele>6</ele>
        <time>2023-06-11T13:14:36Z</time>
      </trkpt>
      <trkpt lat="50.18534" lon="1.59598">
        <ele>6</ele>
        <time>2023-06-11T13:14:38Z</time>
      </trkpt>
      <trkpt lat="50.18531" lon="1.59586">
        <ele>6</ele>
        <time>2023-06-11T13:14:40Z</time>
      </trkpt>
      <trkpt lat="50.18527" lon="1.59574">
        <ele>6.1</ele>
        <time>2023-06-11T13:14:42Z</time>
      </trkpt>
      <trkpt lat="50.18523" lon="1.59563">
        <ele>6.2</ele>
        <time>2023-06-11T13:14:44Z</time>
      </trkpt>
      <trkpt lat="50.18519" lon="1.59552">
        <ele>6</ele>
        <time>2023-06-11T13:14:46Z</time>
      </trkpt>
      <trkpt lat="50.18515" lon="1.59541">
        <ele>5.8</ele>
        <time>2023-06-11T13:14:48Z</time>
      </trkpt>
      <trkpt lat="50.18511" lon="1.59531">
        <ele>5.5</ele>
        <time>2023-06-11T13:14:50Z</time>
      </trkpt>
      <trkpt lat="50.18508" lon="1.59521">
        <ele>5.4</ele>
        <time>2023-06-11T13:14:52Z</time>
      </trkpt>
      <trkpt lat="50.18505" lon="1.59513">
        <ele>5.6</ele>
        <time>2023-06-11T13:14:54Z</time>
      </trkpt>
      <trkpt lat="50.18502" lon="1.59504">
        <ele>5.9</ele>
        <time>2023-06-11T13:14:56Z</time>
      </trkpt>
      <trkpt lat="50.18499" lon="1.59496">
        <ele>6</ele>
        <time>2023-06-11T13:14:58Z</time>
      </trkpt>
      <trkpt lat="50.18495" lon="1.59484">
        <ele>6.1</ele>
        <time>2023-06-11T13:15:02Z</time>
      </trkpt>
      <trkpt lat="50.18492" lon="1.59477">
        <ele>6</ele>
        <time>2023-06-11T13:15:04Z</time>
      </trkpt>
      <trkpt lat="50.1849" lon="1.5947">
        <ele>6</ele>
        <time>2023-06-11T13:15:06Z</time>
      </trkpt>
      <trkpt lat="50.18488" lon="1.59464">
        <ele>6</ele>
        <time>2023-06-11T13:15:08Z</time>
      </trkpt>
      <trkpt lat="50.18486" lon="1.59458">
        <ele>6</ele>
        <time>2023-06-11T13:15:10Z</time>
      </trkpt>
      <trkpt lat="50.18483" lon="1.5945">
        <ele>6</ele>
        <time>2023-06-11T13:15:14Z</time>
      </trkpt>
      <trkpt lat="50.18483" lon="1.59441">
        <ele>6</ele>
        <time>2023-06-11T13:16:24Z</time>
      </trkpt>
      <trkpt lat="50.18476" lon="1.59431">
        <ele>6</ele>
        <time>2023-06-11T13:16:28Z</time>
      </trkpt>
      <trkpt lat="50.18471" lon="1.59425">
        <ele>6</ele>
        <time>2023-06-11T13:16:30Z</time>
      </trkpt>
      <trkpt lat="50.18466" lon="1.59418">
        <ele>6.2</ele>
        <time>2023-06-11T13:16:32Z</time>
      </trkpt>
      <trkpt lat="50.1846" lon="1.59411">
        <ele>6.4</ele>
        <time>2023-06-11T13:16:34Z</time>
      </trkpt>
      <trkpt lat="50.18455" lon="1.59405">
        <ele>6.6</ele>
        <time>2023-06-11T13:16:36Z</time>
      </trkpt>
      <trkpt lat="50.18449" lon="1.59398">
        <ele>6.8</ele>
        <time>2023-06-11T13:16:38Z</time>
      </trkpt>
      <trkpt lat="50.18444" lon="1.59392">
        <ele>7</ele>
        <time>2023-06-11T13:16:40Z</time>
      </trkpt>
      <trkpt lat="50.1844" lon="1.59386">
        <ele>7.4</ele>
        <time>2023-06-11T13:16:42Z</time>
      </trkpt>
      <trkpt lat="50.18435" lon="1.5938">
        <ele>7.4</ele>
        <time>2023-06-11T13:16:44Z</time>
      </trkpt>
      <trkpt lat="50.18431" lon="1.59373">
        <ele>7.3</ele>
        <time>2023-06-11T13:16:46Z</time>
      </trkpt>
      <trkpt lat="50.18427" lon="1.59368">
        <ele>7.2</ele>
        <time>2023-06-11T13:16:48Z</time>
      </trkpt>
      <trkpt lat="50.18424" lon="1.59362">
        <ele>6.8</ele>
        <time>2023-06-11T13:16:50Z</time>
      </trkpt>
      <trkpt lat="50.18422" lon="1.59355">
        <ele>6.8</ele>
        <time>2023-06-11T13:17:40Z</time>
      </trkpt>
      <trkpt lat="50.18422" lon="1.59346">
        <ele>6.8</ele>
        <time>2023-06-11T13:17:48Z</time>
      </trkpt>
      <trkpt lat="50.18422" lon="1.59339">
        <ele>6.8</ele>
        <time>2023-06-11T13:17:50Z</time>
      </trkpt>
      <trkpt lat="50.18424" lon="1.5933">
        <ele>6.7</ele>
        <time>2023-06-11T13:17:52Z</time>
      </trkpt>
      <trkpt lat="50.18427" lon="1.59319">
        <ele>6.3</ele>
        <time>2023-06-11T13:17:54Z</time>
      </trkpt>
      <trkpt lat="50.18431" lon="1.59307">
        <ele>6</ele>
        <time>2023-06-11T13:17:56Z</time>
      </trkpt>
      <trkpt lat="50.18436" lon="1.59297">
        <ele>6</ele>
        <time>2023-06-11T13:17:58Z</time>
      </trkpt>
      <trkpt lat="50.18441" lon="1.5929">
        <ele>6</ele>
        <time>2023-06-11T13:18:00Z</time>
      </trkpt>
      <trkpt lat="50.18447" lon="1.59283">
        <ele>6</ele>
        <time>2023-06-11T13:18:02Z</time>
      </trkpt>
      <trkpt lat="50.18453" lon="1.59276">
        <ele>6</ele>
        <time>2023-06-11T13:18:04Z</time>
      </trkpt>
      <trkpt lat="50.18459" lon="1.5927">
        <ele>5.9</ele>
        <time>2023-06-11T13:18:06Z</time>
      </trkpt>
      <trkpt lat="50.18465" lon="1.59264">
        <ele>5.9</ele>
        <time>2023-06-11T13:18:08Z</time>
      </trkpt>
      <trkpt lat="50.18472" lon="1.59256">
        <ele>6</ele>
        <time>2023-06-11T13:18:10Z</time>
      </trkpt>
      <trkpt lat="50.18479" lon="1.5925">
        <ele>5.7</ele>
        <time>2023-06-11T13:18:12Z</time>
      </trkpt>
      <trkpt lat="50.18486" lon="1.59242">
        <ele>5.5</ele>
        <time>2023-06-11T13:18:14Z</time>
      </trkpt>
      <trkpt lat="50.18491" lon="1.59237">
        <ele>5.5</ele>
        <time>2023-06-11T13:18:16Z</time>
      </trkpt>
      <trkpt lat="50.18496" lon="1.5923">
        <ele>5.7</ele>
        <time>2023-06-11T13:18:18Z</time>
      </trkpt>
      <trkpt lat="50.18502" lon="1.59224">
        <ele>5.9</ele>
        <time>2023-06-11T13:18:20Z</time>
      </trkpt>
      <trkpt lat="50.18508" lon="1.59218">
        <ele>5.6</ele>
        <time>2023-06-11T13:18:22Z</time>
      </trkpt>
      <trkpt lat="50.18515" lon="1.59211">
        <ele>5.5</ele>
        <time>2023-06-11T13:18:24Z</time>
      </trkpt>
      <trkpt lat="50.18521" lon="1.59204">
        <ele>5.6</ele>
        <time>2023-06-11T13:18:26Z</time>
      </trkpt>
      <trkpt lat="50.18527" lon="1.59196">
        <ele>5.9</ele>
        <time>2023-06-11T13:18:28Z</time>
      </trkpt>
      <trkpt lat="50.18533" lon="1.59189">
        <ele>5.7</ele>
        <time>2023-06-11T13:18:30Z</time>
      </trkpt>
      <trkpt lat="50.1854" lon="1.59182">
        <ele>5.5</ele>
        <time>2023-06-11T13:18:32Z</time>
      </trkpt>
      <trkpt lat="50.18546" lon="1.59175">
        <ele>5.6</ele>
        <time>2023-06-11T13:18:34Z</time>
      </trkpt>
      <trkpt lat="50.18553" lon="1.59169">
        <ele>5.8</ele>
        <time>2023-06-11T13:18:36Z</time>
      </trkpt>
      <trkpt lat="50.18559" lon="1.59162">
        <ele>5.7</ele>
        <time>2023-06-11T13:18:38Z</time>
      </trkpt>
      <trkpt lat="50.18566" lon="1.59155">
        <ele>5.5</ele>
        <time>2023-06-11T13:18:40Z</time>
      </trkpt>
      <trkpt lat="50.18573" lon="1.59146">
        <ele>5.6</ele>
        <time>2023-06-11T13:18:42Z</time>
      </trkpt>
      <trkpt lat="50.18579" lon="1.59137">
        <ele>5.9</ele>
        <time>2023-06-11T13:18:44Z</time>
      </trkpt>
      <trkpt lat="50.18584" lon="1.59129">
        <ele>6</ele>
        <time>2023-06-11T13:18:46Z</time>
      </trkpt>
      <trkpt lat="50.18588" lon="1.5912">
        <ele>5.8</ele>
        <time>2023-06-11T13:18:48Z</time>
      </trkpt>
      <trkpt lat="50.18592" lon="1.59111">
        <ele>5.7</ele>
        <time>2023-06-11T13:18:50Z</time>
      </trkpt>
      <trkpt lat="50.18596" lon="1.59102">
        <ele>5.3</ele>
        <time>2023-06-11T13:18:52Z</time>
      </trkpt>
      <trkpt lat="50.186" lon="1.59092">
        <ele>5.1</ele>
        <time>2023-06-11T13:18:54Z</time>
      </trkpt>
      <trkpt lat="50.18604" lon="1.59082">
        <ele>5</ele>
        <time>2023-06-11T13:18:56Z</time>
      </trkpt>
      <trkpt lat="50.18608" lon="1.59071">
        <ele>5.4</ele>
        <time>2023-06-11T13:18:58Z</time>
      </trkpt>
      <trkpt lat="50.18612" lon="1.59061">
        <ele>5.8</ele>
        <time>2023-06-11T13:19:00Z</time>
      </trkpt>
      <trkpt lat="50.18616" lon="1.5905">
        <ele>5.8</ele>
        <time>2023-06-11T13:19:02Z</time>
      </trkpt>
      <trkpt lat="50.18619" lon="1.59037">
        <ele>5.7</ele>
        <time>2023-06-11T13:19:04Z</time>
      </trkpt>
      <trkpt lat="50.18621" lon="1.59025">
        <ele>5.6</ele>
        <time>2023-06-11T13:19:06Z</time>
      </trkpt>
      <trkpt lat="50.18622" lon="1.59013">
        <ele>5.3</ele>
        <time>2023-06-11T13:19:08Z</time>
      </trkpt>
      <trkpt lat="50.18624" lon="1.59001">
        <ele>5</ele>
        <time>2023-06-11T13:19:10Z</time>
      </trkpt>
      <trkpt lat="50.18625" lon="1.5899">
        <ele>5</ele>
        <time>2023-06-11T13:19:12Z</time>
      </trkpt>
      <trkpt lat="50.18627" lon="1.58978">
        <ele>5</ele>
        <time>2023-06-11T13:19:14Z</time>
      </trkpt>
      <trkpt lat="50.18628" lon="1.58967">
        <ele>5</ele>
        <time>2023-06-11T13:19:16Z</time>
      </trkpt>
      <trkpt lat="50.1863" lon="1.58955">
        <ele>5</ele>
        <time>2023-06-11T13:19:18Z</time>
      </trkpt>
      <trkpt lat="50.18632" lon="1.58944">
        <ele>5</ele>
        <time>2023-06-11T13:19:20Z</time>
      </trkpt>
      <trkpt lat="50.18633" lon="1.58932">
        <ele>5.3</ele>
        <time>2023-06-11T13:19:22Z</time>
      </trkpt>
      <trkpt lat="50.18635" lon="1.58921">
        <ele>5.7</ele>
        <time>2023-06-11T13:19:24Z</time>
      </trkpt>
      <trkpt lat="50.18636" lon="1.58909">
        <ele>6.2</ele>
        <time>2023-06-11T13:19:26Z</time>
      </trkpt>
      <trkpt lat="50.18638" lon="1.58899">
        <ele>6.6</ele>
        <time>2023-06-11T13:19:28Z</time>
      </trkpt>
      <trkpt lat="50.18642" lon="1.58891">
        <ele>6.7</ele>
        <time>2023-06-11T13:19:30Z</time>
      </trkpt>
      <trkpt lat="50.18647" lon="1.58884">
        <ele>6.2</ele>
        <time>2023-06-11T13:19:32Z</time>
      </trkpt>
      <trkpt lat="50.18651" lon="1.58876">
        <ele>5.8</ele>
        <time>2023-06-11T13:19:34Z</time>
      </trkpt>
      <trkpt lat="50.18656" lon="1.58869">
        <ele>5.7</ele>
        <time>2023-06-11T13:19:36Z</time>
      </trkpt>
      <trkpt lat="50.1866" lon="1.58863">
        <ele>5.7</ele>
        <time>2023-06-11T13:19:38Z</time>
      </trkpt>
      <trkpt lat="50.18664" lon="1.58855">
        <ele>5.9</ele>
        <time>2023-06-11T13:19:40Z</time>
      </trkpt>
      <trkpt lat="50.18668" lon="1.58847">
        <ele>5.9</ele>
        <time>2023-06-11T13:19:42Z</time>
      </trkpt>
      <trkpt lat="50.18673" lon="1.5884">
        <ele>5.8</ele>
        <time>2023-06-11T13:19:44Z</time>
      </trkpt>
      <trkpt lat="50.18678" lon="1.58832">
        <ele>5.5</ele>
        <time>2023-06-11T13:19:46Z</time>
      </trkpt>
      <trkpt lat="50.18683" lon="1.58823">
        <ele>5.3</ele>
        <time>2023-06-11T13:19:48Z</time>
      </trkpt>
      <trkpt lat="50.18688" lon="1.58815">
        <ele>5.4</ele>
        <time>2023-06-11T13:19:50Z</time>
      </trkpt>
      <trkpt lat="50.18693" lon="1.58807">
        <ele>5.9</ele>
        <time>2023-06-11T13:19:52Z</time>
      </trkpt>
      <trkpt lat="50.18698" lon="1.588">
        <ele>5.7</ele>
        <time>2023-06-11T13:19:54Z</time>
      </trkpt>
      <trkpt lat="50.18702" lon="1.58792">
        <ele>5.4</ele>
        <time>2023-06-11T13:19:56Z</time>
      </trkpt>
      <trkpt lat="50.18707" lon="1.58784">
        <ele>5.1</ele>
        <time>2023-06-11T13:19:58Z</time>
      </trkpt>
      <trkpt lat="50.18712" lon="1.58777">
        <ele>5</ele>
        <time>2023-06-11T13:20:00Z</time>
      </trkpt>
      <trkpt lat="50.18716" lon="1.5877">
        <ele>5.2</ele>
        <time>2023-06-11T13:20:02Z</time>
      </trkpt>
      <trkpt lat="50.1872" lon="1.58763">
        <ele>5.4</ele>
        <time>2023-06-11T13:20:04Z</time>
      </trkpt>
      <trkpt lat="50.18724" lon="1.58756">
        <ele>5.7</ele>
        <time>2023-06-11T13:20:06Z</time>
      </trkpt>
      <trkpt lat="50.18729" lon="1.58748">
        <ele>5.7</ele>
        <time>2023-06-11T13:20:08Z</time>
      </trkpt>
      <trkpt lat="50.18734" lon="1.5874">
        <ele>5.5</ele>
        <time>2023-06-11T13:20:10Z</time>
      </trkpt>
      <trkpt lat="50.1874" lon="1.58732">
        <ele>5.5</ele>
        <time>2023-06-11T13:20:12Z</time>
      </trkpt>
      <trkpt lat="50.18744" lon="1.58724">
        <ele>5.8</ele>
        <time>2023-06-11T13:20:14Z</time>
      </trkpt>
      <trkpt lat="50.18749" lon="1.58716">
        <ele>6</ele>
        <time>2023-06-11T13:20:16Z</time>
      </trkpt>
      <trkpt lat="50.18754" lon="1.58708">
        <ele>5.9</ele>
        <time>2023-06-11T13:20:18Z</time>
      </trkpt>
      <trkpt lat="50.18758" lon="1.587">
        <ele>5.7</ele>
        <time>2023-06-11T13:20:20Z</time>
      </trkpt>
      <trkpt lat="50.18763" lon="1.58692">
        <ele>5.5</ele>
        <time>2023-06-11T13:20:22Z</time>
      </trkpt>
      <trkpt lat="50.18768" lon="1.58684">
        <ele>5.3</ele>
        <time>2023-06-11T13:20:24Z</time>
      </trkpt>
      <trkpt lat="50.18773" lon="1.58676">
        <ele>5.5</ele>
        <time>2023-06-11T13:20:26Z</time>
      </trkpt>
      <trkpt lat="50.18778" lon="1.58667">
        <ele>6</ele>
        <time>2023-06-11T13:20:28Z</time>
      </trkpt>
      <trkpt lat="50.18783" lon="1.5866">
        <ele>5.6</ele>
        <time>2023-06-11T13:20:30Z</time>
      </trkpt>
      <trkpt lat="50.18788" lon="1.58651">
        <ele>5.3</ele>
        <time>2023-06-11T13:20:32Z</time>
      </trkpt>
      <trkpt lat="50.18792" lon="1.58643">
        <ele>5.1</ele>
        <time>2023-06-11T13:20:34Z</time>
      </trkpt>
      <trkpt lat="50.18797" lon="1.58635">
        <ele>5.1</ele>
        <time>2023-06-11T13:20:36Z</time>
      </trkpt>
      <trkpt lat="50.18803" lon="1.58628">
        <ele>5.3</ele>
        <time>2023-06-11T13:20:38Z</time>
      </trkpt>
      <trkpt lat="50.18808" lon="1.58619">
        <ele>5.7</ele>
        <time>2023-06-11T13:20:40Z</time>
      </trkpt>
      <trkpt lat="50.18812" lon="1.58611">
        <ele>5.7</ele>
        <time>2023-06-11T13:20:42Z</time>
      </trkpt>
      <trkpt lat="50.18817" lon="1.58603">
        <ele>5.5</ele>
        <time>2023-06-11T13:20:44Z</time>
      </trkpt>
      <trkpt lat="50.18822" lon="1.58595">
        <ele>5.5</ele>
        <time>2023-06-11T13:20:46Z</time>
      </trkpt>
      <trkpt lat="50.18826" lon="1.58587">
        <ele>5.7</ele>
        <time>2023-06-11T13:20:48Z</time>
      </trkpt>
      <trkpt lat="50.18831" lon="1.58579">
        <ele>5.9</ele>
        <time>2023-06-11T13:20:50Z</time>
      </trkpt>
      <trkpt lat="50.18836" lon="1.58572">
        <ele>5.9</ele>
        <time>2023-06-11T13:20:52Z</time>
      </trkpt>
      <trkpt lat="50.18841" lon="1.58564">
        <ele>5.7</ele>
        <time>2023-06-11T13:20:54Z</time>
      </trkpt>
      <trkpt lat="50.18845" lon="1.58557">
        <ele>5.6</ele>
        <time>2023-06-11T13:20:56Z</time>
      </trkpt>
      <trkpt lat="50.1885" lon="1.58549">
        <ele>5.4</ele>
        <time>2023-06-11T13:20:58Z</time>
      </trkpt>
      <trkpt lat="50.18855" lon="1.58541">
        <ele>5.5</ele>
        <time>2023-06-11T13:21:00Z</time>
      </trkpt>
      <trkpt lat="50.18859" lon="1.58534">
        <ele>5.7</ele>
        <time>2023-06-11T13:21:02Z</time>
      </trkpt>
      <trkpt lat="50.18864" lon="1.58526">
        <ele>5.8</ele>
        <time>2023-06-11T13:21:04Z</time>
      </trkpt>
      <trkpt lat="50.18869" lon="1.58518">
        <ele>5.6</ele>
        <time>2023-06-11T13:21:06Z</time>
      </trkpt>
      <trkpt lat="50.18873" lon="1.5851">
        <ele>5.5</ele>
        <time>2023-06-11T13:21:08Z</time>
      </trkpt>
      <trkpt lat="50.18878" lon="1.58503">
        <ele>5.6</ele>
        <time>2023-06-11T13:21:10Z</time>
      </trkpt>
      <trkpt lat="50.18882" lon="1.58493">
        <ele>5.8</ele>
        <time>2023-06-11T13:21:12Z</time>
      </trkpt>
      <trkpt lat="50.18887" lon="1.58485">
        <ele>5.9</ele>
        <time>2023-06-11T13:21:14Z</time>
      </trkpt>
      <trkpt lat="50.18892" lon="1.58477">
        <ele>5.9</ele>
        <time>2023-06-11T13:21:16Z</time>
      </trkpt>
      <trkpt lat="50.18897" lon="1.58469">
        <ele>5.6</ele>
        <time>2023-06-11T13:21:18Z</time>
      </trkpt>
      <trkpt lat="50.18902" lon="1.5846">
        <ele>5.3</ele>
        <time>2023-06-11T13:21:20Z</time>
      </trkpt>
      <trkpt lat="50.18907" lon="1.58451">
        <ele>5.3</ele>
        <time>2023-06-11T13:21:22Z</time>
      </trkpt>
      <trkpt lat="50.18912" lon="1.58442">
        <ele>5.6</ele>
        <time>2023-06-11T13:21:24Z</time>
      </trkpt>
      <trkpt lat="50.18918" lon="1.58433">
        <ele>5.6</ele>
        <time>2023-06-11T13:21:26Z</time>
      </trkpt>
      <trkpt lat="50.18923" lon="1.58425">
        <ele>5.2</ele>
        <time>2023-06-11T13:21:28Z</time>
      </trkpt>
      <trkpt lat="50.18928" lon="1.58416">
        <ele>5</ele>
        <time>2023-06-11T13:21:30Z</time>
      </trkpt>
      <trkpt lat="50.18934" lon="1.58407">
        <ele>5.1</ele>
        <time>2023-06-11T13:21:32Z</time>
      </trkpt>
      <trkpt lat="50.1894" lon="1.58399">
        <ele>5.4</ele>
        <time>2023-06-11T13:21:34Z</time>
      </trkpt>
      <trkpt lat="50.18945" lon="1.5839">
        <ele>5.9</ele>
        <time>2023-06-11T13:21:36Z</time>
      </trkpt>
      <trkpt lat="50.18951" lon="1.58381">
        <ele>5.3</ele>
        <time>2023-06-11T13:21:38Z</time>
      </trkpt>
      <trkpt lat="50.18956" lon="1.58371">
        <ele>4.9</ele>
        <time>2023-06-11T13:21:40Z</time>
      </trkpt>
      <trkpt lat="50.18962" lon="1.58362">
        <ele>4.7</ele>
        <time>2023-06-11T13:21:42Z</time>
      </trkpt>
      <trkpt lat="50.18967" lon="1.58355">
        <ele>5</ele>
        <time>2023-06-11T13:21:44Z</time>
      </trkpt>
      <trkpt lat="50.18972" lon="1.58346">
        <ele>5.5</ele>
        <time>2023-06-11T13:21:46Z</time>
      </trkpt>
      <trkpt lat="50.18977" lon="1.58336">
        <ele>5.7</ele>
        <time>2023-06-11T13:21:48Z</time>
      </trkpt>
      <trkpt lat="50.18983" lon="1.58327">
        <ele>5.4</ele>
        <time>2023-06-11T13:21:50Z</time>
      </trkpt>
      <trkpt lat="50.18989" lon="1.58318">
        <ele>5.3</ele>
        <time>2023-06-11T13:21:52Z</time>
      </trkpt>
      <trkpt lat="50.18995" lon="1.58309">
        <ele>5.6</ele>
        <time>2023-06-11T13:21:54Z</time>
      </trkpt>
      <trkpt lat="50.19001" lon="1.58299">
        <ele>5.7</ele>
        <time>2023-06-11T13:21:56Z</time>
      </trkpt>
      <trkpt lat="50.19007" lon="1.58289">
        <ele>5.3</ele>
        <time>2023-06-11T13:21:58Z</time>
      </trkpt>
      <trkpt lat="50.19013" lon="1.58279">
        <ele>5</ele>
        <time>2023-06-11T13:22:00Z</time>
      </trkpt>
      <trkpt lat="50.1902" lon="1.58268">
        <ele>5.2</ele>
        <time>2023-06-11T13:22:02Z</time>
      </trkpt>
      <trkpt lat="50.19027" lon="1.58256">
        <ele>5.7</ele>
        <time>2023-06-11T13:22:04Z</time>
      </trkpt>
      <trkpt lat="50.19034" lon="1.58245">
        <ele>5.5</ele>
        <time>2023-06-11T13:22:06Z</time>
      </trkpt>
      <trkpt lat="50.19041" lon="1.58233">
        <ele>4.9</ele>
        <time>2023-06-11T13:22:08Z</time>
      </trkpt>
      <trkpt lat="50.19048" lon="1.58221">
        <ele>4.7</ele>
        <time>2023-06-11T13:22:10Z</time>
      </trkpt>
      <trkpt lat="50.19055" lon="1.58208">
        <ele>5</ele>
        <time>2023-06-11T13:22:12Z</time>
      </trkpt>
      <trkpt lat="50.19062" lon="1.58196">
        <ele>5</ele>
        <time>2023-06-11T13:22:14Z</time>
      </trkpt>
      <trkpt lat="50.19069" lon="1.58185">
        <ele>5</ele>
        <time>2023-06-11T13:22:16Z</time>
      </trkpt>
      <trkpt lat="50.19077" lon="1.58175">
        <ele>5.4</ele>
        <time>2023-06-11T13:22:18Z</time>
      </trkpt>
      <trkpt lat="50.19084" lon="1.58163">
        <ele>5.9</ele>
        <time>2023-06-11T13:22:20Z</time>
      </trkpt>
      <trkpt lat="50.19091" lon="1.58152">
        <ele>5.3</ele>
        <time>2023-06-11T13:22:22Z</time>
      </trkpt>
      <trkpt lat="50.19098" lon="1.5814">
        <ele>5</ele>
        <time>2023-06-11T13:22:24Z</time>
      </trkpt>
      <trkpt lat="50.19105" lon="1.58129">
        <ele>5.2</ele>
        <time>2023-06-11T13:22:26Z</time>
      </trkpt>
      <trkpt lat="50.19112" lon="1.58117">
        <ele>5.8</ele>
        <time>2023-06-11T13:22:28Z</time>
      </trkpt>
      <trkpt lat="50.19119" lon="1.58106">
        <ele>5.5</ele>
        <time>2023-06-11T13:22:30Z</time>
      </trkpt>
      <trkpt lat="50.19125" lon="1.58096">
        <ele>5.2</ele>
        <time>2023-06-11T13:22:32Z</time>
      </trkpt>
      <trkpt lat="50.1913" lon="1.58087">
        <ele>5.3</ele>
        <time>2023-06-11T13:22:34Z</time>
      </trkpt>
      <trkpt lat="50.19135" lon="1.5808">
        <ele>5.7</ele>
        <time>2023-06-11T13:22:36Z</time>
      </trkpt>
      <trkpt lat="50.19139" lon="1.58073">
        <ele>6</ele>
        <time>2023-06-11T13:22:38Z</time>
      </trkpt>
      <trkpt lat="50.19142" lon="1.58067">
        <ele>5.9</ele>
        <time>2023-06-11T13:22:40Z</time>
      </trkpt>
      <trkpt lat="50.19147" lon="1.58059">
        <ele>5.7</ele>
        <time>2023-06-11T13:24:28Z</time>
      </trkpt>
      <trkpt lat="50.19154" lon="1.58046">
        <ele>5.3</ele>
        <time>2023-06-11T13:24:32Z</time>
      </trkpt>
      <trkpt lat="50.19158" lon="1.5804">
        <ele>5.3</ele>
        <time>2023-06-11T13:24:34Z</time>
      </trkpt>
      <trkpt lat="50.19163" lon="1.58031">
        <ele>5.6</ele>
        <time>2023-06-11T13:24:36Z</time>
      </trkpt>
      <trkpt lat="50.19168" lon="1.58023">
        <ele>5.8</ele>
        <time>2023-06-11T13:24:38Z</time>
      </trkpt>
      <trkpt lat="50.19173" lon="1.58014">
        <ele>5.4</ele>
        <time>2023-06-11T13:24:40Z</time>
      </trkpt>
      <trkpt lat="50.19178" lon="1.58007">
        <ele>5.1</ele>
        <time>2023-06-11T13:24:42Z</time>
      </trkpt>
      <trkpt lat="50.19183" lon="1.57998">
        <ele>5</ele>
        <time>2023-06-11T13:24:44Z</time>
      </trkpt>
      <trkpt lat="50.19188" lon="1.5799">
        <ele>5.2</ele>
        <time>2023-06-11T13:24:46Z</time>
      </trkpt>
      <trkpt lat="50.19192" lon="1.57982">
        <ele>5.5</ele>
        <time>2023-06-11T13:24:48Z</time>
      </trkpt>
      <trkpt lat="50.19197" lon="1.57974">
        <ele>5.8</ele>
        <time>2023-06-11T13:24:50Z</time>
      </trkpt>
      <trkpt lat="50.19202" lon="1.57966">
        <ele>5.6</ele>
        <time>2023-06-11T13:24:52Z</time>
      </trkpt>
      <trkpt lat="50.19207" lon="1.57958">
        <ele>5.5</ele>
        <time>2023-06-11T13:24:54Z</time>
      </trkpt>
      <trkpt lat="50.19212" lon="1.57949">
        <ele>5.6</ele>
        <time>2023-06-11T13:24:56Z</time>
      </trkpt>
      <trkpt lat="50.19218" lon="1.57941">
        <ele>5.8</ele>
        <time>2023-06-11T13:24:58Z</time>
      </trkpt>
      <trkpt lat="50.19223" lon="1.57933">
        <ele>6</ele>
        <time>2023-06-11T13:25:00Z</time>
      </trkpt>
      <trkpt lat="50.19229" lon="1.57925">
        <ele>5.8</ele>
        <time>2023-06-11T13:25:02Z</time>
      </trkpt>
      <trkpt lat="50.19234" lon="1.57916">
        <ele>5.6</ele>
        <time>2023-06-11T13:25:04Z</time>
      </trkpt>
      <trkpt lat="50.1924" lon="1.57907">
        <ele>5.3</ele>
        <time>2023-06-11T13:25:06Z</time>
      </trkpt>
      <trkpt lat="50.19246" lon="1.57897">
        <ele>5.5</ele>
        <time>2023-06-11T13:25:08Z</time>
      </trkpt>
      <trkpt lat="50.19251" lon="1.57888">
        <ele>5.9</ele>
        <time>2023-06-11T13:25:10Z</time>
      </trkpt>
      <trkpt lat="50.19256" lon="1.57878">
        <ele>5.5</ele>
        <time>2023-06-11T13:25:12Z</time>
      </trkpt>
      <trkpt lat="50.19262" lon="1.57869">
        <ele>5.2</ele>
        <time>2023-06-11T13:25:14Z</time>
      </trkpt>
      <trkpt lat="50.19268" lon="1.5786">
        <ele>5</ele>
        <time>2023-06-11T13:25:16Z</time>
      </trkpt>
      <trkpt lat="50.19274" lon="1.57851">
        <ele>5.3</ele>
        <time>2023-06-11T13:25:18Z</time>
      </trkpt>
      <trkpt lat="50.19279" lon="1.57843">
        <ele>5.6</ele>
        <time>2023-06-11T13:25:20Z</time>
      </trkpt>
      <trkpt lat="50.19284" lon="1.57834">
        <ele>5.8</ele>
        <time>2023-06-11T13:25:22Z</time>
      </trkpt>
      <trkpt lat="50.19288" lon="1.57825">
        <ele>5.3</ele>
        <time>2023-06-11T13:25:24Z</time>
      </trkpt>
      <trkpt lat="50.19293" lon="1.57815">
        <ele>4.9</ele>
        <time>2023-06-11T13:25:26Z</time>
      </trkpt>
      <trkpt lat="50.19297" lon="1.57805">
        <ele>4.7</ele>
        <time>2023-06-11T13:25:28Z</time>
      </trkpt>
      <trkpt lat="50.193" lon="1.57793">
        <ele>5.2</ele>
        <time>2023-06-11T13:25:30Z</time>
      </trkpt>
      <trkpt lat="50.19304" lon="1.57782">
        <ele>5.7</ele>
        <time>2023-06-11T13:25:32Z</time>
      </trkpt>
      <trkpt lat="50.19307" lon="1.57772">
        <ele>5.9</ele>
        <time>2023-06-11T13:25:34Z</time>
      </trkpt>
      <trkpt lat="50.1931" lon="1.57762">
        <ele>5.8</ele>
        <time>2023-06-11T13:25:36Z</time>
      </trkpt>
      <trkpt lat="50.19313" lon="1.57752">
        <ele>5.7</ele>
        <time>2023-06-11T13:25:38Z</time>
      </trkpt>
      <trkpt lat="50.19317" lon="1.57741">
        <ele>5.2</ele>
        <time>2023-06-11T13:25:40Z</time>
      </trkpt>
      <trkpt lat="50.19321" lon="1.5773">
        <ele>4.8</ele>
        <time>2023-06-11T13:25:42Z</time>
      </trkpt>
      <trkpt lat="50.19324" lon="1.57719">
        <ele>4.8</ele>
        <time>2023-06-11T13:25:44Z</time>
      </trkpt>
      <trkpt lat="50.19328" lon="1.57708">
        <ele>5.2</ele>
        <time>2023-06-11T13:25:46Z</time>
      </trkpt>
      <trkpt lat="50.19331" lon="1.57697">
        <ele>5.8</ele>
        <time>2023-06-11T13:25:48Z</time>
      </trkpt>
      <trkpt lat="50.19335" lon="1.57687">
        <ele>5.7</ele>
        <time>2023-06-11T13:25:50Z</time>
      </trkpt>
      <trkpt lat="50.19339" lon="1.57677">
        <ele>5.3</ele>
        <time>2023-06-11T13:25:52Z</time>
      </trkpt>
      <trkpt lat="50.19342" lon="1.57666">
        <ele>5</ele>
        <time>2023-06-11T13:25:54Z</time>
      </trkpt>
      <trkpt lat="50.19346" lon="1.57655">
        <ele>4.8</ele>
        <time>2023-06-11T13:25:56Z</time>
      </trkpt>
      <trkpt lat="50.19349" lon="1.57644">
        <ele>4.7</ele>
        <time>2023-06-11T13:25:58Z</time>
      </trkpt>
      <trkpt lat="50.19353" lon="1.57634">
        <ele>4.8</ele>
        <time>2023-06-11T13:26:00Z</time>
      </trkpt>
      <trkpt lat="50.19357" lon="1.57623">
        <ele>5.3</ele>
        <time>2023-06-11T13:26:02Z</time>
      </trkpt>
      <trkpt lat="50.1936" lon="1.57613">
        <ele>5.8</ele>
        <time>2023-06-11T13:26:04Z</time>
      </trkpt>
      <trkpt lat="50.19363" lon="1.57604">
        <ele>5.7</ele>
        <time>2023-06-11T13:26:06Z</time>
      </trkpt>
      <trkpt lat="50.19366" lon="1.57593">
        <ele>5.3</ele>
        <time>2023-06-11T13:26:08Z</time>
      </trkpt>
      <trkpt lat="50.1937" lon="1.57583">
        <ele>5</ele>
        <time>2023-06-11T13:26:10Z</time>
      </trkpt>
      <trkpt lat="50.19373" lon="1.57572">
        <ele>4.8</ele>
        <time>2023-06-11T13:26:12Z</time>
      </trkpt>
      <trkpt lat="50.19377" lon="1.57562">
        <ele>4.7</ele>
        <time>2023-06-11T13:26:14Z</time>
      </trkpt>
      <trkpt lat="50.1938" lon="1.5755">
        <ele>4.8</ele>
        <time>2023-06-11T13:26:16Z</time>
      </trkpt>
      <trkpt lat="50.19384" lon="1.57539">
        <ele>5.3</ele>
        <time>2023-06-11T13:26:18Z</time>
      </trkpt>
      <trkpt lat="50.19387" lon="1.57528">
        <ele>5.9</ele>
        <time>2023-06-11T13:26:20Z</time>
      </trkpt>
      <trkpt lat="50.1939" lon="1.57518">
        <ele>5.6</ele>
        <time>2023-06-11T13:26:22Z</time>
      </trkpt>
      <trkpt lat="50.19393" lon="1.57507">
        <ele>5.2</ele>
        <time>2023-06-11T13:26:24Z</time>
      </trkpt>
      <trkpt lat="50.19397" lon="1.57497">
        <ele>4.9</ele>
        <time>2023-06-11T13:26:26Z</time>
      </trkpt>
      <trkpt lat="50.19401" lon="1.57486">
        <ele>4.7</ele>
        <time>2023-06-11T13:26:28Z</time>
      </trkpt>
      <trkpt lat="50.19405" lon="1.57475">
        <ele>4.6</ele>
        <time>2023-06-11T13:26:30Z</time>
      </trkpt>
      <trkpt lat="50.19408" lon="1.57465">
        <ele>4.9</ele>
        <time>2023-06-11T13:26:32Z</time>
      </trkpt>
      <trkpt lat="50.19411" lon="1.57455">
        <ele>5.3</ele>
        <time>2023-06-11T13:26:34Z</time>
      </trkpt>
      <trkpt lat="50.19414" lon="1.57446">
        <ele>5.8</ele>
        <time>2023-06-11T13:26:36Z</time>
      </trkpt>
      <trkpt lat="50.19418" lon="1.57435">
        <ele>5.7</ele>
        <time>2023-06-11T13:26:38Z</time>
      </trkpt>
      <trkpt lat="50.19422" lon="1.57425">
        <ele>5.2</ele>
        <time>2023-06-11T13:26:40Z</time>
      </trkpt>
      <trkpt lat="50.19425" lon="1.57414">
        <ele>4.9</ele>
        <time>2023-06-11T13:26:42Z</time>
      </trkpt>
      <trkpt lat="50.19429" lon="1.57402">
        <ele>4.7</ele>
        <time>2023-06-11T13:26:44Z</time>
      </trkpt>
      <trkpt lat="50.19433" lon="1.57391">
        <ele>4.6</ele>
        <time>2023-06-11T13:26:46Z</time>
      </trkpt>
      <trkpt lat="50.19436" lon="1.5738">
        <ele>4.9</ele>
        <time>2023-06-11T13:26:48Z</time>
      </trkpt>
      <trkpt lat="50.19439" lon="1.5737">
        <ele>5.4</ele>
        <time>2023-06-11T13:26:50Z</time>
      </trkpt>
      <trkpt lat="50.19443" lon="1.57359">
        <ele>5.9</ele>
        <time>2023-06-11T13:26:52Z</time>
      </trkpt>
      <trkpt lat="50.19446" lon="1.57349">
        <ele>5.9</ele>
        <time>2023-06-11T13:26:54Z</time>
      </trkpt>
      <trkpt lat="50.1945" lon="1.57337">
        <ele>5.8</ele>
        <time>2023-06-11T13:26:56Z</time>
      </trkpt>
      <trkpt lat="50.19454" lon="1.57327">
        <ele>5.3</ele>
        <time>2023-06-11T13:26:58Z</time>
      </trkpt>
      <trkpt lat="50.19457" lon="1.57316">
        <ele>4.9</ele>
        <time>2023-06-11T13:27:00Z</time>
      </trkpt>
      <trkpt lat="50.19461" lon="1.57306">
        <ele>4.6</ele>
        <time>2023-06-11T13:27:02Z</time>
      </trkpt>
      <trkpt lat="50.19464" lon="1.57295">
        <ele>5</ele>
        <time>2023-06-11T13:27:04Z</time>
      </trkpt>
      <trkpt lat="50.19468" lon="1.57284">
        <ele>5.5</ele>
        <time>2023-06-11T13:27:06Z</time>
      </trkpt>
      <trkpt lat="50.19471" lon="1.57272">
        <ele>5.9</ele>
        <time>2023-06-11T13:27:08Z</time>
      </trkpt>
      <trkpt lat="50.19475" lon="1.57261">
        <ele>5.9</ele>
        <time>2023-06-11T13:27:10Z</time>
      </trkpt>
      <trkpt lat="50.19478" lon="1.57251">
        <ele>5.8</ele>
        <time>2023-06-11T13:27:12Z</time>
      </trkpt>
      <trkpt lat="50.19482" lon="1.5724">
        <ele>5.2</ele>
        <time>2023-06-11T13:27:14Z</time>
      </trkpt>
      <trkpt lat="50.19485" lon="1.57228">
        <ele>4.7</ele>
        <time>2023-06-11T13:27:16Z</time>
      </trkpt>
      <trkpt lat="50.19489" lon="1.57217">
        <ele>4.7</ele>
        <time>2023-06-11T13:27:18Z</time>
      </trkpt>
      <trkpt lat="50.19492" lon="1.57207">
        <ele>5.1</ele>
        <time>2023-06-11T13:27:20Z</time>
      </trkpt>
      <trkpt lat="50.19496" lon="1.57198">
        <ele>5.6</ele>
        <time>2023-06-11T13:27:22Z</time>
      </trkpt>
      <trkpt lat="50.19499" lon="1.57189">
        <ele>5.9</ele>
        <time>2023-06-11T13:27:24Z</time>
      </trkpt>
      <trkpt lat="50.19502" lon="1.5718">
        <ele>5.9</ele>
        <time>2023-06-11T13:27:26Z</time>
      </trkpt>
      <trkpt lat="50.19507" lon="1.57172">
        <ele>5.7</ele>
        <time>2023-06-11T13:27:28Z</time>
      </trkpt>
      <trkpt lat="50.19511" lon="1.57163">
        <ele>5.5</ele>
        <time>2023-06-11T13:27:30Z</time>
      </trkpt>
      <trkpt lat="50.19515" lon="1.57155">
        <ele>5.3</ele>
        <time>2023-06-11T13:27:32Z</time>
      </trkpt>
      <trkpt lat="50.19523" lon="1.57146">
        <ele>5</ele>
        <time>2023-06-11T13:27:34Z</time>
      </trkpt>
      <trkpt lat="50.19529" lon="1.57138">
        <ele>5</ele>
        <time>2023-06-11T13:27:36Z</time>
      </trkpt>
      <trkpt lat="50.19534" lon="1.57128">
        <ele>5.3</ele>
        <time>2023-06-11T13:27:38Z</time>
      </trkpt>
      <trkpt lat="50.1954" lon="1.57117">
        <ele>5.4</ele>
        <time>2023-06-11T13:27:40Z</time>
      </trkpt>
      <trkpt lat="50.19545" lon="1.57107">
        <ele>5.4</ele>
        <time>2023-06-11T13:27:42Z</time>
      </trkpt>
      <trkpt lat="50.19551" lon="1.57097">
        <ele>5.4</ele>
        <time>2023-06-11T13:27:44Z</time>
      </trkpt>
      <trkpt lat="50.19556" lon="1.57087">
        <ele>5.9</ele>
        <time>2023-06-11T13:27:46Z</time>
      </trkpt>
      <trkpt lat="50.1956" lon="1.57079">
        <ele>5.8</ele>
        <time>2023-06-11T13:27:48Z</time>
      </trkpt>
      <trkpt lat="50.19563" lon="1.57073">
        <ele>5.7</ele>
        <time>2023-06-11T13:27:50Z</time>
      </trkpt>
      <trkpt lat="50.19566" lon="1.57067">
        <ele>5.6</ele>
        <time>2023-06-11T13:27:52Z</time>
      </trkpt>
      <trkpt lat="50.19569" lon="1.57061">
        <ele>5.5</ele>
        <time>2023-06-11T13:27:54Z</time>
      </trkpt>
      <trkpt lat="50.19574" lon="1.57053">
        <ele>5.3</ele>
        <time>2023-06-11T13:27:58Z</time>
      </trkpt>
      <trkpt lat="50.1958" lon="1.57042">
        <ele>5.4</ele>
        <time>2023-06-11T13:28:02Z</time>
      </trkpt>
      <trkpt lat="50.19584" lon="1.57034">
        <ele>5.8</ele>
        <time>2023-06-11T13:28:06Z</time>
      </trkpt>
      <trkpt lat="50.19588" lon="1.57027">
        <ele>5.8</ele>
        <time>2023-06-11T13:36:42Z</time>
      </trkpt>
      <trkpt lat="50.19591" lon="1.57018">
        <ele>5.7</ele>
        <time>2023-06-11T13:36:46Z</time>
      </trkpt>
      <trkpt lat="50.19596" lon="1.57008">
        <ele>5.6</ele>
        <time>2023-06-11T13:36:50Z</time>
      </trkpt>
      <trkpt lat="50.19599" lon="1.57002">
        <ele>5.4</ele>
        <time>2023-06-11T13:36:52Z</time>
      </trkpt>
      <trkpt lat="50.19603" lon="1.56995">
        <ele>5.3</ele>
        <time>2023-06-11T13:36:54Z</time>
      </trkpt>
      <trkpt lat="50.19607" lon="1.56988">
        <ele>5.4</ele>
        <time>2023-06-11T13:36:56Z</time>
      </trkpt>
      <trkpt lat="50.19612" lon="1.5698">
        <ele>5.7</ele>
        <time>2023-06-11T13:36:58Z</time>
      </trkpt>
      <trkpt lat="50.19617" lon="1.56971">
        <ele>5.8</ele>
        <time>2023-06-11T13:37:00Z</time>
      </trkpt>
      <trkpt lat="50.19623" lon="1.56962">
        <ele>5.4</ele>
        <time>2023-06-11T13:37:02Z</time>
      </trkpt>
      <trkpt lat="50.19631" lon="1.56954">
        <ele>5.1</ele>
        <time>2023-06-11T13:37:04Z</time>
      </trkpt>
      <trkpt lat="50.19637" lon="1.56944">
        <ele>5</ele>
        <time>2023-06-11T13:37:06Z</time>
      </trkpt>
      <trkpt lat="50.19644" lon="1.56935">
        <ele>5.3</ele>
        <time>2023-06-11T13:37:08Z</time>
      </trkpt>
      <trkpt lat="50.1965" lon="1.56925">
        <ele>5.4</ele>
        <time>2023-06-11T13:37:10Z</time>
      </trkpt>
      <trkpt lat="50.19656" lon="1.56915">
        <ele>5.4</ele>
        <time>2023-06-11T13:37:12Z</time>
      </trkpt>
      <trkpt lat="50.19661" lon="1.56905">
        <ele>5.1</ele>
        <time>2023-06-11T13:37:14Z</time>
      </trkpt>
      <trkpt lat="50.19667" lon="1.56896">
        <ele>5</ele>
        <time>2023-06-11T13:37:16Z</time>
      </trkpt>
      <trkpt lat="50.19673" lon="1.56886">
        <ele>5.1</ele>
        <time>2023-06-11T13:37:18Z</time>
      </trkpt>
      <trkpt lat="50.19679" lon="1.56877">
        <ele>5.5</ele>
        <time>2023-06-11T13:37:20Z</time>
      </trkpt>
      <trkpt lat="50.19684" lon="1.5687">
        <ele>5.5</ele>
        <time>2023-06-11T13:37:22Z</time>
      </trkpt>
      <trkpt lat="50.19689" lon="1.56863">
        <ele>5.4</ele>
        <time>2023-06-11T13:37:24Z</time>
      </trkpt>
      <trkpt lat="50.19693" lon="1.56855">
        <ele>5.3</ele>
        <time>2023-06-11T13:37:26Z</time>
      </trkpt>
      <trkpt lat="50.19698" lon="1.56847">
        <ele>5.4</ele>
        <time>2023-06-11T13:37:28Z</time>
      </trkpt>
      <trkpt lat="50.19703" lon="1.56839">
        <ele>5.6</ele>
        <time>2023-06-11T13:37:30Z</time>
      </trkpt>
      <trkpt lat="50.19707" lon="1.56832">
        <ele>5.5</ele>
        <time>2023-06-11T13:37:32Z</time>
      </trkpt>
      <trkpt lat="50.19712" lon="1.56825">
        <ele>5.4</ele>
        <time>2023-06-11T13:37:34Z</time>
      </trkpt>
      <trkpt lat="50.19716" lon="1.56817">
        <ele>5.2</ele>
        <time>2023-06-11T13:37:36Z</time>
      </trkpt>
      <trkpt lat="50.19721" lon="1.56808">
        <ele>5.1</ele>
        <time>2023-06-11T13:37:38Z</time>
      </trkpt>
      <trkpt lat="50.19726" lon="1.568">
        <ele>5.2</ele>
        <time>2023-06-11T13:37:40Z</time>
      </trkpt>
      <trkpt lat="50.1973" lon="1.56792">
        <ele>5.3</ele>
        <time>2023-06-11T13:37:42Z</time>
      </trkpt>
      <trkpt lat="50.19735" lon="1.56783">
        <ele>5.4</ele>
        <time>2023-06-11T13:37:44Z</time>
      </trkpt>
      <trkpt lat="50.1974" lon="1.56774">
        <ele>5.3</ele>
        <time>2023-06-11T13:37:46Z</time>
      </trkpt>
      <trkpt lat="50.19745" lon="1.56766">
        <ele>5.1</ele>
        <time>2023-06-11T13:37:48Z</time>
      </trkpt>
      <trkpt lat="50.1975" lon="1.56756">
        <ele>5</ele>
        <time>2023-06-11T13:37:50Z</time>
      </trkpt>
      <trkpt lat="50.19755" lon="1.56748">
        <ele>5.1</ele>
        <time>2023-06-11T13:37:52Z</time>
      </trkpt>
      <trkpt lat="50.1976" lon="1.56739">
        <ele>5.3</ele>
        <time>2023-06-11T13:37:54Z</time>
      </trkpt>
      <trkpt lat="50.19766" lon="1.5673">
        <ele>5.3</ele>
        <time>2023-06-11T13:37:56Z</time>
      </trkpt>
      <trkpt lat="50.19771" lon="1.56721">
        <ele>5.3</ele>
        <time>2023-06-11T13:37:58Z</time>
      </trkpt>
      <trkpt lat="50.19777" lon="1.56711">
        <ele>5.4</ele>
        <time>2023-06-11T13:38:00Z</time>
      </trkpt>
      <trkpt lat="50.19782" lon="1.56702">
        <ele>5.6</ele>
        <time>2023-06-11T13:38:02Z</time>
      </trkpt>
      <trkpt lat="50.19788" lon="1.56693">
        <ele>5.6</ele>
        <time>2023-06-11T13:38:04Z</time>
      </trkpt>
      <trkpt lat="50.19793" lon="1.56685">
        <ele>5.3</ele>
        <time>2023-06-11T13:38:06Z</time>
      </trkpt>
      <trkpt lat="50.19798" lon="1.56676">
        <ele>5.1</ele>
        <time>2023-06-11T13:38:08Z</time>
      </trkpt>
      <trkpt lat="50.19803" lon="1.56667">
        <ele>5</ele>
        <time>2023-06-11T13:38:10Z</time>
      </trkpt>
      <trkpt lat="50.19809" lon="1.5666">
        <ele>5.2</ele>
        <time>2023-06-11T13:38:12Z</time>
      </trkpt>
      <trkpt lat="50.19815" lon="1.56653">
        <ele>5.3</ele>
        <time>2023-06-11T13:38:14Z</time>
      </trkpt>
      <trkpt lat="50.19821" lon="1.56646">
        <ele>5.3</ele>
        <time>2023-06-11T13:38:16Z</time>
      </trkpt>
      <trkpt lat="50.19827" lon="1.56639">
        <ele>5.2</ele>
        <time>2023-06-11T13:38:18Z</time>
      </trkpt>
      <trkpt lat="50.19833" lon="1.56631">
        <ele>5.3</ele>
        <time>2023-06-11T13:38:20Z</time>
      </trkpt>
      <trkpt lat="50.19839" lon="1.56624">
        <ele>5.4</ele>
        <time>2023-06-11T13:38:22Z</time>
      </trkpt>
      <trkpt lat="50.19845" lon="1.56616">
        <ele>5.5</ele>
        <time>2023-06-11T13:38:24Z</time>
      </trkpt>
      <trkpt lat="50.19851" lon="1.56609">
        <ele>5.4</ele>
        <time>2023-06-11T13:38:26Z</time>
      </trkpt>
      <trkpt lat="50.19857" lon="1.56602">
        <ele>5.3</ele>
        <time>2023-06-11T13:38:28Z</time>
      </trkpt>
      <trkpt lat="50.19864" lon="1.56595">
        <ele>5.5</ele>
        <time>2023-06-11T13:38:30Z</time>
      </trkpt>
      <trkpt lat="50.19871" lon="1.5659">
        <ele>5.5</ele>
        <time>2023-06-11T13:38:32Z</time>
      </trkpt>
      <trkpt lat="50.19878" lon="1.56585">
        <ele>5.4</ele>
        <time>2023-06-11T13:38:34Z</time>
      </trkpt>
      <trkpt lat="50.19886" lon="1.56578">
        <ele>5.2</ele>
        <time>2023-06-11T13:38:36Z</time>
      </trkpt>
      <trkpt lat="50.19893" lon="1.56573">
        <ele>5.4</ele>
        <time>2023-06-11T13:38:38Z</time>
      </trkpt>
      <trkpt lat="50.19901" lon="1.56568">
        <ele>5.5</ele>
        <time>2023-06-11T13:38:40Z</time>
      </trkpt>
      <trkpt lat="50.19909" lon="1.56564">
        <ele>5.7</ele>
        <time>2023-06-11T13:38:42Z</time>
      </trkpt>
      <trkpt lat="50.19915" lon="1.5656">
        <ele>5.8</ele>
        <time>2023-06-11T13:38:44Z</time>
      </trkpt>
      <trkpt lat="50.19922" lon="1.56557">
        <ele>5.8</ele>
        <time>2023-06-11T13:38:46Z</time>
      </trkpt>
      <trkpt lat="50.19929" lon="1.56553">
        <ele>5.5</ele>
        <time>2023-06-11T13:38:48Z</time>
      </trkpt>
      <trkpt lat="50.19936" lon="1.5655">
        <ele>5.3</ele>
        <time>2023-06-11T13:38:50Z</time>
      </trkpt>
      <trkpt lat="50.19943" lon="1.56545">
        <ele>5.4</ele>
        <time>2023-06-11T13:38:52Z</time>
      </trkpt>
      <trkpt lat="50.1995" lon="1.56541">
        <ele>5.5</ele>
        <time>2023-06-11T13:38:54Z</time>
      </trkpt>
      <trkpt lat="50.19957" lon="1.56536">
        <ele>5.7</ele>
        <time>2023-06-11T13:38:56Z</time>
      </trkpt>
      <trkpt lat="50.19964" lon="1.56533">
        <ele>5.8</ele>
        <time>2023-06-11T13:38:58Z</time>
      </trkpt>
      <trkpt lat="50.19972" lon="1.56529">
        <ele>5.9</ele>
        <time>2023-06-11T13:39:00Z</time>
      </trkpt>
      <trkpt lat="50.19979" lon="1.56525">
        <ele>5.7</ele>
        <time>2023-06-11T13:39:02Z</time>
      </trkpt>
      <trkpt lat="50.19986" lon="1.56522">
        <ele>5.5</ele>
        <time>2023-06-11T13:39:04Z</time>
      </trkpt>
      <trkpt lat="50.19994" lon="1.56518">
        <ele>5.6</ele>
        <time>2023-06-11T13:39:06Z</time>
      </trkpt>
      <trkpt lat="50.20001" lon="1.56514">
        <ele>6</ele>
        <time>2023-06-11T13:39:08Z</time>
      </trkpt>
      <trkpt lat="50.20008" lon="1.56512">
        <ele>6.1</ele>
        <time>2023-06-11T13:39:10Z</time>
      </trkpt>
      <trkpt lat="50.20016" lon="1.56513">
        <ele>6</ele>
        <time>2023-06-11T13:39:12Z</time>
      </trkpt>
      <trkpt lat="50.20024" lon="1.56519">
        <ele>6</ele>
        <time>2023-06-11T13:39:14Z</time>
      </trkpt>
      <trkpt lat="50.20028" lon="1.56525">
        <ele>6</ele>
        <time>2023-06-11T13:39:16Z</time>
      </trkpt>
      <trkpt lat="50.2003" lon="1.56533">
        <ele>5.8</ele>
        <time>2023-06-11T13:39:18Z</time>
      </trkpt>
      <trkpt lat="50.20033" lon="1.56539">
        <ele>5.6</ele>
        <time>2023-06-11T13:39:20Z</time>
      </trkpt>
      <trkpt lat="50.20035" lon="1.56546">
        <ele>5.5</ele>
        <time>2023-06-11T13:39:22Z</time>
      </trkpt>
      <trkpt lat="50.20038" lon="1.56553">
        <ele>5.3</ele>
        <time>2023-06-11T13:39:24Z</time>
      </trkpt>
      <trkpt lat="50.20041" lon="1.56562">
        <ele>5</ele>
        <time>2023-06-11T13:39:26Z</time>
      </trkpt>
      <trkpt lat="50.20045" lon="1.56572">
        <ele>4.9</ele>
        <time>2023-06-11T13:39:28Z</time>
      </trkpt>
      <trkpt lat="50.20048" lon="1.56582">
        <ele>5</ele>
        <time>2023-06-11T13:39:30Z</time>
      </trkpt>
      <trkpt lat="50.20052" lon="1.56589">
        <ele>5</ele>
        <time>2023-06-11T13:39:32Z</time>
      </trkpt>
      <trkpt lat="50.20058" lon="1.56594">
        <ele>5</ele>
        <time>2023-06-11T13:39:34Z</time>
      </trkpt>
      <trkpt lat="50.20064" lon="1.56594">
        <ele>5</ele>
        <time>2023-06-11T13:39:36Z</time>
      </trkpt>
      <trkpt lat="50.2007" lon="1.56594">
        <ele>5</ele>
        <time>2023-06-11T13:39:38Z</time>
      </trkpt>
      <trkpt lat="50.20076" lon="1.56593">
        <ele>5</ele>
        <time>2023-06-11T13:39:40Z</time>
      </trkpt>
      <trkpt lat="50.20084" lon="1.56593">
        <ele>5</ele>
        <time>2023-06-11T13:39:42Z</time>
      </trkpt>
      <trkpt lat="50.20091" lon="1.56592">
        <ele>5</ele>
        <time>2023-06-11T13:39:44Z</time>
      </trkpt>
      <trkpt lat="50.20099" lon="1.56591">
        <ele>5</ele>
        <time>2023-06-11T13:39:46Z</time>
      </trkpt>
      <trkpt lat="50.20106" lon="1.5659">
        <ele>5</ele>
        <time>2023-06-11T13:39:48Z</time>
      </trkpt>
      <trkpt lat="50.20112" lon="1.5659">
        <ele>5</ele>
        <time>2023-06-11T13:39:50Z</time>
      </trkpt>
      <trkpt lat="50.20117" lon="1.5659">
        <ele>5.2</ele>
        <time>2023-06-11T13:39:52Z</time>
      </trkpt>
      <trkpt lat="50.20122" lon="1.5659">
        <ele>5.3</ele>
        <time>2023-06-11T13:39:54Z</time>
      </trkpt>
      <trkpt lat="50.20128" lon="1.5659">
        <ele>5.5</ele>
        <time>2023-06-11T13:39:56Z</time>
      </trkpt>
      <trkpt lat="50.20134" lon="1.5659">
        <ele>5.6</ele>
        <time>2023-06-11T13:39:58Z</time>
      </trkpt>
      <trkpt lat="50.20141" lon="1.56589">
        <ele>5.7</ele>
        <time>2023-06-11T13:40:00Z</time>
      </trkpt>
      <trkpt lat="50.20147" lon="1.56588">
        <ele>5.6</ele>
        <time>2023-06-11T13:40:02Z</time>
      </trkpt>
      <trkpt lat="50.20155" lon="1.56588">
        <ele>5.4</ele>
        <time>2023-06-11T13:40:04Z</time>
      </trkpt>
      <trkpt lat="50.20162" lon="1.56589">
        <ele>5.1</ele>
        <time>2023-06-11T13:40:06Z</time>
      </trkpt>
      <trkpt lat="50.2017" lon="1.56592">
        <ele>4.9</ele>
        <time>2023-06-11T13:40:08Z</time>
      </trkpt>
      <trkpt lat="50.20175" lon="1.566">
        <ele>4.7</ele>
        <time>2023-06-11T13:40:10Z</time>
      </trkpt>
      <trkpt lat="50.20179" lon="1.5661">
        <ele>4.6</ele>
        <time>2023-06-11T13:40:12Z</time>
      </trkpt>
      <trkpt lat="50.20183" lon="1.56621">
        <ele>4.6</ele>
        <time>2023-06-11T13:40:14Z</time>
      </trkpt>
      <trkpt lat="50.20188" lon="1.56632">
        <ele>4.8</ele>
        <time>2023-06-11T13:40:16Z</time>
      </trkpt>
      <trkpt lat="50.20191" lon="1.56638">
        <ele>5</ele>
        <time>2023-06-11T13:40:18Z</time>
      </trkpt>
      <trkpt lat="50.20195" lon="1.56645">
        <ele>5</ele>
        <time>2023-06-11T13:40:40Z</time>
      </trkpt>
      <trkpt lat="50.202" lon="1.56647">
        <ele>5</ele>
        <time>2023-06-11T13:40:42Z</time>
      </trkpt>
      <trkpt lat="50.20205" lon="1.56648">
        <ele>5</ele>
        <time>2023-06-11T13:40:44Z</time>
      </trkpt>
      <trkpt lat="50.20209" lon="1.5665">
        <ele>5</ele>
        <time>2023-06-11T13:40:46Z</time>
      </trkpt>
      <trkpt lat="50.20214" lon="1.56648">
        <ele>5</ele>
        <time>2023-06-11T13:40:48Z</time>
      </trkpt>
      <trkpt lat="50.20219" lon="1.56645">
        <ele>5</ele>
        <time>2023-06-11T13:40:50Z</time>
      </trkpt>
      <trkpt lat="50.20224" lon="1.56641">
        <ele>5</ele>
        <time>2023-06-11T13:40:52Z</time>
      </trkpt>
      <trkpt lat="50.20228" lon="1.56637">
        <ele>5</ele>
        <time>2023-06-11T13:40:54Z</time>
      </trkpt>
      <trkpt lat="50.20232" lon="1.56632">
        <ele>4.9</ele>
        <time>2023-06-11T13:40:56Z</time>
      </trkpt>
      <trkpt lat="50.20237" lon="1.56627">
        <ele>5</ele>
        <time>2023-06-11T13:40:58Z</time>
      </trkpt>
      <trkpt lat="50.20242" lon="1.56622">
        <ele>5.2</ele>
        <time>2023-06-11T13:41:00Z</time>
      </trkpt>
      <trkpt lat="50.20247" lon="1.56616">
        <ele>5.6</ele>
        <time>2023-06-11T13:41:02Z</time>
      </trkpt>
      <trkpt lat="50.20251" lon="1.56611">
        <ele>5.9</ele>
        <time>2023-06-11T13:41:04Z</time>
      </trkpt>
      <trkpt lat="50.20256" lon="1.56605">
        <ele>5.5</ele>
        <time>2023-06-11T13:41:06Z</time>
      </trkpt>
      <trkpt lat="50.20261" lon="1.566">
        <ele>5.3</ele>
        <time>2023-06-11T13:41:08Z</time>
      </trkpt>
      <trkpt lat="50.20268" lon="1.56593">
        <ele>5.3</ele>
        <time>2023-06-11T13:41:10Z</time>
      </trkpt>
      <trkpt lat="50.20274" lon="1.56587">
        <ele>5.6</ele>
        <time>2023-06-11T13:41:12Z</time>
      </trkpt>
      <trkpt lat="50.2028" lon="1.5658">
        <ele>5.7</ele>
        <time>2023-06-11T13:41:14Z</time>
      </trkpt>
      <trkpt lat="50.20285" lon="1.56575">
        <ele>5.4</ele>
        <time>2023-06-11T13:41:16Z</time>
      </trkpt>
      <trkpt lat="50.20289" lon="1.5657">
        <ele>5.2</ele>
        <time>2023-06-11T13:41:18Z</time>
      </trkpt>
      <trkpt lat="50.20294" lon="1.56564">
        <ele>5.3</ele>
        <time>2023-06-11T13:41:20Z</time>
      </trkpt>
      <trkpt lat="50.20301" lon="1.56556">
        <ele>5.7</ele>
        <time>2023-06-11T13:41:22Z</time>
      </trkpt>
      <trkpt lat="50.20308" lon="1.56548">
        <ele>5.4</ele>
        <time>2023-06-11T13:41:24Z</time>
      </trkpt>
      <trkpt lat="50.20314" lon="1.56541">
        <ele>5</ele>
        <time>2023-06-11T13:41:26Z</time>
      </trkpt>
      <trkpt lat="50.2032" lon="1.56535">
        <ele>4.8</ele>
        <time>2023-06-11T13:41:28Z</time>
      </trkpt>
      <trkpt lat="50.20328" lon="1.56526">
        <ele>4.7</ele>
        <time>2023-06-11T13:41:32Z</time>
      </trkpt>
      <trkpt lat="50.20334" lon="1.56519">
        <ele>4.7</ele>
        <time>2023-06-11T13:41:34Z</time>
      </trkpt>
      <trkpt lat="50.20339" lon="1.56514">
        <ele>4.6</ele>
        <time>2023-06-11T13:41:36Z</time>
      </trkpt>
      <trkpt lat="50.20343" lon="1.56508">
        <ele>4.5</ele>
        <time>2023-06-11T13:41:38Z</time>
      </trkpt>
      <trkpt lat="50.20348" lon="1.56503">
        <ele>4.6</ele>
        <time>2023-06-11T13:41:40Z</time>
      </trkpt>
      <trkpt lat="50.20353" lon="1.56497">
        <ele>4.7</ele>
        <time>2023-06-11T13:41:42Z</time>
      </trkpt>
      <trkpt lat="50.20358" lon="1.56492">
        <ele>4.9</ele>
        <time>2023-06-11T13:41:44Z</time>
      </trkpt>
      <trkpt lat="50.20363" lon="1.56487">
        <ele>5</ele>
        <time>2023-06-11T13:41:46Z</time>
      </trkpt>
      <trkpt lat="50.20368" lon="1.56481">
        <ele>5</ele>
        <time>2023-06-11T13:41:48Z</time>
      </trkpt>
      <trkpt lat="50.20372" lon="1.56476">
        <ele>5</ele>
        <time>2023-06-11T13:41:50Z</time>
      </trkpt>
      <trkpt lat="50.20377" lon="1.5647">
        <ele>5</ele>
        <time>2023-06-11T13:41:52Z</time>
      </trkpt>
      <trkpt lat="50.20382" lon="1.56465">
        <ele>4.9</ele>
        <time>2023-06-11T13:41:54Z</time>
      </trkpt>
      <trkpt lat="50.20388" lon="1.56459">
        <ele>5</ele>
        <time>2023-06-11T13:41:56Z</time>
      </trkpt>
      <trkpt lat="50.20393" lon="1.56453">
        <ele>5</ele>
        <time>2023-06-11T13:41:58Z</time>
      </trkpt>
      <trkpt lat="50.20397" lon="1.56448">
        <ele>5</ele>
        <time>2023-06-11T13:42:00Z</time>
      </trkpt>
      <trkpt lat="50.20401" lon="1.56444">
        <ele>5</ele>
        <time>2023-06-11T13:42:02Z</time>
      </trkpt>
      <trkpt lat="50.20406" lon="1.56439">
        <ele>5</ele>
        <time>2023-06-11T13:42:04Z</time>
      </trkpt>
      <trkpt lat="50.2041" lon="1.56434">
        <ele>5.2</ele>
        <time>2023-06-11T13:42:06Z</time>
      </trkpt>
      <trkpt lat="50.20414" lon="1.5643">
        <ele>5.4</ele>
        <time>2023-06-11T13:42:08Z</time>
      </trkpt>
      <trkpt lat="50.20418" lon="1.56425">
        <ele>5.7</ele>
        <time>2023-06-11T13:42:10Z</time>
      </trkpt>
      <trkpt lat="50.20422" lon="1.5642">
        <ele>5.7</ele>
        <time>2023-06-11T13:42:12Z</time>
      </trkpt>
      <trkpt lat="50.20427" lon="1.56415">
        <ele>5.6</ele>
        <time>2023-06-11T13:42:14Z</time>
      </trkpt>
      <trkpt lat="50.20433" lon="1.5641">
        <ele>5.4</ele>
        <time>2023-06-11T13:42:16Z</time>
      </trkpt>
      <trkpt lat="50.20439" lon="1.56403">
        <ele>5.4</ele>
        <time>2023-06-11T13:42:18Z</time>
      </trkpt>
      <trkpt lat="50.20445" lon="1.56395">
        <ele>5.8</ele>
        <time>2023-06-11T13:42:20Z</time>
      </trkpt>
      <trkpt lat="50.20452" lon="1.56388">
        <ele>5.7</ele>
        <time>2023-06-11T13:42:22Z</time>
      </trkpt>
      <trkpt lat="50.20459" lon="1.56379">
        <ele>5.3</ele>
        <time>2023-06-11T13:42:24Z</time>
      </trkpt>
      <trkpt lat="50.20466" lon="1.56372">
        <ele>5.4</ele>
        <time>2023-06-11T13:42:26Z</time>
      </trkpt>
      <trkpt lat="50.20472" lon="1.56365">
        <ele>5.9</ele>
        <time>2023-06-11T13:42:28Z</time>
      </trkpt>
      <trkpt lat="50.20478" lon="1.56358">
        <ele>5.7</ele>
        <time>2023-06-11T13:42:30Z</time>
      </trkpt>
      <trkpt lat="50.20484" lon="1.56352">
        <ele>5.3</ele>
        <time>2023-06-11T13:42:32Z</time>
      </trkpt>
      <trkpt lat="50.2049" lon="1.56346">
        <ele>5.3</ele>
        <time>2023-06-11T13:42:34Z</time>
      </trkpt>
      <trkpt lat="50.20495" lon="1.5634">
        <ele>5.5</ele>
        <time>2023-06-11T13:42:36Z</time>
      </trkpt>
      <trkpt lat="50.205" lon="1.56334">
        <ele>6</ele>
        <time>2023-06-11T13:42:38Z</time>
      </trkpt>
      <trkpt lat="50.20505" lon="1.56328">
        <ele>5.6</ele>
        <time>2023-06-11T13:42:40Z</time>
      </trkpt>
      <trkpt lat="50.2051" lon="1.56323">
        <ele>5.3</ele>
        <time>2023-06-11T13:42:42Z</time>
      </trkpt>
      <trkpt lat="50.20515" lon="1.56318">
        <ele>5.2</ele>
        <time>2023-06-11T13:42:44Z</time>
      </trkpt>
      <trkpt lat="50.2052" lon="1.56312">
        <ele>5.4</ele>
        <time>2023-06-11T13:42:46Z</time>
      </trkpt>
      <trkpt lat="50.20526" lon="1.56305">
        <ele>5.9</ele>
        <time>2023-06-11T13:42:48Z</time>
      </trkpt>
      <trkpt lat="50.20533" lon="1.56297">
        <ele>5.4</ele>
        <time>2023-06-11T13:42:50Z</time>
      </trkpt>
      <trkpt lat="50.20539" lon="1.56291">
        <ele>5.2</ele>
        <time>2023-06-11T13:42:52Z</time>
      </trkpt>
      <trkpt lat="50.20545" lon="1.56285">
        <ele>5.3</ele>
        <time>2023-06-11T13:42:54Z</time>
      </trkpt>
      <trkpt lat="50.20552" lon="1.56277">
        <ele>5.7</ele>
        <time>2023-06-11T13:42:56Z</time>
      </trkpt>
      <trkpt lat="50.20558" lon="1.56269">
        <ele>5.3</ele>
        <time>2023-06-11T13:42:58Z</time>
      </trkpt>
      <trkpt lat="50.20565" lon="1.56261">
        <ele>4.9</ele>
        <time>2023-06-11T13:43:00Z</time>
      </trkpt>
      <trkpt lat="50.20573" lon="1.56252">
        <ele>4.7</ele>
        <time>2023-06-11T13:43:02Z</time>
      </trkpt>
      <trkpt lat="50.20581" lon="1.56243">
        <ele>4.7</ele>
        <time>2023-06-11T13:43:04Z</time>
      </trkpt>
      <trkpt lat="50.2059" lon="1.56234">
        <ele>4.6</ele>
        <time>2023-06-11T13:43:06Z</time>
      </trkpt>
      <trkpt lat="50.20598" lon="1.56225">
        <ele>4.6</ele>
        <time>2023-06-11T13:43:08Z</time>
      </trkpt>
      <trkpt lat="50.20605" lon="1.56216">
        <ele>4.8</ele>
        <time>2023-06-11T13:43:10Z</time>
      </trkpt>
      <trkpt lat="50.20613" lon="1.56208">
        <ele>5</ele>
        <time>2023-06-11T13:43:12Z</time>
      </trkpt>
      <trkpt lat="50.20621" lon="1.56198">
        <ele>5</ele>
        <time>2023-06-11T13:43:14Z</time>
      </trkpt>
      <trkpt lat="50.20631" lon="1.56189">
        <ele>4.9</ele>
        <time>2023-06-11T13:43:16Z</time>
      </trkpt>
      <trkpt lat="50.20638" lon="1.5618">
        <ele>5</ele>
        <time>2023-06-11T13:43:18Z</time>
      </trkpt>
      <trkpt lat="50.20644" lon="1.56174">
        <ele>5</ele>
        <time>2023-06-11T13:43:20Z</time>
      </trkpt>
      <trkpt lat="50.2065" lon="1.56167">
        <ele>5</ele>
        <time>2023-06-11T13:43:22Z</time>
      </trkpt>
      <trkpt lat="50.20656" lon="1.56161">
        <ele>4.9</ele>
        <time>2023-06-11T13:43:24Z</time>
      </trkpt>
      <trkpt lat="50.20661" lon="1.56155">
        <ele>4.9</ele>
        <time>2023-06-11T13:43:26Z</time>
      </trkpt>
      <trkpt lat="50.20667" lon="1.56148">
        <ele>5</ele>
        <time>2023-06-11T13:43:28Z</time>
      </trkpt>
      <trkpt lat="50.20673" lon="1.56141">
        <ele>5</ele>
        <time>2023-06-11T13:43:30Z</time>
      </trkpt>
      <trkpt lat="50.20679" lon="1.56133">
        <ele>4.9</ele>
        <time>2023-06-11T13:43:32Z</time>
      </trkpt>
      <trkpt lat="50.20687" lon="1.56125">
        <ele>4.9</ele>
        <time>2023-06-11T13:43:34Z</time>
      </trkpt>
      <trkpt lat="50.20695" lon="1.56117">
        <ele>5</ele>
        <time>2023-06-11T13:43:36Z</time>
      </trkpt>
      <trkpt lat="50.20702" lon="1.56108">
        <ele>5</ele>
        <time>2023-06-11T13:43:38Z</time>
      </trkpt>
      <trkpt lat="50.20709" lon="1.56101">
        <ele>5</ele>
        <time>2023-06-11T13:43:40Z</time>
      </trkpt>
      <trkpt lat="50.20716" lon="1.56093">
        <ele>5.4</ele>
        <time>2023-06-11T13:43:42Z</time>
      </trkpt>
      <trkpt lat="50.20722" lon="1.56086">
        <ele>5.9</ele>
        <time>2023-06-11T13:43:44Z</time>
      </trkpt>
      <trkpt lat="50.20728" lon="1.5608">
        <ele>5.6</ele>
        <time>2023-06-11T13:43:46Z</time>
      </trkpt>
      <trkpt lat="50.20734" lon="1.56073">
        <ele>5.1</ele>
        <time>2023-06-11T13:43:48Z</time>
      </trkpt>
      <trkpt lat="50.20742" lon="1.56064">
        <ele>4.9</ele>
        <time>2023-06-11T13:43:50Z</time>
      </trkpt>
      <trkpt lat="50.20749" lon="1.56056">
        <ele>5</ele>
        <time>2023-06-11T13:43:52Z</time>
      </trkpt>
      <trkpt lat="50.20755" lon="1.56048">
        <ele>4.8</ele>
        <time>2023-06-11T13:43:54Z</time>
      </trkpt>
      <trkpt lat="50.20761" lon="1.56039">
        <ele>4.6</ele>
        <time>2023-06-11T13:43:56Z</time>
      </trkpt>
      <trkpt lat="50.20765" lon="1.5603">
        <ele>4.6</ele>
        <time>2023-06-11T13:43:58Z</time>
      </trkpt>
      <trkpt lat="50.2077" lon="1.56018">
        <ele>4.6</ele>
        <time>2023-06-11T13:44:00Z</time>
      </trkpt>
      <trkpt lat="50.20774" lon="1.56007">
        <ele>4.7</ele>
        <time>2023-06-11T13:44:02Z</time>
      </trkpt>
      <trkpt lat="50.20776" lon="1.55999">
        <ele>4.9</ele>
        <time>2023-06-11T13:44:04Z</time>
      </trkpt>
      <trkpt lat="50.20779" lon="1.55992">
        <ele>5</ele>
        <time>2023-06-11T13:44:08Z</time>
      </trkpt>
      <trkpt lat="50.20781" lon="1.55986">
        <ele>5</ele>
        <time>2023-06-11T13:44:12Z</time>
      </trkpt>
      <trkpt lat="50.20787" lon="1.55974">
        <ele>5</ele>
        <time>2023-06-11T13:44:16Z</time>
      </trkpt>
      <trkpt lat="50.20789" lon="1.55966">
        <ele>4.9</ele>
        <time>2023-06-11T13:44:18Z</time>
      </trkpt>
      <trkpt lat="50.20792" lon="1.55959">
        <ele>4.8</ele>
        <time>2023-06-11T13:44:20Z</time>
      </trkpt>
      <trkpt lat="50.20795" lon="1.55951">
        <ele>4.7</ele>
        <time>2023-06-11T13:44:22Z</time>
      </trkpt>
      <trkpt lat="50.20798" lon="1.55942">
        <ele>4.8</ele>
        <time>2023-06-11T13:44:24Z</time>
      </trkpt>
      <trkpt lat="50.20801" lon="1.55933">
        <ele>5.2</ele>
        <time>2023-06-11T13:44:26Z</time>
      </trkpt>
      <trkpt lat="50.20805" lon="1.55924">
        <ele>5.7</ele>
        <time>2023-06-11T13:44:28Z</time>
      </trkpt>
      <trkpt lat="50.20808" lon="1.55914">
        <ele>5.8</ele>
        <time>2023-06-11T13:44:30Z</time>
      </trkpt>
      <trkpt lat="50.20812" lon="1.55904">
        <ele>5.1</ele>
        <time>2023-06-11T13:44:32Z</time>
      </trkpt>
      <trkpt lat="50.20816" lon="1.55894">
        <ele>4.6</ele>
        <time>2023-06-11T13:44:34Z</time>
      </trkpt>
      <trkpt lat="50.2082" lon="1.55884">
        <ele>4.4</ele>
        <time>2023-06-11T13:44:36Z</time>
      </trkpt>
      <trkpt lat="50.20824" lon="1.55873">
        <ele>4.5</ele>
        <time>2023-06-11T13:44:38Z</time>
      </trkpt>
      <trkpt lat="50.20828" lon="1.55863">
        <ele>4.6</ele>
        <time>2023-06-11T13:44:40Z</time>
      </trkpt>
      <trkpt lat="50.20831" lon="1.55853">
        <ele>4.9</ele>
        <time>2023-06-11T13:44:42Z</time>
      </trkpt>
      <trkpt lat="50.20835" lon="1.55843">
        <ele>5</ele>
        <time>2023-06-11T13:44:44Z</time>
      </trkpt>
      <trkpt lat="50.20839" lon="1.55832">
        <ele>5</ele>
        <time>2023-06-11T13:44:46Z</time>
      </trkpt>
      <trkpt lat="50.20843" lon="1.55822">
        <ele>4.6</ele>
        <time>2023-06-11T13:44:48Z</time>
      </trkpt>
      <trkpt lat="50.20847" lon="1.55812">
        <ele>4.2</ele>
        <time>2023-06-11T13:44:50Z</time>
      </trkpt>
      <trkpt lat="50.20849" lon="1.55803">
        <ele>4</ele>
        <time>2023-06-11T13:44:52Z</time>
      </trkpt>
      <trkpt lat="50.20852" lon="1.55793">
        <ele>3.9</ele>
        <time>2023-06-11T13:44:54Z</time>
      </trkpt>
      <trkpt lat="50.20856" lon="1.55783">
        <ele>3.9</ele>
        <time>2023-06-11T13:44:56Z</time>
      </trkpt>
      <trkpt lat="50.2086" lon="1.55774">
        <ele>4.2</ele>
        <time>2023-06-11T13:44:58Z</time>
      </trkpt>
      <trkpt lat="50.20863" lon="1.55766">
        <ele>4.9</ele>
        <time>2023-06-11T13:45:00Z</time>
      </trkpt>
      <trkpt lat="50.20867" lon="1.55757">
        <ele>5.4</ele>
        <time>2023-06-11T13:45:02Z</time>
      </trkpt>
      <trkpt lat="50.20871" lon="1.55747">
        <ele>5.5</ele>
        <time>2023-06-11T13:45:04Z</time>
      </trkpt>
      <trkpt lat="50.20875" lon="1.55738">
        <ele>5.1</ele>
        <time>2023-06-11T13:45:06Z</time>
      </trkpt>
      <trkpt lat="50.20878" lon="1.5573">
        <ele>4.8</ele>
        <time>2023-06-11T13:45:08Z</time>
      </trkpt>
      <trkpt lat="50.2088" lon="1.55723">
        <ele>4.7</ele>
        <time>2023-06-11T13:45:10Z</time>
      </trkpt>
      <trkpt lat="50.20884" lon="1.55711">
        <ele>5.1</ele>
        <time>2023-06-11T13:45:14Z</time>
      </trkpt>
      <trkpt lat="50.20886" lon="1.55704">
        <ele>5.5</ele>
        <time>2023-06-11T13:45:16Z</time>
      </trkpt>
      <trkpt lat="50.20888" lon="1.55697">
        <ele>5.9</ele>
        <time>2023-06-11T13:45:18Z</time>
      </trkpt>
      <trkpt lat="50.20892" lon="1.55689">
        <ele>5.7</ele>
        <time>2023-06-11T13:45:22Z</time>
      </trkpt>
      <trkpt lat="50.20898" lon="1.55681">
        <ele>5.7</ele>
        <time>2023-06-11T13:45:26Z</time>
      </trkpt>
      <trkpt lat="50.20901" lon="1.55673">
        <ele>5.8</ele>
        <time>2023-06-11T13:46:28Z</time>
      </trkpt>
      <trkpt lat="50.20907" lon="1.55671">
        <ele>6.2</ele>
        <time>2023-06-11T13:48:44Z</time>
      </trkpt>
      <trkpt lat="50.20917" lon="1.55672">
        <ele>6.6</ele>
        <time>2023-06-11T13:48:48Z</time>
      </trkpt>
      <trkpt lat="50.20924" lon="1.55673">
        <ele>6.4</ele>
        <time>2023-06-11T13:48:50Z</time>
      </trkpt>
      <trkpt lat="50.20931" lon="1.55676">
        <ele>6.1</ele>
        <time>2023-06-11T13:48:52Z</time>
      </trkpt>
      <trkpt lat="50.20938" lon="1.55681">
        <ele>6</ele>
        <time>2023-06-11T13:48:54Z</time>
      </trkpt>
      <trkpt lat="50.20946" lon="1.55686">
        <ele>6</ele>
        <time>2023-06-11T13:48:56Z</time>
      </trkpt>
      <trkpt lat="50.20953" lon="1.55691">
        <ele>6.3</ele>
        <time>2023-06-11T13:48:58Z</time>
      </trkpt>
      <trkpt lat="50.20962" lon="1.55697">
        <ele>6.5</ele>
        <time>2023-06-11T13:49:00Z</time>
      </trkpt>
      <trkpt lat="50.2097" lon="1.55703">
        <ele>6.4</ele>
        <time>2023-06-11T13:49:02Z</time>
      </trkpt>
      <trkpt lat="50.20978" lon="1.5571">
        <ele>6</ele>
        <time>2023-06-11T13:49:04Z</time>
      </trkpt>
      <trkpt lat="50.20987" lon="1.55718">
        <ele>6.1</ele>
        <time>2023-06-11T13:49:06Z</time>
      </trkpt>
      <trkpt lat="50.20995" lon="1.55725">
        <ele>6.5</ele>
        <time>2023-06-11T13:49:08Z</time>
      </trkpt>
      <trkpt lat="50.21002" lon="1.55733">
        <ele>6.3</ele>
        <time>2023-06-11T13:49:10Z</time>
      </trkpt>
      <trkpt lat="50.2101" lon="1.5574">
        <ele>6.1</ele>
        <time>2023-06-11T13:49:12Z</time>
      </trkpt>
      <trkpt lat="50.21014" lon="1.55741">
        <ele>6.2</ele>
        <time>2023-06-11T13:49:46Z</time>
      </trkpt>
      <trkpt lat="50.21018" lon="1.55747">
        <ele>6.3</ele>
        <time>2023-06-11T13:50:46Z</time>
      </trkpt>
      <trkpt lat="50.21024" lon="1.55754">
        <ele>6.5</ele>
        <time>2023-06-11T13:50:50Z</time>
      </trkpt>
      <trkpt lat="50.21028" lon="1.55759">
        <ele>6.4</ele>
        <time>2023-06-11T13:50:52Z</time>
      </trkpt>
      <trkpt lat="50.21033" lon="1.55764">
        <ele>6</ele>
        <time>2023-06-11T13:50:54Z</time>
      </trkpt>
      <trkpt lat="50.21038" lon="1.5577">
        <ele>5.9</ele>
        <time>2023-06-11T13:50:56Z</time>
      </trkpt>
      <trkpt lat="50.21043" lon="1.55775">
        <ele>6.1</ele>
        <time>2023-06-11T13:50:58Z</time>
      </trkpt>
      <trkpt lat="50.21048" lon="1.5578">
        <ele>6.4</ele>
        <time>2023-06-11T13:51:00Z</time>
      </trkpt>
      <trkpt lat="50.21054" lon="1.55785">
        <ele>6.4</ele>
        <time>2023-06-11T13:51:02Z</time>
      </trkpt>
      <trkpt lat="50.2106" lon="1.55791">
        <ele>6.1</ele>
        <time>2023-06-11T13:51:04Z</time>
      </trkpt>
      <trkpt lat="50.21066" lon="1.55798">
        <ele>6</ele>
        <time>2023-06-11T13:51:06Z</time>
      </trkpt>
      <trkpt lat="50.21072" lon="1.55803">
        <ele>6.2</ele>
        <time>2023-06-11T13:51:08Z</time>
      </trkpt>
      <trkpt lat="50.21079" lon="1.55809">
        <ele>6.5</ele>
        <time>2023-06-11T13:51:10Z</time>
      </trkpt>
      <trkpt lat="50.21085" lon="1.55815">
        <ele>6.3</ele>
        <time>2023-06-11T13:51:12Z</time>
      </trkpt>
      <trkpt lat="50.21092" lon="1.55821">
        <ele>6</ele>
        <time>2023-06-11T13:51:14Z</time>
      </trkpt>
      <trkpt lat="50.211" lon="1.55827">
        <ele>6.1</ele>
        <time>2023-06-11T13:51:16Z</time>
      </trkpt>
      <trkpt lat="50.21107" lon="1.55832">
        <ele>6.6</ele>
        <time>2023-06-11T13:51:18Z</time>
      </trkpt>
      <trkpt lat="50.21114" lon="1.55836">
        <ele>6.7</ele>
        <time>2023-06-11T13:51:20Z</time>
      </trkpt>
      <trkpt lat="50.21121" lon="1.55841">
        <ele>6.3</ele>
        <time>2023-06-11T13:51:22Z</time>
      </trkpt>
      <trkpt lat="50.21126" lon="1.55845">
        <ele>6.1</ele>
        <time>2023-06-11T13:51:24Z</time>
      </trkpt>
      <trkpt lat="50.21131" lon="1.55849">
        <ele>6</ele>
        <time>2023-06-11T13:51:26Z</time>
      </trkpt>
      <trkpt lat="50.21136" lon="1.55853">
        <ele>6</ele>
        <time>2023-06-11T13:51:28Z</time>
      </trkpt>
      <trkpt lat="50.21142" lon="1.55856">
        <ele>6.1</ele>
        <time>2023-06-11T13:51:30Z</time>
      </trkpt>
      <trkpt lat="50.21148" lon="1.5586">
        <ele>6.3</ele>
        <time>2023-06-11T13:51:32Z</time>
      </trkpt>
      <trkpt lat="50.21155" lon="1.55864">
        <ele>6.4</ele>
        <time>2023-06-11T13:51:34Z</time>
      </trkpt>
      <trkpt lat="50.21161" lon="1.55867">
        <ele>6.4</ele>
        <time>2023-06-11T13:51:36Z</time>
      </trkpt>
      <trkpt lat="50.21166" lon="1.55871">
        <ele>6.3</ele>
        <time>2023-06-11T13:51:38Z</time>
      </trkpt>
      <trkpt lat="50.21171" lon="1.55874">
        <ele>6</ele>
        <time>2023-06-11T13:51:40Z</time>
      </trkpt>
      <trkpt lat="50.21175" lon="1.55877">
        <ele>5.8</ele>
        <time>2023-06-11T13:51:42Z</time>
      </trkpt>
      <trkpt lat="50.21179" lon="1.5588">
        <ele>5.8</ele>
        <time>2023-06-11T13:51:44Z</time>
      </trkpt>
      <trkpt lat="50.21185" lon="1.55885">
        <ele>6.1</ele>
        <time>2023-06-11T13:51:46Z</time>
      </trkpt>
      <trkpt lat="50.2119" lon="1.55888">
        <ele>6.6</ele>
        <time>2023-06-11T13:51:48Z</time>
      </trkpt>
      <trkpt lat="50.21195" lon="1.55891">
        <ele>6.8</ele>
        <time>2023-06-11T13:51:50Z</time>
      </trkpt>
      <trkpt lat="50.212" lon="1.55893">
        <ele>6.6</ele>
        <time>2023-06-11T13:51:52Z</time>
      </trkpt>
      <trkpt lat="50.21204" lon="1.55897">
        <ele>6.3</ele>
        <time>2023-06-11T13:51:54Z</time>
      </trkpt>
      <trkpt lat="50.2121" lon="1.55904">
        <ele>6</ele>
        <time>2023-06-11T13:51:56Z</time>
      </trkpt>
      <trkpt lat="50.21216" lon="1.55908">
        <ele>5.9</ele>
        <time>2023-06-11T13:51:58Z</time>
      </trkpt>
      <trkpt lat="50.21221" lon="1.55913">
        <ele>6</ele>
        <time>2023-06-11T13:52:00Z</time>
      </trkpt>
      <trkpt lat="50.21227" lon="1.55919">
        <ele>5.9</ele>
        <time>2023-06-11T13:52:02Z</time>
      </trkpt>
      <trkpt lat="50.21232" lon="1.55925">
        <ele>5.9</ele>
        <time>2023-06-11T13:52:04Z</time>
      </trkpt>
      <trkpt lat="50.21238" lon="1.55932">
        <ele>6.1</ele>
        <time>2023-06-11T13:52:06Z</time>
      </trkpt>
      <trkpt lat="50.21243" lon="1.55939">
        <ele>6.4</ele>
        <time>2023-06-11T13:52:08Z</time>
      </trkpt>
      <trkpt lat="50.21248" lon="1.55946">
        <ele>6.8</ele>
        <time>2023-06-11T13:52:10Z</time>
      </trkpt>
      <trkpt lat="50.21253" lon="1.55953">
        <ele>6.6</ele>
        <time>2023-06-11T13:52:12Z</time>
      </trkpt>
      <trkpt lat="50.21258" lon="1.55961">
        <ele>6.5</ele>
        <time>2023-06-11T13:52:14Z</time>
      </trkpt>
      <trkpt lat="50.21263" lon="1.55969">
        <ele>6.5</ele>
        <time>2023-06-11T13:52:16Z</time>
      </trkpt>
      <trkpt lat="50.21268" lon="1.55977">
        <ele>6.5</ele>
        <time>2023-06-11T13:52:18Z</time>
      </trkpt>
      <trkpt lat="50.21273" lon="1.55985">
        <ele>6.3</ele>
        <time>2023-06-11T13:52:20Z</time>
      </trkpt>
      <trkpt lat="50.21278" lon="1.55993">
        <ele>6.3</ele>
        <time>2023-06-11T13:52:22Z</time>
      </trkpt>
      <trkpt lat="50.21282" lon="1.56001">
        <ele>6.1</ele>
        <time>2023-06-11T13:52:24Z</time>
      </trkpt>
      <trkpt lat="50.21287" lon="1.56009">
        <ele>6.1</ele>
        <time>2023-06-11T13:52:26Z</time>
      </trkpt>
      <trkpt lat="50.21292" lon="1.56017">
        <ele>6.2</ele>
        <time>2023-06-11T13:52:28Z</time>
      </trkpt>
      <trkpt lat="50.21297" lon="1.56024">
        <ele>6.4</ele>
        <time>2023-06-11T13:52:30Z</time>
      </trkpt>
      <trkpt lat="50.21302" lon="1.56032">
        <ele>6.6</ele>
        <time>2023-06-11T13:52:32Z</time>
      </trkpt>
      <trkpt lat="50.21306" lon="1.5604">
        <ele>6.6</ele>
        <time>2023-06-11T13:52:34Z</time>
      </trkpt>
      <trkpt lat="50.21311" lon="1.56048">
        <ele>6.4</ele>
        <time>2023-06-11T13:52:36Z</time>
      </trkpt>
      <trkpt lat="50.21316" lon="1.56057">
        <ele>6.4</ele>
        <time>2023-06-11T13:52:38Z</time>
      </trkpt>
      <trkpt lat="50.2132" lon="1.56065">
        <ele>6.3</ele>
        <time>2023-06-11T13:52:40Z</time>
      </trkpt>
      <trkpt lat="50.21323" lon="1.56072">
        <ele>6.4</ele>
        <time>2023-06-11T13:52:42Z</time>
      </trkpt>
      <trkpt lat="50.21326" lon="1.56078">
        <ele>6.5</ele>
        <time>2023-06-11T13:52:44Z</time>
      </trkpt>
      <trkpt lat="50.2133" lon="1.56085">
        <ele>6.8</ele>
        <time>2023-06-11T13:52:46Z</time>
      </trkpt>
      <trkpt lat="50.21332" lon="1.56093">
        <ele>6.9</ele>
        <time>2023-06-11T13:52:48Z</time>
      </trkpt>
      <trkpt lat="50.21334" lon="1.56101">
        <ele>7</ele>
        <time>2023-06-11T13:52:50Z</time>
      </trkpt>
      <trkpt lat="50.21336" lon="1.5611">
        <ele>6.9</ele>
        <time>2023-06-11T13:52:52Z</time>
      </trkpt>
      <trkpt lat="50.21338" lon="1.56119">
        <ele>6.9</ele>
        <time>2023-06-11T13:52:54Z</time>
      </trkpt>
      <trkpt lat="50.2134" lon="1.56128">
        <ele>6.9</ele>
        <time>2023-06-11T13:52:56Z</time>
      </trkpt>
      <trkpt lat="50.21343" lon="1.56138">
        <ele>7</ele>
        <time>2023-06-11T13:52:58Z</time>
      </trkpt>
      <trkpt lat="50.21346" lon="1.56147">
        <ele>7</ele>
        <time>2023-06-11T13:53:00Z</time>
      </trkpt>
      <trkpt lat="50.2135" lon="1.56157">
        <ele>7</ele>
        <time>2023-06-11T13:53:02Z</time>
      </trkpt>
      <trkpt lat="50.21354" lon="1.56167">
        <ele>7</ele>
        <time>2023-06-11T13:53:04Z</time>
      </trkpt>
      <trkpt lat="50.21358" lon="1.56176">
        <ele>7</ele>
        <time>2023-06-11T13:53:06Z</time>
      </trkpt>
      <trkpt lat="50.21361" lon="1.56185">
        <ele>7</ele>
        <time>2023-06-11T13:53:08Z</time>
      </trkpt>
      <trkpt lat="50.21365" lon="1.56194">
        <ele>6.7</ele>
        <time>2023-06-11T13:53:10Z</time>
      </trkpt>
      <trkpt lat="50.21368" lon="1.56202">
        <ele>6.1</ele>
        <time>2023-06-11T13:53:12Z</time>
      </trkpt>
      <trkpt lat="50.2137" lon="1.56212">
        <ele>5.7</ele>
        <time>2023-06-11T13:53:14Z</time>
      </trkpt>
      <trkpt lat="50.21374" lon="1.56221">
        <ele>5.5</ele>
        <time>2023-06-11T13:53:16Z</time>
      </trkpt>
      <trkpt lat="50.21376" lon="1.5623">
        <ele>5.6</ele>
        <time>2023-06-11T13:53:18Z</time>
      </trkpt>
      <trkpt lat="50.21379" lon="1.5624">
        <ele>5.9</ele>
        <time>2023-06-11T13:53:20Z</time>
      </trkpt>
      <trkpt lat="50.21382" lon="1.5625">
        <ele>6.3</ele>
        <time>2023-06-11T13:53:22Z</time>
      </trkpt>
      <trkpt lat="50.21385" lon="1.56259">
        <ele>6.5</ele>
        <time>2023-06-11T13:53:24Z</time>
      </trkpt>
      <trkpt lat="50.21387" lon="1.56269">
        <ele>6.8</ele>
        <time>2023-06-11T13:53:26Z</time>
      </trkpt>
      <trkpt lat="50.2139" lon="1.56279">
        <ele>6.9</ele>
        <time>2023-06-11T13:53:28Z</time>
      </trkpt>
      <trkpt lat="50.21392" lon="1.56291">
        <ele>6.6</ele>
        <time>2023-06-11T13:53:30Z</time>
      </trkpt>
      <trkpt lat="50.21394" lon="1.56302">
        <ele>6.3</ele>
        <time>2023-06-11T13:53:32Z</time>
      </trkpt>
      <trkpt lat="50.21396" lon="1.56314">
        <ele>6</ele>
        <time>2023-06-11T13:53:34Z</time>
      </trkpt>
      <trkpt lat="50.21398" lon="1.56326">
        <ele>5.8</ele>
        <time>2023-06-11T13:53:36Z</time>
      </trkpt>
      <trkpt lat="50.214" lon="1.56338">
        <ele>5.8</ele>
        <time>2023-06-11T13:53:38Z</time>
      </trkpt>
      <trkpt lat="50.21403" lon="1.56349">
        <ele>6</ele>
        <time>2023-06-11T13:53:40Z</time>
      </trkpt>
      <trkpt lat="50.21406" lon="1.56361">
        <ele>6.2</ele>
        <time>2023-06-11T13:53:42Z</time>
      </trkpt>
      <trkpt lat="50.2141" lon="1.56372">
        <ele>6.3</ele>
        <time>2023-06-11T13:53:44Z</time>
      </trkpt>
      <trkpt lat="50.21413" lon="1.56383">
        <ele>6.5</ele>
        <time>2023-06-11T13:53:46Z</time>
      </trkpt>
      <trkpt lat="50.21416" lon="1.56393">
        <ele>6.9</ele>
        <time>2023-06-11T13:53:48Z</time>
      </trkpt>
      <trkpt lat="50.21419" lon="1.56403">
        <ele>7.1</ele>
        <time>2023-06-11T13:53:50Z</time>
      </trkpt>
      <trkpt lat="50.21423" lon="1.56414">
        <ele>7.2</ele>
        <time>2023-06-11T13:53:52Z</time>
      </trkpt>
      <trkpt lat="50.21426" lon="1.56425">
        <ele>7.3</ele>
        <time>2023-06-11T13:53:54Z</time>
      </trkpt>
      <trkpt lat="50.21429" lon="1.56435">
        <ele>7.4</ele>
        <time>2023-06-11T13:53:56Z</time>
      </trkpt>
      <trkpt lat="50.21432" lon="1.56445">
        <ele>7.5</ele>
        <time>2023-06-11T13:53:58Z</time>
      </trkpt>
      <trkpt lat="50.21435" lon="1.56455">
        <ele>6.9</ele>
        <time>2023-06-11T13:54:00Z</time>
      </trkpt>
      <trkpt lat="50.21438" lon="1.56465">
        <ele>6.5</ele>
        <time>2023-06-11T13:54:02Z</time>
      </trkpt>
      <trkpt lat="50.21441" lon="1.56474">
        <ele>6.5</ele>
        <time>2023-06-11T13:54:04Z</time>
      </trkpt>
      <trkpt lat="50.21444" lon="1.56482">
        <ele>6.9</ele>
        <time>2023-06-11T13:54:06Z</time>
      </trkpt>
      <trkpt lat="50.21447" lon="1.56491">
        <ele>7.1</ele>
        <time>2023-06-11T13:54:08Z</time>
      </trkpt>
      <trkpt lat="50.21449" lon="1.565">
        <ele>7.2</ele>
        <time>2023-06-11T13:54:10Z</time>
      </trkpt>
      <trkpt lat="50.21452" lon="1.56509">
        <ele>7</ele>
        <time>2023-06-11T13:54:12Z</time>
      </trkpt>
      <trkpt lat="50.21454" lon="1.56517">
        <ele>6.7</ele>
        <time>2023-06-11T13:54:14Z</time>
      </trkpt>
      <trkpt lat="50.21457" lon="1.56526">
        <ele>6.5</ele>
        <time>2023-06-11T13:54:16Z</time>
      </trkpt>
      <trkpt lat="50.21461" lon="1.56535">
        <ele>6.3</ele>
        <time>2023-06-11T13:54:18Z</time>
      </trkpt>
      <trkpt lat="50.21463" lon="1.56543">
        <ele>6.1</ele>
        <time>2023-06-11T13:54:20Z</time>
      </trkpt>
      <trkpt lat="50.21465" lon="1.56553">
        <ele>6.1</ele>
        <time>2023-06-11T13:54:22Z</time>
      </trkpt>
      <trkpt lat="50.21468" lon="1.56562">
        <ele>6.3</ele>
        <time>2023-06-11T13:54:24Z</time>
      </trkpt>
      <trkpt lat="50.21471" lon="1.56571">
        <ele>6.7</ele>
        <time>2023-06-11T13:54:26Z</time>
      </trkpt>
      <trkpt lat="50.21473" lon="1.5658">
        <ele>7</ele>
        <time>2023-06-11T13:54:28Z</time>
      </trkpt>
      <trkpt lat="50.21476" lon="1.56589">
        <ele>7.1</ele>
        <time>2023-06-11T13:54:30Z</time>
      </trkpt>
      <trkpt lat="50.21478" lon="1.56599">
        <ele>7.1</ele>
        <time>2023-06-11T13:54:32Z</time>
      </trkpt>
      <trkpt lat="50.21481" lon="1.56607">
        <ele>7</ele>
        <time>2023-06-11T13:54:34Z</time>
      </trkpt>
      <trkpt lat="50.21484" lon="1.56616">
        <ele>6.6</ele>
        <time>2023-06-11T13:54:36Z</time>
      </trkpt>
      <trkpt lat="50.21488" lon="1.56622">
        <ele>6.3</ele>
        <time>2023-06-11T13:54:38Z</time>
      </trkpt>
      <trkpt lat="50.21491" lon="1.56628">
        <ele>6.2</ele>
        <time>2023-06-11T13:54:46Z</time>
      </trkpt>
      <trkpt lat="50.21497" lon="1.56625">
        <ele>6.8</ele>
        <time>2023-06-11T13:54:54Z</time>
      </trkpt>
      <trkpt lat="50.21503" lon="1.56626">
        <ele>7</ele>
        <time>2023-06-11T13:54:58Z</time>
      </trkpt>
      <trkpt lat="50.2151" lon="1.56631">
        <ele>7</ele>
        <time>2023-06-11T13:55:02Z</time>
      </trkpt>
      <trkpt lat="50.21516" lon="1.56635">
        <ele>7</ele>
        <time>2023-06-11T13:55:06Z</time>
      </trkpt>
      <trkpt lat="50.2152" lon="1.56644">
        <ele>6.9</ele>
        <time>2023-06-11T13:55:10Z</time>
      </trkpt>
      <trkpt lat="50.21521" lon="1.56651">
        <ele>6.7</ele>
        <time>2023-06-11T13:55:26Z</time>
      </trkpt>
      <trkpt lat="50.21521" lon="1.56661">
        <ele>6.4</ele>
        <time>2023-06-11T14:06:00Z</time>
      </trkpt>
      <trkpt lat="50.21524" lon="1.56667">
        <ele>6.1</ele>
        <time>2023-06-11T14:06:02Z</time>
      </trkpt>
      <trkpt lat="50.21527" lon="1.56673">
        <ele>5.6</ele>
        <time>2023-06-11T14:06:04Z</time>
      </trkpt>
      <trkpt lat="50.2153" lon="1.56681">
        <ele>5</ele>
        <time>2023-06-11T14:06:06Z</time>
      </trkpt>
      <trkpt lat="50.21532" lon="1.5669">
        <ele>4.4</ele>
        <time>2023-06-11T14:06:08Z</time>
      </trkpt>
      <trkpt lat="50.21533" lon="1.56699">
        <ele>4</ele>
        <time>2023-06-11T14:06:10Z</time>
      </trkpt>
      <trkpt lat="50.21535" lon="1.56706">
        <ele>3.8</ele>
        <time>2023-06-11T14:06:12Z</time>
      </trkpt>
      <trkpt lat="50.21541" lon="1.56708">
        <ele>4</ele>
        <time>2023-06-11T14:06:16Z</time>
      </trkpt>
      <trkpt lat="50.21548" lon="1.56708">
        <ele>4.2</ele>
        <time>2023-06-11T14:06:24Z</time>
      </trkpt>
      <trkpt lat="50.21551" lon="1.56713">
        <ele>4.2</ele>
        <time>2023-06-11T14:06:30Z</time>
      </trkpt>
      <trkpt lat="50.21557" lon="1.56711">
        <ele>4.4</ele>
        <time>2023-06-11T14:06:40Z</time>
      </trkpt>
      <trkpt lat="50.21555" lon="1.56704">
        <ele>4.6</ele>
        <time>2023-06-11T14:06:48Z</time>
      </trkpt>
      <trkpt lat="50.21556" lon="1.56697">
        <ele>4.9</ele>
        <time>2023-06-11T14:07:24Z</time>
      </trkpt>
      <trkpt lat="50.21563" lon="1.56697">
        <ele>4.9</ele>
        <time>2023-06-11T14:07:28Z</time>
      </trkpt>
      <trkpt lat="50.21568" lon="1.56699">
        <ele>4.9</ele>
        <time>2023-06-11T14:07:30Z</time>
      </trkpt>
      <trkpt lat="50.21574" lon="1.56702">
        <ele>4.7</ele>
        <time>2023-06-11T14:07:32Z</time>
      </trkpt>
      <trkpt lat="50.21578" lon="1.56706">
        <ele>4.6</ele>
        <time>2023-06-11T14:07:34Z</time>
      </trkpt>
      <trkpt lat="50.21583" lon="1.56711">
        <ele>4.4</ele>
        <time>2023-06-11T14:07:36Z</time>
      </trkpt>
      <trkpt lat="50.21588" lon="1.56719">
        <ele>4.1</ele>
        <time>2023-06-11T14:07:38Z</time>
      </trkpt>
      <trkpt lat="50.21593" lon="1.56727">
        <ele>4</ele>
        <time>2023-06-11T14:07:40Z</time>
      </trkpt>
      <trkpt lat="50.21597" lon="1.56736">
        <ele>4</ele>
        <time>2023-06-11T14:07:42Z</time>
      </trkpt>
      <trkpt lat="50.21602" lon="1.56745">
        <ele>4</ele>
        <time>2023-06-11T14:07:44Z</time>
      </trkpt>
      <trkpt lat="50.21606" lon="1.56752">
        <ele>4</ele>
        <time>2023-06-11T14:07:46Z</time>
      </trkpt>
      <trkpt lat="50.2161" lon="1.56757">
        <ele>4.2</ele>
        <time>2023-06-11T14:07:48Z</time>
      </trkpt>
      <trkpt lat="50.21614" lon="1.56761">
        <ele>4.4</ele>
        <time>2023-06-11T14:07:50Z</time>
      </trkpt>
      <trkpt lat="50.21615" lon="1.56768">
        <ele>4.7</ele>
        <time>2023-06-11T14:07:52Z</time>
      </trkpt>
      <trkpt lat="50.21615" lon="1.56782">
        <ele>4.9</ele>
        <time>2023-06-11T14:07:56Z</time>
      </trkpt>
      <trkpt lat="50.21615" lon="1.56791">
        <ele>4.7</ele>
        <time>2023-06-11T14:07:58Z</time>
      </trkpt>
      <trkpt lat="50.21616" lon="1.56802">
        <ele>4.4</ele>
        <time>2023-06-11T14:08:00Z</time>
      </trkpt>
      <trkpt lat="50.21618" lon="1.56812">
        <ele>4.5</ele>
        <time>2023-06-11T14:08:02Z</time>
      </trkpt>
      <trkpt lat="50.21623" lon="1.5682">
        <ele>4.6</ele>
        <time>2023-06-11T14:08:04Z</time>
      </trkpt>
      <trkpt lat="50.21627" lon="1.56823">
        <ele>4.8</ele>
        <time>2023-06-11T14:08:06Z</time>
      </trkpt>
      <trkpt lat="50.21631" lon="1.56833">
        <ele>4.7</ele>
        <time>2023-06-11T14:08:10Z</time>
      </trkpt>
      <trkpt lat="50.21633" lon="1.5684">
        <ele>4.7</ele>
        <time>2023-06-11T14:08:12Z</time>
      </trkpt>
      <trkpt lat="50.21635" lon="1.56848">
        <ele>4.8</ele>
        <time>2023-06-11T14:08:14Z</time>
      </trkpt>
      <trkpt lat="50.21637" lon="1.56858">
        <ele>4.9</ele>
        <time>2023-06-11T14:08:16Z</time>
      </trkpt>
      <trkpt lat="50.21639" lon="1.56868">
        <ele>5</ele>
        <time>2023-06-11T14:08:18Z</time>
      </trkpt>
      <trkpt lat="50.21638" lon="1.56877">
        <ele>4.9</ele>
        <time>2023-06-11T14:08:20Z</time>
      </trkpt>
      <trkpt lat="50.21636" lon="1.56885">
        <ele>4.8</ele>
        <time>2023-06-11T14:08:22Z</time>
      </trkpt>
      <trkpt lat="50.21633" lon="1.56893">
        <ele>4.7</ele>
        <time>2023-06-11T14:08:24Z</time>
      </trkpt>
      <trkpt lat="50.2163" lon="1.56902">
        <ele>4.7</ele>
        <time>2023-06-11T14:08:26Z</time>
      </trkpt>
      <trkpt lat="50.2163" lon="1.56913">
        <ele>4.9</ele>
        <time>2023-06-11T14:08:28Z</time>
      </trkpt>
      <trkpt lat="50.21631" lon="1.56924">
        <ele>5</ele>
        <time>2023-06-11T14:08:30Z</time>
      </trkpt>
      <trkpt lat="50.21633" lon="1.56932">
        <ele>5</ele>
        <time>2023-06-11T14:08:32Z</time>
      </trkpt>
      <trkpt lat="50.21635" lon="1.56939">
        <ele>5</ele>
        <time>2023-06-11T14:08:36Z</time>
      </trkpt>
      <trkpt lat="50.21636" lon="1.56951">
        <ele>5</ele>
        <time>2023-06-11T14:08:40Z</time>
      </trkpt>
      <trkpt lat="50.21636" lon="1.56959">
        <ele>5</ele>
        <time>2023-06-11T14:08:42Z</time>
      </trkpt>
      <trkpt lat="50.21636" lon="1.56967">
        <ele>5</ele>
        <time>2023-06-11T14:08:44Z</time>
      </trkpt>
      <trkpt lat="50.21636" lon="1.56974">
        <ele>5</ele>
        <time>2023-06-11T14:08:46Z</time>
      </trkpt>
      <trkpt lat="50.21637" lon="1.56982">
        <ele>5</ele>
        <time>2023-06-11T14:08:48Z</time>
      </trkpt>
      <trkpt lat="50.21639" lon="1.56991">
        <ele>5</ele>
        <time>2023-06-11T14:08:50Z</time>
      </trkpt>
      <trkpt lat="50.2164" lon="1.57">
        <ele>5</ele>
        <time>2023-06-11T14:08:52Z</time>
      </trkpt>
      <trkpt lat="50.2164" lon="1.57009">
        <ele>5</ele>
        <time>2023-06-11T14:08:54Z</time>
      </trkpt>
      <trkpt lat="50.21641" lon="1.57018">
        <ele>5</ele>
        <time>2023-06-11T14:08:56Z</time>
      </trkpt>
      <trkpt lat="50.21643" lon="1.57027">
        <ele>5</ele>
        <time>2023-06-11T14:08:58Z</time>
      </trkpt>
      <trkpt lat="50.21645" lon="1.57035">
        <ele>5</ele>
        <time>2023-06-11T14:09:00Z</time>
      </trkpt>
      <trkpt lat="50.21648" lon="1.57044">
        <ele>5</ele>
        <time>2023-06-11T14:09:02Z</time>
      </trkpt>
      <trkpt lat="50.2165" lon="1.57051">
        <ele>5</ele>
        <time>2023-06-11T14:09:04Z</time>
      </trkpt>
      <trkpt lat="50.21653" lon="1.57059">
        <ele>5</ele>
        <time>2023-06-11T14:09:06Z</time>
      </trkpt>
      <trkpt lat="50.21655" lon="1.57067">
        <ele>5</ele>
        <time>2023-06-11T14:09:08Z</time>
      </trkpt>
      <trkpt lat="50.21658" lon="1.57074">
        <ele>5</ele>
        <time>2023-06-11T14:09:10Z</time>
      </trkpt>
      <trkpt lat="50.21662" lon="1.57081">
        <ele>5</ele>
        <time>2023-06-11T14:09:12Z</time>
      </trkpt>
      <trkpt lat="50.21665" lon="1.57088">
        <ele>5</ele>
        <time>2023-06-11T14:09:14Z</time>
      </trkpt>
      <trkpt lat="50.21667" lon="1.57096">
        <ele>5</ele>
        <time>2023-06-11T14:09:16Z</time>
      </trkpt>
      <trkpt lat="50.21669" lon="1.57104">
        <ele>5.1</ele>
        <time>2023-06-11T14:09:18Z</time>
      </trkpt>
      <trkpt lat="50.21672" lon="1.5711">
        <ele>5.4</ele>
        <time>2023-06-11T14:09:20Z</time>
      </trkpt>
      <trkpt lat="50.21676" lon="1.57114">
        <ele>5.7</ele>
        <time>2023-06-11T14:09:22Z</time>
      </trkpt>
      <trkpt lat="50.21682" lon="1.57118">
        <ele>6.1</ele>
        <time>2023-06-11T14:09:26Z</time>
      </trkpt>
      <trkpt lat="50.21685" lon="1.57125">
        <ele>6.3</ele>
        <time>2023-06-11T14:09:34Z</time>
      </trkpt>
      <trkpt lat="50.21689" lon="1.57128">
        <ele>6.6</ele>
        <time>2023-06-11T14:09:40Z</time>
      </trkpt>
      <trkpt lat="50.21694" lon="1.57133">
        <ele>6.9</ele>
        <time>2023-06-11T14:09:48Z</time>
      </trkpt>
      <trkpt lat="50.21697" lon="1.57137">
        <ele>7</ele>
        <time>2023-06-11T14:09:54Z</time>
      </trkpt>
      <trkpt lat="50.21693" lon="1.57136">
        <ele>6.9</ele>
        <time>2023-06-11T14:30:54Z</time>
      </trkpt>
      <trkpt lat="50.21688" lon="1.5713">
        <ele>6.6</ele>
        <time>2023-06-11T14:31:02Z</time>
      </trkpt>
      <trkpt lat="50.21685" lon="1.57123">
        <ele>6.3</ele>
        <time>2023-06-11T14:31:08Z</time>
      </trkpt>
      <trkpt lat="50.21685" lon="1.57116">
        <ele>6.3</ele>
        <time>2023-06-11T14:31:14Z</time>
      </trkpt>
      <trkpt lat="50.21685" lon="1.57108">
        <ele>6.3</ele>
        <time>2023-06-11T14:31:20Z</time>
      </trkpt>
      <trkpt lat="50.21683" lon="1.57096">
        <ele>6.2</ele>
        <time>2023-06-11T14:31:30Z</time>
      </trkpt>
      <trkpt lat="50.21681" lon="1.57086">
        <ele>6</ele>
        <time>2023-06-11T14:31:34Z</time>
      </trkpt>
      <trkpt lat="50.21677" lon="1.57077">
        <ele>5.7</ele>
        <time>2023-06-11T14:31:38Z</time>
      </trkpt>
      <trkpt lat="50.21671" lon="1.57067">
        <ele>5.2</ele>
        <time>2023-06-11T14:31:42Z</time>
      </trkpt>
      <trkpt lat="50.21668" lon="1.57061">
        <ele>5.1</ele>
        <time>2023-06-11T14:31:44Z</time>
      </trkpt>
      <trkpt lat="50.21667" lon="1.57054">
        <ele>5</ele>
        <time>2023-06-11T14:31:46Z</time>
      </trkpt>
      <trkpt lat="50.21664" lon="1.57043">
        <ele>5</ele>
        <time>2023-06-11T14:31:50Z</time>
      </trkpt>
      <trkpt lat="50.2166" lon="1.57034">
        <ele>5</ele>
        <time>2023-06-11T14:31:54Z</time>
      </trkpt>
      <trkpt lat="50.21657" lon="1.57024">
        <ele>5</ele>
        <time>2023-06-11T14:31:58Z</time>
      </trkpt>
      <trkpt lat="50.21655" lon="1.57012">
        <ele>5</ele>
        <time>2023-06-11T14:32:02Z</time>
      </trkpt>
      <trkpt lat="50.21655" lon="1.56998">
        <ele>5</ele>
        <time>2023-06-11T14:32:06Z</time>
      </trkpt>
      <trkpt lat="50.21654" lon="1.5699">
        <ele>5</ele>
        <time>2023-06-11T14:32:08Z</time>
      </trkpt>
      <trkpt lat="50.21653" lon="1.56977">
        <ele>5</ele>
        <time>2023-06-11T14:32:12Z</time>
      </trkpt>
      <trkpt lat="50.21652" lon="1.56963">
        <ele>5.2</ele>
        <time>2023-06-11T14:32:16Z</time>
      </trkpt>
      <trkpt lat="50.21654" lon="1.56956">
        <ele>5.3</ele>
        <time>2023-06-11T14:32:18Z</time>
      </trkpt>
      <trkpt lat="50.21657" lon="1.56945">
        <ele>5.7</ele>
        <time>2023-06-11T14:32:22Z</time>
      </trkpt>
      <trkpt lat="50.21659" lon="1.56936">
        <ele>5.7</ele>
        <time>2023-06-11T14:32:26Z</time>
      </trkpt>
      <trkpt lat="50.21663" lon="1.56926">
        <ele>5.9</ele>
        <time>2023-06-11T14:32:30Z</time>
      </trkpt>
      <trkpt lat="50.21668" lon="1.56916">
        <ele>6</ele>
        <time>2023-06-11T14:32:34Z</time>
      </trkpt>
      <trkpt lat="50.21671" lon="1.5691">
        <ele>5.9</ele>
        <time>2023-06-11T14:32:36Z</time>
      </trkpt>
      <trkpt lat="50.21674" lon="1.56903">
        <ele>6</ele>
        <time>2023-06-11T14:32:38Z</time>
      </trkpt>
      <trkpt lat="50.21677" lon="1.56897">
        <ele>6.2</ele>
        <time>2023-06-11T14:32:40Z</time>
      </trkpt>
      <trkpt lat="50.2168" lon="1.5689">
        <ele>6.5</ele>
        <time>2023-06-11T14:32:42Z</time>
      </trkpt>
      <trkpt lat="50.21683" lon="1.56883">
        <ele>6.6</ele>
        <time>2023-06-11T14:32:44Z</time>
      </trkpt>
      <trkpt lat="50.21684" lon="1.56876">
        <ele>6.6</ele>
        <time>2023-06-11T14:32:46Z</time>
      </trkpt>
      <trkpt lat="50.21686" lon="1.56868">
        <ele>6.7</ele>
        <time>2023-06-11T14:32:48Z</time>
      </trkpt>
      <trkpt lat="50.21688" lon="1.56859">
        <ele>6.8</ele>
        <time>2023-06-11T14:32:50Z</time>
      </trkpt>
      <trkpt lat="50.21689" lon="1.5685">
        <ele>6.8</ele>
        <time>2023-06-11T14:32:52Z</time>
      </trkpt>
      <trkpt lat="50.2169" lon="1.56841">
        <ele>6.8</ele>
        <time>2023-06-11T14:32:54Z</time>
      </trkpt>
      <trkpt lat="50.21691" lon="1.56832">
        <ele>6.9</ele>
        <time>2023-06-11T14:32:56Z</time>
      </trkpt>
      <trkpt lat="50.21692" lon="1.56824">
        <ele>6.9</ele>
        <time>2023-06-11T14:32:58Z</time>
      </trkpt>
      <trkpt lat="50.21692" lon="1.56815">
        <ele>6.9</ele>
        <time>2023-06-11T14:33:00Z</time>
      </trkpt>
      <trkpt lat="50.21692" lon="1.56807">
        <ele>6.8</ele>
        <time>2023-06-11T14:33:02Z</time>
      </trkpt>
      <trkpt lat="50.21692" lon="1.56798">
        <ele>6.9</ele>
        <time>2023-06-11T14:33:04Z</time>
      </trkpt>
      <trkpt lat="50.21693" lon="1.56789">
        <ele>6.9</ele>
        <time>2023-06-11T14:33:06Z</time>
      </trkpt>
      <trkpt lat="50.21693" lon="1.5678">
        <ele>6.9</ele>
        <time>2023-06-11T14:33:08Z</time>
      </trkpt>
      <trkpt lat="50.21692" lon="1.56771">
        <ele>6.9</ele>
        <time>2023-06-11T14:33:10Z</time>
      </trkpt>
      <trkpt lat="50.21691" lon="1.56762">
        <ele>6.9</ele>
        <time>2023-06-11T14:33:12Z</time>
      </trkpt>
      <trkpt lat="50.2169" lon="1.56753">
        <ele>6.9</ele>
        <time>2023-06-11T14:33:14Z</time>
      </trkpt>
      <trkpt lat="50.21689" lon="1.56745">
        <ele>6.8</ele>
        <time>2023-06-11T14:33:16Z</time>
      </trkpt>
      <trkpt lat="50.21688" lon="1.56736">
        <ele>6.7</ele>
        <time>2023-06-11T14:33:18Z</time>
      </trkpt>
      <trkpt lat="50.21688" lon="1.56726">
        <ele>6.6</ele>
        <time>2023-06-11T14:33:20Z</time>
      </trkpt>
      <trkpt lat="50.21688" lon="1.56716">
        <ele>6.5</ele>
        <time>2023-06-11T14:33:22Z</time>
      </trkpt>
      <trkpt lat="50.21688" lon="1.56706">
        <ele>6.4</ele>
        <time>2023-06-11T14:33:24Z</time>
      </trkpt>
      <trkpt lat="50.21687" lon="1.56697">
        <ele>6.2</ele>
        <time>2023-06-11T14:33:26Z</time>
      </trkpt>
      <trkpt lat="50.21687" lon="1.56688">
        <ele>6.2</ele>
        <time>2023-06-11T14:33:28Z</time>
      </trkpt>
      <trkpt lat="50.21686" lon="1.5668">
        <ele>6.1</ele>
        <time>2023-06-11T14:33:30Z</time>
      </trkpt>
      <trkpt lat="50.21685" lon="1.56672">
        <ele>6</ele>
        <time>2023-06-11T14:33:32Z</time>
      </trkpt>
      <trkpt lat="50.21685" lon="1.56663">
        <ele>6.1</ele>
        <time>2023-06-11T14:33:34Z</time>
      </trkpt>
      <trkpt lat="50.21685" lon="1.56654">
        <ele>6.3</ele>
        <time>2023-06-11T14:33:36Z</time>
      </trkpt>
      <trkpt lat="50.21685" lon="1.56645">
        <ele>6.5</ele>
        <time>2023-06-11T14:33:38Z</time>
      </trkpt>
      <trkpt lat="50.21685" lon="1.56637">
        <ele>6.7</ele>
        <time>2023-06-11T14:33:40Z</time>
      </trkpt>
      <trkpt lat="50.21685" lon="1.56628">
        <ele>6.6</ele>
        <time>2023-06-11T14:33:42Z</time>
      </trkpt>
      <trkpt lat="50.21684" lon="1.56619">
        <ele>6.6</ele>
        <time>2023-06-11T14:33:44Z</time>
      </trkpt>
      <trkpt lat="50.21684" lon="1.5661">
        <ele>6.6</ele>
        <time>2023-06-11T14:33:46Z</time>
      </trkpt>
      <trkpt lat="50.21682" lon="1.56601">
        <ele>6.7</ele>
        <time>2023-06-11T14:33:48Z</time>
      </trkpt>
      <trkpt lat="50.21681" lon="1.56592">
        <ele>6.9</ele>
        <time>2023-06-11T14:33:50Z</time>
      </trkpt>
      <trkpt lat="50.2168" lon="1.56582">
        <ele>6.9</ele>
        <time>2023-06-11T14:33:52Z</time>
      </trkpt>
      <trkpt lat="50.2168" lon="1.56573">
        <ele>6.5</ele>
        <time>2023-06-11T14:33:54Z</time>
      </trkpt>
      <trkpt lat="50.21679" lon="1.56565">
        <ele>6</ele>
        <time>2023-06-11T14:33:56Z</time>
      </trkpt>
      <trkpt lat="50.21677" lon="1.56558">
        <ele>5.5</ele>
        <time>2023-06-11T14:33:58Z</time>
      </trkpt>
      <trkpt lat="50.21673" lon="1.56551">
        <ele>5.4</ele>
        <time>2023-06-11T14:34:00Z</time>
      </trkpt>
      <trkpt lat="50.21668" lon="1.56545">
        <ele>5.4</ele>
        <time>2023-06-11T14:34:02Z</time>
      </trkpt>
      <trkpt lat="50.21663" lon="1.5654">
        <ele>5.5</ele>
        <time>2023-06-11T14:34:04Z</time>
      </trkpt>
      <trkpt lat="50.21658" lon="1.56537">
        <ele>5.7</ele>
        <time>2023-06-11T14:34:06Z</time>
      </trkpt>
      <trkpt lat="50.21652" lon="1.56536">
        <ele>5.7</ele>
        <time>2023-06-11T14:34:08Z</time>
      </trkpt>
      <trkpt lat="50.21648" lon="1.56538">
        <ele>5.6</ele>
        <time>2023-06-11T14:34:10Z</time>
      </trkpt>
      <trkpt lat="50.2164" lon="1.56544">
        <ele>5.4</ele>
        <time>2023-06-11T14:34:14Z</time>
      </trkpt>
      <trkpt lat="50.21632" lon="1.5655">
        <ele>5.4</ele>
        <time>2023-06-11T14:34:18Z</time>
      </trkpt>
      <trkpt lat="50.21625" lon="1.56554">
        <ele>5.5</ele>
        <time>2023-06-11T14:34:22Z</time>
      </trkpt>
      <trkpt lat="50.21618" lon="1.56561">
        <ele>5.6</ele>
        <time>2023-06-11T14:34:26Z</time>
      </trkpt>
      <trkpt lat="50.21613" lon="1.56566">
        <ele>5.6</ele>
        <time>2023-06-11T14:34:28Z</time>
      </trkpt>
      <trkpt lat="50.21607" lon="1.56569">
        <ele>5.6</ele>
        <time>2023-06-11T14:34:30Z</time>
      </trkpt>
      <trkpt lat="50.21601" lon="1.56572">
        <ele>5.8</ele>
        <time>2023-06-11T14:34:32Z</time>
      </trkpt>
      <trkpt lat="50.21595" lon="1.56574">
        <ele>5.9</ele>
        <time>2023-06-11T14:34:34Z</time>
      </trkpt>
      <trkpt lat="50.2159" lon="1.56576">
        <ele>6</ele>
        <time>2023-06-11T14:34:36Z</time>
      </trkpt>
      <trkpt lat="50.21585" lon="1.56576">
        <ele>6.2</ele>
        <time>2023-06-11T14:34:38Z</time>
      </trkpt>
      <trkpt lat="50.2158" lon="1.56578">
        <ele>6.3</ele>
        <time>2023-06-11T14:34:40Z</time>
      </trkpt>
      <trkpt lat="50.21576" lon="1.56582">
        <ele>6.3</ele>
        <time>2023-06-11T14:34:42Z</time>
      </trkpt>
      <trkpt lat="50.21572" lon="1.56586">
        <ele>6.4</ele>
        <time>2023-06-11T14:34:44Z</time>
      </trkpt>
      <trkpt lat="50.21563" lon="1.5659">
        <ele>6.7</ele>
        <time>2023-06-11T14:34:48Z</time>
      </trkpt>
      <trkpt lat="50.21558" lon="1.5659">
        <ele>6.9</ele>
        <time>2023-06-11T14:34:50Z</time>
      </trkpt>
      <trkpt lat="50.21554" lon="1.56591">
        <ele>7</ele>
        <time>2023-06-11T14:34:52Z</time>
      </trkpt>
      <trkpt lat="50.21549" lon="1.56591">
        <ele>7</ele>
        <time>2023-06-11T14:34:54Z</time>
      </trkpt>
      <trkpt lat="50.21545" lon="1.56579">
        <ele>7</ele>
        <time>2023-06-11T14:34:58Z</time>
      </trkpt>
      <trkpt lat="50.21546" lon="1.56572">
        <ele>7</ele>
        <time>2023-06-11T14:35:00Z</time>
      </trkpt>
      <trkpt lat="50.21545" lon="1.56558">
        <ele>7</ele>
        <time>2023-06-11T14:35:04Z</time>
      </trkpt>
      <trkpt lat="50.21541" lon="1.56549">
        <ele>7.1</ele>
        <time>2023-06-11T14:35:08Z</time>
      </trkpt>
      <trkpt lat="50.21544" lon="1.5656">
        <ele>7</ele>
        <time>2023-06-11T14:35:30Z</time>
      </trkpt>
      <trkpt lat="50.21547" lon="1.56571">
        <ele>7</ele>
        <time>2023-06-11T14:35:34Z</time>
      </trkpt>
      <trkpt lat="50.21543" lon="1.56583">
        <ele>7</ele>
        <time>2023-06-11T14:35:38Z</time>
      </trkpt>
      <trkpt lat="50.2154" lon="1.56588">
        <ele>7</ele>
        <time>2023-06-11T14:35:40Z</time>
      </trkpt>
      <trkpt lat="50.21536" lon="1.56592">
        <ele>7</ele>
        <time>2023-06-11T14:35:42Z</time>
      </trkpt>
      <trkpt lat="50.21529" lon="1.56602">
        <ele>7</ele>
        <time>2023-06-11T14:35:46Z</time>
      </trkpt>
      <trkpt lat="50.21526" lon="1.56608">
        <ele>7</ele>
        <time>2023-06-11T14:35:48Z</time>
      </trkpt>
      <trkpt lat="50.21521" lon="1.56611">
        <ele>7</ele>
        <time>2023-06-11T14:35:50Z</time>
      </trkpt>
      <trkpt lat="50.21516" lon="1.56614">
        <ele>7</ele>
        <time>2023-06-11T14:35:52Z</time>
      </trkpt>
      <trkpt lat="50.21512" lon="1.56617">
        <ele>7</ele>
        <time>2023-06-11T14:35:54Z</time>
      </trkpt>
      <trkpt lat="50.21505" lon="1.56622">
        <ele>7</ele>
        <time>2023-06-11T14:35:58Z</time>
      </trkpt>
      <trkpt lat="50.21498" lon="1.56626">
        <ele>6.9</ele>
        <time>2023-06-11T14:36:02Z</time>
      </trkpt>
      <trkpt lat="50.21495" lon="1.56631">
        <ele>6.5</ele>
        <time>2023-06-11T14:36:18Z</time>
      </trkpt>
      <trkpt lat="50.2149" lon="1.56634">
        <ele>5.9</ele>
        <time>2023-06-11T14:36:22Z</time>
      </trkpt>
      <trkpt lat="50.21488" lon="1.56624">
        <ele>6.2</ele>
        <time>2023-06-11T14:36:26Z</time>
      </trkpt>
      <trkpt lat="50.21487" lon="1.56611">
        <ele>7</ele>
        <time>2023-06-11T14:36:30Z</time>
      </trkpt>
      <trkpt lat="50.21485" lon="1.56598">
        <ele>7.2</ele>
        <time>2023-06-11T14:36:34Z</time>
      </trkpt>
      <trkpt lat="50.21488" lon="1.56587">
        <ele>7.5</ele>
        <time>2023-06-11T14:36:38Z</time>
      </trkpt>
      <trkpt lat="50.21491" lon="1.5658">
        <ele>7.7</ele>
        <time>2023-06-11T14:36:42Z</time>
      </trkpt>
      <trkpt lat="50.21488" lon="1.56572">
        <ele>7.6</ele>
        <time>2023-06-11T14:37:02Z</time>
      </trkpt>
      <trkpt lat="50.21488" lon="1.56565">
        <ele>7.6</ele>
        <time>2023-06-11T14:37:06Z</time>
      </trkpt>
      <trkpt lat="50.21486" lon="1.56556">
        <ele>7.5</ele>
        <time>2023-06-11T14:37:10Z</time>
      </trkpt>
      <trkpt lat="50.21485" lon="1.56547">
        <ele>7.5</ele>
        <time>2023-06-11T14:37:14Z</time>
      </trkpt>
      <trkpt lat="50.2148" lon="1.56546">
        <ele>7.3</ele>
        <time>2023-06-11T14:37:18Z</time>
      </trkpt>
      <trkpt lat="50.21473" lon="1.56548">
        <ele>7</ele>
        <time>2023-06-11T14:37:22Z</time>
      </trkpt>
      <trkpt lat="50.21467" lon="1.5654">
        <ele>6.6</ele>
        <time>2023-06-11T14:37:26Z</time>
      </trkpt>
      <trkpt lat="50.21467" lon="1.56532">
        <ele>6.7</ele>
        <time>2023-06-11T14:37:30Z</time>
      </trkpt>
      <trkpt lat="50.21465" lon="1.56526">
        <ele>6.8</ele>
        <time>2023-06-11T14:38:08Z</time>
      </trkpt>
      <trkpt lat="50.21463" lon="1.56537">
        <ele>6.3</ele>
        <time>2023-06-11T14:38:48Z</time>
      </trkpt>
      <trkpt lat="50.21463" lon="1.56546">
        <ele>6</ele>
        <time>2023-06-11T14:38:50Z</time>
      </trkpt>
      <trkpt lat="50.21464" lon="1.56555">
        <ele>5.8</ele>
        <time>2023-06-11T14:38:52Z</time>
      </trkpt>
      <trkpt lat="50.21466" lon="1.56564">
        <ele>6</ele>
        <time>2023-06-11T14:38:54Z</time>
      </trkpt>
      <trkpt lat="50.21468" lon="1.56572">
        <ele>6.3</ele>
        <time>2023-06-11T14:38:56Z</time>
      </trkpt>
      <trkpt lat="50.21468" lon="1.5658">
        <ele>6</ele>
        <time>2023-06-11T14:39:00Z</time>
      </trkpt>
      <trkpt lat="50.21463" lon="1.56587">
        <ele>5.1</ele>
        <time>2023-06-11T14:39:06Z</time>
      </trkpt>
      <trkpt lat="50.2146" lon="1.56581">
        <ele>4.4</ele>
        <time>2023-06-11T14:39:56Z</time>
      </trkpt>
      <trkpt lat="50.21457" lon="1.56576">
        <ele>3.9</ele>
        <time>2023-06-11T14:42:26Z</time>
      </trkpt>
      <trkpt lat="50.21455" lon="1.56568">
        <ele>3.9</ele>
        <time>2023-06-11T14:44:08Z</time>
      </trkpt>
      <trkpt lat="50.21454" lon="1.56559">
        <ele>4.2</ele>
        <time>2023-06-11T14:44:12Z</time>
      </trkpt>
      <trkpt lat="50.21452" lon="1.56551">
        <ele>4.4</ele>
        <time>2023-06-11T14:44:14Z</time>
      </trkpt>
      <trkpt lat="50.2145" lon="1.56543">
        <ele>4.9</ele>
        <time>2023-06-11T14:44:16Z</time>
      </trkpt>
      <trkpt lat="50.21447" lon="1.56534">
        <ele>5.5</ele>
        <time>2023-06-11T14:44:18Z</time>
      </trkpt>
      <trkpt lat="50.21446" lon="1.56526">
        <ele>6.1</ele>
        <time>2023-06-11T14:44:20Z</time>
      </trkpt>
      <trkpt lat="50.21444" lon="1.56519">
        <ele>6.2</ele>
        <time>2023-06-11T14:44:22Z</time>
      </trkpt>
      <trkpt lat="50.21442" lon="1.56511">
        <ele>6.1</ele>
        <time>2023-06-11T14:44:24Z</time>
      </trkpt>
      <trkpt lat="50.2144" lon="1.56502">
        <ele>6</ele>
        <time>2023-06-11T14:44:26Z</time>
      </trkpt>
      <trkpt lat="50.2144" lon="1.56492">
        <ele>6.2</ele>
        <time>2023-06-11T14:44:28Z</time>
      </trkpt>
      <trkpt lat="50.2144" lon="1.56482">
        <ele>6.2</ele>
        <time>2023-06-11T14:44:30Z</time>
      </trkpt>
      <trkpt lat="50.21438" lon="1.56472">
        <ele>6.1</ele>
        <time>2023-06-11T14:44:32Z</time>
      </trkpt>
      <trkpt lat="50.21435" lon="1.56461">
        <ele>6.4</ele>
        <time>2023-06-11T14:44:34Z</time>
      </trkpt>
      <trkpt lat="50.21431" lon="1.5645">
        <ele>7</ele>
        <time>2023-06-11T14:44:36Z</time>
      </trkpt>
      <trkpt lat="50.21427" lon="1.56441">
        <ele>7.4</ele>
        <time>2023-06-11T14:44:38Z</time>
      </trkpt>
      <trkpt lat="50.21424" lon="1.5643">
        <ele>7.3</ele>
        <time>2023-06-11T14:44:40Z</time>
      </trkpt>
      <trkpt lat="50.21422" lon="1.56418">
        <ele>7.2</ele>
        <time>2023-06-11T14:44:42Z</time>
      </trkpt>
      <trkpt lat="50.21419" lon="1.56407">
        <ele>7.1</ele>
        <time>2023-06-11T14:44:44Z</time>
      </trkpt>
      <trkpt lat="50.21416" lon="1.56397">
        <ele>6.9</ele>
        <time>2023-06-11T14:44:46Z</time>
      </trkpt>
      <trkpt lat="50.21414" lon="1.56386">
        <ele>6.6</ele>
        <time>2023-06-11T14:44:48Z</time>
      </trkpt>
      <trkpt lat="50.2141" lon="1.56375">
        <ele>6.3</ele>
        <time>2023-06-11T14:44:50Z</time>
      </trkpt>
      <trkpt lat="50.21406" lon="1.56365">
        <ele>6.1</ele>
        <time>2023-06-11T14:44:52Z</time>
      </trkpt>
      <trkpt lat="50.21402" lon="1.56354">
        <ele>6</ele>
        <time>2023-06-11T14:44:54Z</time>
      </trkpt>
      <trkpt lat="50.214" lon="1.56343">
        <ele>5.8</ele>
        <time>2023-06-11T14:44:56Z</time>
      </trkpt>
      <trkpt lat="50.21397" lon="1.56331">
        <ele>5.7</ele>
        <time>2023-06-11T14:44:58Z</time>
      </trkpt>
      <trkpt lat="50.21394" lon="1.5632">
        <ele>5.8</ele>
        <time>2023-06-11T14:45:00Z</time>
      </trkpt>
      <trkpt lat="50.21393" lon="1.56309">
        <ele>6</ele>
        <time>2023-06-11T14:45:02Z</time>
      </trkpt>
      <trkpt lat="50.21391" lon="1.56299">
        <ele>6.3</ele>
        <time>2023-06-11T14:45:04Z</time>
      </trkpt>
      <trkpt lat="50.21389" lon="1.56289">
        <ele>6.6</ele>
        <time>2023-06-11T14:45:06Z</time>
      </trkpt>
      <trkpt lat="50.21388" lon="1.56279">
        <ele>6.9</ele>
        <time>2023-06-11T14:45:08Z</time>
      </trkpt>
      <trkpt lat="50.21386" lon="1.56269">
        <ele>6.7</ele>
        <time>2023-06-11T14:45:10Z</time>
      </trkpt>
      <trkpt lat="50.21383" lon="1.56258">
        <ele>6.3</ele>
        <time>2023-06-11T14:45:12Z</time>
      </trkpt>
      <trkpt lat="50.2138" lon="1.56248">
        <ele>6</ele>
        <time>2023-06-11T14:45:14Z</time>
      </trkpt>
      <trkpt lat="50.21376" lon="1.56237">
        <ele>5.6</ele>
        <time>2023-06-11T14:45:16Z</time>
      </trkpt>
      <trkpt lat="50.21374" lon="1.56226">
        <ele>5.4</ele>
        <time>2023-06-11T14:45:18Z</time>
      </trkpt>
      <trkpt lat="50.2137" lon="1.56216">
        <ele>5.6</ele>
        <time>2023-06-11T14:45:20Z</time>
      </trkpt>
      <trkpt lat="50.21367" lon="1.56205">
        <ele>6.1</ele>
        <time>2023-06-11T14:45:22Z</time>
      </trkpt>
      <trkpt lat="50.21364" lon="1.56194">
        <ele>6.8</ele>
        <time>2023-06-11T14:45:24Z</time>
      </trkpt>
      <trkpt lat="50.21359" lon="1.56184">
        <ele>7</ele>
        <time>2023-06-11T14:45:26Z</time>
      </trkpt>
      <trkpt lat="50.21355" lon="1.56173">
        <ele>6.9</ele>
        <time>2023-06-11T14:45:28Z</time>
      </trkpt>
      <trkpt lat="50.21351" lon="1.56162">
        <ele>7</ele>
        <time>2023-06-11T14:45:30Z</time>
      </trkpt>
      <trkpt lat="50.21346" lon="1.56152">
        <ele>7</ele>
        <time>2023-06-11T14:45:32Z</time>
      </trkpt>
      <trkpt lat="50.21343" lon="1.56141">
        <ele>7</ele>
        <time>2023-06-11T14:45:34Z</time>
      </trkpt>
      <trkpt lat="50.21339" lon="1.5613">
        <ele>6.9</ele>
        <time>2023-06-11T14:45:36Z</time>
      </trkpt>
      <trkpt lat="50.21337" lon="1.56119">
        <ele>6.9</ele>
        <time>2023-06-11T14:45:38Z</time>
      </trkpt>
      <trkpt lat="50.21335" lon="1.56108">
        <ele>6.9</ele>
        <time>2023-06-11T14:45:40Z</time>
      </trkpt>
      <trkpt lat="50.21332" lon="1.56097">
        <ele>6.9</ele>
        <time>2023-06-11T14:45:42Z</time>
      </trkpt>
      <trkpt lat="50.21329" lon="1.56086">
        <ele>6.7</ele>
        <time>2023-06-11T14:45:44Z</time>
      </trkpt>
      <trkpt lat="50.21325" lon="1.56075">
        <ele>6.5</ele>
        <time>2023-06-11T14:45:46Z</time>
      </trkpt>
      <trkpt lat="50.21321" lon="1.56066">
        <ele>6.4</ele>
        <time>2023-06-11T14:45:48Z</time>
      </trkpt>
      <trkpt lat="50.21316" lon="1.56057">
        <ele>6.4</ele>
        <time>2023-06-11T14:45:50Z</time>
      </trkpt>
      <trkpt lat="50.21311" lon="1.56047">
        <ele>6.4</ele>
        <time>2023-06-11T14:45:52Z</time>
      </trkpt>
      <trkpt lat="50.21306" lon="1.56039">
        <ele>6.6</ele>
        <time>2023-06-11T14:45:54Z</time>
      </trkpt>
      <trkpt lat="50.213" lon="1.5603">
        <ele>6.6</ele>
        <time>2023-06-11T14:45:56Z</time>
      </trkpt>
      <trkpt lat="50.21295" lon="1.56021">
        <ele>6.3</ele>
        <time>2023-06-11T14:45:58Z</time>
      </trkpt>
      <trkpt lat="50.21289" lon="1.56013">
        <ele>6.1</ele>
        <time>2023-06-11T14:46:00Z</time>
      </trkpt>
      <trkpt lat="50.21284" lon="1.56004">
        <ele>6.1</ele>
        <time>2023-06-11T14:46:02Z</time>
      </trkpt>
      <trkpt lat="50.21278" lon="1.55996">
        <ele>6.2</ele>
        <time>2023-06-11T14:46:04Z</time>
      </trkpt>
      <trkpt lat="50.21273" lon="1.55987">
        <ele>6.3</ele>
        <time>2023-06-11T14:46:06Z</time>
      </trkpt>
      <trkpt lat="50.21268" lon="1.55978">
        <ele>6.4</ele>
        <time>2023-06-11T14:46:08Z</time>
      </trkpt>
      <trkpt lat="50.21262" lon="1.55969">
        <ele>6.5</ele>
        <time>2023-06-11T14:46:10Z</time>
      </trkpt>
      <trkpt lat="50.21257" lon="1.5596">
        <ele>6.5</ele>
        <time>2023-06-11T14:46:12Z</time>
      </trkpt>
      <trkpt lat="50.21251" lon="1.55951">
        <ele>6.7</ele>
        <time>2023-06-11T14:46:14Z</time>
      </trkpt>
      <trkpt lat="50.21245" lon="1.55943">
        <ele>6.6</ele>
        <time>2023-06-11T14:46:16Z</time>
      </trkpt>
      <trkpt lat="50.21239" lon="1.55935">
        <ele>6.1</ele>
        <time>2023-06-11T14:46:18Z</time>
      </trkpt>
      <trkpt lat="50.21232" lon="1.55927">
        <ele>5.9</ele>
        <time>2023-06-11T14:46:20Z</time>
      </trkpt>
      <trkpt lat="50.21225" lon="1.5592">
        <ele>5.9</ele>
        <time>2023-06-11T14:46:22Z</time>
      </trkpt>
      <trkpt lat="50.21218" lon="1.55914">
        <ele>5.9</ele>
        <time>2023-06-11T14:46:24Z</time>
      </trkpt>
      <trkpt lat="50.21211" lon="1.55907">
        <ele>5.9</ele>
        <time>2023-06-11T14:46:26Z</time>
      </trkpt>
      <trkpt lat="50.21205" lon="1.55901">
        <ele>6.1</ele>
        <time>2023-06-11T14:46:28Z</time>
      </trkpt>
      <trkpt lat="50.21197" lon="1.55896">
        <ele>6.5</ele>
        <time>2023-06-11T14:46:30Z</time>
      </trkpt>
      <trkpt lat="50.21189" lon="1.5589">
        <ele>6.6</ele>
        <time>2023-06-11T14:46:32Z</time>
      </trkpt>
      <trkpt lat="50.21181" lon="1.55884">
        <ele>5.9</ele>
        <time>2023-06-11T14:46:34Z</time>
      </trkpt>
      <trkpt lat="50.21173" lon="1.55878">
        <ele>5.8</ele>
        <time>2023-06-11T14:46:36Z</time>
      </trkpt>
      <trkpt lat="50.21166" lon="1.55874">
        <ele>6.1</ele>
        <time>2023-06-11T14:46:38Z</time>
      </trkpt>
      <trkpt lat="50.21159" lon="1.55869">
        <ele>6.2</ele>
        <time>2023-06-11T14:46:40Z</time>
      </trkpt>
      <trkpt lat="50.21153" lon="1.55865">
        <ele>6.3</ele>
        <time>2023-06-11T14:46:42Z</time>
      </trkpt>
      <trkpt lat="50.21147" lon="1.55861">
        <ele>6.3</ele>
        <time>2023-06-11T14:46:44Z</time>
      </trkpt>
      <trkpt lat="50.21141" lon="1.55857">
        <ele>6</ele>
        <time>2023-06-11T14:46:46Z</time>
      </trkpt>
      <trkpt lat="50.21134" lon="1.55853">
        <ele>5.9</ele>
        <time>2023-06-11T14:46:48Z</time>
      </trkpt>
      <trkpt lat="50.21128" lon="1.55849">
        <ele>6</ele>
        <time>2023-06-11T14:46:50Z</time>
      </trkpt>
      <trkpt lat="50.21122" lon="1.55845">
        <ele>6.1</ele>
        <time>2023-06-11T14:46:52Z</time>
      </trkpt>
      <trkpt lat="50.21114" lon="1.5584">
        <ele>6.5</ele>
        <time>2023-06-11T14:46:54Z</time>
      </trkpt>
      <trkpt lat="50.21107" lon="1.55834">
        <ele>6.6</ele>
        <time>2023-06-11T14:46:56Z</time>
      </trkpt>
      <trkpt lat="50.21099" lon="1.55828">
        <ele>6.1</ele>
        <time>2023-06-11T14:46:58Z</time>
      </trkpt>
      <trkpt lat="50.21091" lon="1.55822">
        <ele>5.9</ele>
        <time>2023-06-11T14:47:00Z</time>
      </trkpt>
      <trkpt lat="50.21083" lon="1.55815">
        <ele>6.3</ele>
        <time>2023-06-11T14:47:02Z</time>
      </trkpt>
      <trkpt lat="50.21075" lon="1.55808">
        <ele>6.3</ele>
        <time>2023-06-11T14:47:04Z</time>
      </trkpt>
      <trkpt lat="50.21067" lon="1.55801">
        <ele>5.9</ele>
        <time>2023-06-11T14:47:06Z</time>
      </trkpt>
      <trkpt lat="50.21059" lon="1.55793">
        <ele>6</ele>
        <time>2023-06-11T14:47:08Z</time>
      </trkpt>
      <trkpt lat="50.21051" lon="1.55784">
        <ele>6.3</ele>
        <time>2023-06-11T14:47:10Z</time>
      </trkpt>
      <trkpt lat="50.21043" lon="1.55776">
        <ele>6.1</ele>
        <time>2023-06-11T14:47:12Z</time>
      </trkpt>
      <trkpt lat="50.21035" lon="1.55768">
        <ele>5.9</ele>
        <time>2023-06-11T14:47:14Z</time>
      </trkpt>
      <trkpt lat="50.21028" lon="1.5576">
        <ele>6.3</ele>
        <time>2023-06-11T14:47:16Z</time>
      </trkpt>
      <trkpt lat="50.2102" lon="1.55751">
        <ele>6.4</ele>
        <time>2023-06-11T14:47:18Z</time>
      </trkpt>
      <trkpt lat="50.21012" lon="1.55741">
        <ele>6.1</ele>
        <time>2023-06-11T14:47:20Z</time>
      </trkpt>
      <trkpt lat="50.21005" lon="1.55733">
        <ele>6.2</ele>
        <time>2023-06-11T14:47:22Z</time>
      </trkpt>
      <trkpt lat="50.20997" lon="1.55727">
        <ele>6.5</ele>
        <time>2023-06-11T14:47:24Z</time>
      </trkpt>
      <trkpt lat="50.20989" lon="1.55719">
        <ele>6.2</ele>
        <time>2023-06-11T14:47:26Z</time>
      </trkpt>
      <trkpt lat="50.20981" lon="1.55712">
        <ele>6</ele>
        <time>2023-06-11T14:47:28Z</time>
      </trkpt>
      <trkpt lat="50.20973" lon="1.55706">
        <ele>6.2</ele>
        <time>2023-06-11T14:47:30Z</time>
      </trkpt>
      <trkpt lat="50.20965" lon="1.55699">
        <ele>6.4</ele>
        <time>2023-06-11T14:47:32Z</time>
      </trkpt>
      <trkpt lat="50.20957" lon="1.55694">
        <ele>6.5</ele>
        <time>2023-06-11T14:47:34Z</time>
      </trkpt>
      <trkpt lat="50.20949" lon="1.55688">
        <ele>6.1</ele>
        <time>2023-06-11T14:47:36Z</time>
      </trkpt>
      <trkpt lat="50.20941" lon="1.55683">
        <ele>6</ele>
        <time>2023-06-11T14:47:38Z</time>
      </trkpt>
      <trkpt lat="50.20933" lon="1.55678">
        <ele>6.1</ele>
        <time>2023-06-11T14:47:40Z</time>
      </trkpt>
      <trkpt lat="50.20925" lon="1.55674">
        <ele>6.3</ele>
        <time>2023-06-11T14:47:42Z</time>
      </trkpt>
      <trkpt lat="50.20916" lon="1.55673">
        <ele>6.6</ele>
        <time>2023-06-11T14:47:44Z</time>
      </trkpt>
      <trkpt lat="50.20907" lon="1.55672">
        <ele>6.1</ele>
        <time>2023-06-11T14:47:46Z</time>
      </trkpt>
      <trkpt lat="50.209" lon="1.55675">
        <ele>5.7</ele>
        <time>2023-06-11T14:47:48Z</time>
      </trkpt>
      <trkpt lat="50.20894" lon="1.55684">
        <ele>5.6</ele>
        <time>2023-06-11T14:47:50Z</time>
      </trkpt>
      <trkpt lat="50.2089" lon="1.55693">
        <ele>5.9</ele>
        <time>2023-06-11T14:47:52Z</time>
      </trkpt>
      <trkpt lat="50.20886" lon="1.55703">
        <ele>5.5</ele>
        <time>2023-06-11T14:47:54Z</time>
      </trkpt>
      <trkpt lat="50.20882" lon="1.55713">
        <ele>5</ele>
        <time>2023-06-11T14:47:56Z</time>
      </trkpt>
      <trkpt lat="50.20879" lon="1.55725">
        <ele>4.7</ele>
        <time>2023-06-11T14:47:58Z</time>
      </trkpt>
      <trkpt lat="50.20875" lon="1.55735">
        <ele>5</ele>
        <time>2023-06-11T14:48:00Z</time>
      </trkpt>
      <trkpt lat="50.20871" lon="1.55745">
        <ele>5.4</ele>
        <time>2023-06-11T14:48:02Z</time>
      </trkpt>
      <trkpt lat="50.20868" lon="1.55756">
        <ele>5.4</ele>
        <time>2023-06-11T14:48:04Z</time>
      </trkpt>
      <trkpt lat="50.20864" lon="1.55765">
        <ele>4.9</ele>
        <time>2023-06-11T14:48:06Z</time>
      </trkpt>
      <trkpt lat="50.2086" lon="1.55774">
        <ele>4.2</ele>
        <time>2023-06-11T14:48:08Z</time>
      </trkpt>
      <trkpt lat="50.20856" lon="1.55782">
        <ele>3.9</ele>
        <time>2023-06-11T14:48:10Z</time>
      </trkpt>
      <trkpt lat="50.20854" lon="1.5579">
        <ele>3.9</ele>
        <time>2023-06-11T14:48:12Z</time>
      </trkpt>
      <trkpt lat="50.20852" lon="1.55798">
        <ele>3.9</ele>
        <time>2023-06-11T14:48:14Z</time>
      </trkpt>
      <trkpt lat="50.20849" lon="1.55806">
        <ele>4</ele>
        <time>2023-06-11T14:48:42Z</time>
      </trkpt>
      <trkpt lat="50.20846" lon="1.5582">
        <ele>4.5</ele>
        <time>2023-06-11T14:48:46Z</time>
      </trkpt>
      <trkpt lat="50.20843" lon="1.55829">
        <ele>4.8</ele>
        <time>2023-06-11T14:48:48Z</time>
      </trkpt>
      <trkpt lat="50.20839" lon="1.55838">
        <ele>5</ele>
        <time>2023-06-11T14:48:50Z</time>
      </trkpt>
      <trkpt lat="50.20835" lon="1.55848">
        <ele>5</ele>
        <time>2023-06-11T14:48:52Z</time>
      </trkpt>
      <trkpt lat="50.20831" lon="1.55857">
        <ele>4.8</ele>
        <time>2023-06-11T14:48:54Z</time>
      </trkpt>
      <trkpt lat="50.20827" lon="1.55867">
        <ele>4.6</ele>
        <time>2023-06-11T14:48:56Z</time>
      </trkpt>
      <trkpt lat="50.20823" lon="1.55877">
        <ele>4.5</ele>
        <time>2023-06-11T14:48:58Z</time>
      </trkpt>
      <trkpt lat="50.20819" lon="1.55889">
        <ele>4.5</ele>
        <time>2023-06-11T14:49:00Z</time>
      </trkpt>
      <trkpt lat="50.20815" lon="1.559">
        <ele>4.9</ele>
        <time>2023-06-11T14:49:02Z</time>
      </trkpt>
      <trkpt lat="50.2081" lon="1.55911">
        <ele>5.5</ele>
        <time>2023-06-11T14:49:04Z</time>
      </trkpt>
      <trkpt lat="50.20806" lon="1.55922">
        <ele>5.8</ele>
        <time>2023-06-11T14:49:06Z</time>
      </trkpt>
      <trkpt lat="50.20802" lon="1.55934">
        <ele>5.2</ele>
        <time>2023-06-11T14:49:08Z</time>
      </trkpt>
      <trkpt lat="50.20798" lon="1.55945">
        <ele>4.7</ele>
        <time>2023-06-11T14:49:10Z</time>
      </trkpt>
      <trkpt lat="50.20793" lon="1.55957">
        <ele>4.8</ele>
        <time>2023-06-11T14:49:12Z</time>
      </trkpt>
      <trkpt lat="50.2079" lon="1.55967">
        <ele>4.9</ele>
        <time>2023-06-11T14:49:14Z</time>
      </trkpt>
      <trkpt lat="50.20786" lon="1.55977">
        <ele>5</ele>
        <time>2023-06-11T14:49:16Z</time>
      </trkpt>
      <trkpt lat="50.20783" lon="1.55986">
        <ele>5</ele>
        <time>2023-06-11T14:49:18Z</time>
      </trkpt>
      <trkpt lat="50.20781" lon="1.55995">
        <ele>5</ele>
        <time>2023-06-11T14:49:20Z</time>
      </trkpt>
      <trkpt lat="50.20779" lon="1.56006">
        <ele>5</ele>
        <time>2023-06-11T14:49:22Z</time>
      </trkpt>
      <trkpt lat="50.20776" lon="1.5602">
        <ele>4.9</ele>
        <time>2023-06-11T14:49:24Z</time>
      </trkpt>
      <trkpt lat="50.20771" lon="1.56033">
        <ele>4.8</ele>
        <time>2023-06-11T14:49:26Z</time>
      </trkpt>
      <trkpt lat="50.20766" lon="1.56044">
        <ele>4.8</ele>
        <time>2023-06-11T14:49:28Z</time>
      </trkpt>
      <trkpt lat="50.2076" lon="1.56055">
        <ele>5</ele>
        <time>2023-06-11T14:49:30Z</time>
      </trkpt>
      <trkpt lat="50.20752" lon="1.56064">
        <ele>5</ele>
        <time>2023-06-11T14:49:32Z</time>
      </trkpt>
      <trkpt lat="50.20745" lon="1.56071">
        <ele>5</ele>
        <time>2023-06-11T14:49:34Z</time>
      </trkpt>
      <trkpt lat="50.20737" lon="1.5608">
        <ele>5.3</ele>
        <time>2023-06-11T14:49:36Z</time>
      </trkpt>
      <trkpt lat="50.2073" lon="1.56088">
        <ele>5.6</ele>
        <time>2023-06-11T14:49:38Z</time>
      </trkpt>
      <trkpt lat="50.20723" lon="1.56097">
        <ele>5.5</ele>
        <time>2023-06-11T14:49:40Z</time>
      </trkpt>
      <trkpt lat="50.20715" lon="1.56104">
        <ele>5.1</ele>
        <time>2023-06-11T14:49:42Z</time>
      </trkpt>
      <trkpt lat="50.20708" lon="1.56112">
        <ele>5</ele>
        <time>2023-06-11T14:49:44Z</time>
      </trkpt>
      <trkpt lat="50.20701" lon="1.5612">
        <ele>5</ele>
        <time>2023-06-11T14:49:46Z</time>
      </trkpt>
      <trkpt lat="50.20694" lon="1.56127">
        <ele>5</ele>
        <time>2023-06-11T14:49:48Z</time>
      </trkpt>
      <trkpt lat="50.20686" lon="1.56136">
        <ele>5</ele>
        <time>2023-06-11T14:49:50Z</time>
      </trkpt>
      <trkpt lat="50.20679" lon="1.56145">
        <ele>5</ele>
        <time>2023-06-11T14:49:52Z</time>
      </trkpt>
      <trkpt lat="50.20672" lon="1.56154">
        <ele>5</ele>
        <time>2023-06-11T14:49:54Z</time>
      </trkpt>
      <trkpt lat="50.20664" lon="1.56162">
        <ele>5</ele>
        <time>2023-06-11T14:49:56Z</time>
      </trkpt>
      <trkpt lat="50.20656" lon="1.5617">
        <ele>5</ele>
        <time>2023-06-11T14:49:58Z</time>
      </trkpt>
      <trkpt lat="50.20649" lon="1.56178">
        <ele>5</ele>
        <time>2023-06-11T14:50:00Z</time>
      </trkpt>
      <trkpt lat="50.20642" lon="1.56185">
        <ele>5</ele>
        <time>2023-06-11T14:50:02Z</time>
      </trkpt>
      <trkpt lat="50.20635" lon="1.56192">
        <ele>5</ele>
        <time>2023-06-11T14:50:04Z</time>
      </trkpt>
      <trkpt lat="50.20628" lon="1.562">
        <ele>5</ele>
        <time>2023-06-11T14:50:06Z</time>
      </trkpt>
      <trkpt lat="50.20621" lon="1.56208">
        <ele>5</ele>
        <time>2023-06-11T14:50:08Z</time>
      </trkpt>
      <trkpt lat="50.20615" lon="1.56214">
        <ele>5</ele>
        <time>2023-06-11T14:50:10Z</time>
      </trkpt>
      <trkpt lat="50.20608" lon="1.56222">
        <ele>4.9</ele>
        <time>2023-06-11T14:50:12Z</time>
      </trkpt>
      <trkpt lat="50.20601" lon="1.5623">
        <ele>4.7</ele>
        <time>2023-06-11T14:50:14Z</time>
      </trkpt>
      <trkpt lat="50.20594" lon="1.56239">
        <ele>4.7</ele>
        <time>2023-06-11T14:50:16Z</time>
      </trkpt>
      <trkpt lat="50.20586" lon="1.56248">
        <ele>4.9</ele>
        <time>2023-06-11T14:50:18Z</time>
      </trkpt>
      <trkpt lat="50.20578" lon="1.56256">
        <ele>4.9</ele>
        <time>2023-06-11T14:50:20Z</time>
      </trkpt>
      <trkpt lat="50.2057" lon="1.56265">
        <ele>5</ele>
        <time>2023-06-11T14:50:22Z</time>
      </trkpt>
      <trkpt lat="50.20562" lon="1.56274">
        <ele>5.6</ele>
        <time>2023-06-11T14:50:24Z</time>
      </trkpt>
      <trkpt lat="50.20554" lon="1.56284">
        <ele>5.7</ele>
        <time>2023-06-11T14:50:26Z</time>
      </trkpt>
      <trkpt lat="50.20545" lon="1.56294">
        <ele>5.3</ele>
        <time>2023-06-11T14:50:28Z</time>
      </trkpt>
      <trkpt lat="50.20536" lon="1.56303">
        <ele>5.6</ele>
        <time>2023-06-11T14:50:30Z</time>
      </trkpt>
      <trkpt lat="50.20527" lon="1.56314">
        <ele>5.7</ele>
        <time>2023-06-11T14:50:32Z</time>
      </trkpt>
      <trkpt lat="50.20519" lon="1.56325">
        <ele>5.3</ele>
        <time>2023-06-11T14:50:34Z</time>
      </trkpt>
      <trkpt lat="50.20511" lon="1.56335">
        <ele>5.6</ele>
        <time>2023-06-11T14:50:36Z</time>
      </trkpt>
      <trkpt lat="50.20502" lon="1.56343">
        <ele>5.6</ele>
        <time>2023-06-11T14:50:38Z</time>
      </trkpt>
      <trkpt lat="50.20494" lon="1.56351">
        <ele>5.3</ele>
        <time>2023-06-11T14:50:40Z</time>
      </trkpt>
      <trkpt lat="50.20487" lon="1.5636">
        <ele>5.5</ele>
        <time>2023-06-11T14:50:42Z</time>
      </trkpt>
      <trkpt lat="50.20479" lon="1.5637">
        <ele>5.5</ele>
        <time>2023-06-11T14:50:44Z</time>
      </trkpt>
      <trkpt lat="50.2047" lon="1.5638">
        <ele>5.3</ele>
        <time>2023-06-11T14:50:46Z</time>
      </trkpt>
      <trkpt lat="50.20461" lon="1.56389">
        <ele>5.4</ele>
        <time>2023-06-11T14:50:48Z</time>
      </trkpt>
      <trkpt lat="50.20453" lon="1.56399">
        <ele>5.5</ele>
        <time>2023-06-11T14:50:50Z</time>
      </trkpt>
      <trkpt lat="50.20444" lon="1.56409">
        <ele>5.3</ele>
        <time>2023-06-11T14:50:52Z</time>
      </trkpt>
      <trkpt lat="50.20436" lon="1.56418">
        <ele>5.3</ele>
        <time>2023-06-11T14:50:54Z</time>
      </trkpt>
      <trkpt lat="50.20428" lon="1.56428">
        <ele>5.5</ele>
        <time>2023-06-11T14:50:56Z</time>
      </trkpt>
      <trkpt lat="50.20419" lon="1.56439">
        <ele>5.3</ele>
        <time>2023-06-11T14:50:58Z</time>
      </trkpt>
      <trkpt lat="50.20411" lon="1.56448">
        <ele>5</ele>
        <time>2023-06-11T14:51:00Z</time>
      </trkpt>
      <trkpt lat="50.20403" lon="1.56457">
        <ele>5</ele>
        <time>2023-06-11T14:51:02Z</time>
      </trkpt>
      <trkpt lat="50.20395" lon="1.56466">
        <ele>5</ele>
        <time>2023-06-11T14:51:04Z</time>
      </trkpt>
      <trkpt lat="50.20386" lon="1.56474">
        <ele>5</ele>
        <time>2023-06-11T14:51:06Z</time>
      </trkpt>
      <trkpt lat="50.20378" lon="1.56483">
        <ele>5</ele>
        <time>2023-06-11T14:51:08Z</time>
      </trkpt>
      <trkpt lat="50.2037" lon="1.56493">
        <ele>5</ele>
        <time>2023-06-11T14:51:10Z</time>
      </trkpt>
      <trkpt lat="50.20362" lon="1.56503">
        <ele>5</ele>
        <time>2023-06-11T14:51:12Z</time>
      </trkpt>
      <trkpt lat="50.20354" lon="1.56512">
        <ele>4.9</ele>
        <time>2023-06-11T14:51:14Z</time>
      </trkpt>
      <trkpt lat="50.20346" lon="1.56521">
        <ele>4.9</ele>
        <time>2023-06-11T14:51:16Z</time>
      </trkpt>
      <trkpt lat="50.20338" lon="1.56529">
        <ele>5</ele>
        <time>2023-06-11T14:51:18Z</time>
      </trkpt>
      <trkpt lat="50.2033" lon="1.56537">
        <ele>5</ele>
        <time>2023-06-11T14:51:20Z</time>
      </trkpt>
      <trkpt lat="50.20323" lon="1.56545">
        <ele>5.1</ele>
        <time>2023-06-11T14:51:22Z</time>
      </trkpt>
      <trkpt lat="50.20315" lon="1.56553">
        <ele>5.5</ele>
        <time>2023-06-11T14:51:24Z</time>
      </trkpt>
      <trkpt lat="50.20308" lon="1.56562">
        <ele>5.7</ele>
        <time>2023-06-11T14:51:26Z</time>
      </trkpt>
      <trkpt lat="50.203" lon="1.56571">
        <ele>5.4</ele>
        <time>2023-06-11T14:51:28Z</time>
      </trkpt>
      <trkpt lat="50.20292" lon="1.56579">
        <ele>5.4</ele>
        <time>2023-06-11T14:51:30Z</time>
      </trkpt>
      <trkpt lat="50.20285" lon="1.56588">
        <ele>5.6</ele>
        <time>2023-06-11T14:51:32Z</time>
      </trkpt>
      <trkpt lat="50.20277" lon="1.56597">
        <ele>5.5</ele>
        <time>2023-06-11T14:51:34Z</time>
      </trkpt>
      <trkpt lat="50.20269" lon="1.56606">
        <ele>5.3</ele>
        <time>2023-06-11T14:51:36Z</time>
      </trkpt>
      <trkpt lat="50.20261" lon="1.56614">
        <ele>5.5</ele>
        <time>2023-06-11T14:51:38Z</time>
      </trkpt>
      <trkpt lat="50.20252" lon="1.56623">
        <ele>5.5</ele>
        <time>2023-06-11T14:51:40Z</time>
      </trkpt>
      <trkpt lat="50.20244" lon="1.56632">
        <ele>5.1</ele>
        <time>2023-06-11T14:51:42Z</time>
      </trkpt>
      <trkpt lat="50.20236" lon="1.5664">
        <ele>5</ele>
        <time>2023-06-11T14:51:44Z</time>
      </trkpt>
      <trkpt lat="50.20229" lon="1.56646">
        <ele>5</ele>
        <time>2023-06-11T14:51:46Z</time>
      </trkpt>
      <trkpt lat="50.20222" lon="1.5665">
        <ele>5</ele>
        <time>2023-06-11T14:51:48Z</time>
      </trkpt>
      <trkpt lat="50.20216" lon="1.56654">
        <ele>5</ele>
        <time>2023-06-11T14:51:50Z</time>
      </trkpt>
      <trkpt lat="50.2021" lon="1.56657">
        <ele>5</ele>
        <time>2023-06-11T14:51:52Z</time>
      </trkpt>
      <trkpt lat="50.20204" lon="1.56655">
        <ele>5</ele>
        <time>2023-06-11T14:51:54Z</time>
      </trkpt>
      <trkpt lat="50.20199" lon="1.56652">
        <ele>5</ele>
        <time>2023-06-11T14:51:56Z</time>
      </trkpt>
      <trkpt lat="50.20192" lon="1.5665">
        <ele>5</ele>
        <time>2023-06-11T14:51:58Z</time>
      </trkpt>
      <trkpt lat="50.20185" lon="1.56646">
        <ele>5</ele>
        <time>2023-06-11T14:52:00Z</time>
      </trkpt>
      <trkpt lat="50.20178" lon="1.56642">
        <ele>5</ele>
        <time>2023-06-11T14:52:02Z</time>
      </trkpt>
      <trkpt lat="50.20173" lon="1.56635">
        <ele>5</ele>
        <time>2023-06-11T14:52:04Z</time>
      </trkpt>
      <trkpt lat="50.20167" lon="1.56627">
        <ele>5</ele>
        <time>2023-06-11T14:52:06Z</time>
      </trkpt>
      <trkpt lat="50.20163" lon="1.56619">
        <ele>5</ele>
        <time>2023-06-11T14:52:08Z</time>
      </trkpt>
      <trkpt lat="50.20157" lon="1.56612">
        <ele>5</ele>
        <time>2023-06-11T14:52:10Z</time>
      </trkpt>
      <trkpt lat="50.20149" lon="1.56606">
        <ele>5.1</ele>
        <time>2023-06-11T14:52:12Z</time>
      </trkpt>
      <trkpt lat="50.20142" lon="1.56603">
        <ele>5.3</ele>
        <time>2023-06-11T14:52:14Z</time>
      </trkpt>
      <trkpt lat="50.20135" lon="1.56602">
        <ele>5.3</ele>
        <time>2023-06-11T14:52:16Z</time>
      </trkpt>
      <trkpt lat="50.20127" lon="1.56602">
        <ele>5.2</ele>
        <time>2023-06-11T14:52:18Z</time>
      </trkpt>
      <trkpt lat="50.20119" lon="1.56602">
        <ele>5.1</ele>
        <time>2023-06-11T14:52:20Z</time>
      </trkpt>
      <trkpt lat="50.20111" lon="1.56603">
        <ele>5</ele>
        <time>2023-06-11T14:52:22Z</time>
      </trkpt>
      <trkpt lat="50.20103" lon="1.56604">
        <ele>5</ele>
        <time>2023-06-11T14:52:24Z</time>
      </trkpt>
      <trkpt lat="50.20095" lon="1.56604">
        <ele>5</ele>
        <time>2023-06-11T14:52:26Z</time>
      </trkpt>
      <trkpt lat="50.20086" lon="1.56605">
        <ele>5</ele>
        <time>2023-06-11T14:52:28Z</time>
      </trkpt>
      <trkpt lat="50.20078" lon="1.56606">
        <ele>5</ele>
        <time>2023-06-11T14:52:30Z</time>
      </trkpt>
      <trkpt lat="50.2007" lon="1.56608">
        <ele>5</ele>
        <time>2023-06-11T14:52:32Z</time>
      </trkpt>
      <trkpt lat="50.20062" lon="1.5661">
        <ele>5</ele>
        <time>2023-06-11T14:52:34Z</time>
      </trkpt>
      <trkpt lat="50.20054" lon="1.56611">
        <ele>5</ele>
        <time>2023-06-11T14:52:36Z</time>
      </trkpt>
      <trkpt lat="50.20048" lon="1.56606">
        <ele>5</ele>
        <time>2023-06-11T14:52:38Z</time>
      </trkpt>
      <trkpt lat="50.20042" lon="1.56599">
        <ele>5</ele>
        <time>2023-06-11T14:52:40Z</time>
      </trkpt>
      <trkpt lat="50.20036" lon="1.56597">
        <ele>5</ele>
        <time>2023-06-11T14:52:42Z</time>
      </trkpt>
      <trkpt lat="50.20029" lon="1.56593">
        <ele>5</ele>
        <time>2023-06-11T14:52:44Z</time>
      </trkpt>
      <trkpt lat="50.20023" lon="1.56589">
        <ele>5</ele>
        <time>2023-06-11T14:52:46Z</time>
      </trkpt>
      <trkpt lat="50.20016" lon="1.56586">
        <ele>5</ele>
        <time>2023-06-11T14:52:48Z</time>
      </trkpt>
      <trkpt lat="50.2001" lon="1.5658">
        <ele>5</ele>
        <time>2023-06-11T14:52:50Z</time>
      </trkpt>
      <trkpt lat="50.20004" lon="1.56574">
        <ele>5</ele>
        <time>2023-06-11T14:52:52Z</time>
      </trkpt>
      <trkpt lat="50.19998" lon="1.56569">
        <ele>5</ele>
        <time>2023-06-11T14:52:54Z</time>
      </trkpt>
      <trkpt lat="50.19992" lon="1.56563">
        <ele>5</ele>
        <time>2023-06-11T14:52:56Z</time>
      </trkpt>
      <trkpt lat="50.19985" lon="1.56559">
        <ele>5</ele>
        <time>2023-06-11T14:52:58Z</time>
      </trkpt>
      <trkpt lat="50.19979" lon="1.56556">
        <ele>5</ele>
        <time>2023-06-11T14:53:00Z</time>
      </trkpt>
      <trkpt lat="50.19972" lon="1.56555">
        <ele>5</ele>
        <time>2023-06-11T14:53:02Z</time>
      </trkpt>
      <trkpt lat="50.19964" lon="1.56556">
        <ele>5</ele>
        <time>2023-06-11T14:53:04Z</time>
      </trkpt>
      <trkpt lat="50.19957" lon="1.56561">
        <ele>5</ele>
        <time>2023-06-11T14:53:06Z</time>
      </trkpt>
      <trkpt lat="50.1995" lon="1.56567">
        <ele>5</ele>
        <time>2023-06-11T14:53:08Z</time>
      </trkpt>
      <trkpt lat="50.19944" lon="1.56574">
        <ele>5</ele>
        <time>2023-06-11T14:53:10Z</time>
      </trkpt>
      <trkpt lat="50.19936" lon="1.5658">
        <ele>5</ele>
        <time>2023-06-11T14:53:12Z</time>
      </trkpt>
      <trkpt lat="50.19929" lon="1.56585">
        <ele>5</ele>
        <time>2023-06-11T14:53:14Z</time>
      </trkpt>
      <trkpt lat="50.19923" lon="1.56587">
        <ele>5.1</ele>
        <time>2023-06-11T14:53:16Z</time>
      </trkpt>
      <trkpt lat="50.19916" lon="1.56588">
        <ele>5.2</ele>
        <time>2023-06-11T14:53:18Z</time>
      </trkpt>
      <trkpt lat="50.19909" lon="1.56588">
        <ele>5.1</ele>
        <time>2023-06-11T14:53:20Z</time>
      </trkpt>
      <trkpt lat="50.19903" lon="1.56584">
        <ele>5</ele>
        <time>2023-06-11T14:53:22Z</time>
      </trkpt>
      <trkpt lat="50.19896" lon="1.5658">
        <ele>5.1</ele>
        <time>2023-06-11T14:53:24Z</time>
      </trkpt>
      <trkpt lat="50.19889" lon="1.56579">
        <ele>5.2</ele>
        <time>2023-06-11T14:53:26Z</time>
      </trkpt>
      <trkpt lat="50.19883" lon="1.56581">
        <ele>5.2</ele>
        <time>2023-06-11T14:53:28Z</time>
      </trkpt>
      <trkpt lat="50.19877" lon="1.56586">
        <ele>5.4</ele>
        <time>2023-06-11T14:53:30Z</time>
      </trkpt>
      <trkpt lat="50.1987" lon="1.56591">
        <ele>5.5</ele>
        <time>2023-06-11T14:53:32Z</time>
      </trkpt>
      <trkpt lat="50.19863" lon="1.56596">
        <ele>5.5</ele>
        <time>2023-06-11T14:53:34Z</time>
      </trkpt>
      <trkpt lat="50.19855" lon="1.56603">
        <ele>5.3</ele>
        <time>2023-06-11T14:53:36Z</time>
      </trkpt>
      <trkpt lat="50.19847" lon="1.5661">
        <ele>5.5</ele>
        <time>2023-06-11T14:53:38Z</time>
      </trkpt>
      <trkpt lat="50.1984" lon="1.56619">
        <ele>5.5</ele>
        <time>2023-06-11T14:53:40Z</time>
      </trkpt>
      <trkpt lat="50.19832" lon="1.56629">
        <ele>5.4</ele>
        <time>2023-06-11T14:53:42Z</time>
      </trkpt>
      <trkpt lat="50.19824" lon="1.56639">
        <ele>5.3</ele>
        <time>2023-06-11T14:53:44Z</time>
      </trkpt>
      <trkpt lat="50.19816" lon="1.56649">
        <ele>5.4</ele>
        <time>2023-06-11T14:53:46Z</time>
      </trkpt>
      <trkpt lat="50.19808" lon="1.56659">
        <ele>5.3</ele>
        <time>2023-06-11T14:53:48Z</time>
      </trkpt>
      <trkpt lat="50.198" lon="1.56669">
        <ele>5</ele>
        <time>2023-06-11T14:53:50Z</time>
      </trkpt>
      <trkpt lat="50.19792" lon="1.5668">
        <ele>5.2</ele>
        <time>2023-06-11T14:53:52Z</time>
      </trkpt>
      <trkpt lat="50.19784" lon="1.5669">
        <ele>5.6</ele>
        <time>2023-06-11T14:53:54Z</time>
      </trkpt>
      <trkpt lat="50.19777" lon="1.56701">
        <ele>5.7</ele>
        <time>2023-06-11T14:53:56Z</time>
      </trkpt>
      <trkpt lat="50.1977" lon="1.56712">
        <ele>5.3</ele>
        <time>2023-06-11T14:53:58Z</time>
      </trkpt>
      <trkpt lat="50.19762" lon="1.56723">
        <ele>5.5</ele>
        <time>2023-06-11T14:54:00Z</time>
      </trkpt>
      <trkpt lat="50.19756" lon="1.56734">
        <ele>5.5</ele>
        <time>2023-06-11T14:54:02Z</time>
      </trkpt>
      <trkpt lat="50.19749" lon="1.56745">
        <ele>5.2</ele>
        <time>2023-06-11T14:54:04Z</time>
      </trkpt>
      <trkpt lat="50.19743" lon="1.56756">
        <ele>5.1</ele>
        <time>2023-06-11T14:54:06Z</time>
      </trkpt>
      <trkpt lat="50.19736" lon="1.56766">
        <ele>5.3</ele>
        <time>2023-06-11T14:54:08Z</time>
      </trkpt>
      <trkpt lat="50.1973" lon="1.56777">
        <ele>5.7</ele>
        <time>2023-06-11T14:54:10Z</time>
      </trkpt>
      <trkpt lat="50.19723" lon="1.56788">
        <ele>5.6</ele>
        <time>2023-06-11T14:54:12Z</time>
      </trkpt>
      <trkpt lat="50.19716" lon="1.56799">
        <ele>5.3</ele>
        <time>2023-06-11T14:54:14Z</time>
      </trkpt>
      <trkpt lat="50.19709" lon="1.56811">
        <ele>5.5</ele>
        <time>2023-06-11T14:54:16Z</time>
      </trkpt>
      <trkpt lat="50.19703" lon="1.56822">
        <ele>5.7</ele>
        <time>2023-06-11T14:54:18Z</time>
      </trkpt>
      <trkpt lat="50.19697" lon="1.56832">
        <ele>5.9</ele>
        <time>2023-06-11T14:54:20Z</time>
      </trkpt>
      <trkpt lat="50.1969" lon="1.56843">
        <ele>5.6</ele>
        <time>2023-06-11T14:54:22Z</time>
      </trkpt>
      <trkpt lat="50.19683" lon="1.56853">
        <ele>5.6</ele>
        <time>2023-06-11T14:54:24Z</time>
      </trkpt>
      <trkpt lat="50.19677" lon="1.56864">
        <ele>6.1</ele>
        <time>2023-06-11T14:54:26Z</time>
      </trkpt>
      <trkpt lat="50.1967" lon="1.56874">
        <ele>5.9</ele>
        <time>2023-06-11T14:54:28Z</time>
      </trkpt>
      <trkpt lat="50.19664" lon="1.56885">
        <ele>5.2</ele>
        <time>2023-06-11T14:54:30Z</time>
      </trkpt>
      <trkpt lat="50.19658" lon="1.56897">
        <ele>5.1</ele>
        <time>2023-06-11T14:54:32Z</time>
      </trkpt>
      <trkpt lat="50.19651" lon="1.56909">
        <ele>5.4</ele>
        <time>2023-06-11T14:54:34Z</time>
      </trkpt>
      <trkpt lat="50.19644" lon="1.56921">
        <ele>5.7</ele>
        <time>2023-06-11T14:54:36Z</time>
      </trkpt>
      <trkpt lat="50.19638" lon="1.56933">
        <ele>5.4</ele>
        <time>2023-06-11T14:54:38Z</time>
      </trkpt>
      <trkpt lat="50.19632" lon="1.56945">
        <ele>5</ele>
        <time>2023-06-11T14:54:40Z</time>
      </trkpt>
      <trkpt lat="50.19625" lon="1.56956">
        <ele>5.2</ele>
        <time>2023-06-11T14:54:42Z</time>
      </trkpt>
      <trkpt lat="50.19618" lon="1.56968">
        <ele>5.6</ele>
        <time>2023-06-11T14:54:44Z</time>
      </trkpt>
      <trkpt lat="50.19612" lon="1.56981">
        <ele>5.7</ele>
        <time>2023-06-11T14:54:46Z</time>
      </trkpt>
      <trkpt lat="50.19605" lon="1.56992">
        <ele>5.3</ele>
        <time>2023-06-11T14:54:48Z</time>
      </trkpt>
      <trkpt lat="50.19599" lon="1.57004">
        <ele>5.4</ele>
        <time>2023-06-11T14:54:50Z</time>
      </trkpt>
      <trkpt lat="50.19593" lon="1.57016">
        <ele>5.7</ele>
        <time>2023-06-11T14:54:52Z</time>
      </trkpt>
      <trkpt lat="50.19587" lon="1.57029">
        <ele>5.9</ele>
        <time>2023-06-11T14:54:54Z</time>
      </trkpt>
      <trkpt lat="50.19581" lon="1.5704">
        <ele>5.5</ele>
        <time>2023-06-11T14:54:56Z</time>
      </trkpt>
      <trkpt lat="50.19575" lon="1.57052">
        <ele>5.3</ele>
        <time>2023-06-11T14:54:58Z</time>
      </trkpt>
      <trkpt lat="50.19569" lon="1.57065">
        <ele>5.5</ele>
        <time>2023-06-11T14:55:00Z</time>
      </trkpt>
      <trkpt lat="50.19562" lon="1.57076">
        <ele>5.8</ele>
        <time>2023-06-11T14:55:02Z</time>
      </trkpt>
      <trkpt lat="50.19556" lon="1.57087">
        <ele>5.8</ele>
        <time>2023-06-11T14:55:04Z</time>
      </trkpt>
      <trkpt lat="50.19551" lon="1.57099">
        <ele>5.4</ele>
        <time>2023-06-11T14:55:06Z</time>
      </trkpt>
      <trkpt lat="50.19546" lon="1.5711">
        <ele>5.4</ele>
        <time>2023-06-11T14:55:08Z</time>
      </trkpt>
      <trkpt lat="50.19541" lon="1.5712">
        <ele>5.4</ele>
        <time>2023-06-11T14:55:10Z</time>
      </trkpt>
      <trkpt lat="50.19536" lon="1.5713">
        <ele>5.2</ele>
        <time>2023-06-11T14:55:12Z</time>
      </trkpt>
      <trkpt lat="50.1953" lon="1.5714">
        <ele>5</ele>
        <time>2023-06-11T14:55:14Z</time>
      </trkpt>
      <trkpt lat="50.19526" lon="1.57151">
        <ele>5</ele>
        <time>2023-06-11T14:55:16Z</time>
      </trkpt>
      <trkpt lat="50.19523" lon="1.57162">
        <ele>5.2</ele>
        <time>2023-06-11T14:55:18Z</time>
      </trkpt>
      <trkpt lat="50.1952" lon="1.57173">
        <ele>5.3</ele>
        <time>2023-06-11T14:55:20Z</time>
      </trkpt>
      <trkpt lat="50.19518" lon="1.57185">
        <ele>5.4</ele>
        <time>2023-06-11T14:55:22Z</time>
      </trkpt>
      <trkpt lat="50.19516" lon="1.57198">
        <ele>5.4</ele>
        <time>2023-06-11T14:55:24Z</time>
      </trkpt>
      <trkpt lat="50.19513" lon="1.5721">
        <ele>5.2</ele>
        <time>2023-06-11T14:55:26Z</time>
      </trkpt>
      <trkpt lat="50.19508" lon="1.57219">
        <ele>5.1</ele>
        <time>2023-06-11T14:55:28Z</time>
      </trkpt>
      <trkpt lat="50.19503" lon="1.57228">
        <ele>5</ele>
        <time>2023-06-11T14:55:30Z</time>
      </trkpt>
      <trkpt lat="50.19498" lon="1.57238">
        <ele>5</ele>
        <time>2023-06-11T14:55:32Z</time>
      </trkpt>
      <trkpt lat="50.19493" lon="1.5725">
        <ele>5.3</ele>
        <time>2023-06-11T14:55:34Z</time>
      </trkpt>
      <trkpt lat="50.19489" lon="1.57262">
        <ele>5.4</ele>
        <time>2023-06-11T14:55:36Z</time>
      </trkpt>
      <trkpt lat="50.19486" lon="1.57274">
        <ele>5.5</ele>
        <time>2023-06-11T14:55:38Z</time>
      </trkpt>
      <trkpt lat="50.19482" lon="1.57286">
        <ele>5.5</ele>
        <time>2023-06-11T14:55:40Z</time>
      </trkpt>
      <trkpt lat="50.19478" lon="1.57297">
        <ele>5.2</ele>
        <time>2023-06-11T14:55:42Z</time>
      </trkpt>
      <trkpt lat="50.19474" lon="1.5731">
        <ele>5</ele>
        <time>2023-06-11T14:55:44Z</time>
      </trkpt>
      <trkpt lat="50.1947" lon="1.57323">
        <ele>5</ele>
        <time>2023-06-11T14:55:46Z</time>
      </trkpt>
      <trkpt lat="50.19467" lon="1.57337">
        <ele>5.2</ele>
        <time>2023-06-11T14:55:48Z</time>
      </trkpt>
      <trkpt lat="50.19462" lon="1.57351">
        <ele>5.4</ele>
        <time>2023-06-11T14:55:50Z</time>
      </trkpt>
      <trkpt lat="50.19456" lon="1.57365">
        <ele>5.5</ele>
        <time>2023-06-11T14:55:52Z</time>
      </trkpt>
      <trkpt lat="50.1945" lon="1.57381">
        <ele>5.2</ele>
        <time>2023-06-11T14:55:54Z</time>
      </trkpt>
      <trkpt lat="50.19445" lon="1.57396">
        <ele>5</ele>
        <time>2023-06-11T14:55:56Z</time>
      </trkpt>
      <trkpt lat="50.1944" lon="1.57413">
        <ele>5</ele>
        <time>2023-06-11T14:55:58Z</time>
      </trkpt>
      <trkpt lat="50.19436" lon="1.57429">
        <ele>5.1</ele>
        <time>2023-06-11T14:56:00Z</time>
      </trkpt>
      <trkpt lat="50.1943" lon="1.57444">
        <ele>5.5</ele>
        <time>2023-06-11T14:56:02Z</time>
      </trkpt>
      <trkpt lat="50.19423" lon="1.5746">
        <ele>5.3</ele>
        <time>2023-06-11T14:56:04Z</time>
      </trkpt>
      <trkpt lat="50.19417" lon="1.57475">
        <ele>5</ele>
        <time>2023-06-11T14:56:06Z</time>
      </trkpt>
      <trkpt lat="50.19412" lon="1.57493">
        <ele>5</ele>
        <time>2023-06-11T14:56:08Z</time>
      </trkpt>
      <trkpt lat="50.19406" lon="1.5751">
        <ele>5.1</ele>
        <time>2023-06-11T14:56:10Z</time>
      </trkpt>
      <trkpt lat="50.194" lon="1.57528">
        <ele>5.6</ele>
        <time>2023-06-11T14:56:12Z</time>
      </trkpt>
      <trkpt lat="50.19394" lon="1.57545">
        <ele>5.3</ele>
        <time>2023-06-11T14:56:14Z</time>
      </trkpt>
      <trkpt lat="50.19388" lon="1.57562">
        <ele>5</ele>
        <time>2023-06-11T14:56:16Z</time>
      </trkpt>
      <trkpt lat="50.19383" lon="1.57579">
        <ele>5</ele>
        <time>2023-06-11T14:56:18Z</time>
      </trkpt>
      <trkpt lat="50.19377" lon="1.57596">
        <ele>5.2</ele>
        <time>2023-06-11T14:56:20Z</time>
      </trkpt>
      <trkpt lat="50.19371" lon="1.57613">
        <ele>5.6</ele>
        <time>2023-06-11T14:56:22Z</time>
      </trkpt>
      <trkpt lat="50.19365" lon="1.5763">
        <ele>5.3</ele>
        <time>2023-06-11T14:56:24Z</time>
      </trkpt>
      <trkpt lat="50.19359" lon="1.57648">
        <ele>4.9</ele>
        <time>2023-06-11T14:56:26Z</time>
      </trkpt>
      <trkpt lat="50.19353" lon="1.57665">
        <ele>5</ele>
        <time>2023-06-11T14:56:28Z</time>
      </trkpt>
      <trkpt lat="50.19347" lon="1.57682">
        <ele>5.3</ele>
        <time>2023-06-11T14:56:30Z</time>
      </trkpt>
      <trkpt lat="50.19341" lon="1.57699">
        <ele>5.6</ele>
        <time>2023-06-11T14:56:32Z</time>
      </trkpt>
      <trkpt lat="50.19335" lon="1.57716">
        <ele>5.2</ele>
        <time>2023-06-11T14:56:34Z</time>
      </trkpt>
      <trkpt lat="50.19328" lon="1.57733">
        <ele>5</ele>
        <time>2023-06-11T14:56:36Z</time>
      </trkpt>
      <trkpt lat="50.19323" lon="1.5775">
        <ele>5.4</ele>
        <time>2023-06-11T14:56:38Z</time>
      </trkpt>
      <trkpt lat="50.19318" lon="1.57767">
        <ele>5.6</ele>
        <time>2023-06-11T14:56:40Z</time>
      </trkpt>
      <trkpt lat="50.19312" lon="1.57783">
        <ele>5.6</ele>
        <time>2023-06-11T14:56:42Z</time>
      </trkpt>
      <trkpt lat="50.19307" lon="1.578">
        <ele>5.2</ele>
        <time>2023-06-11T14:56:44Z</time>
      </trkpt>
      <trkpt lat="50.19302" lon="1.57816">
        <ele>5</ele>
        <time>2023-06-11T14:56:46Z</time>
      </trkpt>
      <trkpt lat="50.19295" lon="1.57831">
        <ele>5.3</ele>
        <time>2023-06-11T14:56:48Z</time>
      </trkpt>
      <trkpt lat="50.19288" lon="1.57843">
        <ele>5.4</ele>
        <time>2023-06-11T14:56:50Z</time>
      </trkpt>
      <trkpt lat="50.19282" lon="1.57857">
        <ele>5.1</ele>
        <time>2023-06-11T14:56:52Z</time>
      </trkpt>
      <trkpt lat="50.19274" lon="1.57872">
        <ele>5</ele>
        <time>2023-06-11T14:56:54Z</time>
      </trkpt>
      <trkpt lat="50.19266" lon="1.57885">
        <ele>5.4</ele>
        <time>2023-06-11T14:56:56Z</time>
      </trkpt>
      <trkpt lat="50.19258" lon="1.57897">
        <ele>5.5</ele>
        <time>2023-06-11T14:56:58Z</time>
      </trkpt>
      <trkpt lat="50.19249" lon="1.57909">
        <ele>5.3</ele>
        <time>2023-06-11T14:57:00Z</time>
      </trkpt>
      <trkpt lat="50.19241" lon="1.57922">
        <ele>5.3</ele>
        <time>2023-06-11T14:57:02Z</time>
      </trkpt>
      <trkpt lat="50.19233" lon="1.57936">
        <ele>5.6</ele>
        <time>2023-06-11T14:57:04Z</time>
      </trkpt>
      <trkpt lat="50.19224" lon="1.57951">
        <ele>5.7</ele>
        <time>2023-06-11T14:57:06Z</time>
      </trkpt>
      <trkpt lat="50.19215" lon="1.57965">
        <ele>5.4</ele>
        <time>2023-06-11T14:57:08Z</time>
      </trkpt>
      <trkpt lat="50.19206" lon="1.57978">
        <ele>5.5</ele>
        <time>2023-06-11T14:57:10Z</time>
      </trkpt>
      <trkpt lat="50.19197" lon="1.57993">
        <ele>5.2</ele>
        <time>2023-06-11T14:57:12Z</time>
      </trkpt>
      <trkpt lat="50.19189" lon="1.58006">
        <ele>5</ele>
        <time>2023-06-11T14:57:14Z</time>
      </trkpt>
      <trkpt lat="50.19182" lon="1.58019">
        <ele>5.3</ele>
        <time>2023-06-11T14:57:16Z</time>
      </trkpt>
      <trkpt lat="50.19174" lon="1.58031">
        <ele>5.6</ele>
        <time>2023-06-11T14:57:18Z</time>
      </trkpt>
      <trkpt lat="50.19166" lon="1.58045">
        <ele>5.4</ele>
        <time>2023-06-11T14:57:20Z</time>
      </trkpt>
      <trkpt lat="50.19159" lon="1.5806">
        <ele>5.3</ele>
        <time>2023-06-11T14:57:22Z</time>
      </trkpt>
      <trkpt lat="50.19151" lon="1.58073">
        <ele>5.6</ele>
        <time>2023-06-11T14:57:24Z</time>
      </trkpt>
      <trkpt lat="50.19143" lon="1.58085">
        <ele>5.8</ele>
        <time>2023-06-11T14:57:26Z</time>
      </trkpt>
      <trkpt lat="50.19136" lon="1.581">
        <ele>5.4</ele>
        <time>2023-06-11T14:57:28Z</time>
      </trkpt>
      <trkpt lat="50.19128" lon="1.58114">
        <ele>5.4</ele>
        <time>2023-06-11T14:57:30Z</time>
      </trkpt>
      <trkpt lat="50.19119" lon="1.58127">
        <ele>5.3</ele>
        <time>2023-06-11T14:57:32Z</time>
      </trkpt>
      <trkpt lat="50.19111" lon="1.58141">
        <ele>5</ele>
        <time>2023-06-11T14:57:34Z</time>
      </trkpt>
      <trkpt lat="50.19102" lon="1.58154">
        <ele>5.2</ele>
        <time>2023-06-11T14:57:36Z</time>
      </trkpt>
      <trkpt lat="50.19095" lon="1.58167">
        <ele>5.6</ele>
        <time>2023-06-11T14:57:38Z</time>
      </trkpt>
      <trkpt lat="50.19086" lon="1.58179">
        <ele>5.5</ele>
        <time>2023-06-11T14:57:40Z</time>
      </trkpt>
      <trkpt lat="50.19079" lon="1.58193">
        <ele>5</ele>
        <time>2023-06-11T14:57:42Z</time>
      </trkpt>
      <trkpt lat="50.19071" lon="1.58205">
        <ele>5</ele>
        <time>2023-06-11T14:57:44Z</time>
      </trkpt>
      <trkpt lat="50.19063" lon="1.58219">
        <ele>5</ele>
        <time>2023-06-11T14:57:46Z</time>
      </trkpt>
      <trkpt lat="50.19054" lon="1.58232">
        <ele>5</ele>
        <time>2023-06-11T14:57:48Z</time>
      </trkpt>
      <trkpt lat="50.19046" lon="1.58246">
        <ele>5.3</ele>
        <time>2023-06-11T14:57:50Z</time>
      </trkpt>
      <trkpt lat="50.19037" lon="1.5826">
        <ele>5.4</ele>
        <time>2023-06-11T14:57:52Z</time>
      </trkpt>
      <trkpt lat="50.19029" lon="1.58274">
        <ele>5.1</ele>
        <time>2023-06-11T14:57:54Z</time>
      </trkpt>
      <trkpt lat="50.1902" lon="1.58288">
        <ele>5.1</ele>
        <time>2023-06-11T14:57:56Z</time>
      </trkpt>
      <trkpt lat="50.19012" lon="1.58302">
        <ele>5.5</ele>
        <time>2023-06-11T14:57:58Z</time>
      </trkpt>
      <trkpt lat="50.19003" lon="1.58317">
        <ele>5.5</ele>
        <time>2023-06-11T14:58:00Z</time>
      </trkpt>
      <trkpt lat="50.18995" lon="1.58331">
        <ele>5.2</ele>
        <time>2023-06-11T14:58:02Z</time>
      </trkpt>
      <trkpt lat="50.18986" lon="1.58345">
        <ele>5.3</ele>
        <time>2023-06-11T14:58:04Z</time>
      </trkpt>
      <trkpt lat="50.18977" lon="1.58359">
        <ele>5.1</ele>
        <time>2023-06-11T14:58:06Z</time>
      </trkpt>
      <trkpt lat="50.18969" lon="1.58373">
        <ele>5</ele>
        <time>2023-06-11T14:58:08Z</time>
      </trkpt>
      <trkpt lat="50.1896" lon="1.58388">
        <ele>5.4</ele>
        <time>2023-06-11T14:58:10Z</time>
      </trkpt>
      <trkpt lat="50.18952" lon="1.58403">
        <ele>5.4</ele>
        <time>2023-06-11T14:58:12Z</time>
      </trkpt>
      <trkpt lat="50.18944" lon="1.58417">
        <ele>5</ele>
        <time>2023-06-11T14:58:14Z</time>
      </trkpt>
      <trkpt lat="50.18935" lon="1.58433">
        <ele>5.2</ele>
        <time>2023-06-11T14:58:16Z</time>
      </trkpt>
      <trkpt lat="50.18926" lon="1.58447">
        <ele>5.6</ele>
        <time>2023-06-11T14:58:18Z</time>
      </trkpt>
      <trkpt lat="50.18917" lon="1.58461">
        <ele>5.4</ele>
        <time>2023-06-11T14:58:20Z</time>
      </trkpt>
      <trkpt lat="50.18908" lon="1.58476">
        <ele>5.3</ele>
        <time>2023-06-11T14:58:22Z</time>
      </trkpt>
      <trkpt lat="50.18899" lon="1.5849">
        <ele>5.6</ele>
        <time>2023-06-11T14:58:24Z</time>
      </trkpt>
      <trkpt lat="50.18891" lon="1.58505">
        <ele>5.8</ele>
        <time>2023-06-11T14:58:26Z</time>
      </trkpt>
      <trkpt lat="50.18882" lon="1.58519">
        <ele>5.4</ele>
        <time>2023-06-11T14:58:28Z</time>
      </trkpt>
      <trkpt lat="50.18873" lon="1.58533">
        <ele>5.5</ele>
        <time>2023-06-11T14:58:30Z</time>
      </trkpt>
      <trkpt lat="50.18864" lon="1.58547">
        <ele>5.3</ele>
        <time>2023-06-11T14:58:32Z</time>
      </trkpt>
      <trkpt lat="50.18855" lon="1.58562">
        <ele>5.2</ele>
        <time>2023-06-11T14:58:34Z</time>
      </trkpt>
      <trkpt lat="50.18846" lon="1.58576">
        <ele>5.6</ele>
        <time>2023-06-11T14:58:36Z</time>
      </trkpt>
      <trkpt lat="50.18838" lon="1.58592">
        <ele>5.6</ele>
        <time>2023-06-11T14:58:38Z</time>
      </trkpt>
      <trkpt lat="50.18829" lon="1.58608">
        <ele>5.2</ele>
        <time>2023-06-11T14:58:40Z</time>
      </trkpt>
      <trkpt lat="50.1882" lon="1.58624">
        <ele>5.3</ele>
        <time>2023-06-11T14:58:42Z</time>
      </trkpt>
      <trkpt lat="50.1881" lon="1.58639">
        <ele>5</ele>
        <time>2023-06-11T14:58:44Z</time>
      </trkpt>
      <trkpt lat="50.18801" lon="1.58654">
        <ele>5.1</ele>
        <time>2023-06-11T14:58:46Z</time>
      </trkpt>
      <trkpt lat="50.18792" lon="1.58669">
        <ele>5.5</ele>
        <time>2023-06-11T14:58:48Z</time>
      </trkpt>
      <trkpt lat="50.18783" lon="1.58685">
        <ele>5.3</ele>
        <time>2023-06-11T14:58:50Z</time>
      </trkpt>
      <trkpt lat="50.18773" lon="1.587">
        <ele>5.2</ele>
        <time>2023-06-11T14:58:52Z</time>
      </trkpt>
      <trkpt lat="50.18764" lon="1.58715">
        <ele>5.5</ele>
        <time>2023-06-11T14:58:54Z</time>
      </trkpt>
      <trkpt lat="50.18755" lon="1.5873">
        <ele>5.6</ele>
        <time>2023-06-11T14:58:56Z</time>
      </trkpt>
      <trkpt lat="50.18746" lon="1.58745">
        <ele>5.3</ele>
        <time>2023-06-11T14:58:58Z</time>
      </trkpt>
      <trkpt lat="50.18737" lon="1.5876">
        <ele>5.3</ele>
        <time>2023-06-11T14:59:00Z</time>
      </trkpt>
      <trkpt lat="50.18728" lon="1.58776">
        <ele>5.1</ele>
        <time>2023-06-11T14:59:02Z</time>
      </trkpt>
      <trkpt lat="50.18718" lon="1.58792">
        <ele>5.1</ele>
        <time>2023-06-11T14:59:04Z</time>
      </trkpt>
      <trkpt lat="50.18709" lon="1.58807">
        <ele>5.5</ele>
        <time>2023-06-11T14:59:06Z</time>
      </trkpt>
      <trkpt lat="50.187" lon="1.58821">
        <ele>5.4</ele>
        <time>2023-06-11T14:59:08Z</time>
      </trkpt>
      <trkpt lat="50.1869" lon="1.58837">
        <ele>5.2</ele>
        <time>2023-06-11T14:59:10Z</time>
      </trkpt>
      <trkpt lat="50.1868" lon="1.58853">
        <ele>5.5</ele>
        <time>2023-06-11T14:59:12Z</time>
      </trkpt>
      <trkpt lat="50.18671" lon="1.58869">
        <ele>5.6</ele>
        <time>2023-06-11T14:59:14Z</time>
      </trkpt>
      <trkpt lat="50.18662" lon="1.58885">
        <ele>5.4</ele>
        <time>2023-06-11T14:59:16Z</time>
      </trkpt>
      <trkpt lat="50.18653" lon="1.58897">
        <ele>5.8</ele>
        <time>2023-06-11T14:59:18Z</time>
      </trkpt>
      <trkpt lat="50.18643" lon="1.58904">
        <ele>6.2</ele>
        <time>2023-06-11T14:59:20Z</time>
      </trkpt>
      <trkpt lat="50.18637" lon="1.58906">
        <ele>6.3</ele>
        <time>2023-06-11T14:59:22Z</time>
      </trkpt>
      <trkpt lat="50.18636" lon="1.58918">
        <ele>5.8</ele>
        <time>2023-06-11T14:59:28Z</time>
      </trkpt>
      <trkpt lat="50.18634" lon="1.58932">
        <ele>5.4</ele>
        <time>2023-06-11T14:59:32Z</time>
      </trkpt>
      <trkpt lat="50.18634" lon="1.58939">
        <ele>5.1</ele>
        <time>2023-06-11T14:59:34Z</time>
      </trkpt>
      <trkpt lat="50.18632" lon="1.58947">
        <ele>5</ele>
        <time>2023-06-11T14:59:36Z</time>
      </trkpt>
      <trkpt lat="50.18631" lon="1.58957">
        <ele>5</ele>
        <time>2023-06-11T14:59:38Z</time>
      </trkpt>
      <trkpt lat="50.1863" lon="1.58966">
        <ele>5</ele>
        <time>2023-06-11T14:59:40Z</time>
      </trkpt>
      <trkpt lat="50.18628" lon="1.58976">
        <ele>5</ele>
        <time>2023-06-11T14:59:42Z</time>
      </trkpt>
      <trkpt lat="50.18627" lon="1.58988">
        <ele>5</ele>
        <time>2023-06-11T14:59:44Z</time>
      </trkpt>
      <trkpt lat="50.18625" lon="1.59">
        <ele>5</ele>
        <time>2023-06-11T14:59:46Z</time>
      </trkpt>
      <trkpt lat="50.18623" lon="1.59011">
        <ele>5.2</ele>
        <time>2023-06-11T14:59:48Z</time>
      </trkpt>
      <trkpt lat="50.18621" lon="1.59023">
        <ele>5.5</ele>
        <time>2023-06-11T14:59:50Z</time>
      </trkpt>
      <trkpt lat="50.18619" lon="1.59034">
        <ele>5.7</ele>
        <time>2023-06-11T14:59:52Z</time>
      </trkpt>
      <trkpt lat="50.18617" lon="1.59046">
        <ele>5.8</ele>
        <time>2023-06-11T14:59:54Z</time>
      </trkpt>
      <trkpt lat="50.18613" lon="1.59058">
        <ele>5.8</ele>
        <time>2023-06-11T14:59:56Z</time>
      </trkpt>
      <trkpt lat="50.18609" lon="1.5907">
        <ele>5.4</ele>
        <time>2023-06-11T14:59:58Z</time>
      </trkpt>
      <trkpt lat="50.18604" lon="1.59083">
        <ele>5</ele>
        <time>2023-06-11T15:00:00Z</time>
      </trkpt>
      <trkpt lat="50.18599" lon="1.59095">
        <ele>5.2</ele>
        <time>2023-06-11T15:00:02Z</time>
      </trkpt>
      <trkpt lat="50.18594" lon="1.59109">
        <ele>5.5</ele>
        <time>2023-06-11T15:00:04Z</time>
      </trkpt>
      <trkpt lat="50.18589" lon="1.59122">
        <ele>5.8</ele>
        <time>2023-06-11T15:00:06Z</time>
      </trkpt>
      <trkpt lat="50.18583" lon="1.59134">
        <ele>6</ele>
        <time>2023-06-11T15:00:08Z</time>
      </trkpt>
      <trkpt lat="50.18575" lon="1.59146">
        <ele>5.6</ele>
        <time>2023-06-11T15:00:10Z</time>
      </trkpt>
      <trkpt lat="50.18566" lon="1.59155">
        <ele>5.5</ele>
        <time>2023-06-11T15:00:12Z</time>
      </trkpt>
      <trkpt lat="50.18558" lon="1.59164">
        <ele>5.8</ele>
        <time>2023-06-11T15:00:14Z</time>
      </trkpt>
      <trkpt lat="50.1855" lon="1.59172">
        <ele>5.7</ele>
        <time>2023-06-11T15:00:16Z</time>
      </trkpt>
      <trkpt lat="50.18542" lon="1.59181">
        <ele>5.5</ele>
        <time>2023-06-11T15:00:18Z</time>
      </trkpt>
      <trkpt lat="50.18533" lon="1.5919">
        <ele>5.7</ele>
        <time>2023-06-11T15:00:20Z</time>
      </trkpt>
      <trkpt lat="50.18525" lon="1.592">
        <ele>5.7</ele>
        <time>2023-06-11T15:00:22Z</time>
      </trkpt>
      <trkpt lat="50.18516" lon="1.5921">
        <ele>5.5</ele>
        <time>2023-06-11T15:00:24Z</time>
      </trkpt>
      <trkpt lat="50.18508" lon="1.59218">
        <ele>5.6</ele>
        <time>2023-06-11T15:00:26Z</time>
      </trkpt>
      <trkpt lat="50.18499" lon="1.59228">
        <ele>5.8</ele>
        <time>2023-06-11T15:00:28Z</time>
      </trkpt>
      <trkpt lat="50.1849" lon="1.59239">
        <ele>5.5</ele>
        <time>2023-06-11T15:00:30Z</time>
      </trkpt>
      <trkpt lat="50.1848" lon="1.59249">
        <ele>5.7</ele>
        <time>2023-06-11T15:00:32Z</time>
      </trkpt>
      <trkpt lat="50.18471" lon="1.5926">
        <ele>6</ele>
        <time>2023-06-11T15:00:34Z</time>
      </trkpt>
      <trkpt lat="50.18462" lon="1.5927">
        <ele>5.9</ele>
        <time>2023-06-11T15:00:36Z</time>
      </trkpt>
      <trkpt lat="50.18454" lon="1.59279">
        <ele>6</ele>
        <time>2023-06-11T15:00:38Z</time>
      </trkpt>
      <trkpt lat="50.18446" lon="1.59287">
        <ele>6</ele>
        <time>2023-06-11T15:00:40Z</time>
      </trkpt>
      <trkpt lat="50.18439" lon="1.59295">
        <ele>6</ele>
        <time>2023-06-11T15:00:42Z</time>
      </trkpt>
      <trkpt lat="50.18433" lon="1.59305">
        <ele>6</ele>
        <time>2023-06-11T15:00:44Z</time>
      </trkpt>
      <trkpt lat="50.18427" lon="1.59318">
        <ele>6.3</ele>
        <time>2023-06-11T15:00:46Z</time>
      </trkpt>
      <trkpt lat="50.18423" lon="1.59332">
        <ele>6.7</ele>
        <time>2023-06-11T15:00:48Z</time>
      </trkpt>
      <trkpt lat="50.18421" lon="1.59347">
        <ele>6.8</ele>
        <time>2023-06-11T15:00:50Z</time>
      </trkpt>
      <trkpt lat="50.18422" lon="1.5936">
        <ele>6.8</ele>
        <time>2023-06-11T15:00:52Z</time>
      </trkpt>
      <trkpt lat="50.18428" lon="1.59372">
        <ele>7.5</ele>
        <time>2023-06-11T15:00:54Z</time>
      </trkpt>
      <trkpt lat="50.18435" lon="1.59382">
        <ele>7.6</ele>
        <time>2023-06-11T15:00:56Z</time>
      </trkpt>
      <trkpt lat="50.18442" lon="1.59393">
        <ele>7.3</ele>
        <time>2023-06-11T15:00:58Z</time>
      </trkpt>
      <trkpt lat="50.1845" lon="1.59401">
        <ele>6.8</ele>
        <time>2023-06-11T15:01:00Z</time>
      </trkpt>
      <trkpt lat="50.18457" lon="1.5941">
        <ele>6.5</ele>
        <time>2023-06-11T15:01:02Z</time>
      </trkpt>
      <trkpt lat="50.18465" lon="1.59419">
        <ele>6.3</ele>
        <time>2023-06-11T15:01:04Z</time>
      </trkpt>
      <trkpt lat="50.18473" lon="1.59429">
        <ele>6</ele>
        <time>2023-06-11T15:01:06Z</time>
      </trkpt>
      <trkpt lat="50.18479" lon="1.5944">
        <ele>6</ele>
        <time>2023-06-11T15:01:08Z</time>
      </trkpt>
      <trkpt lat="50.18485" lon="1.59454">
        <ele>6</ele>
        <time>2023-06-11T15:01:10Z</time>
      </trkpt>
      <trkpt lat="50.18491" lon="1.59468">
        <ele>6</ele>
        <time>2023-06-11T15:01:12Z</time>
      </trkpt>
      <trkpt lat="50.18496" lon="1.59482">
        <ele>6.1</ele>
        <time>2023-06-11T15:01:14Z</time>
      </trkpt>
      <trkpt lat="50.18501" lon="1.59496">
        <ele>6</ele>
        <time>2023-06-11T15:01:16Z</time>
      </trkpt>
      <trkpt lat="50.18507" lon="1.59511">
        <ele>5.7</ele>
        <time>2023-06-11T15:01:18Z</time>
      </trkpt>
      <trkpt lat="50.18513" lon="1.59527">
        <ele>5.5</ele>
        <time>2023-06-11T15:01:20Z</time>
      </trkpt>
      <trkpt lat="50.18519" lon="1.59542">
        <ele>5.8</ele>
        <time>2023-06-11T15:01:22Z</time>
      </trkpt>
      <trkpt lat="50.18524" lon="1.59559">
        <ele>6.1</ele>
        <time>2023-06-11T15:01:24Z</time>
      </trkpt>
      <trkpt lat="50.1853" lon="1.59576">
        <ele>6</ele>
        <time>2023-06-11T15:01:26Z</time>
      </trkpt>
      <trkpt lat="50.18536" lon="1.59594">
        <ele>6</ele>
        <time>2023-06-11T15:01:28Z</time>
      </trkpt>
      <trkpt lat="50.18541" lon="1.59612">
        <ele>6</ele>
        <time>2023-06-11T15:01:30Z</time>
      </trkpt>
      <trkpt lat="50.18546" lon="1.5963">
        <ele>6.2</ele>
        <time>2023-06-11T15:01:32Z</time>
      </trkpt>
      <trkpt lat="50.18551" lon="1.59649">
        <ele>6.8</ele>
        <time>2023-06-11T15:01:34Z</time>
      </trkpt>
      <trkpt lat="50.18556" lon="1.59668">
        <ele>7</ele>
        <time>2023-06-11T15:01:36Z</time>
      </trkpt>
      <trkpt lat="50.18561" lon="1.59686">
        <ele>6.8</ele>
        <time>2023-06-11T15:01:38Z</time>
      </trkpt>
      <trkpt lat="50.18566" lon="1.59705">
        <ele>7.1</ele>
        <time>2023-06-11T15:01:40Z</time>
      </trkpt>
      <trkpt lat="50.18572" lon="1.59724">
        <ele>7.4</ele>
        <time>2023-06-11T15:01:42Z</time>
      </trkpt>
      <trkpt lat="50.18578" lon="1.59743">
        <ele>7.9</ele>
        <time>2023-06-11T15:01:44Z</time>
      </trkpt>
      <trkpt lat="50.18584" lon="1.59761">
        <ele>7</ele>
        <time>2023-06-11T15:01:46Z</time>
      </trkpt>
      <trkpt lat="50.1859" lon="1.59779">
        <ele>6.9</ele>
        <time>2023-06-11T15:01:48Z</time>
      </trkpt>
      <trkpt lat="50.18595" lon="1.59798">
        <ele>8.7</ele>
        <time>2023-06-11T15:01:50Z</time>
      </trkpt>
      <trkpt lat="50.186" lon="1.59816">
        <ele>9.2</ele>
        <time>2023-06-11T15:01:52Z</time>
      </trkpt>
      <trkpt lat="50.18607" lon="1.59834">
        <ele>8.3</ele>
        <time>2023-06-11T15:01:54Z</time>
      </trkpt>
      <trkpt lat="50.18614" lon="1.59852">
        <ele>8.1</ele>
        <time>2023-06-11T15:01:56Z</time>
      </trkpt>
      <trkpt lat="50.18621" lon="1.5987">
        <ele>8.9</ele>
        <time>2023-06-11T15:01:58Z</time>
      </trkpt>
      <trkpt lat="50.18628" lon="1.59888">
        <ele>9</ele>
        <time>2023-06-11T15:02:00Z</time>
      </trkpt>
      <trkpt lat="50.18635" lon="1.59906">
        <ele>7.7</ele>
        <time>2023-06-11T15:02:02Z</time>
      </trkpt>
      <trkpt lat="50.18643" lon="1.59924">
        <ele>8</ele>
        <time>2023-06-11T15:02:04Z</time>
      </trkpt>
      <trkpt lat="50.18651" lon="1.59942">
        <ele>9.1</ele>
        <time>2023-06-11T15:02:06Z</time>
      </trkpt>
      <trkpt lat="50.18657" lon="1.5996">
        <ele>8.8</ele>
        <time>2023-06-11T15:02:08Z</time>
      </trkpt>
      <trkpt lat="50.18664" lon="1.59979">
        <ele>7.6</ele>
        <time>2023-06-11T15:02:10Z</time>
      </trkpt>
      <trkpt lat="50.18672" lon="1.59997">
        <ele>8.2</ele>
        <time>2023-06-11T15:02:12Z</time>
      </trkpt>
      <trkpt lat="50.1868" lon="1.60017">
        <ele>9.3</ele>
        <time>2023-06-11T15:02:14Z</time>
      </trkpt>
      <trkpt lat="50.18688" lon="1.60038">
        <ele>8.4</ele>
        <time>2023-06-11T15:02:16Z</time>
      </trkpt>
      <trkpt lat="50.18697" lon="1.60056">
        <ele>6.8</ele>
        <time>2023-06-11T15:02:18Z</time>
      </trkpt>
      <trkpt lat="50.18706" lon="1.60077">
        <ele>8.3</ele>
        <time>2023-06-11T15:02:20Z</time>
      </trkpt>
      <trkpt lat="50.18712" lon="1.60096">
        <ele>8.5</ele>
        <time>2023-06-11T15:02:22Z</time>
      </trkpt>
      <trkpt lat="50.1872" lon="1.60117">
        <ele>7.2</ele>
        <time>2023-06-11T15:02:24Z</time>
      </trkpt>
      <trkpt lat="50.18727" lon="1.60137">
        <ele>7.4</ele>
        <time>2023-06-11T15:02:26Z</time>
      </trkpt>
      <trkpt lat="50.18734" lon="1.60159">
        <ele>8.8</ele>
        <time>2023-06-11T15:02:28Z</time>
      </trkpt>
      <trkpt lat="50.1874" lon="1.60181">
        <ele>8.7</ele>
        <time>2023-06-11T15:02:30Z</time>
      </trkpt>
      <trkpt lat="50.18747" lon="1.60203">
        <ele>7.4</ele>
        <time>2023-06-11T15:02:32Z</time>
      </trkpt>
      <trkpt lat="50.18756" lon="1.60225">
        <ele>7.7</ele>
        <time>2023-06-11T15:02:34Z</time>
      </trkpt>
      <trkpt lat="50.18765" lon="1.60246">
        <ele>8.4</ele>
        <time>2023-06-11T15:02:36Z</time>
      </trkpt>
      <trkpt lat="50.18772" lon="1.60267">
        <ele>7.4</ele>
        <time>2023-06-11T15:02:38Z</time>
      </trkpt>
      <trkpt lat="50.1878" lon="1.60289">
        <ele>7</ele>
        <time>2023-06-11T15:02:40Z</time>
      </trkpt>
      <trkpt lat="50.18787" lon="1.60311">
        <ele>8.2</ele>
        <time>2023-06-11T15:02:42Z</time>
      </trkpt>
      <trkpt lat="50.18795" lon="1.60334">
        <ele>8.1</ele>
        <time>2023-06-11T15:02:44Z</time>
      </trkpt>
      <trkpt lat="50.18803" lon="1.60356">
        <ele>7.2</ele>
        <time>2023-06-11T15:02:46Z</time>
      </trkpt>
      <trkpt lat="50.18814" lon="1.60376">
        <ele>7.8</ele>
        <time>2023-06-11T15:02:48Z</time>
      </trkpt>
      <trkpt lat="50.18824" lon="1.60397">
        <ele>7.4</ele>
        <time>2023-06-11T15:02:50Z</time>
      </trkpt>
      <trkpt lat="50.18832" lon="1.6042">
        <ele>6.4</ele>
        <time>2023-06-11T15:02:52Z</time>
      </trkpt>
      <trkpt lat="50.18838" lon="1.60443">
        <ele>6.6</ele>
        <time>2023-06-11T15:02:54Z</time>
      </trkpt>
      <trkpt lat="50.18845" lon="1.60467">
        <ele>7.5</ele>
        <time>2023-06-11T15:02:56Z</time>
      </trkpt>
      <trkpt lat="50.18852" lon="1.60488">
        <ele>7</ele>
        <time>2023-06-11T15:02:58Z</time>
      </trkpt>
      <trkpt lat="50.1886" lon="1.60507">
        <ele>6.6</ele>
        <time>2023-06-11T15:03:00Z</time>
      </trkpt>
      <trkpt lat="50.18868" lon="1.60524">
        <ele>7.3</ele>
        <time>2023-06-11T15:03:02Z</time>
      </trkpt>
      <trkpt lat="50.18877" lon="1.60539">
        <ele>7</ele>
        <time>2023-06-11T15:03:04Z</time>
      </trkpt>
      <trkpt lat="50.18886" lon="1.60553">
        <ele>6.3</ele>
        <time>2023-06-11T15:03:06Z</time>
      </trkpt>
      <trkpt lat="50.18894" lon="1.60568">
        <ele>6.6</ele>
        <time>2023-06-11T15:03:08Z</time>
      </trkpt>
      <trkpt lat="50.18901" lon="1.60585">
        <ele>6.8</ele>
        <time>2023-06-11T15:03:10Z</time>
      </trkpt>
      <trkpt lat="50.18908" lon="1.60603">
        <ele>6.6</ele>
        <time>2023-06-11T15:03:12Z</time>
      </trkpt>
      <trkpt lat="50.18917" lon="1.60621">
        <ele>6.7</ele>
        <time>2023-06-11T15:03:14Z</time>
      </trkpt>
      <trkpt lat="50.18925" lon="1.6064">
        <ele>7.2</ele>
        <time>2023-06-11T15:03:16Z</time>
      </trkpt>
      <trkpt lat="50.18933" lon="1.60659">
        <ele>7.5</ele>
        <time>2023-06-11T15:03:18Z</time>
      </trkpt>
      <trkpt lat="50.18941" lon="1.60679">
        <ele>7</ele>
        <time>2023-06-11T15:03:20Z</time>
      </trkpt>
      <trkpt lat="50.18949" lon="1.607">
        <ele>7.2</ele>
        <time>2023-06-11T15:03:22Z</time>
      </trkpt>
      <trkpt lat="50.18956" lon="1.60722">
        <ele>7.9</ele>
        <time>2023-06-11T15:03:24Z</time>
      </trkpt>
      <trkpt lat="50.18964" lon="1.60745">
        <ele>7.3</ele>
        <time>2023-06-11T15:03:26Z</time>
      </trkpt>
      <trkpt lat="50.18971" lon="1.60768">
        <ele>6</ele>
        <time>2023-06-11T15:03:28Z</time>
      </trkpt>
      <trkpt lat="50.18979" lon="1.60791">
        <ele>7.5</ele>
        <time>2023-06-11T15:03:30Z</time>
      </trkpt>
      <trkpt lat="50.18988" lon="1.60814">
        <ele>8</ele>
        <time>2023-06-11T15:03:32Z</time>
      </trkpt>
      <trkpt lat="50.18996" lon="1.60837">
        <ele>6.5</ele>
        <time>2023-06-11T15:03:34Z</time>
      </trkpt>
      <trkpt lat="50.19004" lon="1.6086">
        <ele>5.8</ele>
        <time>2023-06-11T15:03:36Z</time>
      </trkpt>
      <trkpt lat="50.19013" lon="1.60881">
        <ele>5.5</ele>
        <time>2023-06-11T15:03:38Z</time>
      </trkpt>
      <trkpt lat="50.19021" lon="1.60903">
        <ele>5.5</ele>
        <time>2023-06-11T15:03:40Z</time>
      </trkpt>
      <trkpt lat="50.19029" lon="1.60927">
        <ele>6</ele>
        <time>2023-06-11T15:03:42Z</time>
      </trkpt>
      <trkpt lat="50.19036" lon="1.60951">
        <ele>5.7</ele>
        <time>2023-06-11T15:03:44Z</time>
      </trkpt>
      <trkpt lat="50.19044" lon="1.60975">
        <ele>5.4</ele>
        <time>2023-06-11T15:03:46Z</time>
      </trkpt>
      <trkpt lat="50.19051" lon="1.60999">
        <ele>5</ele>
        <time>2023-06-11T15:03:48Z</time>
      </trkpt>
      <trkpt lat="50.19058" lon="1.61022">
        <ele>5.7</ele>
        <time>2023-06-11T15:03:50Z</time>
      </trkpt>
      <trkpt lat="50.1907" lon="1.61042">
        <ele>6.5</ele>
        <time>2023-06-11T15:03:52Z</time>
      </trkpt>
      <trkpt lat="50.1908" lon="1.61061">
        <ele>6</ele>
        <time>2023-06-11T15:03:54Z</time>
      </trkpt>
      <trkpt lat="50.19089" lon="1.61083">
        <ele>6.5</ele>
        <time>2023-06-11T15:03:56Z</time>
      </trkpt>
      <trkpt lat="50.19098" lon="1.61105">
        <ele>6.7</ele>
        <time>2023-06-11T15:03:58Z</time>
      </trkpt>
      <trkpt lat="50.19106" lon="1.61127">
        <ele>5.8</ele>
        <time>2023-06-11T15:04:00Z</time>
      </trkpt>
      <trkpt lat="50.19113" lon="1.61148">
        <ele>5.3</ele>
        <time>2023-06-11T15:04:02Z</time>
      </trkpt>
      <trkpt lat="50.19119" lon="1.61169">
        <ele>5.8</ele>
        <time>2023-06-11T15:04:04Z</time>
      </trkpt>
      <trkpt lat="50.19124" lon="1.61189">
        <ele>6</ele>
        <time>2023-06-11T15:04:06Z</time>
      </trkpt>
      <trkpt lat="50.1913" lon="1.61206">
        <ele>5.8</ele>
        <time>2023-06-11T15:04:08Z</time>
      </trkpt>
      <trkpt lat="50.19138" lon="1.61219">
        <ele>5.1</ele>
        <time>2023-06-11T15:04:10Z</time>
      </trkpt>
      <trkpt lat="50.19147" lon="1.61229">
        <ele>5.4</ele>
        <time>2023-06-11T15:04:12Z</time>
      </trkpt>
      <trkpt lat="50.19156" lon="1.61238">
        <ele>5.5</ele>
        <time>2023-06-11T15:04:14Z</time>
      </trkpt>
      <trkpt lat="50.19164" lon="1.61247">
        <ele>5.2</ele>
        <time>2023-06-11T15:04:16Z</time>
      </trkpt>
      <trkpt lat="50.19172" lon="1.61255">
        <ele>5.3</ele>
        <time>2023-06-11T15:04:18Z</time>
      </trkpt>
      <trkpt lat="50.19178" lon="1.61262">
        <ele>5.7</ele>
        <time>2023-06-11T15:04:20Z</time>
      </trkpt>
      <trkpt lat="50.19185" lon="1.61266">
        <ele>5.8</ele>
        <time>2023-06-11T15:04:22Z</time>
      </trkpt>
      <trkpt lat="50.1919" lon="1.61269">
        <ele>5.8</ele>
        <time>2023-06-11T15:04:24Z</time>
      </trkpt>
      <trkpt lat="50.19193" lon="1.61275">
        <ele>5.9</ele>
        <time>2023-06-11T15:04:26Z</time>
      </trkpt>
      <trkpt lat="50.19193" lon="1.61287">
        <ele>6</ele>
        <time>2023-06-11T15:04:30Z</time>
      </trkpt>
      <trkpt lat="50.19188" lon="1.61294">
        <ele>6.1</ele>
        <time>2023-06-11T15:04:50Z</time>
      </trkpt>
      <trkpt lat="50.19183" lon="1.61304">
        <ele>6</ele>
        <time>2023-06-11T15:04:54Z</time>
      </trkpt>
      <trkpt lat="50.1918" lon="1.61308">
        <ele>6</ele>
        <time>2023-06-11T15:04:56Z</time>
      </trkpt>
      <trkpt lat="50.19175" lon="1.61317">
        <ele>5.9</ele>
        <time>2023-06-11T15:05:00Z</time>
      </trkpt>
      <trkpt lat="50.19173" lon="1.61324">
        <ele>5.9</ele>
        <time>2023-06-11T15:05:02Z</time>
      </trkpt>
      <trkpt lat="50.1917" lon="1.61333">
        <ele>5.9</ele>
        <time>2023-06-11T15:05:04Z</time>
      </trkpt>
      <trkpt lat="50.19167" lon="1.61343">
        <ele>5.7</ele>
        <time>2023-06-11T15:05:06Z</time>
      </trkpt>
      <trkpt lat="50.19165" lon="1.6135">
        <ele>5.5</ele>
        <time>2023-06-11T15:05:08Z</time>
      </trkpt>
      <trkpt lat="50.19163" lon="1.61357">
        <ele>5.4</ele>
        <time>2023-06-11T15:05:10Z</time>
      </trkpt>
      <trkpt lat="50.19161" lon="1.61365">
        <ele>5.4</ele>
        <time>2023-06-11T15:05:12Z</time>
      </trkpt>
      <trkpt lat="50.19161" lon="1.61372">
        <ele>5.4</ele>
        <time>2023-06-11T15:05:14Z</time>
      </trkpt>
      <trkpt lat="50.1916" lon="1.61379">
        <ele>5.5</ele>
        <time>2023-06-11T15:05:16Z</time>
      </trkpt>
      <trkpt lat="50.19162" lon="1.61394">
        <ele>5.5</ele>
        <time>2023-06-11T15:05:20Z</time>
      </trkpt>
      <trkpt lat="50.19161" lon="1.61401">
        <ele>5.7</ele>
        <time>2023-06-11T15:05:22Z</time>
      </trkpt>
      <trkpt lat="50.19158" lon="1.61407">
        <ele>5.9</ele>
        <time>2023-06-11T15:05:24Z</time>
      </trkpt>
      <trkpt lat="50.19155" lon="1.61413">
        <ele>6</ele>
        <time>2023-06-11T15:05:26Z</time>
      </trkpt>
      <trkpt lat="50.19152" lon="1.6142">
        <ele>6</ele>
        <time>2023-06-11T15:05:36Z</time>
      </trkpt>
      <trkpt lat="50.19149" lon="1.61426">
        <ele>6</ele>
        <time>2023-06-11T15:05:54Z</time>
      </trkpt>
      <trkpt lat="50.19146" lon="1.61433">
        <ele>6</ele>
        <time>2023-06-11T15:06:00Z</time>
      </trkpt>
      <trkpt lat="50.19142" lon="1.61441">
        <ele>6</ele>
        <time>2023-06-11T15:06:04Z</time>
      </trkpt>
      <trkpt lat="50.19138" lon="1.61453">
        <ele>6.1</ele>
        <time>2023-06-11T15:06:08Z</time>
      </trkpt>
      <trkpt lat="50.19136" lon="1.6146">
        <ele>6.3</ele>
        <time>2023-06-11T15:06:10Z</time>
      </trkpt>
      <trkpt lat="50.19135" lon="1.61467">
        <ele>6.4</ele>
        <time>2023-06-11T15:06:12Z</time>
      </trkpt>
      <trkpt lat="50.19134" lon="1.61474">
        <ele>6.6</ele>
        <time>2023-06-11T15:06:14Z</time>
      </trkpt>
      <trkpt lat="50.19132" lon="1.61481">
        <ele>6.7</ele>
        <time>2023-06-11T15:06:16Z</time>
      </trkpt>
      <trkpt lat="50.19128" lon="1.61488">
        <ele>6.9</ele>
        <time>2023-06-11T15:06:20Z</time>
      </trkpt>
      <trkpt lat="50.19125" lon="1.61495">
        <ele>7.1</ele>
        <time>2023-06-11T15:07:56Z</time>
      </trkpt>
      <trkpt lat="50.19123" lon="1.61503">
        <ele>7.1</ele>
        <time>2023-06-11T15:08:02Z</time>
      </trkpt>
      <trkpt lat="50.19121" lon="1.61512">
        <ele>7</ele>
        <time>2023-06-11T15:08:08Z</time>
      </trkpt>
      <trkpt lat="50.19119" lon="1.61519">
        <ele>6.9</ele>
        <time>2023-06-11T15:08:14Z</time>
      </trkpt>
      <trkpt lat="50.19117" lon="1.61527">
        <ele>6.8</ele>
        <time>2023-06-11T15:10:24Z</time>
      </trkpt>
      <trkpt lat="50.1912" lon="1.61519">
        <ele>6.9</ele>
        <time>2023-06-11T15:15:02Z</time>
      </trkpt>
      <trkpt lat="50.19124" lon="1.61505">
        <ele>7</ele>
        <time>2023-06-11T15:15:06Z</time>
      </trkpt>
      <trkpt lat="50.19126" lon="1.61496">
        <ele>7</ele>
        <time>2023-06-11T15:15:08Z</time>
      </trkpt>
      <trkpt lat="50.19127" lon="1.61487">
        <ele>7</ele>
        <time>2023-06-11T15:15:10Z</time>
      </trkpt>
      <trkpt lat="50.19129" lon="1.61478">
        <ele>7</ele>
        <time>2023-06-11T15:15:12Z</time>
      </trkpt>
      <trkpt lat="50.1913" lon="1.6147">
        <ele>6.9</ele>
        <time>2023-06-11T15:15:14Z</time>
      </trkpt>
      <trkpt lat="50.19131" lon="1.61461">
        <ele>6.7</ele>
        <time>2023-06-11T15:15:16Z</time>
      </trkpt>
      <trkpt lat="50.19135" lon="1.61452">
        <ele>6.4</ele>
        <time>2023-06-11T15:15:18Z</time>
      </trkpt>
      <trkpt lat="50.19141" lon="1.61444">
        <ele>6</ele>
        <time>2023-06-11T15:15:20Z</time>
      </trkpt>
      <trkpt lat="50.19145" lon="1.61432">
        <ele>6</ele>
        <time>2023-06-11T15:15:22Z</time>
      </trkpt>
      <trkpt lat="50.1915" lon="1.61422">
        <ele>6</ele>
        <time>2023-06-11T15:15:24Z</time>
      </trkpt>
      <trkpt lat="50.19154" lon="1.61413">
        <ele>6</ele>
        <time>2023-06-11T15:15:28Z</time>
      </trkpt>
      <trkpt lat="50.19156" lon="1.61405">
        <ele>5.9</ele>
        <time>2023-06-11T15:15:30Z</time>
      </trkpt>
      <trkpt lat="50.19162" lon="1.61399">
        <ele>5.6</ele>
        <time>2023-06-11T15:15:34Z</time>
      </trkpt>
      <trkpt lat="50.19168" lon="1.61396">
        <ele>5.2</ele>
        <time>2023-06-11T15:15:38Z</time>
      </trkpt>
      <trkpt lat="50.19174" lon="1.61406">
        <ele>5.5</ele>
        <time>2023-06-11T15:16:22Z</time>
      </trkpt>
      <trkpt lat="50.19179" lon="1.61413">
        <ele>5.5</ele>
        <time>2023-06-11T15:16:26Z</time>
      </trkpt>
      <trkpt lat="50.19183" lon="1.6142">
        <ele>5.4</ele>
        <time>2023-06-11T15:16:28Z</time>
      </trkpt>
      <trkpt lat="50.19186" lon="1.61428">
        <ele>5.3</ele>
        <time>2023-06-11T15:16:30Z</time>
      </trkpt>
      <trkpt lat="50.19187" lon="1.61435">
        <ele>5.3</ele>
        <time>2023-06-11T15:16:32Z</time>
      </trkpt>
      <trkpt lat="50.19187" lon="1.61444">
        <ele>5.3</ele>
        <time>2023-06-11T15:16:34Z</time>
      </trkpt>
      <trkpt lat="50.19187" lon="1.61451">
        <ele>5.3</ele>
        <time>2023-06-11T15:16:36Z</time>
      </trkpt>
      <trkpt lat="50.19187" lon="1.6146">
        <ele>5.3</ele>
        <time>2023-06-11T15:16:38Z</time>
      </trkpt>
      <trkpt lat="50.19186" lon="1.61468">
        <ele>5.3</ele>
        <time>2023-06-11T15:16:40Z</time>
      </trkpt>
      <trkpt lat="50.19186" lon="1.61475">
        <ele>5.2</ele>
        <time>2023-06-11T15:16:42Z</time>
      </trkpt>
      <trkpt lat="50.19185" lon="1.61483">
        <ele>5.1</ele>
        <time>2023-06-11T15:16:44Z</time>
      </trkpt>
      <trkpt lat="50.19182" lon="1.61491">
        <ele>5.1</ele>
        <time>2023-06-11T15:16:46Z</time>
      </trkpt>
      <trkpt lat="50.1918" lon="1.61501">
        <ele>5</ele>
        <time>2023-06-11T15:16:48Z</time>
      </trkpt>
      <trkpt lat="50.19179" lon="1.61511">
        <ele>5.1</ele>
        <time>2023-06-11T15:16:50Z</time>
      </trkpt>
      <trkpt lat="50.19178" lon="1.61522">
        <ele>5.2</ele>
        <time>2023-06-11T15:16:52Z</time>
      </trkpt>
      <trkpt lat="50.19177" lon="1.61532">
        <ele>5.3</ele>
        <time>2023-06-11T15:16:54Z</time>
      </trkpt>
      <trkpt lat="50.19175" lon="1.61543">
        <ele>5.4</ele>
        <time>2023-06-11T15:16:56Z</time>
      </trkpt>
      <trkpt lat="50.19174" lon="1.61554">
        <ele>5.5</ele>
        <time>2023-06-11T15:16:58Z</time>
      </trkpt>
      <trkpt lat="50.19174" lon="1.61565">
        <ele>5.5</ele>
        <time>2023-06-11T15:17:00Z</time>
      </trkpt>
      <trkpt lat="50.19173" lon="1.61573">
        <ele>5.5</ele>
        <time>2023-06-11T15:17:02Z</time>
      </trkpt>
      <trkpt lat="50.19173" lon="1.61582">
        <ele>5.6</ele>
        <time>2023-06-11T15:17:04Z</time>
      </trkpt>
      <trkpt lat="50.19172" lon="1.61592">
        <ele>5.4</ele>
        <time>2023-06-11T15:17:06Z</time>
      </trkpt>
      <trkpt lat="50.19171" lon="1.61602">
        <ele>5.1</ele>
        <time>2023-06-11T15:17:08Z</time>
      </trkpt>
      <trkpt lat="50.19169" lon="1.61613">
        <ele>4.9</ele>
        <time>2023-06-11T15:17:10Z</time>
      </trkpt>
      <trkpt lat="50.19168" lon="1.61623">
        <ele>4.9</ele>
        <time>2023-06-11T15:17:12Z</time>
      </trkpt>
      <trkpt lat="50.19167" lon="1.61634">
        <ele>5</ele>
        <time>2023-06-11T15:17:14Z</time>
      </trkpt>
      <trkpt lat="50.19166" lon="1.61642">
        <ele>5</ele>
        <time>2023-06-11T15:17:16Z</time>
      </trkpt>
      <trkpt lat="50.19165" lon="1.61653">
        <ele>5</ele>
        <time>2023-06-11T15:17:20Z</time>
      </trkpt>
      <trkpt lat="50.19165" lon="1.6166">
        <ele>5.1</ele>
        <time>2023-06-11T15:17:24Z</time>
      </trkpt>
      <trkpt lat="50.19163" lon="1.61669">
        <ele>5.1</ele>
        <time>2023-06-11T15:17:28Z</time>
      </trkpt>
      <trkpt lat="50.1916" lon="1.61682">
        <ele>5.3</ele>
        <time>2023-06-11T15:17:32Z</time>
      </trkpt>
      <trkpt lat="50.19158" lon="1.6169">
        <ele>5.3</ele>
        <time>2023-06-11T15:17:34Z</time>
      </trkpt>
      <trkpt lat="50.19156" lon="1.61698">
        <ele>5.3</ele>
        <time>2023-06-11T15:17:36Z</time>
      </trkpt>
      <trkpt lat="50.19153" lon="1.61707">
        <ele>5.3</ele>
        <time>2023-06-11T15:17:38Z</time>
      </trkpt>
      <trkpt lat="50.19151" lon="1.61716">
        <ele>5.2</ele>
        <time>2023-06-11T15:17:40Z</time>
      </trkpt>
      <trkpt lat="50.19148" lon="1.61725">
        <ele>5.3</ele>
        <time>2023-06-11T15:17:42Z</time>
      </trkpt>
      <trkpt lat="50.19145" lon="1.61733">
        <ele>5.2</ele>
        <time>2023-06-11T15:17:44Z</time>
      </trkpt>
      <trkpt lat="50.19142" lon="1.61741">
        <ele>5.2</ele>
        <time>2023-06-11T15:17:46Z</time>
      </trkpt>
      <trkpt lat="50.1914" lon="1.61749">
        <ele>5</ele>
        <time>2023-06-11T15:17:48Z</time>
      </trkpt>
      <trkpt lat="50.19137" lon="1.61757">
        <ele>5.1</ele>
        <time>2023-06-11T15:17:50Z</time>
      </trkpt>
      <trkpt lat="50.19135" lon="1.61767">
        <ele>5.1</ele>
        <time>2023-06-11T15:17:52Z</time>
      </trkpt>
      <trkpt lat="50.19133" lon="1.61778">
        <ele>5.2</ele>
        <time>2023-06-11T15:17:54Z</time>
      </trkpt>
      <trkpt lat="50.19132" lon="1.6179">
        <ele>5.1</ele>
        <time>2023-06-11T15:17:56Z</time>
      </trkpt>
      <trkpt lat="50.19129" lon="1.61802">
        <ele>5</ele>
        <time>2023-06-11T15:17:58Z</time>
      </trkpt>
      <trkpt lat="50.19124" lon="1.6181">
        <ele>5</ele>
        <time>2023-06-11T15:18:00Z</time>
      </trkpt>
      <trkpt lat="50.1912" lon="1.61814">
        <ele>5</ele>
        <time>2023-06-11T15:18:02Z</time>
      </trkpt>
      <trkpt lat="50.19115" lon="1.61819">
        <ele>5</ele>
        <time>2023-06-11T15:18:04Z</time>
      </trkpt>
      <trkpt lat="50.19111" lon="1.61826">
        <ele>5</ele>
        <time>2023-06-11T15:18:06Z</time>
      </trkpt>
      <trkpt lat="50.19105" lon="1.61833">
        <ele>5</ele>
        <time>2023-06-11T15:18:08Z</time>
      </trkpt>
      <trkpt lat="50.19102" lon="1.61843">
        <ele>5</ele>
        <time>2023-06-11T15:18:10Z</time>
      </trkpt>
      <trkpt lat="50.191" lon="1.61854">
        <ele>5</ele>
        <time>2023-06-11T15:18:12Z</time>
      </trkpt>
      <trkpt lat="50.19101" lon="1.61863">
        <ele>5</ele>
        <time>2023-06-11T15:18:14Z</time>
      </trkpt>
      <trkpt lat="50.19101" lon="1.61873">
        <ele>5</ele>
        <time>2023-06-11T15:18:16Z</time>
      </trkpt>
      <trkpt lat="50.191" lon="1.61883">
        <ele>5</ele>
        <time>2023-06-11T15:18:18Z</time>
      </trkpt>
      <trkpt lat="50.19099" lon="1.61893">
        <ele>5</ele>
        <time>2023-06-11T15:18:20Z</time>
      </trkpt>
      <trkpt lat="50.19098" lon="1.61902">
        <ele>5</ele>
        <time>2023-06-11T15:18:22Z</time>
      </trkpt>
      <trkpt lat="50.19096" lon="1.61911">
        <ele>5</ele>
        <time>2023-06-11T15:18:24Z</time>
      </trkpt>
      <trkpt lat="50.19095" lon="1.6192">
        <ele>5</ele>
        <time>2023-06-11T15:18:26Z</time>
      </trkpt>
      <trkpt lat="50.19093" lon="1.61929">
        <ele>5</ele>
        <time>2023-06-11T15:18:28Z</time>
      </trkpt>
      <trkpt lat="50.1909" lon="1.61938">
        <ele>5</ele>
        <time>2023-06-11T15:18:30Z</time>
      </trkpt>
      <trkpt lat="50.19091" lon="1.61947">
        <ele>5</ele>
        <time>2023-06-11T15:18:32Z</time>
      </trkpt>
      <trkpt lat="50.19091" lon="1.61939">
        <ele>5</ele>
        <time>2023-06-11T15:18:46Z</time>
      </trkpt>
      <trkpt lat="50.19084" lon="1.6193">
        <ele>5</ele>
        <time>2023-06-11T15:18:50Z</time>
      </trkpt>
      <trkpt lat="50.1908" lon="1.61927">
        <ele>5</ele>
        <time>2023-06-11T15:18:52Z</time>
      </trkpt>
      <trkpt lat="50.19075" lon="1.61922">
        <ele>5</ele>
        <time>2023-06-11T15:18:54Z</time>
      </trkpt>
      <trkpt lat="50.1907" lon="1.61918">
        <ele>5</ele>
        <time>2023-06-11T15:18:56Z</time>
      </trkpt>
      <trkpt lat="50.19065" lon="1.61914">
        <ele>5</ele>
        <time>2023-06-11T15:18:58Z</time>
      </trkpt>
      <trkpt lat="50.19061" lon="1.61908">
        <ele>5</ele>
        <time>2023-06-11T15:19:00Z</time>
      </trkpt>
      <trkpt lat="50.19056" lon="1.61902">
        <ele>5</ele>
        <time>2023-06-11T15:19:02Z</time>
      </trkpt>
      <trkpt lat="50.19052" lon="1.61894">
        <ele>5</ele>
        <time>2023-06-11T15:19:04Z</time>
      </trkpt>
      <trkpt lat="50.19048" lon="1.6189">
        <ele>5</ele>
        <time>2023-06-11T15:19:06Z</time>
      </trkpt>
      <trkpt lat="50.19041" lon="1.61897">
        <ele>5</ele>
        <time>2023-06-11T15:19:10Z</time>
      </trkpt>
      <trkpt lat="50.19039" lon="1.61904">
        <ele>5</ele>
        <time>2023-06-11T15:19:12Z</time>
      </trkpt>
      <trkpt lat="50.19037" lon="1.61912">
        <ele>5</ele>
        <time>2023-06-11T15:19:14Z</time>
      </trkpt>
      <trkpt lat="50.19035" lon="1.61922">
        <ele>5</ele>
        <time>2023-06-11T15:19:16Z</time>
      </trkpt>
      <trkpt lat="50.19032" lon="1.61931">
        <ele>5</ele>
        <time>2023-06-11T15:19:18Z</time>
      </trkpt>
      <trkpt lat="50.19029" lon="1.61939">
        <ele>5</ele>
        <time>2023-06-11T15:19:20Z</time>
      </trkpt>
      <trkpt lat="50.19027" lon="1.61948">
        <ele>5</ele>
        <time>2023-06-11T15:19:22Z</time>
      </trkpt>
      <trkpt lat="50.19026" lon="1.61957">
        <ele>5.1</ele>
        <time>2023-06-11T15:19:24Z</time>
      </trkpt>
      <trkpt lat="50.19025" lon="1.61967">
        <ele>5.1</ele>
        <time>2023-06-11T15:19:26Z</time>
      </trkpt>
      <trkpt lat="50.19024" lon="1.61977">
        <ele>5.1</ele>
        <time>2023-06-11T15:19:28Z</time>
      </trkpt>
      <trkpt lat="50.19024" lon="1.61987">
        <ele>5.1</ele>
        <time>2023-06-11T15:19:30Z</time>
      </trkpt>
      <trkpt lat="50.19025" lon="1.61998">
        <ele>5.1</ele>
        <time>2023-06-11T15:19:32Z</time>
      </trkpt>
      <trkpt lat="50.19027" lon="1.62007">
        <ele>5.3</ele>
        <time>2023-06-11T15:19:34Z</time>
      </trkpt>
      <trkpt lat="50.1903" lon="1.62016">
        <ele>5.5</ele>
        <time>2023-06-11T15:19:36Z</time>
      </trkpt>
      <trkpt lat="50.19032" lon="1.62026">
        <ele>5.8</ele>
        <time>2023-06-11T15:19:38Z</time>
      </trkpt>
      <trkpt lat="50.19035" lon="1.62036">
        <ele>5.8</ele>
        <time>2023-06-11T15:19:40Z</time>
      </trkpt>
      <trkpt lat="50.19035" lon="1.62046">
        <ele>5.9</ele>
        <time>2023-06-11T15:19:42Z</time>
      </trkpt>
      <trkpt lat="50.19034" lon="1.62054">
        <ele>6</ele>
        <time>2023-06-11T15:19:44Z</time>
      </trkpt>
      <trkpt lat="50.19033" lon="1.62061">
        <ele>6</ele>
        <time>2023-06-11T15:19:46Z</time>
      </trkpt>
      <trkpt lat="50.19033" lon="1.6207">
        <ele>6</ele>
        <time>2023-06-11T15:19:48Z</time>
      </trkpt>
      <trkpt lat="50.19032" lon="1.62078">
        <ele>6</ele>
        <time>2023-06-11T15:19:50Z</time>
      </trkpt>
      <trkpt lat="50.1903" lon="1.62088">
        <ele>6</ele>
        <time>2023-06-11T15:19:52Z</time>
      </trkpt>
      <trkpt lat="50.19028" lon="1.62099">
        <ele>6</ele>
        <time>2023-06-11T15:19:54Z</time>
      </trkpt>
      <trkpt lat="50.19027" lon="1.6211">
        <ele>6</ele>
        <time>2023-06-11T15:19:56Z</time>
      </trkpt>
      <trkpt lat="50.19027" lon="1.6212">
        <ele>6</ele>
        <time>2023-06-11T15:19:58Z</time>
      </trkpt>
      <trkpt lat="50.19027" lon="1.62129">
        <ele>6</ele>
        <time>2023-06-11T15:20:00Z</time>
      </trkpt>
      <trkpt lat="50.19028" lon="1.62138">
        <ele>6</ele>
        <time>2023-06-11T15:20:02Z</time>
      </trkpt>
      <trkpt lat="50.19026" lon="1.62148">
        <ele>6</ele>
        <time>2023-06-11T15:20:04Z</time>
      </trkpt>
      <trkpt lat="50.19024" lon="1.62158">
        <ele>6.1</ele>
        <time>2023-06-11T15:20:06Z</time>
      </trkpt>
      <trkpt lat="50.19023" lon="1.62166">
        <ele>6.2</ele>
        <time>2023-06-11T15:20:08Z</time>
      </trkpt>
      <trkpt lat="50.19022" lon="1.62177">
        <ele>6.2</ele>
        <time>2023-06-11T15:20:10Z</time>
      </trkpt>
      <trkpt lat="50.19021" lon="1.62187">
        <ele>6.2</ele>
        <time>2023-06-11T15:20:12Z</time>
      </trkpt>
      <trkpt lat="50.19021" lon="1.62195">
        <ele>6.2</ele>
        <time>2023-06-11T15:20:14Z</time>
      </trkpt>
      <trkpt lat="50.19022" lon="1.62203">
        <ele>6.2</ele>
        <time>2023-06-11T15:20:16Z</time>
      </trkpt>
      <trkpt lat="50.19022" lon="1.62212">
        <ele>6.2</ele>
        <time>2023-06-11T15:20:18Z</time>
      </trkpt>
      <trkpt lat="50.19022" lon="1.62221">
        <ele>6.2</ele>
        <time>2023-06-11T15:20:20Z</time>
      </trkpt>
      <trkpt lat="50.19022" lon="1.62232">
        <ele>6.1</ele>
        <time>2023-06-11T15:20:22Z</time>
      </trkpt>
      <trkpt lat="50.19022" lon="1.62244">
        <ele>6</ele>
        <time>2023-06-11T15:20:24Z</time>
      </trkpt>
      <trkpt lat="50.19021" lon="1.62256">
        <ele>6</ele>
        <time>2023-06-11T15:20:26Z</time>
      </trkpt>
      <trkpt lat="50.19018" lon="1.62265">
        <ele>6</ele>
        <time>2023-06-11T15:20:28Z</time>
      </trkpt>
      <trkpt lat="50.19015" lon="1.62276">
        <ele>6</ele>
        <time>2023-06-11T15:20:30Z</time>
      </trkpt>
      <trkpt lat="50.19011" lon="1.62286">
        <ele>6</ele>
        <time>2023-06-11T15:20:32Z</time>
      </trkpt>
      <trkpt lat="50.19007" lon="1.62295">
        <ele>6</ele>
        <time>2023-06-11T15:20:34Z</time>
      </trkpt>
      <trkpt lat="50.19003" lon="1.62303">
        <ele>6</ele>
        <time>2023-06-11T15:20:36Z</time>
      </trkpt>
      <trkpt lat="50.19" lon="1.62313">
        <ele>6</ele>
        <time>2023-06-11T15:20:38Z</time>
      </trkpt>
      <trkpt lat="50.18996" lon="1.62322">
        <ele>6.1</ele>
        <time>2023-06-11T15:20:40Z</time>
      </trkpt>
      <trkpt lat="50.18992" lon="1.62332">
        <ele>6</ele>
        <time>2023-06-11T15:20:42Z</time>
      </trkpt>
      <trkpt lat="50.18988" lon="1.62341">
        <ele>6</ele>
        <time>2023-06-11T15:20:44Z</time>
      </trkpt>
      <trkpt lat="50.18983" lon="1.62351">
        <ele>6</ele>
        <time>2023-06-11T15:20:46Z</time>
      </trkpt>
      <trkpt lat="50.18977" lon="1.62361">
        <ele>6</ele>
        <time>2023-06-11T15:20:48Z</time>
      </trkpt>
      <trkpt lat="50.18973" lon="1.62373">
        <ele>6</ele>
        <time>2023-06-11T15:20:50Z</time>
      </trkpt>
      <trkpt lat="50.1897" lon="1.62384">
        <ele>6</ele>
        <time>2023-06-11T15:20:52Z</time>
      </trkpt>
      <trkpt lat="50.18967" lon="1.62395">
        <ele>6</ele>
        <time>2023-06-11T15:20:54Z</time>
      </trkpt>
      <trkpt lat="50.18963" lon="1.62403">
        <ele>6</ele>
        <time>2023-06-11T15:20:56Z</time>
      </trkpt>
      <trkpt lat="50.18958" lon="1.62412">
        <ele>6</ele>
        <time>2023-06-11T15:20:58Z</time>
      </trkpt>
      <trkpt lat="50.18954" lon="1.6242">
        <ele>6</ele>
        <time>2023-06-11T15:21:00Z</time>
      </trkpt>
      <trkpt lat="50.18949" lon="1.62427">
        <ele>6</ele>
        <time>2023-06-11T15:21:02Z</time>
      </trkpt>
      <trkpt lat="50.18944" lon="1.62434">
        <ele>6</ele>
        <time>2023-06-11T15:21:04Z</time>
      </trkpt>
      <trkpt lat="50.1894" lon="1.62441">
        <ele>7.2</ele>
        <time>2023-06-11T15:21:06Z</time>
      </trkpt>
      <trkpt lat="50.18937" lon="1.62447">
        <ele>8.2</ele>
        <time>2023-06-11T15:21:08Z</time>
      </trkpt>
      <trkpt lat="50.18935" lon="1.62456">
        <ele>8.5</ele>
        <time>2023-06-11T15:21:10Z</time>
      </trkpt>
      <trkpt lat="50.18936" lon="1.62468">
        <ele>8.2</ele>
        <time>2023-06-11T15:21:12Z</time>
      </trkpt>
      <trkpt lat="50.18935" lon="1.62478">
        <ele>8.3</ele>
        <time>2023-06-11T15:21:14Z</time>
      </trkpt>
      <trkpt lat="50.18934" lon="1.62489">
        <ele>8.2</ele>
        <time>2023-06-11T15:21:16Z</time>
      </trkpt>
      <trkpt lat="50.18933" lon="1.62501">
        <ele>8.1</ele>
        <time>2023-06-11T15:21:18Z</time>
      </trkpt>
      <trkpt lat="50.18932" lon="1.62513">
        <ele>8.5</ele>
        <time>2023-06-11T15:21:20Z</time>
      </trkpt>
      <trkpt lat="50.18932" lon="1.62524">
        <ele>8.7</ele>
        <time>2023-06-11T15:21:22Z</time>
      </trkpt>
      <trkpt lat="50.18932" lon="1.62535">
        <ele>9.1</ele>
        <time>2023-06-11T15:21:24Z</time>
      </trkpt>
      <trkpt lat="50.18932" lon="1.62546">
        <ele>9.4</ele>
        <time>2023-06-11T15:21:26Z</time>
      </trkpt>
      <trkpt lat="50.18933" lon="1.62557">
        <ele>9.8</ele>
        <time>2023-06-11T15:21:28Z</time>
      </trkpt>
      <trkpt lat="50.18933" lon="1.62568">
        <ele>9.9</ele>
        <time>2023-06-11T15:21:30Z</time>
      </trkpt>
      <trkpt lat="50.18933" lon="1.62578">
        <ele>10</ele>
        <time>2023-06-11T15:21:32Z</time>
      </trkpt>
      <trkpt lat="50.18933" lon="1.62587">
        <ele>10.2</ele>
        <time>2023-06-11T15:21:34Z</time>
      </trkpt>
      <trkpt lat="50.18932" lon="1.62597">
        <ele>10.4</ele>
        <time>2023-06-11T15:21:36Z</time>
      </trkpt>
      <trkpt lat="50.18931" lon="1.62605">
        <ele>10.6</ele>
        <time>2023-06-11T15:21:38Z</time>
      </trkpt>
      <trkpt lat="50.18931" lon="1.62614">
        <ele>10.4</ele>
        <time>2023-06-11T15:21:40Z</time>
      </trkpt>
      <trkpt lat="50.18932" lon="1.62623">
        <ele>9.7</ele>
        <time>2023-06-11T15:21:42Z</time>
      </trkpt>
      <trkpt lat="50.18934" lon="1.6263">
        <ele>9.1</ele>
        <time>2023-06-11T15:21:44Z</time>
      </trkpt>
      <trkpt lat="50.18939" lon="1.62643">
        <ele>8</ele>
        <time>2023-06-11T15:21:48Z</time>
      </trkpt>
      <trkpt lat="50.18944" lon="1.62648">
        <ele>7.1</ele>
        <time>2023-06-11T15:21:50Z</time>
      </trkpt>
      <trkpt lat="50.18948" lon="1.62654">
        <ele>7</ele>
        <time>2023-06-11T15:21:52Z</time>
      </trkpt>
      <trkpt lat="50.18952" lon="1.62659">
        <ele>6.9</ele>
        <time>2023-06-11T15:21:54Z</time>
      </trkpt>
      <trkpt lat="50.18958" lon="1.62666">
        <ele>7</ele>
        <time>2023-06-11T15:21:58Z</time>
      </trkpt>
      <trkpt lat="50.18964" lon="1.62669">
        <ele>6.8</ele>
        <time>2023-06-11T15:22:02Z</time>
      </trkpt>
      <trkpt lat="50.18969" lon="1.62671">
        <ele>6.5</ele>
        <time>2023-06-11T15:22:06Z</time>
      </trkpt>
      <trkpt lat="50.18973" lon="1.62676">
        <ele>6</ele>
        <time>2023-06-11T15:22:30Z</time>
      </trkpt>
      <trkpt lat="50.18978" lon="1.62676">
        <ele>6</ele>
        <time>2023-06-11T15:22:58Z</time>
      </trkpt>
      <trkpt lat="50.18982" lon="1.62682">
        <ele>5.8</ele>
        <time>2023-06-11T15:23:06Z</time>
      </trkpt>
      <trkpt lat="50.18987" lon="1.62687">
        <ele>5.8</ele>
        <time>2023-06-11T15:23:14Z</time>
      </trkpt>
      <trkpt lat="50.18984" lon="1.62681">
        <ele>5.9</ele>
        <time>2023-06-11T15:24:30Z</time>
      </trkpt>
      <trkpt lat="50.1898" lon="1.62677">
        <ele>6</ele>
        <time>2023-06-11T15:24:36Z</time>
      </trkpt>
      <trkpt lat="50.18978" lon="1.62669">
        <ele>6.6</ele>
        <time>2023-06-11T15:24:44Z</time>
      </trkpt>
      <trkpt lat="50.18979" lon="1.62662">
        <ele>6.6</ele>
        <time>2023-06-11T16:02:38Z</time>
      </trkpt>
      <trkpt lat="50.18978" lon="1.62669">
        <ele>6.6</ele>
        <time>2023-06-11T16:04:10Z</time>
      </trkpt>
      <trkpt lat="50.18979" lon="1.62677">
        <ele>6</ele>
        <time>2023-06-11T16:04:20Z</time>
      </trkpt>
      <trkpt lat="50.18983" lon="1.62681">
        <ele>5.8</ele>
        <time>2023-06-11T16:04:24Z</time>
      </trkpt>
      <trkpt lat="50.18986" lon="1.62688">
        <ele>5.7</ele>
        <time>2023-06-11T16:04:32Z</time>
      </trkpt>
      <trkpt lat="50.1899" lon="1.6269">
        <ele>6</ele>
        <time>2023-06-11T16:05:00Z</time>
      </trkpt>
      <trkpt lat="50.18997" lon="1.62691">
        <ele>6.6</ele>
        <time>2023-06-11T16:05:10Z</time>
      </trkpt>
      <trkpt lat="50.19003" lon="1.62697">
        <ele>6.6</ele>
        <time>2023-06-11T16:05:14Z</time>
      </trkpt>
      <trkpt lat="50.1901" lon="1.62703">
        <ele>6</ele>
        <time>2023-06-11T16:05:18Z</time>
      </trkpt>
      <trkpt lat="50.1901" lon="1.6271">
        <ele>5.8</ele>
        <time>2023-06-11T16:05:34Z</time>
      </trkpt>
      <trkpt lat="50.19015" lon="1.6272">
        <ele>5.6</ele>
        <time>2023-06-11T16:05:44Z</time>
      </trkpt>
      <trkpt lat="50.19018" lon="1.6273">
        <ele>5.1</ele>
        <time>2023-06-11T16:05:48Z</time>
      </trkpt>
      <trkpt lat="50.19018" lon="1.62738">
        <ele>4.6</ele>
        <time>2023-06-11T16:05:50Z</time>
      </trkpt>
      <trkpt lat="50.19017" lon="1.62746">
        <ele>4.1</ele>
        <time>2023-06-11T16:05:52Z</time>
      </trkpt>
      <trkpt lat="50.19015" lon="1.62753">
        <ele>3.9</ele>
        <time>2023-06-11T16:05:54Z</time>
      </trkpt>
      <trkpt lat="50.19013" lon="1.62761">
        <ele>4</ele>
        <time>2023-06-11T16:05:56Z</time>
      </trkpt>
      <trkpt lat="50.19011" lon="1.62767">
        <ele>4.3</ele>
        <time>2023-06-11T16:05:58Z</time>
      </trkpt>
      <trkpt lat="50.19008" lon="1.62775">
        <ele>4.8</ele>
        <time>2023-06-11T16:06:00Z</time>
      </trkpt>
      <trkpt lat="50.19006" lon="1.62784">
        <ele>5.4</ele>
        <time>2023-06-11T16:06:02Z</time>
      </trkpt>
      <trkpt lat="50.19003" lon="1.62793">
        <ele>6.1</ele>
        <time>2023-06-11T16:06:04Z</time>
      </trkpt>
      <trkpt lat="50.19" lon="1.62802">
        <ele>6.8</ele>
        <time>2023-06-11T16:06:06Z</time>
      </trkpt>
      <trkpt lat="50.18997" lon="1.6281">
        <ele>6.2</ele>
        <time>2023-06-11T16:06:08Z</time>
      </trkpt>
      <trkpt lat="50.18994" lon="1.62819">
        <ele>5.3</ele>
        <time>2023-06-11T16:06:10Z</time>
      </trkpt>
      <trkpt lat="50.18993" lon="1.62828">
        <ele>4.6</ele>
        <time>2023-06-11T16:06:12Z</time>
      </trkpt>
      <trkpt lat="50.18991" lon="1.62837">
        <ele>4.3</ele>
        <time>2023-06-11T16:06:14Z</time>
      </trkpt>
      <trkpt lat="50.18988" lon="1.62844">
        <ele>4.4</ele>
        <time>2023-06-11T16:06:16Z</time>
      </trkpt>
      <trkpt lat="50.18986" lon="1.62852">
        <ele>4.6</ele>
        <time>2023-06-11T16:06:18Z</time>
      </trkpt>
      <trkpt lat="50.18983" lon="1.62861">
        <ele>4.9</ele>
        <time>2023-06-11T16:06:20Z</time>
      </trkpt>
      <trkpt lat="50.1898" lon="1.62871">
        <ele>5.3</ele>
        <time>2023-06-11T16:06:22Z</time>
      </trkpt>
      <trkpt lat="50.18977" lon="1.62879">
        <ele>5.9</ele>
        <time>2023-06-11T16:06:24Z</time>
      </trkpt>
      <trkpt lat="50.18974" lon="1.62887">
        <ele>6.6</ele>
        <time>2023-06-11T16:06:26Z</time>
      </trkpt>
      <trkpt lat="50.18972" lon="1.62895">
        <ele>6.5</ele>
        <time>2023-06-11T16:06:28Z</time>
      </trkpt>
      <trkpt lat="50.18969" lon="1.62903">
        <ele>5.8</ele>
        <time>2023-06-11T16:06:30Z</time>
      </trkpt>
      <trkpt lat="50.18966" lon="1.62911">
        <ele>5.3</ele>
        <time>2023-06-11T16:06:32Z</time>
      </trkpt>
      <trkpt lat="50.18964" lon="1.6292">
        <ele>4.9</ele>
        <time>2023-06-11T16:06:34Z</time>
      </trkpt>
      <trkpt lat="50.18961" lon="1.62929">
        <ele>4.9</ele>
        <time>2023-06-11T16:06:36Z</time>
      </trkpt>
      <trkpt lat="50.18958" lon="1.62937">
        <ele>5</ele>
        <time>2023-06-11T16:06:38Z</time>
      </trkpt>
      <trkpt lat="50.18955" lon="1.62946">
        <ele>5.4</ele>
        <time>2023-06-11T16:06:40Z</time>
      </trkpt>
      <trkpt lat="50.18953" lon="1.62954">
        <ele>5.6</ele>
        <time>2023-06-11T16:06:42Z</time>
      </trkpt>
      <trkpt lat="50.18951" lon="1.62962">
        <ele>6</ele>
        <time>2023-06-11T16:06:44Z</time>
      </trkpt>
      <trkpt lat="50.18948" lon="1.6297">
        <ele>6.3</ele>
        <time>2023-06-11T16:06:46Z</time>
      </trkpt>
      <trkpt lat="50.18946" lon="1.62977">
        <ele>6.6</ele>
        <time>2023-06-11T16:06:48Z</time>
      </trkpt>
      <trkpt lat="50.18943" lon="1.62989">
        <ele>6.3</ele>
        <time>2023-06-11T16:06:52Z</time>
      </trkpt>
      <trkpt lat="50.18938" lon="1.63001">
        <ele>5.7</ele>
        <time>2023-06-11T16:06:56Z</time>
      </trkpt>
      <trkpt lat="50.18936" lon="1.63007">
        <ele>5.4</ele>
        <time>2023-06-11T16:06:58Z</time>
      </trkpt>
      <trkpt lat="50.18933" lon="1.6302">
        <ele>5.1</ele>
        <time>2023-06-11T16:07:02Z</time>
      </trkpt>
      <trkpt lat="50.18931" lon="1.63027">
        <ele>5</ele>
        <time>2023-06-11T16:07:04Z</time>
      </trkpt>
      <trkpt lat="50.18929" lon="1.63035">
        <ele>5.1</ele>
        <time>2023-06-11T16:07:06Z</time>
      </trkpt>
      <trkpt lat="50.18926" lon="1.63042">
        <ele>5.4</ele>
        <time>2023-06-11T16:07:08Z</time>
      </trkpt>
      <trkpt lat="50.18923" lon="1.6305">
        <ele>5.9</ele>
        <time>2023-06-11T16:07:10Z</time>
      </trkpt>
      <trkpt lat="50.18921" lon="1.63059">
        <ele>6.2</ele>
        <time>2023-06-11T16:07:12Z</time>
      </trkpt>
      <trkpt lat="50.18919" lon="1.63067">
        <ele>6.3</ele>
        <time>2023-06-11T16:07:14Z</time>
      </trkpt>
      <trkpt lat="50.18916" lon="1.63075">
        <ele>6.3</ele>
        <time>2023-06-11T16:07:16Z</time>
      </trkpt>
      <trkpt lat="50.18914" lon="1.63084">
        <ele>5.8</ele>
        <time>2023-06-11T16:07:18Z</time>
      </trkpt>
      <trkpt lat="50.18911" lon="1.63094">
        <ele>5.2</ele>
        <time>2023-06-11T16:07:20Z</time>
      </trkpt>
      <trkpt lat="50.18908" lon="1.63102">
        <ele>4.7</ele>
        <time>2023-06-11T16:07:22Z</time>
      </trkpt>
      <trkpt lat="50.18905" lon="1.63112">
        <ele>4.4</ele>
        <time>2023-06-11T16:07:24Z</time>
      </trkpt>
      <trkpt lat="50.18902" lon="1.63122">
        <ele>4.6</ele>
        <time>2023-06-11T16:07:26Z</time>
      </trkpt>
      <trkpt lat="50.18899" lon="1.63132">
        <ele>5</ele>
        <time>2023-06-11T16:07:28Z</time>
      </trkpt>
      <trkpt lat="50.18897" lon="1.63141">
        <ele>5.5</ele>
        <time>2023-06-11T16:07:30Z</time>
      </trkpt>
      <trkpt lat="50.18894" lon="1.63149">
        <ele>6</ele>
        <time>2023-06-11T16:07:32Z</time>
      </trkpt>
      <trkpt lat="50.18892" lon="1.63157">
        <ele>6.5</ele>
        <time>2023-06-11T16:07:34Z</time>
      </trkpt>
      <trkpt lat="50.18888" lon="1.63164">
        <ele>7</ele>
        <time>2023-06-11T16:07:36Z</time>
      </trkpt>
      <trkpt lat="50.18885" lon="1.63171">
        <ele>6.8</ele>
        <time>2023-06-11T16:07:38Z</time>
      </trkpt>
      <trkpt lat="50.18883" lon="1.63178">
        <ele>6.4</ele>
        <time>2023-06-11T16:07:40Z</time>
      </trkpt>
      <trkpt lat="50.18882" lon="1.63187">
        <ele>6.1</ele>
        <time>2023-06-11T16:07:42Z</time>
      </trkpt>
      <trkpt lat="50.1888" lon="1.63196">
        <ele>5.9</ele>
        <time>2023-06-11T16:07:44Z</time>
      </trkpt>
      <trkpt lat="50.18878" lon="1.63203">
        <ele>5.7</ele>
        <time>2023-06-11T16:07:46Z</time>
      </trkpt>
      <trkpt lat="50.18874" lon="1.63209">
        <ele>5.8</ele>
        <time>2023-06-11T16:07:48Z</time>
      </trkpt>
      <trkpt lat="50.18866" lon="1.63212">
        <ele>6.8</ele>
        <time>2023-06-11T16:07:52Z</time>
      </trkpt>
      <trkpt lat="50.18862" lon="1.63209">
        <ele>7.4</ele>
        <time>2023-06-11T16:07:54Z</time>
      </trkpt>
      <trkpt lat="50.18856" lon="1.63205">
        <ele>7.6</ele>
        <time>2023-06-11T16:07:56Z</time>
      </trkpt>
      <trkpt lat="50.18851" lon="1.63201">
        <ele>7.8</ele>
        <time>2023-06-11T16:07:58Z</time>
      </trkpt>
      <trkpt lat="50.18844" lon="1.63197">
        <ele>7.9</ele>
        <time>2023-06-11T16:08:00Z</time>
      </trkpt>
      <trkpt lat="50.1884" lon="1.63194">
        <ele>8</ele>
        <time>2023-06-11T16:08:02Z</time>
      </trkpt>
      <trkpt lat="50.18835" lon="1.63189">
        <ele>8.2</ele>
        <time>2023-06-11T16:08:04Z</time>
      </trkpt>
      <trkpt lat="50.1883" lon="1.63187">
        <ele>8.3</ele>
        <time>2023-06-11T16:08:06Z</time>
      </trkpt>
      <trkpt lat="50.18823" lon="1.63183">
        <ele>8.4</ele>
        <time>2023-06-11T16:08:10Z</time>
      </trkpt>
      <trkpt lat="50.18819" lon="1.6318">
        <ele>8.5</ele>
        <time>2023-06-11T16:08:14Z</time>
      </trkpt>
      <trkpt lat="50.18813" lon="1.63173">
        <ele>8.8</ele>
        <time>2023-06-11T16:08:18Z</time>
      </trkpt>
      <trkpt lat="50.18809" lon="1.63169">
        <ele>8.9</ele>
        <time>2023-06-11T16:08:20Z</time>
      </trkpt>
      <trkpt lat="50.18801" lon="1.63162">
        <ele>9</ele>
        <time>2023-06-11T16:08:24Z</time>
      </trkpt>
      <trkpt lat="50.18803" lon="1.6315">
        <ele>9.5</ele>
        <time>2023-06-11T16:08:28Z</time>
      </trkpt>
      <trkpt lat="50.18806" lon="1.63144">
        <ele>9.8</ele>
        <time>2023-06-11T16:08:30Z</time>
      </trkpt>
      <trkpt lat="50.18811" lon="1.63133">
        <ele>10.5</ele>
        <time>2023-06-11T16:08:34Z</time>
      </trkpt>
      <trkpt lat="50.18813" lon="1.63121">
        <ele>11</ele>
        <time>2023-06-11T16:08:38Z</time>
      </trkpt>
      <trkpt lat="50.18817" lon="1.63114">
        <ele>11.1</ele>
        <time>2023-06-11T16:08:42Z</time>
      </trkpt>
      <trkpt lat="50.18823" lon="1.63114">
        <ele>10.7</ele>
        <time>2023-06-11T16:08:46Z</time>
      </trkpt>
      <trkpt lat="50.18827" lon="1.63101">
        <ele>11.9</ele>
        <time>2023-06-11T16:08:52Z</time>
      </trkpt>
      <trkpt lat="50.18828" lon="1.63092">
        <ele>13.1</ele>
        <time>2023-06-11T16:08:56Z</time>
      </trkpt>
      <trkpt lat="50.1883" lon="1.63082">
        <ele>14.7</ele>
        <time>2023-06-11T16:09:00Z</time>
      </trkpt>
      <trkpt lat="50.18832" lon="1.63074">
        <ele>15.3</ele>
        <time>2023-06-11T16:09:04Z</time>
      </trkpt>
      <trkpt lat="50.18833" lon="1.63065">
        <ele>15.7</ele>
        <time>2023-06-11T16:09:10Z</time>
      </trkpt>
      <trkpt lat="50.18837" lon="1.63057">
        <ele>16.2</ele>
        <time>2023-06-11T16:09:16Z</time>
      </trkpt>
      <trkpt lat="50.18838" lon="1.63048">
        <ele>16.9</ele>
        <time>2023-06-11T16:09:20Z</time>
      </trkpt>
      <trkpt lat="50.1884" lon="1.63039">
        <ele>17.6</ele>
        <time>2023-06-11T16:09:24Z</time>
      </trkpt>
      <trkpt lat="50.18842" lon="1.63029">
        <ele>18.2</ele>
        <time>2023-06-11T16:09:28Z</time>
      </trkpt>
      <trkpt lat="50.18845" lon="1.6302">
        <ele>18.7</ele>
        <time>2023-06-11T16:09:32Z</time>
      </trkpt>
      <trkpt lat="50.18848" lon="1.63011">
        <ele>19.1</ele>
        <time>2023-06-11T16:09:36Z</time>
      </trkpt>
      <trkpt lat="50.18855" lon="1.63013">
        <ele>19.3</ele>
        <time>2023-06-11T16:09:40Z</time>
      </trkpt>
      <trkpt lat="50.18862" lon="1.63018">
        <ele>18.8</ele>
        <time>2023-06-11T16:09:44Z</time>
      </trkpt>
      <trkpt lat="50.18867" lon="1.63022">
        <ele>16</ele>
        <time>2023-06-11T16:09:48Z</time>
      </trkpt>
      <trkpt lat="50.18874" lon="1.63026">
        <ele>12.4</ele>
        <time>2023-06-11T16:09:52Z</time>
      </trkpt>
      <trkpt lat="50.18873" lon="1.63019">
        <ele>13.3</ele>
        <time>2023-06-11T16:18:44Z</time>
      </trkpt>
      <trkpt lat="50.18873" lon="1.6301">
        <ele>13.7</ele>
        <time>2023-06-11T16:18:48Z</time>
      </trkpt>
      <trkpt lat="50.18874" lon="1.63001">
        <ele>13.2</ele>
        <time>2023-06-11T16:18:52Z</time>
      </trkpt>
      <trkpt lat="50.18876" lon="1.6299">
        <ele>13.3</ele>
        <time>2023-06-11T16:18:56Z</time>
      </trkpt>
      <trkpt lat="50.18876" lon="1.62977">
        <ele>14.4</ele>
        <time>2023-06-11T16:19:00Z</time>
      </trkpt>
      <trkpt lat="50.18878" lon="1.62964">
        <ele>15</ele>
        <time>2023-06-11T16:19:04Z</time>
      </trkpt>
      <trkpt lat="50.18878" lon="1.62951">
        <ele>16.5</ele>
        <time>2023-06-11T16:19:08Z</time>
      </trkpt>
      <trkpt lat="50.18878" lon="1.62937">
        <ele>17.6</ele>
        <time>2023-06-11T16:19:12Z</time>
      </trkpt>
      <trkpt lat="50.18878" lon="1.62924">
        <ele>18.1</ele>
        <time>2023-06-11T16:19:16Z</time>
      </trkpt>
      <trkpt lat="50.1888" lon="1.62913">
        <ele>18.7</ele>
        <time>2023-06-11T16:19:20Z</time>
      </trkpt>
      <trkpt lat="50.18885" lon="1.62902">
        <ele>20.5</ele>
        <time>2023-06-11T16:19:24Z</time>
      </trkpt>
      <trkpt lat="50.18888" lon="1.62892">
        <ele>23.2</ele>
        <time>2023-06-11T16:19:28Z</time>
      </trkpt>
      <trkpt lat="50.18887" lon="1.62882">
        <ele>23.5</ele>
        <time>2023-06-11T16:19:32Z</time>
      </trkpt>
      <trkpt lat="50.18885" lon="1.62873">
        <ele>23</ele>
        <time>2023-06-11T16:19:36Z</time>
      </trkpt>
      <trkpt lat="50.18885" lon="1.62864">
        <ele>22.6</ele>
        <time>2023-06-11T16:19:40Z</time>
      </trkpt>
      <trkpt lat="50.18884" lon="1.62855">
        <ele>23.5</ele>
        <time>2023-06-11T16:19:44Z</time>
      </trkpt>
      <trkpt lat="50.18882" lon="1.62845">
        <ele>25</ele>
        <time>2023-06-11T16:19:48Z</time>
      </trkpt>
      <trkpt lat="50.18881" lon="1.62836">
        <ele>26.5</ele>
        <time>2023-06-11T16:19:52Z</time>
      </trkpt>
      <trkpt lat="50.1888" lon="1.62827">
        <ele>26.4</ele>
        <time>2023-06-11T16:19:56Z</time>
      </trkpt>
      <trkpt lat="50.18879" lon="1.62817">
        <ele>25.7</ele>
        <time>2023-06-11T16:20:00Z</time>
      </trkpt>
      <trkpt lat="50.18878" lon="1.62806">
        <ele>25.1</ele>
        <time>2023-06-11T16:20:04Z</time>
      </trkpt>
      <trkpt lat="50.18876" lon="1.62796">
        <ele>25.8</ele>
        <time>2023-06-11T16:20:08Z</time>
      </trkpt>
      <trkpt lat="50.18875" lon="1.62785">
        <ele>26</ele>
        <time>2023-06-11T16:20:12Z</time>
      </trkpt>
      <trkpt lat="50.18873" lon="1.62771">
        <ele>27</ele>
        <time>2023-06-11T16:20:16Z</time>
      </trkpt>
      <trkpt lat="50.18874" lon="1.62763">
        <ele>26.9</ele>
        <time>2023-06-11T16:20:18Z</time>
      </trkpt>
      <trkpt lat="50.18875" lon="1.62754">
        <ele>27.3</ele>
        <time>2023-06-11T16:20:20Z</time>
      </trkpt>
      <trkpt lat="50.18876" lon="1.62745">
        <ele>27.4</ele>
        <time>2023-06-11T16:20:22Z</time>
      </trkpt>
      <trkpt lat="50.18875" lon="1.62737">
        <ele>27.6</ele>
        <time>2023-06-11T16:20:24Z</time>
      </trkpt>
      <trkpt lat="50.18873" lon="1.62729">
        <ele>28</ele>
        <time>2023-06-11T16:20:26Z</time>
      </trkpt>
      <trkpt lat="50.18874" lon="1.62718">
        <ele>27.8</ele>
        <time>2023-06-11T16:20:30Z</time>
      </trkpt>
      <trkpt lat="50.18874" lon="1.62706">
        <ele>27.8</ele>
        <time>2023-06-11T16:20:34Z</time>
      </trkpt>
      <trkpt lat="50.18875" lon="1.62693">
        <ele>27.8</ele>
        <time>2023-06-11T16:20:38Z</time>
      </trkpt>
      <trkpt lat="50.18875" lon="1.62681">
        <ele>29.3</ele>
        <time>2023-06-11T16:20:42Z</time>
      </trkpt>
      <trkpt lat="50.18874" lon="1.62671">
        <ele>30.6</ele>
        <time>2023-06-11T16:20:46Z</time>
      </trkpt>
      <trkpt lat="50.18874" lon="1.62662">
        <ele>31.4</ele>
        <time>2023-06-11T16:20:50Z</time>
      </trkpt>
      <trkpt lat="50.18874" lon="1.62655">
        <ele>32</ele>
        <time>2023-06-11T16:21:10Z</time>
      </trkpt>
      <trkpt lat="50.18876" lon="1.62642">
        <ele>32.7</ele>
        <time>2023-06-11T16:21:16Z</time>
      </trkpt>
      <trkpt lat="50.18876" lon="1.6263">
        <ele>32.5</ele>
        <time>2023-06-11T16:21:20Z</time>
      </trkpt>
      <trkpt lat="50.18878" lon="1.6262">
        <ele>32.2</ele>
        <time>2023-06-11T16:21:24Z</time>
      </trkpt>
      <trkpt lat="50.18883" lon="1.6262">
        <ele>32.4</ele>
        <time>2023-06-11T16:21:32Z</time>
      </trkpt>
      <trkpt lat="50.18886" lon="1.62626">
        <ele>32.4</ele>
        <time>2023-06-11T16:21:38Z</time>
      </trkpt>
      <trkpt lat="50.1889" lon="1.6263">
        <ele>31.4</ele>
        <time>2023-06-11T16:21:46Z</time>
      </trkpt>
      <trkpt lat="50.18886" lon="1.62624">
        <ele>32.5</ele>
        <time>2023-06-11T16:29:32Z</time>
      </trkpt>
      <trkpt lat="50.18881" lon="1.62622">
        <ele>32.3</ele>
        <time>2023-06-11T16:29:46Z</time>
      </trkpt>
      <trkpt lat="50.18877" lon="1.62627">
        <ele>32.4</ele>
        <time>2023-06-11T16:29:58Z</time>
      </trkpt>
      <trkpt lat="50.18876" lon="1.62635">
        <ele>32.7</ele>
        <time>2023-06-11T16:30:02Z</time>
      </trkpt>
      <trkpt lat="50.18874" lon="1.62641">
        <ele>32.9</ele>
        <time>2023-06-11T16:30:06Z</time>
      </trkpt>
      <trkpt lat="50.18873" lon="1.62652">
        <ele>32.3</ele>
        <time>2023-06-11T16:30:10Z</time>
      </trkpt>
      <trkpt lat="50.18872" lon="1.62659">
        <ele>32.1</ele>
        <time>2023-06-11T16:30:14Z</time>
      </trkpt>
      <trkpt lat="50.18867" lon="1.62661">
        <ele>32.9</ele>
        <time>2023-06-11T16:30:34Z</time>
      </trkpt>
      <trkpt lat="50.18861" lon="1.62658">
        <ele>34</ele>
        <time>2023-06-11T16:30:40Z</time>
      </trkpt>
      <trkpt lat="50.18855" lon="1.62659">
        <ele>34.1</ele>
        <time>2023-06-11T16:30:44Z</time>
      </trkpt>
      <trkpt lat="50.18847" lon="1.62658">
        <ele>34.1</ele>
        <time>2023-06-11T16:30:48Z</time>
      </trkpt>
      <trkpt lat="50.18842" lon="1.62659">
        <ele>34.2</ele>
        <time>2023-06-11T16:30:50Z</time>
      </trkpt>
      <trkpt lat="50.18835" lon="1.62659">
        <ele>34.3</ele>
        <time>2023-06-11T16:30:54Z</time>
      </trkpt>
      <trkpt lat="50.18829" lon="1.6266">
        <ele>34.1</ele>
        <time>2023-06-11T16:30:58Z</time>
      </trkpt>
      <trkpt lat="50.18827" lon="1.62667">
        <ele>33.8</ele>
        <time>2023-06-11T16:31:04Z</time>
      </trkpt>
      <trkpt lat="50.18827" lon="1.62679">
        <ele>33.8</ele>
        <time>2023-06-11T16:31:08Z</time>
      </trkpt>
      <trkpt lat="50.18827" lon="1.62691">
        <ele>33.8</ele>
        <time>2023-06-11T16:31:12Z</time>
      </trkpt>
      <trkpt lat="50.18827" lon="1.62705">
        <ele>33.4</ele>
        <time>2023-06-11T16:31:16Z</time>
      </trkpt>
      <trkpt lat="50.18826" lon="1.62717">
        <ele>32.9</ele>
        <time>2023-06-11T16:31:20Z</time>
      </trkpt>
      <trkpt lat="50.18828" lon="1.62725">
        <ele>32.7</ele>
        <time>2023-06-11T16:32:00Z</time>
      </trkpt>
      <trkpt lat="50.1883" lon="1.62738">
        <ele>32</ele>
        <time>2023-06-11T16:32:04Z</time>
      </trkpt>
      <trkpt lat="50.18831" lon="1.62747">
        <ele>31.4</ele>
        <time>2023-06-11T16:32:06Z</time>
      </trkpt>
      <trkpt lat="50.18832" lon="1.62755">
        <ele>30.6</ele>
        <time>2023-06-11T16:32:08Z</time>
      </trkpt>
      <trkpt lat="50.18833" lon="1.62762">
        <ele>29.7</ele>
        <time>2023-06-11T16:32:10Z</time>
      </trkpt>
      <trkpt lat="50.18835" lon="1.62771">
        <ele>28.8</ele>
        <time>2023-06-11T16:32:14Z</time>
      </trkpt>
      <trkpt lat="50.18835" lon="1.62783">
        <ele>27.9</ele>
        <time>2023-06-11T16:32:20Z</time>
      </trkpt>
      <trkpt lat="50.18834" lon="1.62793">
        <ele>27</ele>
        <time>2023-06-11T16:32:24Z</time>
      </trkpt>
      <trkpt lat="50.18831" lon="1.62806">
        <ele>26.2</ele>
        <time>2023-06-11T16:32:28Z</time>
      </trkpt>
      <trkpt lat="50.18829" lon="1.62819">
        <ele>25.3</ele>
        <time>2023-06-11T16:32:32Z</time>
      </trkpt>
      <trkpt lat="50.18829" lon="1.62826">
        <ele>24.7</ele>
        <time>2023-06-11T16:32:34Z</time>
      </trkpt>
      <trkpt lat="50.18828" lon="1.62834">
        <ele>24</ele>
        <time>2023-06-11T16:32:36Z</time>
      </trkpt>
      <trkpt lat="50.18827" lon="1.62842">
        <ele>23.7</ele>
        <time>2023-06-11T16:32:38Z</time>
      </trkpt>
      <trkpt lat="50.18825" lon="1.62849">
        <ele>23.5</ele>
        <time>2023-06-11T16:32:40Z</time>
      </trkpt>
      <trkpt lat="50.18823" lon="1.62855">
        <ele>23.2</ele>
        <time>2023-06-11T16:32:44Z</time>
      </trkpt>
      <trkpt lat="50.18818" lon="1.62857">
        <ele>23.1</ele>
        <time>2023-06-11T16:32:56Z</time>
      </trkpt>
      <trkpt lat="50.18813" lon="1.62855">
        <ele>23.2</ele>
        <time>2023-06-11T16:33:00Z</time>
      </trkpt>
      <trkpt lat="50.18807" lon="1.62852">
        <ele>23.3</ele>
        <time>2023-06-11T16:33:10Z</time>
      </trkpt>
      <trkpt lat="50.18802" lon="1.6285">
        <ele>23.4</ele>
        <time>2023-06-11T16:33:16Z</time>
      </trkpt>
      <trkpt lat="50.18798" lon="1.62843">
        <ele>23.6</ele>
        <time>2023-06-11T16:33:32Z</time>
      </trkpt>
      <trkpt lat="50.18794" lon="1.62842">
        <ele>23.7</ele>
        <time>2023-06-11T16:34:16Z</time>
      </trkpt>
      <trkpt lat="50.18789" lon="1.62838">
        <ele>23.8</ele>
        <time>2023-06-11T16:35:00Z</time>
      </trkpt>
      <trkpt lat="50.18783" lon="1.62834">
        <ele>24</ele>
        <time>2023-06-11T16:35:04Z</time>
      </trkpt>
      <trkpt lat="50.18777" lon="1.62827">
        <ele>24.4</ele>
        <time>2023-06-11T16:35:08Z</time>
      </trkpt>
      <trkpt lat="50.18773" lon="1.62823">
        <ele>24.4</ele>
        <time>2023-06-11T16:35:14Z</time>
      </trkpt>
      <trkpt lat="50.18769" lon="1.62816">
        <ele>24.6</ele>
        <time>2023-06-11T16:35:20Z</time>
      </trkpt>
      <trkpt lat="50.18765" lon="1.62811">
        <ele>24.7</ele>
        <time>2023-06-11T16:35:24Z</time>
      </trkpt>
      <trkpt lat="50.18762" lon="1.62817">
        <ele>24.1</ele>
        <time>2023-06-11T16:35:30Z</time>
      </trkpt>
      <trkpt lat="50.18767" lon="1.62821">
        <ele>24.1</ele>
        <time>2023-06-11T16:35:34Z</time>
      </trkpt>
      <trkpt lat="50.18771" lon="1.62828">
        <ele>23.9</ele>
        <time>2023-06-11T16:35:38Z</time>
      </trkpt>
      <trkpt lat="50.18777" lon="1.62832">
        <ele>24</ele>
        <time>2023-06-11T16:35:42Z</time>
      </trkpt>
      <trkpt lat="50.18782" lon="1.62838">
        <ele>23.8</ele>
        <time>2023-06-11T16:35:46Z</time>
      </trkpt>
      <trkpt lat="50.18789" lon="1.62843">
        <ele>23.7</ele>
        <time>2023-06-11T16:35:50Z</time>
      </trkpt>
      <trkpt lat="50.18794" lon="1.62845">
        <ele>23.6</ele>
        <time>2023-06-11T16:35:52Z</time>
      </trkpt>
      <trkpt lat="50.188" lon="1.62846">
        <ele>23.5</ele>
        <time>2023-06-11T16:35:54Z</time>
      </trkpt>
      <trkpt lat="50.18807" lon="1.62846">
        <ele>23.5</ele>
        <time>2023-06-11T16:35:58Z</time>
      </trkpt>
      <trkpt lat="50.18813" lon="1.62849">
        <ele>23.4</ele>
        <time>2023-06-11T16:36:02Z</time>
      </trkpt>
      <trkpt lat="50.18819" lon="1.62853">
        <ele>23.3</ele>
        <time>2023-06-11T16:36:06Z</time>
      </trkpt>
      <trkpt lat="50.18824" lon="1.62856">
        <ele>23.2</ele>
        <time>2023-06-11T16:36:10Z</time>
      </trkpt>
      <trkpt lat="50.1883" lon="1.6286">
        <ele>23</ele>
        <time>2023-06-11T16:36:14Z</time>
      </trkpt>
      <trkpt lat="50.18835" lon="1.62866">
        <ele>22.9</ele>
        <time>2023-06-11T16:36:18Z</time>
      </trkpt>
      <trkpt lat="50.18842" lon="1.62874">
        <ele>22.9</ele>
        <time>2023-06-11T16:36:22Z</time>
      </trkpt>
      <trkpt lat="50.18846" lon="1.62878">
        <ele>22.8</ele>
        <time>2023-06-11T16:36:24Z</time>
      </trkpt>
      <trkpt lat="50.18851" lon="1.62882">
        <ele>22.5</ele>
        <time>2023-06-11T16:36:26Z</time>
      </trkpt>
      <trkpt lat="50.18854" lon="1.62888">
        <ele>22.1</ele>
        <time>2023-06-11T16:36:28Z</time>
      </trkpt>
      <trkpt lat="50.18858" lon="1.62893">
        <ele>22</ele>
        <time>2023-06-11T16:36:30Z</time>
      </trkpt>
      <trkpt lat="50.18863" lon="1.629">
        <ele>21.9</ele>
        <time>2023-06-11T16:36:32Z</time>
      </trkpt>
      <trkpt lat="50.18867" lon="1.62904">
        <ele>21.5</ele>
        <time>2023-06-11T16:36:34Z</time>
      </trkpt>
      <trkpt lat="50.18872" lon="1.62909">
        <ele>20.5</ele>
        <time>2023-06-11T16:36:38Z</time>
      </trkpt>
      <trkpt lat="50.18876" lon="1.62915">
        <ele>19</ele>
        <time>2023-06-11T16:36:52Z</time>
      </trkpt>
      <trkpt lat="50.18879" lon="1.62922">
        <ele>18</ele>
        <time>2023-06-11T16:37:02Z</time>
      </trkpt>
      <trkpt lat="50.18878" lon="1.62931">
        <ele>17.8</ele>
        <time>2023-06-11T16:37:10Z</time>
      </trkpt>
      <trkpt lat="50.18875" lon="1.62944">
        <ele>18</ele>
        <time>2023-06-11T16:37:14Z</time>
      </trkpt>
      <trkpt lat="50.18872" lon="1.62951">
        <ele>18.3</ele>
        <time>2023-06-11T16:37:16Z</time>
      </trkpt>
      <trkpt lat="50.18869" lon="1.62958">
        <ele>18.5</ele>
        <time>2023-06-11T16:37:18Z</time>
      </trkpt>
      <trkpt lat="50.18866" lon="1.62968">
        <ele>18.7</ele>
        <time>2023-06-11T16:37:22Z</time>
      </trkpt>
      <trkpt lat="50.18864" lon="1.62974">
        <ele>19</ele>
        <time>2023-06-11T16:37:52Z</time>
      </trkpt>
      <trkpt lat="50.18861" lon="1.62982">
        <ele>20</ele>
        <time>2023-06-11T16:45:38Z</time>
      </trkpt>
      <trkpt lat="50.18856" lon="1.62992">
        <ele>19.8</ele>
        <time>2023-06-11T16:46:26Z</time>
      </trkpt>
      <trkpt lat="50.18854" lon="1.62998">
        <ele>19.7</ele>
        <time>2023-06-11T16:46:28Z</time>
      </trkpt>
      <trkpt lat="50.18851" lon="1.63004">
        <ele>19.5</ele>
        <time>2023-06-11T16:46:30Z</time>
      </trkpt>
      <trkpt lat="50.1885" lon="1.63011">
        <ele>19.2</ele>
        <time>2023-06-11T16:46:32Z</time>
      </trkpt>
      <trkpt lat="50.18847" lon="1.6302">
        <ele>18.8</ele>
        <time>2023-06-11T16:46:34Z</time>
      </trkpt>
      <trkpt lat="50.18844" lon="1.63029">
        <ele>18.3</ele>
        <time>2023-06-11T16:46:36Z</time>
      </trkpt>
      <trkpt lat="50.18842" lon="1.63038">
        <ele>17.7</ele>
        <time>2023-06-11T16:46:38Z</time>
      </trkpt>
      <trkpt lat="50.1884" lon="1.63045">
        <ele>17.1</ele>
        <time>2023-06-11T16:46:40Z</time>
      </trkpt>
      <trkpt lat="50.18839" lon="1.63052">
        <ele>16.6</ele>
        <time>2023-06-11T16:46:42Z</time>
      </trkpt>
      <trkpt lat="50.18836" lon="1.63065">
        <ele>15.7</ele>
        <time>2023-06-11T16:46:46Z</time>
      </trkpt>
      <trkpt lat="50.18834" lon="1.63073">
        <ele>15.4</ele>
        <time>2023-06-11T16:46:48Z</time>
      </trkpt>
      <trkpt lat="50.18832" lon="1.63085">
        <ele>14.7</ele>
        <time>2023-06-11T16:46:52Z</time>
      </trkpt>
      <trkpt lat="50.18825" lon="1.63092">
        <ele>13</ele>
        <time>2023-06-11T16:46:56Z</time>
      </trkpt>
      <trkpt lat="50.18824" lon="1.63104">
        <ele>11.6</ele>
        <time>2023-06-11T16:47:00Z</time>
      </trkpt>
      <trkpt lat="50.18818" lon="1.63107">
        <ele>11.4</ele>
        <time>2023-06-11T16:47:04Z</time>
      </trkpt>
      <trkpt lat="50.18813" lon="1.63103">
        <ele>11.8</ele>
        <time>2023-06-11T16:47:06Z</time>
      </trkpt>
      <trkpt lat="50.18808" lon="1.63098">
        <ele>12</ele>
        <time>2023-06-11T16:47:08Z</time>
      </trkpt>
      <trkpt lat="50.18803" lon="1.63094">
        <ele>11.8</ele>
        <time>2023-06-11T16:47:10Z</time>
      </trkpt>
      <trkpt lat="50.18798" lon="1.63088">
        <ele>11.6</ele>
        <time>2023-06-11T16:47:12Z</time>
      </trkpt>
      <trkpt lat="50.18793" lon="1.63083">
        <ele>11.6</ele>
        <time>2023-06-11T16:47:14Z</time>
      </trkpt>
      <trkpt lat="50.18788" lon="1.63077">
        <ele>11.8</ele>
        <time>2023-06-11T16:47:16Z</time>
      </trkpt>
      <trkpt lat="50.18783" lon="1.63072">
        <ele>11.6</ele>
        <time>2023-06-11T16:47:18Z</time>
      </trkpt>
      <trkpt lat="50.18778" lon="1.63067">
        <ele>11</ele>
        <time>2023-06-11T16:47:20Z</time>
      </trkpt>
      <trkpt lat="50.18773" lon="1.63061">
        <ele>10.8</ele>
        <time>2023-06-11T16:47:22Z</time>
      </trkpt>
      <trkpt lat="50.18768" lon="1.63056">
        <ele>10.6</ele>
        <time>2023-06-11T16:47:24Z</time>
      </trkpt>
      <trkpt lat="50.18762" lon="1.6305">
        <ele>11</ele>
        <time>2023-06-11T16:47:26Z</time>
      </trkpt>
      <trkpt lat="50.18757" lon="1.63045">
        <ele>11.1</ele>
        <time>2023-06-11T16:47:28Z</time>
      </trkpt>
      <trkpt lat="50.18752" lon="1.63039">
        <ele>10.9</ele>
        <time>2023-06-11T16:47:30Z</time>
      </trkpt>
      <trkpt lat="50.18746" lon="1.63033">
        <ele>10.7</ele>
        <time>2023-06-11T16:47:32Z</time>
      </trkpt>
      <trkpt lat="50.18741" lon="1.63028">
        <ele>10.7</ele>
        <time>2023-06-11T16:47:34Z</time>
      </trkpt>
      <trkpt lat="50.18736" lon="1.63024">
        <ele>10.9</ele>
        <time>2023-06-11T16:47:38Z</time>
      </trkpt>
      <trkpt lat="50.18729" lon="1.63026">
        <ele>10.3</ele>
        <time>2023-06-11T16:47:56Z</time>
      </trkpt>
      <trkpt lat="50.18725" lon="1.63036">
        <ele>9.8</ele>
        <time>2023-06-11T16:48:34Z</time>
      </trkpt>
      <trkpt lat="50.18725" lon="1.63044">
        <ele>9.5</ele>
        <time>2023-06-11T16:48:38Z</time>
      </trkpt>
      <trkpt lat="50.18722" lon="1.63038">
        <ele>9.6</ele>
        <time>2023-06-11T16:49:00Z</time>
      </trkpt>
      <trkpt lat="50.18716" lon="1.63027">
        <ele>9.8</ele>
        <time>2023-06-11T16:49:04Z</time>
      </trkpt>
      <trkpt lat="50.18714" lon="1.6302">
        <ele>9.7</ele>
        <time>2023-06-11T16:49:06Z</time>
      </trkpt>
      <trkpt lat="50.18711" lon="1.63014">
        <ele>9.6</ele>
        <time>2023-06-11T16:49:08Z</time>
      </trkpt>
      <trkpt lat="50.18708" lon="1.63009">
        <ele>9.5</ele>
        <time>2023-06-11T16:49:10Z</time>
      </trkpt>
      <trkpt lat="50.187" lon="1.63012">
        <ele>9.2</ele>
        <time>2023-06-11T16:49:14Z</time>
      </trkpt>
      <trkpt lat="50.18695" lon="1.63017">
        <ele>9</ele>
        <time>2023-06-11T16:49:16Z</time>
      </trkpt>
      <trkpt lat="50.18689" lon="1.63025">
        <ele>8.6</ele>
        <time>2023-06-11T16:49:18Z</time>
      </trkpt>
      <trkpt lat="50.18682" lon="1.63034">
        <ele>8</ele>
        <time>2023-06-11T16:49:20Z</time>
      </trkpt>
      <trkpt lat="50.18676" lon="1.63043">
        <ele>7.7</ele>
        <time>2023-06-11T16:49:22Z</time>
      </trkpt>
      <trkpt lat="50.1867" lon="1.63051">
        <ele>7.8</ele>
        <time>2023-06-11T16:49:24Z</time>
      </trkpt>
      <trkpt lat="50.18664" lon="1.63058">
        <ele>7.9</ele>
        <time>2023-06-11T16:49:26Z</time>
      </trkpt>
      <trkpt lat="50.18658" lon="1.63064">
        <ele>7.9</ele>
        <time>2023-06-11T16:49:28Z</time>
      </trkpt>
      <trkpt lat="50.18651" lon="1.63071">
        <ele>8.1</ele>
        <time>2023-06-11T16:49:30Z</time>
      </trkpt>
      <trkpt lat="50.18644" lon="1.63077">
        <ele>8.5</ele>
        <time>2023-06-11T16:49:32Z</time>
      </trkpt>
      <trkpt lat="50.18637" lon="1.63083">
        <ele>9</ele>
        <time>2023-06-11T16:49:34Z</time>
      </trkpt>
      <trkpt lat="50.18631" lon="1.63089">
        <ele>8.4</ele>
        <time>2023-06-11T16:49:36Z</time>
      </trkpt>
      <trkpt lat="50.18625" lon="1.63093">
        <ele>8.3</ele>
        <time>2023-06-11T16:49:38Z</time>
      </trkpt>
      <trkpt lat="50.18619" lon="1.63098">
        <ele>8.4</ele>
        <time>2023-06-11T16:49:40Z</time>
      </trkpt>
      <trkpt lat="50.18613" lon="1.63103">
        <ele>8.8</ele>
        <time>2023-06-11T16:49:42Z</time>
      </trkpt>
      <trkpt lat="50.18605" lon="1.63107">
        <ele>9.2</ele>
        <time>2023-06-11T16:49:44Z</time>
      </trkpt>
      <trkpt lat="50.18599" lon="1.63109">
        <ele>9.4</ele>
        <time>2023-06-11T16:49:46Z</time>
      </trkpt>
      <trkpt lat="50.18593" lon="1.6311">
        <ele>9.7</ele>
        <time>2023-06-11T16:49:48Z</time>
      </trkpt>
      <trkpt lat="50.18587" lon="1.63112">
        <ele>9.8</ele>
        <time>2023-06-11T16:49:50Z</time>
      </trkpt>
      <trkpt lat="50.18581" lon="1.63114">
        <ele>10</ele>
        <time>2023-06-11T16:49:52Z</time>
      </trkpt>
      <trkpt lat="50.18574" lon="1.63116">
        <ele>10.2</ele>
        <time>2023-06-11T16:49:54Z</time>
      </trkpt>
      <trkpt lat="50.18568" lon="1.63117">
        <ele>10.4</ele>
        <time>2023-06-11T16:49:56Z</time>
      </trkpt>
      <trkpt lat="50.18562" lon="1.63117">
        <ele>10.7</ele>
        <time>2023-06-11T16:49:58Z</time>
      </trkpt>
      <trkpt lat="50.18556" lon="1.63116">
        <ele>11</ele>
        <time>2023-06-11T16:50:00Z</time>
      </trkpt>
      <trkpt lat="50.18551" lon="1.63116">
        <ele>11.2</ele>
        <time>2023-06-11T16:50:02Z</time>
      </trkpt>
      <trkpt lat="50.18545" lon="1.63117">
        <ele>11.4</ele>
        <time>2023-06-11T16:50:04Z</time>
      </trkpt>
      <trkpt lat="50.1854" lon="1.63117">
        <ele>11.5</ele>
        <time>2023-06-11T16:50:06Z</time>
      </trkpt>
      <trkpt lat="50.18535" lon="1.63118">
        <ele>11.7</ele>
        <time>2023-06-11T16:50:08Z</time>
      </trkpt>
      <trkpt lat="50.1853" lon="1.63119">
        <ele>11.9</ele>
        <time>2023-06-11T16:50:10Z</time>
      </trkpt>
      <trkpt lat="50.18524" lon="1.63117">
        <ele>12.2</ele>
        <time>2023-06-11T16:50:14Z</time>
      </trkpt>
      <trkpt lat="50.18517" lon="1.63121">
        <ele>12.7</ele>
        <time>2023-06-11T16:50:20Z</time>
      </trkpt>
      <trkpt lat="50.18512" lon="1.63122">
        <ele>12.9</ele>
        <time>2023-06-11T16:50:22Z</time>
      </trkpt>
      <trkpt lat="50.18507" lon="1.63123">
        <ele>13.2</ele>
        <time>2023-06-11T16:50:24Z</time>
      </trkpt>
      <trkpt lat="50.18503" lon="1.63123">
        <ele>13.4</ele>
        <time>2023-06-11T16:50:26Z</time>
      </trkpt>
      <trkpt lat="50.18498" lon="1.63124">
        <ele>13.6</ele>
        <time>2023-06-11T16:50:28Z</time>
      </trkpt>
      <trkpt lat="50.18493" lon="1.63125">
        <ele>13.9</ele>
        <time>2023-06-11T16:50:30Z</time>
      </trkpt>
      <trkpt lat="50.18488" lon="1.63125">
        <ele>14.1</ele>
        <time>2023-06-11T16:50:32Z</time>
      </trkpt>
      <trkpt lat="50.1848" lon="1.63127">
        <ele>14.6</ele>
        <time>2023-06-11T16:50:36Z</time>
      </trkpt>
      <trkpt lat="50.18476" lon="1.63128">
        <ele>14.8</ele>
        <time>2023-06-11T16:50:38Z</time>
      </trkpt>
      <trkpt lat="50.18467" lon="1.63131">
        <ele>15.4</ele>
        <time>2023-06-11T16:50:42Z</time>
      </trkpt>
      <trkpt lat="50.18463" lon="1.63134">
        <ele>15.5</ele>
        <time>2023-06-11T16:50:44Z</time>
      </trkpt>
      <trkpt lat="50.18455" lon="1.6314">
        <ele>15.7</ele>
        <time>2023-06-11T16:50:48Z</time>
      </trkpt>
      <trkpt lat="50.18447" lon="1.63147">
        <ele>16.6</ele>
        <time>2023-06-11T16:50:52Z</time>
      </trkpt>
      <trkpt lat="50.18442" lon="1.63151">
        <ele>17</ele>
        <time>2023-06-11T16:50:54Z</time>
      </trkpt>
      <trkpt lat="50.18437" lon="1.63154">
        <ele>17.5</ele>
        <time>2023-06-11T16:50:56Z</time>
      </trkpt>
      <trkpt lat="50.18433" lon="1.63157">
        <ele>17.7</ele>
        <time>2023-06-11T16:50:58Z</time>
      </trkpt>
      <trkpt lat="50.18428" lon="1.6316">
        <ele>18</ele>
        <time>2023-06-11T16:51:00Z</time>
      </trkpt>
      <trkpt lat="50.18423" lon="1.63162">
        <ele>18</ele>
        <time>2023-06-11T16:51:02Z</time>
      </trkpt>
      <trkpt lat="50.18418" lon="1.63164">
        <ele>18.1</ele>
        <time>2023-06-11T16:51:04Z</time>
      </trkpt>
      <trkpt lat="50.18413" lon="1.63167">
        <ele>18.5</ele>
        <time>2023-06-11T16:51:06Z</time>
      </trkpt>
      <trkpt lat="50.18409" lon="1.6317">
        <ele>19.5</ele>
        <time>2023-06-11T16:51:08Z</time>
      </trkpt>
      <trkpt lat="50.18401" lon="1.63175">
        <ele>20.7</ele>
        <time>2023-06-11T16:51:12Z</time>
      </trkpt>
      <trkpt lat="50.18392" lon="1.63179">
        <ele>21.4</ele>
        <time>2023-06-11T16:51:16Z</time>
      </trkpt>
      <trkpt lat="50.18385" lon="1.63183">
        <ele>21.7</ele>
        <time>2023-06-11T16:51:20Z</time>
      </trkpt>
      <trkpt lat="50.18379" lon="1.63188">
        <ele>21.8</ele>
        <time>2023-06-11T16:51:24Z</time>
      </trkpt>
      <trkpt lat="50.18371" lon="1.63193">
        <ele>21.8</ele>
        <time>2023-06-11T16:51:28Z</time>
      </trkpt>
      <trkpt lat="50.18363" lon="1.63198">
        <ele>22.2</ele>
        <time>2023-06-11T16:51:32Z</time>
      </trkpt>
      <trkpt lat="50.18353" lon="1.63199">
        <ele>23.5</ele>
        <time>2023-06-11T16:51:36Z</time>
      </trkpt>
      <trkpt lat="50.18349" lon="1.63202">
        <ele>24.1</ele>
        <time>2023-06-11T16:51:38Z</time>
      </trkpt>
      <trkpt lat="50.18344" lon="1.63205">
        <ele>24.6</ele>
        <time>2023-06-11T16:51:40Z</time>
      </trkpt>
      <trkpt lat="50.18336" lon="1.63211">
        <ele>25</ele>
        <time>2023-06-11T16:51:44Z</time>
      </trkpt>
      <trkpt lat="50.18332" lon="1.63214">
        <ele>25</ele>
        <time>2023-06-11T16:51:46Z</time>
      </trkpt>
      <trkpt lat="50.18324" lon="1.63219">
        <ele>25.2</ele>
        <time>2023-06-11T16:51:50Z</time>
      </trkpt>
      <trkpt lat="50.18316" lon="1.63224">
        <ele>25.9</ele>
        <time>2023-06-11T16:51:54Z</time>
      </trkpt>
      <trkpt lat="50.18308" lon="1.6323">
        <ele>26.8</ele>
        <time>2023-06-11T16:51:58Z</time>
      </trkpt>
      <trkpt lat="50.183" lon="1.63234">
        <ele>27.4</ele>
        <time>2023-06-11T16:52:02Z</time>
      </trkpt>
      <trkpt lat="50.18293" lon="1.6324">
        <ele>27.8</ele>
        <time>2023-06-11T16:52:06Z</time>
      </trkpt>
      <trkpt lat="50.18286" lon="1.63245">
        <ele>28</ele>
        <time>2023-06-11T16:52:10Z</time>
      </trkpt>
      <trkpt lat="50.18278" lon="1.63249">
        <ele>28.1</ele>
        <time>2023-06-11T16:52:14Z</time>
      </trkpt>
      <trkpt lat="50.1827" lon="1.63252">
        <ele>28.7</ele>
        <time>2023-06-11T16:52:18Z</time>
      </trkpt>
      <trkpt lat="50.18263" lon="1.63255">
        <ele>29.5</ele>
        <time>2023-06-11T16:52:22Z</time>
      </trkpt>
      <trkpt lat="50.18255" lon="1.63257">
        <ele>30.2</ele>
        <time>2023-06-11T16:52:26Z</time>
      </trkpt>
      <trkpt lat="50.18249" lon="1.63259">
        <ele>30.8</ele>
        <time>2023-06-11T16:52:30Z</time>
      </trkpt>
      <trkpt lat="50.18241" lon="1.6326">
        <ele>31.5</ele>
        <time>2023-06-11T16:52:34Z</time>
      </trkpt>
      <trkpt lat="50.18232" lon="1.63261">
        <ele>32.2</ele>
        <time>2023-06-11T16:52:38Z</time>
      </trkpt>
      <trkpt lat="50.18225" lon="1.63264">
        <ele>32.8</ele>
        <time>2023-06-11T16:52:42Z</time>
      </trkpt>
      <trkpt lat="50.18217" lon="1.63266">
        <ele>33.1</ele>
        <time>2023-06-11T16:52:46Z</time>
      </trkpt>
      <trkpt lat="50.18211" lon="1.63267">
        <ele>33.2</ele>
        <time>2023-06-11T16:52:50Z</time>
      </trkpt>
      <trkpt lat="50.18204" lon="1.63269">
        <ele>33.5</ele>
        <time>2023-06-11T16:52:54Z</time>
      </trkpt>
      <trkpt lat="50.18199" lon="1.63271">
        <ele>33.6</ele>
        <time>2023-06-11T16:52:56Z</time>
      </trkpt>
      <trkpt lat="50.18195" lon="1.63273">
        <ele>33.8</ele>
        <time>2023-06-11T16:52:58Z</time>
      </trkpt>
      <trkpt lat="50.18186" lon="1.63277">
        <ele>34</ele>
        <time>2023-06-11T16:53:02Z</time>
      </trkpt>
      <trkpt lat="50.18178" lon="1.63281">
        <ele>34.1</ele>
        <time>2023-06-11T16:53:06Z</time>
      </trkpt>
      <trkpt lat="50.18172" lon="1.63283">
        <ele>34.1</ele>
        <time>2023-06-11T16:53:10Z</time>
      </trkpt>
      <trkpt lat="50.18164" lon="1.63289">
        <ele>34.5</ele>
        <time>2023-06-11T16:53:22Z</time>
      </trkpt>
      <trkpt lat="50.18158" lon="1.63292">
        <ele>34.7</ele>
        <time>2023-06-11T16:53:24Z</time>
      </trkpt>
      <trkpt lat="50.18153" lon="1.63295">
        <ele>34.8</ele>
        <time>2023-06-11T16:53:26Z</time>
      </trkpt>
      <trkpt lat="50.18147" lon="1.63298">
        <ele>34.9</ele>
        <time>2023-06-11T16:53:28Z</time>
      </trkpt>
      <trkpt lat="50.18142" lon="1.63303">
        <ele>35</ele>
        <time>2023-06-11T16:53:30Z</time>
      </trkpt>
      <trkpt lat="50.18136" lon="1.63307">
        <ele>35</ele>
        <time>2023-06-11T16:53:32Z</time>
      </trkpt>
      <trkpt lat="50.1813" lon="1.6331">
        <ele>34.9</ele>
        <time>2023-06-11T16:53:34Z</time>
      </trkpt>
      <trkpt lat="50.18124" lon="1.63315">
        <ele>34.8</ele>
        <time>2023-06-11T16:53:36Z</time>
      </trkpt>
      <trkpt lat="50.18119" lon="1.63319">
        <ele>34.7</ele>
        <time>2023-06-11T16:53:38Z</time>
      </trkpt>
      <trkpt lat="50.18114" lon="1.63323">
        <ele>34.4</ele>
        <time>2023-06-11T16:53:40Z</time>
      </trkpt>
      <trkpt lat="50.18109" lon="1.63327">
        <ele>34.2</ele>
        <time>2023-06-11T16:53:42Z</time>
      </trkpt>
      <trkpt lat="50.18104" lon="1.63331">
        <ele>34.1</ele>
        <time>2023-06-11T16:53:44Z</time>
      </trkpt>
      <trkpt lat="50.18098" lon="1.63336">
        <ele>34</ele>
        <time>2023-06-11T16:53:46Z</time>
      </trkpt>
      <trkpt lat="50.18092" lon="1.63341">
        <ele>34</ele>
        <time>2023-06-11T16:53:48Z</time>
      </trkpt>
      <trkpt lat="50.18086" lon="1.63345">
        <ele>34</ele>
        <time>2023-06-11T16:53:50Z</time>
      </trkpt>
      <trkpt lat="50.1808" lon="1.63349">
        <ele>34</ele>
        <time>2023-06-11T16:53:52Z</time>
      </trkpt>
      <trkpt lat="50.18074" lon="1.63353">
        <ele>34</ele>
        <time>2023-06-11T16:53:54Z</time>
      </trkpt>
      <trkpt lat="50.18067" lon="1.63358">
        <ele>34</ele>
        <time>2023-06-11T16:53:56Z</time>
      </trkpt>
      <trkpt lat="50.18062" lon="1.63362">
        <ele>34</ele>
        <time>2023-06-11T16:53:58Z</time>
      </trkpt>
      <trkpt lat="50.18056" lon="1.63365">
        <ele>34</ele>
        <time>2023-06-11T16:54:00Z</time>
      </trkpt>
      <trkpt lat="50.18051" lon="1.63368">
        <ele>34</ele>
        <time>2023-06-11T16:54:02Z</time>
      </trkpt>
      <trkpt lat="50.18043" lon="1.63375">
        <ele>34</ele>
        <time>2023-06-11T16:54:06Z</time>
      </trkpt>
      <trkpt lat="50.18037" lon="1.63379">
        <ele>34</ele>
        <time>2023-06-11T16:54:08Z</time>
      </trkpt>
      <trkpt lat="50.18031" lon="1.63384">
        <ele>34</ele>
        <time>2023-06-11T16:54:10Z</time>
      </trkpt>
      <trkpt lat="50.18026" lon="1.63387">
        <ele>33.9</ele>
        <time>2023-06-11T16:54:12Z</time>
      </trkpt>
      <trkpt lat="50.1802" lon="1.63391">
        <ele>33.7</ele>
        <time>2023-06-11T16:54:14Z</time>
      </trkpt>
      <trkpt lat="50.18015" lon="1.63396">
        <ele>33.7</ele>
        <time>2023-06-11T16:54:16Z</time>
      </trkpt>
      <trkpt lat="50.18009" lon="1.63401">
        <ele>33.6</ele>
        <time>2023-06-11T16:54:18Z</time>
      </trkpt>
      <trkpt lat="50.18002" lon="1.63408">
        <ele>33.7</ele>
        <time>2023-06-11T16:54:20Z</time>
      </trkpt>
      <trkpt lat="50.17995" lon="1.63413">
        <ele>33.4</ele>
        <time>2023-06-11T16:54:22Z</time>
      </trkpt>
      <trkpt lat="50.17987" lon="1.63421">
        <ele>32.7</ele>
        <time>2023-06-11T16:54:24Z</time>
      </trkpt>
      <trkpt lat="50.17977" lon="1.63427">
        <ele>32.1</ele>
        <time>2023-06-11T16:54:26Z</time>
      </trkpt>
      <trkpt lat="50.17966" lon="1.63435">
        <ele>31.9</ele>
        <time>2023-06-11T16:54:28Z</time>
      </trkpt>
      <trkpt lat="50.17954" lon="1.63443">
        <ele>31</ele>
        <time>2023-06-11T16:54:30Z</time>
      </trkpt>
      <trkpt lat="50.17941" lon="1.6345">
        <ele>29.6</ele>
        <time>2023-06-11T16:54:32Z</time>
      </trkpt>
      <trkpt lat="50.17927" lon="1.63458">
        <ele>28.1</ele>
        <time>2023-06-11T16:54:34Z</time>
      </trkpt>
      <trkpt lat="50.17913" lon="1.63466">
        <ele>26.8</ele>
        <time>2023-06-11T16:54:36Z</time>
      </trkpt>
      <trkpt lat="50.17899" lon="1.63474">
        <ele>25.7</ele>
        <time>2023-06-11T16:54:38Z</time>
      </trkpt>
      <trkpt lat="50.17884" lon="1.63483">
        <ele>24.2</ele>
        <time>2023-06-11T16:54:40Z</time>
      </trkpt>
      <trkpt lat="50.17869" lon="1.6349">
        <ele>22.7</ele>
        <time>2023-06-11T16:54:42Z</time>
      </trkpt>
      <trkpt lat="50.17854" lon="1.63497">
        <ele>22</ele>
        <time>2023-06-11T16:54:44Z</time>
      </trkpt>
      <trkpt lat="50.17841" lon="1.63503">
        <ele>21.8</ele>
        <time>2023-06-11T16:54:46Z</time>
      </trkpt>
      <trkpt lat="50.17829" lon="1.63509">
        <ele>21.2</ele>
        <time>2023-06-11T16:54:48Z</time>
      </trkpt>
      <trkpt lat="50.17819" lon="1.63517">
        <ele>21</ele>
        <time>2023-06-11T16:54:50Z</time>
      </trkpt>
      <trkpt lat="50.17809" lon="1.63524">
        <ele>21.5</ele>
        <time>2023-06-11T16:54:52Z</time>
      </trkpt>
      <trkpt lat="50.17799" lon="1.63526">
        <ele>21.9</ele>
        <time>2023-06-11T16:54:54Z</time>
      </trkpt>
      <trkpt lat="50.17787" lon="1.63526">
        <ele>21.9</ele>
        <time>2023-06-11T16:54:56Z</time>
      </trkpt>
      <trkpt lat="50.17776" lon="1.63527">
        <ele>22.1</ele>
        <time>2023-06-11T16:54:58Z</time>
      </trkpt>
      <trkpt lat="50.17765" lon="1.6353">
        <ele>22.5</ele>
        <time>2023-06-11T16:55:00Z</time>
      </trkpt>
      <trkpt lat="50.17754" lon="1.63533">
        <ele>23</ele>
        <time>2023-06-11T16:55:02Z</time>
      </trkpt>
      <trkpt lat="50.17744" lon="1.63535">
        <ele>23.7</ele>
        <time>2023-06-11T16:55:04Z</time>
      </trkpt>
      <trkpt lat="50.17735" lon="1.63537">
        <ele>24.4</ele>
        <time>2023-06-11T16:55:06Z</time>
      </trkpt>
      <trkpt lat="50.17727" lon="1.63539">
        <ele>25</ele>
        <time>2023-06-11T16:55:08Z</time>
      </trkpt>
      <trkpt lat="50.1772" lon="1.63539">
        <ele>25.5</ele>
        <time>2023-06-11T16:55:10Z</time>
      </trkpt>
      <trkpt lat="50.17713" lon="1.63541">
        <ele>26</ele>
        <time>2023-06-11T16:55:12Z</time>
      </trkpt>
      <trkpt lat="50.17707" lon="1.63542">
        <ele>26.4</ele>
        <time>2023-06-11T16:55:14Z</time>
      </trkpt>
      <trkpt lat="50.177" lon="1.63543">
        <ele>26.7</ele>
        <time>2023-06-11T16:55:16Z</time>
      </trkpt>
      <trkpt lat="50.17693" lon="1.63544">
        <ele>27.1</ele>
        <time>2023-06-11T16:55:18Z</time>
      </trkpt>
      <trkpt lat="50.17686" lon="1.63546">
        <ele>27.3</ele>
        <time>2023-06-11T16:55:20Z</time>
      </trkpt>
      <trkpt lat="50.17681" lon="1.63545">
        <ele>27.5</ele>
        <time>2023-06-11T16:55:22Z</time>
      </trkpt>
      <trkpt lat="50.17675" lon="1.63545">
        <ele>27.7</ele>
        <time>2023-06-11T16:55:24Z</time>
      </trkpt>
      <trkpt lat="50.17669" lon="1.63546">
        <ele>27.9</ele>
        <time>2023-06-11T16:55:26Z</time>
      </trkpt>
      <trkpt lat="50.17661" lon="1.63547">
        <ele>28.2</ele>
        <time>2023-06-11T16:55:28Z</time>
      </trkpt>
      <trkpt lat="50.17654" lon="1.63547">
        <ele>28.4</ele>
        <time>2023-06-11T16:55:30Z</time>
      </trkpt>
      <trkpt lat="50.17648" lon="1.6355">
        <ele>28.7</ele>
        <time>2023-06-11T16:55:32Z</time>
      </trkpt>
      <trkpt lat="50.17643" lon="1.6355">
        <ele>28.9</ele>
        <time>2023-06-11T16:55:34Z</time>
      </trkpt>
      <trkpt lat="50.17636" lon="1.63552">
        <ele>29.1</ele>
        <time>2023-06-11T16:55:36Z</time>
      </trkpt>
      <trkpt lat="50.17628" lon="1.63553">
        <ele>29.3</ele>
        <time>2023-06-11T16:55:38Z</time>
      </trkpt>
      <trkpt lat="50.17622" lon="1.63554">
        <ele>29.6</ele>
        <time>2023-06-11T16:55:40Z</time>
      </trkpt>
      <trkpt lat="50.17615" lon="1.63555">
        <ele>29.8</ele>
        <time>2023-06-11T16:55:42Z</time>
      </trkpt>
      <trkpt lat="50.17608" lon="1.63557">
        <ele>29.8</ele>
        <time>2023-06-11T16:55:44Z</time>
      </trkpt>
      <trkpt lat="50.176" lon="1.63557">
        <ele>29.6</ele>
        <time>2023-06-11T16:55:46Z</time>
      </trkpt>
      <trkpt lat="50.17593" lon="1.63561">
        <ele>29.3</ele>
        <time>2023-06-11T16:55:48Z</time>
      </trkpt>
      <trkpt lat="50.17587" lon="1.63562">
        <ele>29.1</ele>
        <time>2023-06-11T16:55:50Z</time>
      </trkpt>
      <trkpt lat="50.1758" lon="1.63564">
        <ele>29</ele>
        <time>2023-06-11T16:55:52Z</time>
      </trkpt>
      <trkpt lat="50.17573" lon="1.63565">
        <ele>29</ele>
        <time>2023-06-11T16:55:54Z</time>
      </trkpt>
      <trkpt lat="50.17566" lon="1.63567">
        <ele>29</ele>
        <time>2023-06-11T16:55:56Z</time>
      </trkpt>
      <trkpt lat="50.17558" lon="1.63567">
        <ele>29</ele>
        <time>2023-06-11T16:55:58Z</time>
      </trkpt>
      <trkpt lat="50.1755" lon="1.63571">
        <ele>29</ele>
        <time>2023-06-11T16:56:00Z</time>
      </trkpt>
      <trkpt lat="50.17542" lon="1.63573">
        <ele>29</ele>
        <time>2023-06-11T16:56:02Z</time>
      </trkpt>
      <trkpt lat="50.17534" lon="1.63575">
        <ele>29</ele>
        <time>2023-06-11T16:56:04Z</time>
      </trkpt>
      <trkpt lat="50.17526" lon="1.63577">
        <ele>29</ele>
        <time>2023-06-11T16:56:06Z</time>
      </trkpt>
      <trkpt lat="50.17517" lon="1.63581">
        <ele>29</ele>
        <time>2023-06-11T16:56:08Z</time>
      </trkpt>
      <trkpt lat="50.1751" lon="1.63584">
        <ele>29</ele>
        <time>2023-06-11T16:56:10Z</time>
      </trkpt>
      <trkpt lat="50.17502" lon="1.63586">
        <ele>29</ele>
        <time>2023-06-11T16:56:12Z</time>
      </trkpt>
      <trkpt lat="50.17494" lon="1.63588">
        <ele>29</ele>
        <time>2023-06-11T16:56:14Z</time>
      </trkpt>
      <trkpt lat="50.17489" lon="1.63589">
        <ele>29</ele>
        <time>2023-06-11T16:56:16Z</time>
      </trkpt>
      <trkpt lat="50.17481" lon="1.63591">
        <ele>29</ele>
        <time>2023-06-11T16:56:18Z</time>
      </trkpt>
      <trkpt lat="50.17474" lon="1.63596">
        <ele>29</ele>
        <time>2023-06-11T16:56:20Z</time>
      </trkpt>
      <trkpt lat="50.17467" lon="1.63599">
        <ele>29</ele>
        <time>2023-06-11T16:56:22Z</time>
      </trkpt>
      <trkpt lat="50.17461" lon="1.63601">
        <ele>29</ele>
        <time>2023-06-11T16:56:24Z</time>
      </trkpt>
      <trkpt lat="50.17455" lon="1.63602">
        <ele>29</ele>
        <time>2023-06-11T16:56:26Z</time>
      </trkpt>
      <trkpt lat="50.17448" lon="1.63603">
        <ele>29</ele>
        <time>2023-06-11T16:56:28Z</time>
      </trkpt>
      <trkpt lat="50.17442" lon="1.63602">
        <ele>29</ele>
        <time>2023-06-11T16:56:30Z</time>
      </trkpt>
      <trkpt lat="50.17436" lon="1.63601">
        <ele>29</ele>
        <time>2023-06-11T16:56:32Z</time>
      </trkpt>
      <trkpt lat="50.17429" lon="1.63603">
        <ele>29</ele>
        <time>2023-06-11T16:56:34Z</time>
      </trkpt>
      <trkpt lat="50.17421" lon="1.63604">
        <ele>29</ele>
        <time>2023-06-11T16:56:36Z</time>
      </trkpt>
      <trkpt lat="50.17414" lon="1.63606">
        <ele>29</ele>
        <time>2023-06-11T16:56:38Z</time>
      </trkpt>
      <trkpt lat="50.17407" lon="1.63607">
        <ele>29</ele>
        <time>2023-06-11T16:56:40Z</time>
      </trkpt>
      <trkpt lat="50.17401" lon="1.6361">
        <ele>29</ele>
        <time>2023-06-11T16:56:42Z</time>
      </trkpt>
      <trkpt lat="50.17396" lon="1.63616">
        <ele>28.8</ele>
        <time>2023-06-11T16:56:44Z</time>
      </trkpt>
      <trkpt lat="50.17389" lon="1.63619">
        <ele>28.7</ele>
        <time>2023-06-11T16:56:46Z</time>
      </trkpt>
      <trkpt lat="50.17383" lon="1.63621">
        <ele>28.7</ele>
        <time>2023-06-11T16:56:48Z</time>
      </trkpt>
      <trkpt lat="50.17378" lon="1.6362">
        <ele>28.8</ele>
        <time>2023-06-11T16:56:50Z</time>
      </trkpt>
      <trkpt lat="50.17372" lon="1.63619">
        <ele>28.9</ele>
        <time>2023-06-11T16:56:52Z</time>
      </trkpt>
      <trkpt lat="50.17366" lon="1.63619">
        <ele>29</ele>
        <time>2023-06-11T16:56:54Z</time>
      </trkpt>
      <trkpt lat="50.17359" lon="1.63619">
        <ele>29</ele>
        <time>2023-06-11T16:56:56Z</time>
      </trkpt>
      <trkpt lat="50.17353" lon="1.63625">
        <ele>29</ele>
        <time>2023-06-11T16:56:58Z</time>
      </trkpt>
      <trkpt lat="50.17352" lon="1.63636">
        <ele>29</ele>
        <time>2023-06-11T16:57:00Z</time>
      </trkpt>
      <trkpt lat="50.17354" lon="1.63647">
        <ele>28.8</ele>
        <time>2023-06-11T16:57:02Z</time>
      </trkpt>
      <trkpt lat="50.17358" lon="1.63657">
        <ele>28.4</ele>
        <time>2023-06-11T16:57:04Z</time>
      </trkpt>
      <trkpt lat="50.17361" lon="1.63668">
        <ele>28</ele>
        <time>2023-06-11T16:57:06Z</time>
      </trkpt>
      <trkpt lat="50.17365" lon="1.63679">
        <ele>28</ele>
        <time>2023-06-11T16:57:08Z</time>
      </trkpt>
      <trkpt lat="50.17369" lon="1.6369">
        <ele>28</ele>
        <time>2023-06-11T16:57:10Z</time>
      </trkpt>
      <trkpt lat="50.17372" lon="1.63698">
        <ele>28</ele>
        <time>2023-06-11T16:57:12Z</time>
      </trkpt>
      <trkpt lat="50.17371" lon="1.63705">
        <ele>28</ele>
        <time>2023-06-11T16:57:14Z</time>
      </trkpt>
      <trkpt lat="50.17378" lon="1.63718">
        <ele>28</ele>
        <time>2023-06-11T16:57:18Z</time>
      </trkpt>
      <trkpt lat="50.17383" lon="1.63725">
        <ele>27.9</ele>
        <time>2023-06-11T16:57:20Z</time>
      </trkpt>
      <trkpt lat="50.17389" lon="1.63732">
        <ele>27.6</ele>
        <time>2023-06-11T16:57:22Z</time>
      </trkpt>
      <trkpt lat="50.17394" lon="1.63739">
        <ele>27.3</ele>
        <time>2023-06-11T16:57:24Z</time>
      </trkpt>
      <trkpt lat="50.174" lon="1.63745">
        <ele>27.1</ele>
        <time>2023-06-11T16:57:26Z</time>
      </trkpt>
      <trkpt lat="50.17405" lon="1.6375">
        <ele>27</ele>
        <time>2023-06-11T16:57:28Z</time>
      </trkpt>
      <trkpt lat="50.1741" lon="1.63757">
        <ele>27</ele>
        <time>2023-06-11T16:57:32Z</time>
      </trkpt>
      <trkpt lat="50.17419" lon="1.63751">
        <ele>27</ele>
        <time>2023-06-11T16:57:38Z</time>
      </trkpt>
      <trkpt lat="50.17424" lon="1.63752">
        <ele>27</ele>
        <time>2023-06-11T16:57:40Z</time>
      </trkpt>
      <trkpt lat="50.1743" lon="1.63755">
        <ele>26.9</ele>
        <time>2023-06-11T16:57:42Z</time>
      </trkpt>
      <trkpt lat="50.17436" lon="1.63754">
        <ele>26.9</ele>
        <time>2023-06-11T16:57:44Z</time>
      </trkpt>
      <trkpt lat="50.17442" lon="1.63751">
        <ele>27</ele>
        <time>2023-06-11T16:57:46Z</time>
      </trkpt>
      <trkpt lat="50.17448" lon="1.63749">
        <ele>27</ele>
        <time>2023-06-11T16:57:48Z</time>
      </trkpt>
      <trkpt lat="50.17454" lon="1.63749">
        <ele>27</ele>
        <time>2023-06-11T16:57:50Z</time>
      </trkpt>
      <trkpt lat="50.17461" lon="1.63749">
        <ele>27</ele>
        <time>2023-06-11T16:57:52Z</time>
      </trkpt>
      <trkpt lat="50.17467" lon="1.63747">
        <ele>27</ele>
        <time>2023-06-11T16:57:54Z</time>
      </trkpt>
      <trkpt lat="50.17473" lon="1.63744">
        <ele>27</ele>
        <time>2023-06-11T16:57:56Z</time>
      </trkpt>
      <trkpt lat="50.17478" lon="1.63741">
        <ele>27</ele>
        <time>2023-06-11T16:57:58Z</time>
      </trkpt>
      <trkpt lat="50.17483" lon="1.63736">
        <ele>27</ele>
        <time>2023-06-11T16:58:00Z</time>
      </trkpt>
      <trkpt lat="50.17487" lon="1.6373">
        <ele>27</ele>
        <time>2023-06-11T16:58:02Z</time>
      </trkpt>
      <trkpt lat="50.1749" lon="1.63724">
        <ele>27</ele>
        <time>2023-06-11T16:58:04Z</time>
      </trkpt>
    </trkseg>
  </trk>
</gpx>